GFSGL_prec_precacc_027.txt.gz
Total_Precipitation_Accumulation
0.05 0.01 0.02 0.05 0.05 0.06 0.05 0.05 0.04 0.04 0.03 0.04 0.04 0.03 0.02 0.01 0.01 0.01 0.02 0.01 0.01 0.00 0.00 0.00 0.00 0.00 0.00 0.00 0.00 0.00 0.00 0.00 0.00 0.00 0.00 0.00 0.00 0.00 0.00 0.00 0.00 0.00 0.00
0.03 0.01 0.02 0.05 0.05 0.05 0.05 0.05 0.04 0.04 0.04 0.04 0.03 0.02 0.02 0.01 0.01 0.01 0.02 0.02 0.02 0.01 0.01 0.01 0.00 0.00 0.00 0.00 0.00 0.00 0.00 0.00 0.00 0.01 0.00 0.00 0.00 0.00 0.00 0.00 0.00 0.00 0.00
0.04 0.04 0.04 0.04 0.04 0.04 0.06 0.07 0.06 0.06 0.06 0.04 0.02 0.02 0.02 0.02 0.01 0.02 0.02 0.01 0.00 0.00 0.00 0.00 0.00 0.00 0.00 0.00 0.00 0.00 0.00 0.00 0.00 0.01 0.00 0.00 0.00 0.01 0.02 0.00 0.00 0.00 0.00
0.11 0.08 0.06 0.08 0.07 0.06 0.05 0.06 0.06 0.06 0.05 0.04 0.05 0.06 0.05 0.04 0.05 0.08 0.07 0.03 0.02 0.00 0.00 0.00 0.00 0.00 0.00 0.00 0.00 0.00 0.00 0.00 0.00 0.01 0.07 0.05 0.04 0.03 0.01 0.00 0.00 0.00 0.00
0.16 0.13 0.09 0.08 0.08 0.06 0.04 0.05 0.05 0.04 0.03 0.02 0.04 0.11 0.14 0.14 0.11 0.06 0.03 0.01 0.00 0.00 0.00 0.00 0.00 0.00 0.00 0.00 0.00 0.00 0.00 0.02 0.09 0.18 0.12 0.10 0.06 0.00 0.00 0.00 0.00 0.01 0.01
0.11 0.11 0.08 0.08 0.08 0.08 0.08 0.04 0.06 0.05 0.05 0.07 0.06 0.05 0.07 0.09 0.10 0.07 0.02 0.00 0.00 0.00 0.00 0.00 0.00 0.00 0.00 0.00 0.00 0.00 0.03 0.15 0.18 0.18 0.15 0.04 0.00 0.00 0.00 0.02 0.06 0.06 0.05
0.15 0.17 0.17 0.13 0.20 0.20 0.15 0.12 0.09 0.11 0.19 0.19 0.15 0.16 0.14 0.07 0.04 0.03 0.01 0.01 0.01 0.00 0.00 0.00 0.00 0.00 0.00 0.00 0.00 0.06 0.13 0.10 0.09 0.06 0.01 0.00 0.01 0.03 0.10 0.09 0.07 0.10 0.05
0.21 0.33 0.57 0.47 0.52 0.58 0.73 0.58 0.55 0.45 0.32 0.32 0.40 0.38 0.33 0.25 0.16 0.10 0.04 0.02 0.01 0.00 0.00 0.00 0.00 0.00 0.00 0.01 0.09 0.16 0.06 0.02 0.00 0.00 0.00 0.01 0.04 0.04 0.06 0.15 0.08 0.06 0.02
0.61 0.78 0.79 0.69 0.71 0.76 0.84 0.81 0.62 0.66 0.55 0.42 0.29 0.20 0.13 0.09 0.04 0.02 0.01 0.00 0.00 0.00 0.00 0.00 0.00 0.01 0.01 0.06 0.08 0.04 0.00 0.00 0.00 0.01 0.02 0.02 0.01 0.00 0.00 0.06 0.07 0.07 0.05
0.75 0.70 0.73 0.61 0.57 0.60 0.63 0.49 0.40 0.34 0.25 0.13 0.10 0.07 0.04 0.01 0.00 0.00 0.00 0.00 0.00 0.00 0.00 0.00 0.00 0.01 0.04 0.08 0.03 0.00 0.00 0.00 0.05 0.02 0.00 0.00 0.00 0.00 0.00 0.01 0.07 0.24 0.12
0.80 0.75 0.47 0.54 0.25 0.26 0.26 0.22 0.12 0.05 0.03 0.02 0.01 0.00 0.00 0.00 0.00 0.00 0.00 0.00 0.00 0.00 0.00 0.00 0.00 0.02 0.04 0.02 0.01 0.00 0.01 0.02 0.02 0.00 0.00 0.00 0.00 0.00 0.00 0.00 0.02 0.21 0.38
0.34 0.36 0.20 0.13 0.09 0.03 0.02 0.01 0.01 0.00 0.00 0.00 0.00 0.00 0.00 0.00 0.00 0.00 0.00 0.00 0.01 0.01 0.01 0.00 0.01 0.03 0.01 0.00 0.00 0.01 0.02 0.01 0.00 0.00 0.00 0.00 0.00 0.00 0.00 0.00 0.00 0.02 0.09
0.01 0.00 0.00 0.00 0.00 0.00 0.00 0.00 0.00 0.00 0.00 0.00 0.00 0.00 0.00 0.00 0.00 0.00 0.00 0.00 0.01 0.02 0.01 0.01 0.01 0.00 0.00 0.00 0.00 0.00 0.00 0.00 0.00 0.01 0.01 0.00 0.00 0.00 0.00 0.00 0.00 0.00 0.01
0.00 0.00 0.00 0.00 0.00 0.00 0.00 0.00 0.00 0.00 0.00 0.00 0.00 0.00 0.00 0.00 0.00 0.00 0.00 0.00 0.01 0.01 0.00 0.00 0.00 0.00 0.00 0.00 0.00 0.00 0.00 0.00 0.01 0.03 0.01 0.00 0.00 0.00 0.00 0.00 0.03 0.01 0.05
0.00 0.00 0.00 0.00 0.00 0.00 0.00 0.00 0.00 0.00 0.00 0.00 0.00 0.00 0.00 0.00 0.00 0.00 0.01 0.02 0.01 0.01 0.01 0.00 0.00 0.00 0.00 0.00 0.00 0.00 0.00 0.00 0.01 0.01 0.02 0.02 0.01 0.00 0.00 0.00 0.04 0.08 0.09
0.00 0.00 0.00 0.00 0.00 0.00 0.00 0.00 0.00 0.00 0.00 0.00 0.00 0.00 0.00 0.00 0.00 0.00 0.01 0.01 0.01 0.01 0.00 0.00 0.00 0.00 0.00 0.00 0.00 0.00 0.00 0.00 0.01 0.02 0.03 0.03 0.06 0.04 0.04 0.02 0.02 0.06 0.09
0.00 0.00 0.00 0.00 0.00 0.00 0.00 0.00 0.00 0.00 0.00 0.00 0.00 0.00 0.00 0.00 0.00 0.01 0.01 0.00 0.00 0.00 0.00 0.00 0.00 0.00 0.00 0.00 0.01 0.02 0.01 0.00 0.02 0.04 0.04 0.06 0.12 0.08 0.03 0.03 0.02 0.04 0.03
0.00 0.00 0.00 0.00 0.00 0.00 0.00 0.00 0.00 0.00 0.00 0.00 0.00 0.00 0.00 0.00 0.00 0.01 0.00 0.00 0.00 0.00 0.00 0.00 0.00 0.00 0.00 0.01 0.02 0.03 0.02 0.01 0.01 0.02 0.08 0.12 0.13 0.15 0.07 0.07 0.06 0.11 0.15
0.00 0.00 0.00 0.00 0.00 0.00 0.00 0.00 0.00 0.00 0.00 0.00 0.00 0.00 0.00 0.00 0.00 0.00 0.00 0.00 0.00 0.00 0.00 0.00 0.00 0.00 0.01 0.02 0.02 0.03 0.04 0.05 0.08 0.12 0.08 0.11 0.13 0.22 0.11 0.05 0.07 0.07 0.11
0.00 0.00 0.00 0.00 0.00 0.00 0.00 0.00 0.00 0.00 0.00 0.00 0.00 0.00 0.00 0.00 0.00 0.00 0.00 0.00 0.00 0.00 0.00 0.00 0.00 0.00 0.01 0.03 0.04 0.04 0.04 0.02 0.04 0.06 0.08 0.13 0.14 0.18 0.23 0.16 0.10 0.15 0.08
0.00 0.00 0.00 0.00 0.00 0.00 0.00 0.00 0.00 0.00 0.00 0.00 0.00 0.00 0.00 0.00 0.00 0.00 0.00 0.00 0.00 0.00 0.00 0.00 0.00 0.01 0.02 0.03 0.05 0.04 0.04 0.03 0.06 0.12 0.11 0.13 0.17 0.21 0.12 0.12 0.12 0.12 0.14
0.00 0.00 0.00 0.00 0.00 0.00 0.00 0.00 0.00 0.00 0.00 0.00 0.00 0.00 0.00 0.00 0.00 0.00 0.00 0.00 0.00 0.00 0.00 0.01 0.01 0.02 0.07 0.13 0.14 0.10 0.04 0.03 0.05 0.12 0.10 0.12 0.15 0.12 0.09 0.10 0.14 0.21 0.16
0.00 0.00 0.00 0.00 0.00 0.00 0.00 0.00 0.00 0.00 0.00 0.00 0.00 0.00 0.00 0.00 0.00 0.00 0.00 0.00 0.00 0.00 0.00 0.01 0.03 0.02 0.02 0.10 0.17 0.26 0.22 0.12 0.16 0.20 0.19 0.10 0.10 0.19 0.29 0.32 0.28 0.18 0.07
0.00 0.00 0.00 0.00 0.00 0.00 0.00 0.00 0.00 0.00 0.00 0.00 0.00 0.00 0.00 0.00 0.00 0.00 0.00 0.00 0.00 0.00 0.00 0.01 0.03 0.07 0.08 0.07 0.09 0.14 0.25 0.29 0.32 0.34 0.52 0.67 0.54 0.37 0.27 0.19 0.16 0.11 0.06
0.00 0.00 0.00 0.00 0.00 0.00 0.00 0.00 0.00 0.00 0.00 0.00 0.00 0.00 0.00 0.00 0.00 0.00 0.00 0.00 0.00 0.00 0.00 0.01 0.04 0.09 0.09 0.11 0.11 0.13 0.16 0.22 0.38 0.41 0.31 0.30 0.23 0.15 0.15 0.12 0.10 0.08 0.03
0.00 0.00 0.00 0.00 0.00 0.00 0.00 0.00 0.00 0.00 0.00 0.00 0.00 0.00 0.00 0.00 0.00 0.00 0.00 0.00 0.00 0.00 0.01 0.01 0.04 0.08 0.11 0.08 0.06 0.09 0.16 0.15 0.18 0.14 0.07 0.09 0.10 0.09 0.08 0.08 0.05 0.04 0.03

GFSGL_prec_precacc_030.txt.gz
Total_Precipitation_Accumulation
0.05 0.01 0.02 0.05 0.05 0.06 0.05 0.05 0.04 0.04 0.04 0.05 0.07 0.07 0.06 0.04 0.02 0.02 0.02 0.01 0.01 0.01 0.01 0.01 0.00 0.00 0.00 0.00 0.00 0.00 0.00 0.00 0.00 0.00 0.00 0.00 0.00 0.00 0.00 0.00 0.00 0.00 0.00
0.03 0.01 0.02 0.05 0.05 0.05 0.05 0.05 0.05 0.04 0.05 0.06 0.06 0.04 0.03 0.02 0.01 0.02 0.02 0.03 0.04 0.04 0.04 0.04 0.03 0.00 0.00 0.00 0.00 0.00 0.00 0.00 0.00 0.01 0.00 0.00 0.00 0.00 0.00 0.00 0.00 0.00 0.00
0.04 0.04 0.04 0.04 0.04 0.06 0.07 0.07 0.07 0.07 0.07 0.06 0.04 0.03 0.02 0.02 0.01 0.02 0.03 0.05 0.05 0.05 0.04 0.04 0.02 0.00 0.00 0.00 0.00 0.00 0.00 0.00 0.00 0.01 0.00 0.00 0.00 0.01 0.02 0.00 0.00 0.00 0.00
0.11 0.08 0.06 0.08 0.07 0.07 0.06 0.06 0.06 0.07 0.05 0.05 0.06 0.06 0.06 0.04 0.06 0.10 0.13 0.13 0.11 0.08 0.08 0.07 0.04 0.01 0.00 0.00 0.00 0.00 0.00 0.00 0.00 0.01 0.07 0.05 0.04 0.03 0.01 0.00 0.00 0.00 0.00
0.16 0.13 0.09 0.08 0.08 0.07 0.05 0.05 0.06 0.04 0.04 0.03 0.06 0.13 0.16 0.15 0.13 0.10 0.08 0.07 0.06 0.07 0.06 0.05 0.02 0.01 0.00 0.00 0.00 0.00 0.00 0.02 0.09 0.18 0.12 0.10 0.06 0.00 0.00 0.00 0.00 0.01 0.01
0.11 0.11 0.08 0.08 0.08 0.09 0.08 0.04 0.07 0.06 0.06 0.09 0.08 0.08 0.10 0.12 0.19 0.16 0.10 0.08 0.07 0.08 0.07 0.05 0.03 0.01 0.00 0.00 0.00 0.00 0.03 0.15 0.18 0.18 0.15 0.04 0.00 0.00 0.00 0.02 0.06 0.06 0.05
0.15 0.17 0.17 0.13 0.20 0.20 0.15 0.12 0.10 0.13 0.21 0.20 0.18 0.18 0.16 0.12 0.14 0.12 0.12 0.14 0.15 0.12 0.08 0.05 0.02 0.01 0.00 0.00 0.00 0.06 0.13 0.10 0.09 0.06 0.01 0.00 0.01 0.03 0.10 0.10 0.07 0.10 0.05
0.21 0.33 0.57 0.47 0.52 0.59 0.75 0.62 0.63 0.51 0.39 0.40 0.45 0.46 0.48 0.50 0.47 0.38 0.28 0.19 0.13 0.09 0.06 0.03 0.01 0.00 0.00 0.01 0.09 0.16 0.06 0.02 0.00 0.00 0.00 0.01 0.04 0.04 0.07 0.16 0.09 0.06 0.02
0.62 0.80 0.80 0.70 0.73 0.83 1.05 1.12 0.78 0.91 0.71 0.57 0.43 0.37 0.38 0.34 0.23 0.13 0.08 0.06 0.04 0.02 0.01 0.00 0.00 0.01 0.01 0.06 0.08 0.04 0.00 0.00 0.00 0.01 0.02 0.02 0.01 0.01 0.00 0.06 0.07 0.07 0.05
0.79 0.80 0.87 0.73 0.69 0.82 0.88 0.79 0.62 0.48 0.48 0.38 0.26 0.18 0.13 0.09 0.07 0.04 0.01 0.00 0.00 0.00 0.00 0.00 0.00 0.01 0.04 0.08 0.03 0.00 0.00 0.00 0.05 0.02 0.00 0.00 0.00 0.00 0.00 0.01 0.07 0.25 0.13
0.85 0.83 0.62 0.65 0.34 0.44 0.46 0.39 0.24 0.21 0.18 0.14 0.10 0.05 0.02 0.00 0.00 0.00 0.00 0.00 0.00 0.00 0.00 0.00 0.00 0.02 0.04 0.02 0.01 0.00 0.01 0.02 0.02 0.00 0.00 0.00 0.00 0.00 0.00 0.00 0.02 0.21 0.39
0.43 0.45 0.28 0.22 0.19 0.14 0.14 0.16 0.12 0.07 0.04 0.01 0.00 0.00 0.00 0.00 0.00 0.00 0.00 0.00 0.01 0.01 0.01 0.00 0.01 0.03 0.01 0.00 0.00 0.01 0.02 0.01 0.00 0.00 0.00 0.00 0.00 0.00 0.00 0.00 0.00 0.02 0.10
0.02 0.01 0.01 0.01 0.01 0.00 0.00 0.00 0.00 0.00 0.00 0.00 0.00 0.00 0.00 0.00 0.00 0.00 0.00 0.00 0.01 0.02 0.01 0.01 0.01 0.00 0.00 0.00 0.00 0.00 0.00 0.00 0.00 0.01 0.01 0.00 0.00 0.00 0.00 0.00 0.00 0.00 0.01
0.00 0.00 0.00 0.00 0.00 0.00 0.00 0.00 0.00 0.00 0.00 0.00 0.00 0.00 0.00 0.00 0.00 0.00 0.00 0.00 0.01 0.01 0.00 0.00 0.00 0.00 0.00 0.00 0.00 0.00 0.00 0.00 0.01 0.03 0.01 0.00 0.00 0.00 0.00 0.00 0.03 0.01 0.05
0.00 0.00 0.00 0.00 0.00 0.00 0.00 0.00 0.00 0.00 0.00 0.00 0.00 0.00 0.00 0.00 0.00 0.00 0.01 0.02 0.01 0.01 0.01 0.00 0.00 0.00 0.00 0.00 0.00 0.00 0.00 0.00 0.01 0.01 0.02 0.02 0.01 0.00 0.00 0.00 0.04 0.08 0.09
0.00 0.00 0.00 0.00 0.00 0.00 0.00 0.00 0.00 0.00 0.00 0.00 0.00 0.00 0.00 0.00 0.00 0.00 0.01 0.01 0.01 0.01 0.00 0.00 0.00 0.00 0.00 0.00 0.00 0.00 0.00 0.00 0.01 0.02 0.03 0.04 0.06 0.04 0.04 0.02 0.02 0.07 0.10
0.00 0.00 0.00 0.00 0.00 0.00 0.00 0.00 0.00 0.00 0.00 0.00 0.00 0.00 0.00 0.00 0.00 0.01 0.01 0.00 0.00 0.00 0.00 0.00 0.00 0.00 0.00 0.00 0.01 0.02 0.01 0.00 0.02 0.04 0.04 0.06 0.12 0.09 0.03 0.04 0.03 0.04 0.03
0.00 0.00 0.00 0.00 0.00 0.00 0.00 0.00 0.00 0.00 0.00 0.00 0.00 0.00 0.00 0.00 0.00 0.01 0.00 0.00 0.00 0.00 0.00 0.00 0.00 0.00 0.00 0.01 0.02 0.03 0.03 0.01 0.01 0.02 0.08 0.12 0.13 0.15 0.07 0.07 0.06 0.12 0.16
0.00 0.00 0.00 0.00 0.00 0.00 0.00 0.00 0.00 0.00 0.00 0.00 0.00 0.00 0.00 0.00 0.00 0.00 0.00 0.00 0.00 0.00 0.00 0.00 0.00 0.00 0.01 0.02 0.02 0.03 0.04 0.05 0.08 0.12 0.09 0.11 0.13 0.23 0.12 0.05 0.08 0.07 0.12
0.00 0.00 0.00 0.00 0.00 0.00 0.00 0.00 0.00 0.00 0.00 0.00 0.00 0.00 0.00 0.00 0.00 0.00 0.00 0.00 0.00 0.00 0.00 0.00 0.00 0.00 0.01 0.03 0.04 0.04 0.04 0.02 0.04 0.06 0.08 0.14 0.14 0.19 0.24 0.17 0.11 0.16 0.08
0.00 0.00 0.00 0.00 0.00 0.00 0.00 0.00 0.00 0.00 0.00 0.00 0.00 0.00 0.00 0.00 0.00 0.00 0.00 0.00 0.00 0.00 0.00 0.00 0.00 0.01 0.02 0.03 0.05 0.04 0.04 0.03 0.06 0.12 0.11 0.14 0.18 0.21 0.12 0.13 0.13 0.12 0.14
0.00 0.00 0.00 0.00 0.00 0.00 0.00 0.00 0.00 0.00 0.00 0.00 0.00 0.00 0.00 0.00 0.00 0.00 0.00 0.00 0.00 0.00 0.00 0.01 0.01 0.02 0.07 0.13 0.15 0.11 0.04 0.03 0.05 0.12 0.10 0.12 0.16 0.12 0.09 0.10 0.15 0.23 0.17
0.00 0.00 0.00 0.00 0.00 0.00 0.00 0.00 0.00 0.00 0.00 0.00 0.00 0.00 0.00 0.00 0.00 0.00 0.00 0.00 0.00 0.00 0.00 0.01 0.03 0.02 0.02 0.10 0.18 0.27 0.24 0.13 0.16 0.21 0.20 0.11 0.11 0.19 0.31 0.36 0.31 0.20 0.07
0.00 0.00 0.00 0.00 0.00 0.00 0.00 0.00 0.00 0.00 0.00 0.00 0.00 0.00 0.00 0.00 0.00 0.00 0.00 0.00 0.00 0.00 0.00 0.01 0.03 0.07 0.08 0.07 0.09 0.14 0.26 0.31 0.34 0.35 0.53 0.69 0.57 0.40 0.31 0.22 0.16 0.12 0.07
0.00 0.00 0.00 0.00 0.00 0.00 0.00 0.00 0.00 0.00 0.00 0.00 0.00 0.00 0.00 0.00 0.00 0.00 0.00 0.00 0.00 0.00 0.00 0.01 0.04 0.09 0.09 0.11 0.11 0.13 0.16 0.23 0.40 0.43 0.34 0.34 0.26 0.18 0.17 0.14 0.11 0.10 0.04
0.00 0.00 0.00 0.00 0.00 0.00 0.00 0.00 0.00 0.00 0.00 0.00 0.00 0.00 0.00 0.00 0.00 0.00 0.00 0.00 0.00 0.00 0.01 0.01 0.04 0.08 0.11 0.08 0.06 0.10 0.16 0.16 0.19 0.14 0.09 0.12 0.13 0.12 0.10 0.10 0.07 0.07 0.04

GFSGL_prec_precacc_033.txt.gz
Total_Precipitation_Accumulation
0.05 0.01 0.02 0.05 0.05 0.06 0.05 0.05 0.04 0.04 0.04 0.05 0.07 0.07 0.07 0.05 0.06 0.09 0.09 0.04 0.02 0.01 0.01 0.01 0.01 0.01 0.01 0.01 0.00 0.00 0.00 0.00 0.00 0.00 0.00 0.00 0.00 0.00 0.00 0.00 0.00 0.00 0.00
0.03 0.01 0.02 0.05 0.05 0.05 0.05 0.05 0.05 0.04 0.05 0.06 0.07 0.05 0.03 0.03 0.02 0.03 0.05 0.04 0.05 0.06 0.08 0.09 0.08 0.06 0.07 0.06 0.02 0.02 0.01 0.01 0.01 0.01 0.00 0.00 0.00 0.00 0.00 0.00 0.00 0.00 0.00
0.04 0.04 0.04 0.04 0.04 0.06 0.07 0.07 0.07 0.07 0.07 0.06 0.04 0.03 0.03 0.03 0.02 0.02 0.04 0.05 0.06 0.07 0.08 0.08 0.07 0.06 0.07 0.06 0.05 0.04 0.04 0.03 0.02 0.01 0.00 0.00 0.00 0.01 0.02 0.00 0.00 0.00 0.00
0.11 0.08 0.06 0.08 0.07 0.07 0.06 0.06 0.06 0.07 0.06 0.05 0.06 0.06 0.06 0.05 0.07 0.10 0.13 0.13 0.13 0.13 0.13 0.13 0.13 0.11 0.09 0.08 0.09 0.08 0.05 0.02 0.01 0.01 0.07 0.05 0.04 0.03 0.01 0.00 0.00 0.00 0.00
0.16 0.13 0.09 0.08 0.09 0.07 0.05 0.06 0.07 0.06 0.05 0.04 0.06 0.13 0.16 0.16 0.14 0.11 0.10 0.11 0.12 0.13 0.13 0.14 0.14 0.12 0.10 0.08 0.06 0.04 0.02 0.03 0.10 0.18 0.12 0.10 0.06 0.00 0.00 0.00 0.00 0.01 0.01
0.11 0.11 0.08 0.08 0.08 0.09 0.08 0.05 0.08 0.08 0.07 0.10 0.09 0.10 0.12 0.16 0.29 0.23 0.15 0.12 0.11 0.13 0.16 0.17 0.15 0.12 0.09 0.07 0.05 0.03 0.04 0.16 0.18 0.18 0.15 0.04 0.00 0.00 0.00 0.02 0.06 0.06 0.06
0.15 0.17 0.17 0.13 0.20 0.20 0.15 0.13 0.11 0.14 0.23 0.22 0.21 0.24 0.21 0.18 0.22 0.21 0.25 0.22 0.25 0.26 0.24 0.18 0.13 0.09 0.08 0.07 0.04 0.07 0.13 0.10 0.09 0.06 0.01 0.00 0.01 0.03 0.10 0.10 0.07 0.10 0.06
0.22 0.33 0.57 0.48 0.52 0.59 0.75 0.62 0.63 0.51 0.45 0.52 0.54 0.54 0.58 0.60 0.60 0.49 0.38 0.32 0.28 0.24 0.19 0.14 0.09 0.06 0.03 0.02 0.09 0.16 0.06 0.02 0.00 0.00 0.00 0.01 0.04 0.04 0.07 0.16 0.09 0.06 0.02
0.63 0.80 0.80 0.70 0.74 0.84 1.06 1.13 0.79 0.96 0.76 0.75 0.60 0.50 0.47 0.44 0.36 0.25 0.17 0.14 0.11 0.08 0.04 0.01 0.00 0.01 0.01 0.06 0.08 0.04 0.00 0.00 0.00 0.01 0.02 0.02 0.01 0.01 0.00 0.06 0.07 0.07 0.05
0.79 0.80 0.87 0.74 0.72 0.88 0.96 0.93 0.71 0.60 0.64 0.55 0.53 0.40 0.29 0.20 0.14 0.10 0.06 0.04 0.01 0.00 0.00 0.00 0.00 0.01 0.04 0.08 0.03 0.00 0.00 0.00 0.05 0.02 0.00 0.00 0.00 0.00 0.00 0.01 0.07 0.25 0.13
0.86 0.87 0.70 0.73 0.45 0.59 0.65 0.57 0.40 0.31 0.31 0.29 0.26 0.18 0.10 0.04 0.02 0.00 0.00 0.00 0.00 0.00 0.00 0.00 0.00 0.02 0.04 0.02 0.02 0.00 0.01 0.02 0.02 0.00 0.00 0.00 0.00 0.00 0.00 0.00 0.02 0.21 0.40
0.44 0.46 0.31 0.26 0.23 0.18 0.19 0.24 0.20 0.11 0.08 0.03 0.01 0.00 0.00 0.00 0.00 0.00 0.00 0.00 0.01 0.01 0.01 0.00 0.01 0.03 0.02 0.00 0.00 0.01 0.02 0.01 0.00 0.00 0.00 0.00 0.00 0.00 0.00 0.00 0.00 0.02 0.10
0.02 0.01 0.01 0.01 0.01 0.00 0.00 0.00 0.00 0.00 0.00 0.00 0.00 0.00 0.00 0.00 0.00 0.00 0.00 0.00 0.01 0.02 0.01 0.01 0.01 0.00 0.00 0.00 0.00 0.00 0.00 0.00 0.00 0.01 0.01 0.00 0.00 0.00 0.00 0.00 0.00 0.00 0.01
0.00 0.00 0.00 0.00 0.00 0.00 0.00 0.00 0.00 0.00 0.00 0.00 0.00 0.00 0.00 0.00 0.00 0.00 0.00 0.00 0.01 0.01 0.00 0.00 0.00 0.00 0.00 0.00 0.00 0.00 0.00 0.00 0.01 0.03 0.01 0.00 0.00 0.00 0.00 0.00 0.03 0.01 0.05
0.00 0.00 0.00 0.00 0.00 0.00 0.00 0.00 0.00 0.00 0.00 0.00 0.00 0.00 0.00 0.00 0.00 0.00 0.01 0.02 0.01 0.01 0.01 0.00 0.00 0.00 0.00 0.00 0.00 0.00 0.00 0.00 0.01 0.01 0.02 0.02 0.01 0.00 0.00 0.00 0.04 0.09 0.10
0.00 0.00 0.00 0.00 0.00 0.00 0.00 0.00 0.00 0.00 0.00 0.00 0.00 0.00 0.00 0.00 0.00 0.00 0.01 0.01 0.01 0.01 0.00 0.00 0.00 0.00 0.00 0.00 0.00 0.00 0.00 0.00 0.01 0.02 0.03 0.04 0.06 0.04 0.04 0.02 0.02 0.07 0.10
0.00 0.00 0.00 0.00 0.00 0.00 0.00 0.00 0.00 0.00 0.00 0.00 0.00 0.00 0.00 0.00 0.00 0.01 0.01 0.00 0.00 0.00 0.00 0.00 0.00 0.00 0.00 0.00 0.01 0.02 0.01 0.00 0.02 0.04 0.04 0.06 0.12 0.09 0.03 0.04 0.03 0.05 0.04
0.00 0.00 0.00 0.00 0.00 0.00 0.00 0.00 0.00 0.00 0.00 0.00 0.00 0.00 0.00 0.00 0.00 0.01 0.00 0.00 0.00 0.00 0.00 0.00 0.00 0.00 0.00 0.01 0.02 0.03 0.03 0.01 0.01 0.02 0.08 0.12 0.13 0.16 0.07 0.08 0.06 0.13 0.16
0.00 0.00 0.00 0.00 0.00 0.00 0.00 0.00 0.00 0.00 0.00 0.00 0.00 0.00 0.00 0.00 0.00 0.00 0.00 0.00 0.00 0.00 0.00 0.00 0.00 0.00 0.01 0.02 0.02 0.04 0.04 0.06 0.08 0.13 0.09 0.12 0.13 0.24 0.13 0.06 0.08 0.08 0.12
0.00 0.00 0.00 0.00 0.00 0.00 0.00 0.00 0.00 0.00 0.00 0.00 0.00 0.00 0.00 0.00 0.00 0.00 0.00 0.00 0.00 0.00 0.00 0.00 0.00 0.00 0.01 0.03 0.04 0.04 0.04 0.02 0.04 0.06 0.09 0.14 0.15 0.19 0.25 0.17 0.11 0.16 0.09
0.00 0.00 0.00 0.00 0.00 0.00 0.00 0.00 0.00 0.00 0.00 0.00 0.00 0.00 0.00 0.00 0.00 0.00 0.00 0.00 0.00 0.00 0.00 0.00 0.00 0.01 0.02 0.03 0.05 0.04 0.04 0.03 0.06 0.13 0.12 0.14 0.18 0.22 0.13 0.13 0.13 0.13 0.15
0.00 0.00 0.00 0.00 0.00 0.00 0.00 0.00 0.00 0.00 0.00 0.00 0.00 0.00 0.00 0.00 0.00 0.00 0.00 0.00 0.00 0.00 0.00 0.01 0.01 0.02 0.07 0.13 0.15 0.11 0.04 0.04 0.06 0.13 0.10 0.12 0.16 0.12 0.09 0.11 0.15 0.23 0.19
0.00 0.00 0.00 0.00 0.00 0.00 0.00 0.00 0.00 0.00 0.00 0.00 0.00 0.00 0.00 0.00 0.00 0.00 0.00 0.00 0.00 0.00 0.00 0.01 0.03 0.02 0.02 0.10 0.18 0.27 0.24 0.13 0.17 0.22 0.21 0.12 0.11 0.19 0.31 0.37 0.33 0.23 0.09
0.00 0.00 0.00 0.00 0.00 0.00 0.00 0.00 0.00 0.00 0.00 0.00 0.00 0.00 0.00 0.00 0.00 0.00 0.00 0.00 0.00 0.00 0.00 0.01 0.03 0.07 0.08 0.07 0.09 0.14 0.26 0.31 0.35 0.36 0.54 0.70 0.58 0.40 0.32 0.24 0.18 0.13 0.09
0.00 0.00 0.00 0.00 0.00 0.00 0.00 0.00 0.00 0.00 0.00 0.00 0.00 0.00 0.00 0.00 0.00 0.00 0.00 0.00 0.00 0.00 0.00 0.01 0.04 0.09 0.09 0.11 0.11 0.13 0.17 0.23 0.41 0.45 0.38 0.37 0.28 0.19 0.19 0.16 0.13 0.11 0.06
0.00 0.00 0.00 0.00 0.00 0.00 0.00 0.00 0.00 0.00 0.00 0.00 0.00 0.00 0.00 0.00 0.00 0.00 0.00 0.00 0.00 0.00 0.01 0.01 0.04 0.08 0.11 0.08 0.06 0.10 0.16 0.17 0.20 0.16 0.12 0.16 0.16 0.14 0.12 0.13 0.09 0.09 0.08

GFSGL_prec_precacc_036.txt.gz
Total_Precipitation_Accumulation
0.05 0.01 0.02 0.05 0.05 0.06 0.05 0.05 0.04 0.04 0.04 0.05 0.08 0.08 0.07 0.06 0.07 0.11 0.12 0.09 0.08 0.08 0.07 0.08 0.08 0.06 0.02 0.01 0.02 0.02 0.03 0.04 0.05 0.04 0.01 0.01 0.01 0.01 0.01 0.00 0.00 0.00 0.00
0.03 0.01 0.02 0.05 0.05 0.05 0.05 0.05 0.05 0.04 0.05 0.06 0.07 0.05 0.04 0.03 0.03 0.04 0.06 0.08 0.07 0.08 0.10 0.10 0.09 0.08 0.10 0.12 0.12 0.12 0.12 0.10 0.07 0.08 0.06 0.07 0.05 0.03 0.01 0.00 0.00 0.00 0.00
0.04 0.04 0.04 0.04 0.04 0.06 0.07 0.07 0.07 0.07 0.08 0.07 0.05 0.04 0.03 0.04 0.03 0.03 0.05 0.08 0.08 0.10 0.12 0.12 0.12 0.12 0.14 0.12 0.12 0.14 0.15 0.15 0.14 0.11 0.05 0.02 0.03 0.03 0.03 0.01 0.00 0.00 0.00
0.11 0.08 0.06 0.08 0.07 0.07 0.06 0.06 0.06 0.07 0.07 0.06 0.08 0.08 0.07 0.06 0.07 0.11 0.14 0.14 0.15 0.15 0.15 0.16 0.16 0.15 0.15 0.17 0.21 0.23 0.21 0.16 0.09 0.05 0.09 0.07 0.06 0.04 0.02 0.00 0.00 0.00 0.00
0.16 0.13 0.09 0.08 0.09 0.07 0.05 0.07 0.07 0.06 0.06 0.04 0.08 0.15 0.17 0.16 0.15 0.12 0.11 0.12 0.14 0.15 0.16 0.18 0.20 0.22 0.27 0.27 0.20 0.16 0.12 0.10 0.15 0.22 0.15 0.13 0.07 0.00 0.00 0.00 0.00 0.01 0.01
0.11 0.11 0.08 0.08 0.08 0.09 0.08 0.05 0.08 0.08 0.08 0.12 0.11 0.11 0.14 0.18 0.32 0.25 0.16 0.14 0.15 0.17 0.21 0.25 0.28 0.29 0.24 0.18 0.11 0.08 0.09 0.20 0.23 0.21 0.16 0.05 0.00 0.00 0.00 0.02 0.06 0.06 0.06
0.15 0.17 0.17 0.13 0.20 0.20 0.15 0.13 0.11 0.15 0.24 0.23 0.22 0.25 0.24 0.22 0.28 0.25 0.31 0.34 0.39 0.40 0.36 0.31 0.25 0.19 0.15 0.12 0.09 0.12 0.16 0.12 0.09 0.06 0.01 0.00 0.01 0.03 0.10 0.10 0.08 0.11 0.06
0.22 0.33 0.57 0.48 0.52 0.60 0.75 0.63 0.64 0.52 0.46 0.53 0.55 0.57 0.63 0.70 0.72 0.62 0.48 0.37 0.34 0.31 0.24 0.19 0.15 0.10 0.06 0.03 0.09 0.16 0.06 0.02 0.00 0.00 0.00 0.01 0.04 0.04 0.07 0.17 0.10 0.07 0.02
0.63 0.81 0.80 0.70 0.74 0.84 1.06 1.14 0.80 0.97 0.77 0.77 0.67 0.54 0.57 0.63 0.56 0.39 0.30 0.20 0.13 0.09 0.06 0.03 0.01 0.01 0.01 0.06 0.08 0.04 0.00 0.00 0.00 0.01 0.02 0.02 0.01 0.01 0.00 0.06 0.07 0.07 0.05
0.79 0.80 0.87 0.74 0.73 0.89 0.99 0.98 0.72 0.61 0.65 0.58 0.62 0.56 0.45 0.35 0.23 0.14 0.07 0.05 0.02 0.00 0.00 0.00 0.00 0.01 0.04 0.08 0.03 0.00 0.00 0.00 0.05 0.02 0.00 0.00 0.00 0.00 0.00 0.01 0.07 0.25 0.14
0.86 0.88 0.70 0.73 0.45 0.61 0.69 0.62 0.47 0.37 0.41 0.41 0.37 0.30 0.19 0.10 0.04 0.01 0.00 0.00 0.00 0.00 0.00 0.00 0.00 0.02 0.04 0.03 0.02 0.00 0.01 0.02 0.02 0.00 0.00 0.00 0.00 0.00 0.00 0.00 0.02 0.21 0.40
0.44 0.46 0.31 0.26 0.23 0.18 0.19 0.27 0.24 0.14 0.10 0.04 0.01 0.00 0.00 0.00 0.00 0.00 0.00 0.00 0.01 0.01 0.01 0.00 0.01 0.03 0.02 0.00 0.00 0.01 0.02 0.01 0.00 0.00 0.00 0.00 0.00 0.00 0.00 0.00 0.00 0.02 0.10
0.02 0.01 0.01 0.01 0.01 0.00 0.00 0.00 0.00 0.00 0.00 0.00 0.00 0.00 0.00 0.00 0.00 0.00 0.00 0.00 0.01 0.02 0.01 0.01 0.01 0.00 0.00 0.00 0.00 0.00 0.00 0.00 0.00 0.01 0.01 0.00 0.00 0.00 0.00 0.00 0.00 0.00 0.01
0.00 0.00 0.00 0.00 0.00 0.00 0.00 0.00 0.00 0.00 0.00 0.00 0.00 0.00 0.00 0.00 0.00 0.00 0.00 0.00 0.01 0.01 0.00 0.00 0.00 0.00 0.00 0.00 0.00 0.00 0.00 0.00 0.01 0.03 0.01 0.00 0.00 0.00 0.00 0.00 0.03 0.01 0.05
0.00 0.00 0.00 0.00 0.00 0.00 0.00 0.00 0.00 0.00 0.00 0.00 0.00 0.00 0.00 0.00 0.00 0.00 0.01 0.02 0.01 0.01 0.01 0.00 0.00 0.00 0.00 0.00 0.00 0.00 0.00 0.00 0.01 0.01 0.02 0.02 0.01 0.00 0.00 0.00 0.04 0.09 0.10
0.00 0.00 0.00 0.00 0.00 0.00 0.00 0.00 0.00 0.00 0.00 0.00 0.00 0.00 0.00 0.00 0.00 0.00 0.01 0.01 0.01 0.01 0.00 0.00 0.00 0.00 0.00 0.00 0.00 0.00 0.00 0.00 0.01 0.02 0.03 0.04 0.06 0.04 0.05 0.02 0.02 0.07 0.10
0.00 0.00 0.00 0.00 0.00 0.00 0.00 0.00 0.00 0.00 0.00 0.00 0.00 0.00 0.00 0.00 0.00 0.01 0.01 0.00 0.00 0.00 0.00 0.00 0.00 0.00 0.00 0.00 0.01 0.02 0.01 0.00 0.02 0.04 0.05 0.06 0.12 0.09 0.03 0.04 0.03 0.05 0.04
0.00 0.00 0.00 0.00 0.00 0.00 0.00 0.00 0.00 0.00 0.00 0.00 0.00 0.00 0.00 0.00 0.00 0.01 0.00 0.00 0.00 0.00 0.00 0.00 0.00 0.00 0.00 0.01 0.02 0.03 0.03 0.01 0.01 0.03 0.09 0.12 0.14 0.16 0.08 0.08 0.06 0.13 0.17
0.00 0.00 0.00 0.00 0.00 0.00 0.00 0.00 0.00 0.00 0.00 0.00 0.00 0.00 0.00 0.00 0.00 0.00 0.00 0.00 0.00 0.00 0.00 0.00 0.00 0.00 0.01 0.02 0.03 0.04 0.04 0.06 0.08 0.13 0.09 0.12 0.13 0.24 0.13 0.06 0.08 0.08 0.12
0.00 0.00 0.00 0.00 0.00 0.00 0.00 0.00 0.00 0.00 0.00 0.00 0.00 0.00 0.00 0.00 0.00 0.00 0.00 0.00 0.00 0.00 0.00 0.00 0.00 0.00 0.01 0.03 0.04 0.04 0.04 0.02 0.05 0.06 0.09 0.14 0.15 0.20 0.25 0.18 0.11 0.17 0.09
0.00 0.00 0.00 0.00 0.00 0.00 0.00 0.00 0.00 0.00 0.00 0.00 0.00 0.00 0.00 0.00 0.00 0.00 0.00 0.00 0.00 0.00 0.00 0.00 0.00 0.01 0.02 0.03 0.05 0.05 0.04 0.03 0.07 0.13 0.12 0.14 0.18 0.22 0.13 0.13 0.13 0.13 0.15
0.00 0.00 0.00 0.00 0.00 0.00 0.00 0.00 0.00 0.00 0.00 0.00 0.00 0.00 0.00 0.00 0.00 0.00 0.00 0.00 0.00 0.00 0.00 0.01 0.01 0.02 0.07 0.13 0.15 0.11 0.04 0.04 0.06 0.13 0.11 0.13 0.16 0.13 0.10 0.11 0.16 0.24 0.19
0.00 0.00 0.00 0.00 0.00 0.00 0.00 0.00 0.00 0.00 0.00 0.00 0.00 0.00 0.00 0.00 0.00 0.00 0.00 0.00 0.00 0.00 0.00 0.01 0.03 0.02 0.02 0.10 0.18 0.27 0.24 0.13 0.17 0.23 0.22 0.12 0.11 0.19 0.32 0.37 0.34 0.23 0.10
0.00 0.00 0.00 0.00 0.00 0.00 0.00 0.00 0.00 0.00 0.00 0.00 0.00 0.00 0.00 0.00 0.00 0.00 0.00 0.00 0.00 0.00 0.00 0.01 0.03 0.07 0.08 0.07 0.09 0.14 0.26 0.31 0.35 0.37 0.56 0.72 0.58 0.41 0.33 0.25 0.19 0.14 0.10
0.00 0.00 0.00 0.00 0.00 0.00 0.00 0.00 0.00 0.00 0.00 0.00 0.00 0.00 0.00 0.00 0.00 0.00 0.00 0.00 0.00 0.00 0.00 0.01 0.04 0.09 0.09 0.11 0.11 0.13 0.17 0.24 0.42 0.47 0.41 0.40 0.31 0.20 0.20 0.17 0.14 0.13 0.07
0.00 0.00 0.00 0.00 0.00 0.00 0.00 0.00 0.00 0.00 0.00 0.00 0.00 0.00 0.00 0.00 0.00 0.00 0.00 0.00 0.00 0.00 0.01 0.01 0.04 0.08 0.11 0.08 0.06 0.10 0.17 0.17 0.21 0.17 0.16 0.20 0.18 0.16 0.14 0.16 0.11 0.12 0.11

GFSGL_prec_precacc_039.txt.gz
Total_Precipitation_Accumulation
0.05 0.01 0.02 0.05 0.05 0.06 0.05 0.05 0.04 0.04 0.04 0.05 0.08 0.09 0.08 0.07 0.08 0.13 0.15 0.15 0.16 0.14 0.13 0.15 0.17 0.23 0.32 0.40 0.41 0.36 0.29 0.18 0.12 0.11 0.07 0.05 0.04 0.05 0.05 0.03 0.01 0.01 0.00
0.03 0.01 0.02 0.05 0.05 0.05 0.05 0.05 0.05 0.04 0.05 0.06 0.07 0.06 0.05 0.04 0.04 0.05 0.09 0.12 0.14 0.14 0.15 0.14 0.12 0.11 0.15 0.19 0.20 0.20 0.18 0.16 0.16 0.19 0.17 0.19 0.18 0.15 0.08 0.04 0.01 0.00 0.00
0.04 0.04 0.04 0.04 0.04 0.06 0.07 0.07 0.07 0.07 0.08 0.07 0.05 0.05 0.05 0.05 0.04 0.04 0.06 0.10 0.12 0.14 0.15 0.15 0.14 0.14 0.17 0.19 0.20 0.23 0.24 0.25 0.26 0.24 0.18 0.11 0.07 0.05 0.05 0.01 0.01 0.00 0.00
0.11 0.08 0.06 0.08 0.07 0.07 0.06 0.06 0.06 0.07 0.07 0.06 0.08 0.08 0.07 0.06 0.07 0.11 0.14 0.16 0.16 0.17 0.18 0.19 0.18 0.18 0.19 0.22 0.28 0.31 0.30 0.24 0.18 0.13 0.15 0.10 0.07 0.05 0.03 0.01 0.00 0.00 0.00
0.16 0.13 0.09 0.08 0.09 0.07 0.05 0.07 0.07 0.06 0.06 0.04 0.08 0.15 0.17 0.17 0.16 0.13 0.11 0.12 0.15 0.19 0.20 0.23 0.24 0.28 0.33 0.32 0.27 0.22 0.19 0.19 0.24 0.29 0.18 0.14 0.07 0.01 0.00 0.00 0.00 0.01 0.01
0.11 0.11 0.08 0.08 0.08 0.09 0.08 0.05 0.08 0.08 0.08 0.12 0.11 0.11 0.14 0.18 0.33 0.26 0.17 0.15 0.16 0.20 0.23 0.29 0.35 0.44 0.35 0.24 0.17 0.12 0.12 0.22 0.24 0.22 0.16 0.05 0.00 0.00 0.00 0.02 0.06 0.06 0.06
0.15 0.17 0.17 0.13 0.20 0.20 0.15 0.13 0.11 0.15 0.24 0.23 0.22 0.26 0.25 0.23 0.30 0.26 0.32 0.35 0.42 0.44 0.40 0.35 0.31 0.26 0.22 0.18 0.14 0.15 0.18 0.14 0.10 0.06 0.01 0.00 0.01 0.03 0.10 0.10 0.08 0.11 0.06
0.22 0.33 0.57 0.48 0.52 0.60 0.75 0.63 0.64 0.52 0.46 0.54 0.56 0.58 0.64 0.74 0.77 0.66 0.52 0.41 0.40 0.39 0.34 0.28 0.22 0.15 0.07 0.04 0.09 0.16 0.06 0.02 0.00 0.00 0.00 0.01 0.04 0.04 0.07 0.17 0.10 0.07 0.02
0.63 0.81 0.80 0.70 0.74 0.84 1.06 1.14 0.80 0.97 0.78 0.78 0.68 0.55 0.59 0.70 0.65 0.49 0.44 0.38 0.26 0.15 0.08 0.03 0.01 0.01 0.01 0.06 0.08 0.04 0.00 0.00 0.00 0.01 0.02 0.02 0.01 0.01 0.00 0.06 0.07 0.07 0.05
0.79 0.80 0.87 0.74 0.73 0.89 0.99 0.98 0.72 0.61 0.65 0.58 0.63 0.60 0.50 0.43 0.31 0.19 0.10 0.07 0.04 0.01 0.00 0.00 0.00 0.01 0.04 0.08 0.03 0.00 0.00 0.00 0.05 0.02 0.00 0.00 0.00 0.00 0.00 0.01 0.07 0.25 0.14
0.86 0.88 0.70 0.73 0.45 0.61 0.69 0.62 0.47 0.37 0.42 0.43 0.39 0.32 0.22 0.13 0.06 0.02 0.01 0.01 0.00 0.00 0.00 0.00 0.00 0.02 0.04 0.03 0.02 0.00 0.01 0.02 0.02 0.00 0.00 0.00 0.00 0.00 0.00 0.00 0.02 0.21 0.40
0.44 0.46 0.31 0.26 0.23 0.18 0.19 0.27 0.24 0.14 0.10 0.04 0.01 0.00 0.00 0.00 0.00 0.00 0.00 0.00 0.01 0.01 0.01 0.00 0.01 0.03 0.02 0.00 0.00 0.01 0.02 0.01 0.00 0.00 0.00 0.00 0.00 0.00 0.00 0.00 0.00 0.02 0.10
0.02 0.01 0.01 0.01 0.01 0.00 0.00 0.00 0.00 0.00 0.00 0.00 0.00 0.00 0.00 0.00 0.00 0.00 0.00 0.00 0.01 0.02 0.01 0.01 0.01 0.00 0.00 0.00 0.00 0.00 0.00 0.00 0.00 0.01 0.01 0.00 0.00 0.00 0.00 0.00 0.00 0.00 0.01
0.00 0.00 0.00 0.00 0.00 0.00 0.00 0.00 0.00 0.00 0.00 0.00 0.00 0.00 0.00 0.00 0.00 0.00 0.00 0.00 0.01 0.01 0.00 0.00 0.00 0.00 0.00 0.00 0.00 0.00 0.00 0.00 0.01 0.03 0.01 0.00 0.00 0.00 0.00 0.00 0.03 0.01 0.05
0.00 0.00 0.00 0.00 0.00 0.00 0.00 0.00 0.00 0.00 0.00 0.00 0.00 0.00 0.00 0.00 0.00 0.00 0.01 0.02 0.01 0.01 0.01 0.00 0.00 0.00 0.00 0.00 0.00 0.00 0.00 0.00 0.01 0.01 0.02 0.02 0.01 0.00 0.00 0.00 0.04 0.09 0.10
0.00 0.00 0.00 0.00 0.00 0.00 0.00 0.00 0.00 0.00 0.00 0.00 0.00 0.00 0.00 0.00 0.00 0.00 0.01 0.01 0.01 0.01 0.00 0.00 0.00 0.00 0.00 0.00 0.00 0.00 0.00 0.00 0.01 0.02 0.03 0.04 0.06 0.04 0.05 0.02 0.03 0.08 0.10
0.00 0.00 0.00 0.00 0.00 0.00 0.00 0.00 0.00 0.00 0.00 0.00 0.00 0.00 0.00 0.00 0.00 0.01 0.01 0.00 0.00 0.00 0.00 0.00 0.00 0.00 0.00 0.00 0.01 0.02 0.01 0.00 0.02 0.04 0.05 0.06 0.13 0.09 0.04 0.04 0.03 0.05 0.04
0.00 0.00 0.00 0.00 0.00 0.00 0.00 0.00 0.00 0.00 0.00 0.00 0.00 0.00 0.00 0.00 0.00 0.01 0.00 0.00 0.00 0.00 0.00 0.00 0.00 0.00 0.00 0.01 0.02 0.03 0.03 0.01 0.01 0.03 0.09 0.12 0.14 0.17 0.08 0.08 0.07 0.13 0.17
0.00 0.00 0.00 0.00 0.00 0.00 0.00 0.00 0.00 0.00 0.00 0.00 0.00 0.00 0.00 0.00 0.00 0.00 0.00 0.00 0.00 0.00 0.00 0.00 0.00 0.00 0.01 0.02 0.03 0.04 0.04 0.06 0.08 0.13 0.09 0.12 0.14 0.25 0.14 0.06 0.09 0.08 0.13
0.00 0.00 0.00 0.00 0.00 0.00 0.00 0.00 0.00 0.00 0.00 0.00 0.00 0.00 0.00 0.00 0.00 0.00 0.00 0.00 0.00 0.00 0.00 0.00 0.00 0.00 0.01 0.03 0.04 0.04 0.04 0.02 0.05 0.06 0.09 0.14 0.15 0.21 0.26 0.18 0.12 0.18 0.09
0.00 0.00 0.00 0.00 0.00 0.00 0.00 0.00 0.00 0.00 0.00 0.00 0.00 0.00 0.00 0.00 0.00 0.00 0.00 0.00 0.00 0.00 0.00 0.00 0.00 0.01 0.02 0.03 0.05 0.05 0.04 0.03 0.07 0.13 0.12 0.14 0.19 0.23 0.14 0.14 0.14 0.13 0.16
0.00 0.00 0.00 0.00 0.00 0.00 0.00 0.00 0.00 0.00 0.00 0.00 0.00 0.00 0.00 0.00 0.00 0.00 0.00 0.00 0.00 0.00 0.00 0.01 0.01 0.02 0.07 0.13 0.15 0.11 0.04 0.04 0.06 0.13 0.11 0.13 0.17 0.14 0.10 0.12 0.16 0.24 0.20
0.00 0.00 0.00 0.00 0.00 0.00 0.00 0.00 0.00 0.00 0.00 0.00 0.00 0.00 0.00 0.00 0.00 0.00 0.00 0.00 0.00 0.00 0.00 0.01 0.03 0.02 0.02 0.10 0.18 0.27 0.24 0.13 0.17 0.23 0.23 0.13 0.12 0.20 0.33 0.39 0.34 0.24 0.10
0.00 0.00 0.00 0.00 0.00 0.00 0.00 0.00 0.00 0.00 0.00 0.00 0.00 0.00 0.00 0.00 0.00 0.00 0.00 0.00 0.00 0.00 0.00 0.01 0.03 0.07 0.08 0.07 0.09 0.14 0.26 0.31 0.35 0.38 0.58 0.74 0.59 0.41 0.33 0.25 0.20 0.15 0.11
0.00 0.00 0.00 0.00 0.00 0.00 0.00 0.00 0.00 0.00 0.00 0.00 0.00 0.00 0.00 0.00 0.00 0.00 0.00 0.00 0.00 0.00 0.00 0.01 0.04 0.09 0.09 0.11 0.11 0.13 0.17 0.24 0.44 0.50 0.45 0.43 0.33 0.22 0.22 0.19 0.15 0.13 0.08
0.00 0.00 0.00 0.00 0.00 0.00 0.00 0.00 0.00 0.00 0.00 0.00 0.00 0.00 0.00 0.00 0.00 0.00 0.00 0.00 0.00 0.00 0.01 0.01 0.04 0.08 0.11 0.08 0.06 0.10 0.17 0.18 0.23 0.20 0.20 0.24 0.21 0.17 0.15 0.17 0.12 0.14 0.13

GFSGL_prec_precacc_042.txt.gz
Total_Precipitation_Accumulation
0.05 0.01 0.02 0.05 0.05 0.06 0.05 0.05 0.04 0.04 0.04 0.05 0.08 0.09 0.08 0.08 0.10 0.16 0.18 0.18 0.22 0.21 0.20 0.23 0.23 0.28 0.36 0.45 0.49 0.55 0.63 0.71 0.74 0.64 0.37 0.20 0.11 0.07 0.06 0.07 0.05 0.05 0.02
0.03 0.01 0.02 0.05 0.05 0.05 0.05 0.05 0.05 0.04 0.05 0.06 0.07 0.06 0.05 0.04 0.04 0.06 0.10 0.14 0.16 0.18 0.18 0.19 0.16 0.14 0.18 0.21 0.22 0.26 0.33 0.39 0.46 0.49 0.40 0.34 0.29 0.20 0.13 0.07 0.02 0.00 0.00
0.04 0.04 0.04 0.04 0.04 0.06 0.07 0.07 0.07 0.07 0.08 0.07 0.05 0.05 0.06 0.05 0.05 0.04 0.06 0.11 0.13 0.15 0.16 0.17 0.17 0.16 0.19 0.22 0.24 0.28 0.32 0.36 0.38 0.39 0.33 0.23 0.17 0.12 0.08 0.02 0.01 0.00 0.00
0.11 0.08 0.06 0.08 0.07 0.07 0.06 0.06 0.06 0.07 0.07 0.06 0.08 0.08 0.07 0.06 0.08 0.11 0.14 0.16 0.16 0.17 0.18 0.20 0.19 0.20 0.21 0.25 0.30 0.34 0.33 0.28 0.22 0.18 0.19 0.14 0.10 0.06 0.03 0.01 0.00 0.00 0.00
0.16 0.13 0.09 0.08 0.09 0.07 0.05 0.07 0.07 0.06 0.06 0.04 0.08 0.15 0.17 0.17 0.16 0.13 0.11 0.12 0.15 0.19 0.21 0.23 0.26 0.32 0.36 0.35 0.30 0.27 0.24 0.24 0.28 0.30 0.20 0.15 0.08 0.01 0.00 0.00 0.00 0.01 0.01
0.11 0.11 0.08 0.08 0.08 0.09 0.08 0.05 0.08 0.08 0.08 0.12 0.11 0.11 0.14 0.18 0.33 0.26 0.17 0.15 0.17 0.21 0.26 0.31 0.38 0.48 0.42 0.35 0.24 0.17 0.15 0.24 0.25 0.22 0.17 0.05 0.00 0.00 0.00 0.02 0.06 0.06 0.06
0.15 0.17 0.17 0.13 0.20 0.20 0.15 0.13 0.11 0.15 0.24 0.23 0.22 0.26 0.25 0.23 0.31 0.27 0.33 0.36 0.42 0.46 0.47 0.41 0.34 0.29 0.26 0.22 0.18 0.19 0.22 0.15 0.11 0.06 0.01 0.00 0.01 0.03 0.10 0.10 0.08 0.11 0.06
0.22 0.33 0.57 0.48 0.52 0.60 0.75 0.63 0.64 0.52 0.46 0.54 0.56 0.58 0.64 0.75 0.78 0.67 0.53 0.44 0.45 0.47 0.42 0.37 0.30 0.21 0.13 0.07 0.11 0.16 0.07 0.02 0.00 0.00 0.00 0.01 0.04 0.04 0.07 0.17 0.10 0.07 0.02
0.63 0.81 0.80 0.70 0.74 0.84 1.06 1.14 0.80 0.97 0.78 0.78 0.68 0.55 0.59 0.70 0.65 0.49 0.44 0.39 0.29 0.19 0.14 0.07 0.03 0.03 0.02 0.06 0.08 0.04 0.00 0.00 0.00 0.01 0.02 0.02 0.01 0.01 0.00 0.06 0.07 0.07 0.05
0.79 0.81 0.88 0.75 0.73 0.89 0.99 0.98 0.72 0.61 0.65 0.58 0.63 0.60 0.50 0.43 0.31 0.19 0.10 0.08 0.05 0.02 0.00 0.00 0.00 0.01 0.04 0.08 0.03 0.00 0.00 0.00 0.05 0.02 0.00 0.00 0.00 0.00 0.00 0.01 0.07 0.25 0.14
0.86 0.88 0.70 0.73 0.45 0.61 0.69 0.62 0.47 0.37 0.42 0.43 0.39 0.32 0.22 0.13 0.06 0.02 0.01 0.01 0.00 0.00 0.00 0.00 0.00 0.02 0.04 0.03 0.02 0.00 0.01 0.02 0.02 0.00 0.00 0.00 0.00 0.00 0.00 0.00 0.02 0.21 0.40
0.44 0.46 0.31 0.26 0.23 0.18 0.19 0.27 0.24 0.14 0.10 0.04 0.01 0.00 0.00 0.00 0.00 0.00 0.00 0.00 0.01 0.01 0.01 0.00 0.01 0.03 0.02 0.00 0.00 0.01 0.02 0.01 0.00 0.00 0.00 0.00 0.00 0.00 0.00 0.00 0.00 0.02 0.10
0.02 0.01 0.01 0.01 0.01 0.00 0.00 0.00 0.00 0.00 0.00 0.00 0.00 0.00 0.00 0.00 0.00 0.00 0.00 0.00 0.01 0.02 0.01 0.01 0.01 0.00 0.00 0.00 0.00 0.00 0.00 0.00 0.00 0.01 0.01 0.00 0.00 0.00 0.00 0.00 0.00 0.00 0.01
0.00 0.00 0.00 0.00 0.00 0.00 0.00 0.00 0.00 0.00 0.00 0.00 0.00 0.00 0.00 0.00 0.00 0.00 0.00 0.00 0.01 0.01 0.00 0.00 0.00 0.00 0.00 0.00 0.00 0.00 0.00 0.00 0.01 0.03 0.01 0.00 0.00 0.00 0.00 0.00 0.03 0.01 0.06
0.00 0.00 0.00 0.00 0.00 0.00 0.00 0.00 0.00 0.00 0.00 0.00 0.00 0.00 0.00 0.00 0.00 0.00 0.01 0.02 0.01 0.01 0.01 0.00 0.00 0.00 0.00 0.00 0.00 0.00 0.00 0.00 0.01 0.01 0.02 0.02 0.01 0.00 0.00 0.00 0.04 0.09 0.11
0.00 0.00 0.00 0.00 0.00 0.00 0.00 0.00 0.00 0.00 0.00 0.00 0.00 0.00 0.00 0.00 0.00 0.00 0.01 0.01 0.01 0.01 0.00 0.00 0.00 0.00 0.00 0.00 0.00 0.00 0.00 0.00 0.01 0.02 0.03 0.04 0.06 0.04 0.05 0.02 0.03 0.08 0.11
0.00 0.00 0.00 0.00 0.00 0.00 0.00 0.00 0.00 0.00 0.00 0.00 0.00 0.00 0.00 0.00 0.00 0.01 0.01 0.00 0.00 0.00 0.00 0.00 0.00 0.00 0.00 0.00 0.01 0.02 0.01 0.00 0.02 0.04 0.05 0.07 0.13 0.10 0.04 0.05 0.03 0.05 0.05
0.00 0.00 0.00 0.00 0.00 0.00 0.00 0.00 0.00 0.00 0.00 0.00 0.00 0.00 0.00 0.00 0.00 0.01 0.00 0.00 0.00 0.00 0.00 0.00 0.00 0.00 0.00 0.01 0.02 0.03 0.03 0.01 0.02 0.03 0.09 0.13 0.14 0.17 0.09 0.09 0.07 0.14 0.18
0.00 0.00 0.00 0.00 0.00 0.00 0.00 0.00 0.00 0.00 0.00 0.00 0.00 0.00 0.00 0.00 0.00 0.00 0.00 0.00 0.00 0.00 0.00 0.00 0.00 0.00 0.01 0.02 0.03 0.04 0.04 0.06 0.09 0.13 0.10 0.12 0.14 0.25 0.14 0.07 0.09 0.09 0.13
0.00 0.00 0.00 0.00 0.00 0.00 0.00 0.00 0.00 0.00 0.00 0.00 0.00 0.00 0.00 0.00 0.00 0.00 0.00 0.00 0.00 0.00 0.00 0.00 0.00 0.00 0.01 0.03 0.04 0.04 0.04 0.02 0.05 0.06 0.09 0.14 0.15 0.21 0.27 0.19 0.12 0.18 0.10
0.00 0.00 0.00 0.00 0.00 0.00 0.00 0.00 0.00 0.00 0.00 0.00 0.00 0.00 0.00 0.00 0.00 0.00 0.00 0.00 0.00 0.00 0.00 0.00 0.00 0.01 0.02 0.03 0.05 0.05 0.04 0.03 0.07 0.13 0.12 0.14 0.19 0.23 0.14 0.15 0.15 0.14 0.16
0.00 0.00 0.00 0.00 0.00 0.00 0.00 0.00 0.00 0.00 0.00 0.00 0.00 0.00 0.00 0.00 0.00 0.00 0.00 0.00 0.00 0.00 0.00 0.01 0.01 0.02 0.07 0.13 0.15 0.11 0.04 0.04 0.06 0.13 0.11 0.13 0.17 0.14 0.11 0.14 0.17 0.25 0.20
0.00 0.00 0.00 0.00 0.00 0.00 0.00 0.00 0.00 0.00 0.00 0.00 0.00 0.00 0.00 0.00 0.00 0.00 0.00 0.00 0.00 0.00 0.00 0.01 0.03 0.02 0.02 0.10 0.18 0.27 0.24 0.13 0.17 0.23 0.24 0.14 0.13 0.21 0.34 0.40 0.35 0.25 0.11
0.00 0.00 0.00 0.00 0.00 0.00 0.00 0.00 0.00 0.00 0.00 0.00 0.00 0.00 0.00 0.00 0.00 0.00 0.00 0.00 0.00 0.00 0.00 0.01 0.03 0.07 0.08 0.07 0.09 0.14 0.26 0.31 0.36 0.38 0.59 0.76 0.60 0.41 0.34 0.26 0.20 0.15 0.11
0.00 0.00 0.00 0.00 0.00 0.00 0.00 0.00 0.00 0.00 0.00 0.00 0.00 0.00 0.00 0.00 0.00 0.00 0.00 0.00 0.00 0.00 0.00 0.01 0.04 0.09 0.09 0.11 0.11 0.13 0.17 0.24 0.46 0.53 0.48 0.45 0.34 0.23 0.23 0.21 0.16 0.14 0.09
0.00 0.00 0.00 0.00 0.00 0.00 0.00 0.00 0.00 0.00 0.00 0.00 0.00 0.00 0.00 0.00 0.00 0.00 0.00 0.00 0.00 0.00 0.01 0.01 0.04 0.08 0.11 0.08 0.06 0.10 0.18 0.20 0.25 0.21 0.24 0.29 0.24 0.18 0.16 0.19 0.14 0.16 0.15

GFSGL_prec_precacc_045.txt.gz
Total_Precipitation_Accumulation
0.05 0.01 0.02 0.05 0.05 0.06 0.05 0.05 0.04 0.04 0.04 0.05 0.08 0.09 0.08 0.08 0.10 0.16 0.19 0.19 0.24 0.24 0.23 0.28 0.30 0.34 0.42 0.51 0.57 0.64 0.71 0.76 0.79 0.72 0.57 0.47 0.40 0.33 0.30 0.21 0.14 0.08 0.05
0.03 0.01 0.02 0.05 0.05 0.05 0.05 0.05 0.05 0.04 0.05 0.06 0.07 0.06 0.05 0.04 0.04 0.06 0.10 0.14 0.16 0.18 0.19 0.19 0.17 0.15 0.19 0.24 0.26 0.31 0.41 0.48 0.55 0.59 0.49 0.44 0.39 0.31 0.23 0.15 0.07 0.04 0.02
0.04 0.04 0.04 0.04 0.04 0.06 0.07 0.07 0.07 0.07 0.08 0.07 0.05 0.05 0.06 0.05 0.05 0.04 0.06 0.11 0.13 0.16 0.17 0.17 0.18 0.17 0.21 0.24 0.27 0.32 0.39 0.45 0.49 0.52 0.47 0.37 0.30 0.20 0.14 0.06 0.02 0.01 0.00
0.11 0.08 0.06 0.08 0.07 0.07 0.06 0.06 0.06 0.07 0.07 0.06 0.08 0.08 0.07 0.06 0.08 0.11 0.14 0.16 0.16 0.17 0.18 0.20 0.20 0.20 0.21 0.26 0.31 0.36 0.37 0.35 0.32 0.31 0.32 0.17 0.12 0.07 0.04 0.02 0.00 0.00 0.00
0.16 0.13 0.09 0.08 0.09 0.07 0.05 0.07 0.07 0.06 0.06 0.04 0.08 0.15 0.17 0.17 0.16 0.13 0.11 0.12 0.15 0.19 0.21 0.23 0.26 0.32 0.37 0.36 0.32 0.29 0.25 0.25 0.29 0.32 0.21 0.16 0.09 0.02 0.01 0.00 0.00 0.01 0.01
0.11 0.11 0.08 0.08 0.08 0.09 0.08 0.05 0.08 0.08 0.08 0.12 0.11 0.11 0.14 0.18 0.33 0.26 0.17 0.15 0.17 0.21 0.26 0.33 0.41 0.49 0.44 0.39 0.29 0.19 0.17 0.25 0.27 0.23 0.17 0.05 0.00 0.00 0.00 0.02 0.06 0.06 0.06
0.15 0.17 0.17 0.13 0.20 0.20 0.15 0.13 0.11 0.15 0.24 0.23 0.22 0.26 0.25 0.23 0.31 0.27 0.33 0.36 0.42 0.47 0.48 0.44 0.36 0.33 0.30 0.25 0.21 0.21 0.23 0.16 0.11 0.06 0.01 0.00 0.01 0.03 0.10 0.10 0.08 0.11 0.06
0.22 0.33 0.57 0.48 0.52 0.60 0.75 0.63 0.64 0.52 0.46 0.54 0.56 0.58 0.64 0.76 0.78 0.67 0.53 0.44 0.45 0.47 0.44 0.39 0.32 0.26 0.18 0.13 0.16 0.19 0.07 0.02 0.00 0.00 0.00 0.01 0.04 0.04 0.07 0.17 0.10 0.07 0.02
0.63 0.81 0.80 0.70 0.74 0.84 1.06 1.14 0.80 0.97 0.78 0.78 0.68 0.55 0.59 0.70 0.65 0.49 0.44 0.39 0.29 0.19 0.14 0.07 0.03 0.03 0.03 0.06 0.08 0.04 0.00 0.00 0.00 0.01 0.02 0.02 0.01 0.01 0.00 0.06 0.07 0.07 0.05
0.79 0.81 0.88 0.75 0.73 0.89 0.99 0.98 0.72 0.61 0.65 0.58 0.63 0.60 0.50 0.43 0.31 0.19 0.10 0.08 0.05 0.02 0.00 0.00 0.00 0.01 0.04 0.08 0.03 0.00 0.00 0.00 0.05 0.02 0.00 0.00 0.00 0.00 0.00 0.01 0.07 0.25 0.14
0.86 0.88 0.70 0.73 0.45 0.61 0.69 0.62 0.47 0.37 0.42 0.43 0.39 0.32 0.22 0.13 0.06 0.02 0.01 0.01 0.00 0.00 0.00 0.00 0.00 0.02 0.04 0.03 0.02 0.00 0.01 0.02 0.02 0.00 0.00 0.00 0.00 0.00 0.00 0.00 0.02 0.21 0.40
0.44 0.46 0.31 0.26 0.23 0.18 0.19 0.27 0.24 0.14 0.10 0.04 0.01 0.00 0.00 0.00 0.00 0.00 0.00 0.00 0.01 0.01 0.01 0.00 0.01 0.03 0.02 0.00 0.00 0.01 0.02 0.01 0.00 0.00 0.00 0.00 0.00 0.00 0.00 0.00 0.00 0.02 0.10
0.02 0.01 0.01 0.01 0.01 0.00 0.00 0.00 0.00 0.00 0.00 0.00 0.00 0.00 0.00 0.00 0.00 0.00 0.00 0.00 0.01 0.02 0.01 0.01 0.01 0.00 0.00 0.00 0.00 0.00 0.00 0.00 0.00 0.01 0.01 0.00 0.00 0.00 0.00 0.00 0.00 0.00 0.01
0.00 0.00 0.00 0.00 0.00 0.00 0.00 0.00 0.00 0.00 0.00 0.00 0.00 0.00 0.00 0.00 0.00 0.00 0.00 0.00 0.01 0.01 0.00 0.00 0.00 0.00 0.00 0.00 0.00 0.00 0.00 0.00 0.01 0.03 0.01 0.00 0.00 0.00 0.00 0.00 0.03 0.01 0.06
0.00 0.00 0.00 0.00 0.00 0.00 0.00 0.00 0.00 0.00 0.00 0.00 0.00 0.00 0.00 0.00 0.00 0.00 0.01 0.02 0.01 0.01 0.01 0.00 0.00 0.00 0.00 0.00 0.00 0.00 0.00 0.00 0.01 0.01 0.02 0.02 0.01 0.00 0.00 0.00 0.04 0.09 0.11
0.00 0.00 0.00 0.00 0.00 0.00 0.00 0.00 0.00 0.00 0.00 0.00 0.00 0.00 0.00 0.00 0.00 0.00 0.01 0.01 0.01 0.01 0.00 0.00 0.00 0.00 0.00 0.00 0.00 0.00 0.00 0.00 0.01 0.02 0.03 0.04 0.06 0.04 0.05 0.02 0.03 0.08 0.11
0.00 0.00 0.00 0.00 0.00 0.00 0.00 0.00 0.00 0.00 0.00 0.00 0.00 0.00 0.00 0.00 0.00 0.01 0.01 0.00 0.00 0.00 0.00 0.00 0.00 0.00 0.00 0.00 0.01 0.02 0.01 0.00 0.02 0.04 0.05 0.07 0.13 0.10 0.04 0.05 0.04 0.06 0.05
0.00 0.00 0.00 0.00 0.00 0.00 0.00 0.00 0.00 0.00 0.00 0.00 0.00 0.00 0.00 0.00 0.00 0.01 0.00 0.00 0.00 0.00 0.00 0.00 0.00 0.00 0.00 0.01 0.02 0.03 0.03 0.01 0.02 0.03 0.09 0.13 0.15 0.17 0.10 0.09 0.07 0.14 0.18
0.00 0.00 0.00 0.00 0.00 0.00 0.00 0.00 0.00 0.00 0.00 0.00 0.00 0.00 0.00 0.00 0.00 0.00 0.00 0.00 0.00 0.00 0.00 0.00 0.00 0.00 0.01 0.02 0.03 0.04 0.04 0.06 0.09 0.13 0.10 0.12 0.14 0.25 0.15 0.07 0.09 0.09 0.14
0.00 0.00 0.00 0.00 0.00 0.00 0.00 0.00 0.00 0.00 0.00 0.00 0.00 0.00 0.00 0.00 0.00 0.00 0.00 0.00 0.00 0.00 0.00 0.00 0.00 0.00 0.01 0.03 0.04 0.04 0.04 0.02 0.05 0.06 0.09 0.14 0.15 0.21 0.27 0.19 0.13 0.19 0.10
0.00 0.00 0.00 0.00 0.00 0.00 0.00 0.00 0.00 0.00 0.00 0.00 0.00 0.00 0.00 0.00 0.00 0.00 0.00 0.00 0.00 0.00 0.00 0.00 0.00 0.01 0.02 0.03 0.05 0.05 0.04 0.03 0.07 0.13 0.12 0.14 0.19 0.23 0.14 0.16 0.16 0.15 0.17
0.00 0.00 0.00 0.00 0.00 0.00 0.00 0.00 0.00 0.00 0.00 0.00 0.00 0.00 0.00 0.00 0.00 0.00 0.00 0.00 0.00 0.00 0.00 0.01 0.01 0.02 0.07 0.13 0.15 0.11 0.04 0.04 0.06 0.13 0.11 0.13 0.17 0.15 0.13 0.15 0.18 0.26 0.21
0.00 0.00 0.00 0.00 0.00 0.00 0.00 0.00 0.00 0.00 0.00 0.00 0.00 0.00 0.00 0.00 0.00 0.00 0.00 0.00 0.00 0.00 0.00 0.01 0.03 0.02 0.02 0.10 0.18 0.27 0.24 0.13 0.17 0.23 0.24 0.15 0.13 0.21 0.35 0.41 0.35 0.25 0.11
0.00 0.00 0.00 0.00 0.00 0.00 0.00 0.00 0.00 0.00 0.00 0.00 0.00 0.00 0.00 0.00 0.00 0.00 0.00 0.00 0.00 0.00 0.00 0.01 0.03 0.07 0.08 0.07 0.09 0.14 0.26 0.31 0.36 0.39 0.60 0.78 0.61 0.41 0.34 0.26 0.20 0.15 0.11
0.01 0.01 0.00 0.00 0.00 0.00 0.00 0.00 0.00 0.00 0.00 0.00 0.00 0.00 0.00 0.00 0.00 0.00 0.00 0.00 0.00 0.00 0.00 0.01 0.04 0.09 0.09 0.11 0.11 0.13 0.17 0.25 0.48 0.56 0.51 0.46 0.35 0.23 0.24 0.21 0.17 0.15 0.09
0.03 0.02 0.01 0.00 0.00 0.00 0.00 0.00 0.00 0.00 0.00 0.00 0.00 0.00 0.00 0.00 0.00 0.00 0.00 0.00 0.00 0.00 0.01 0.01 0.04 0.08 0.11 0.08 0.06 0.10 0.18 0.20 0.26 0.23 0.28 0.34 0.27 0.20 0.17 0.22 0.16 0.17 0.16

GFSGL_prec_precacc_048.txt.gz
Total_Precipitation_Accumulation
0.05 0.01 0.02 0.05 0.05 0.06 0.05 0.05 0.04 0.04 0.04 0.05 0.08 0.09 0.08 0.08 0.10 0.16 0.19 0.19 0.24 0.24 0.23 0.28 0.30 0.34 0.43 0.53 0.58 0.67 0.78 0.89 0.94 0.82 0.63 0.54 0.46 0.41 0.42 0.37 0.31 0.25 0.18
0.03 0.01 0.02 0.05 0.05 0.05 0.05 0.05 0.05 0.04 0.05 0.06 0.07 0.06 0.05 0.04 0.04 0.06 0.10 0.14 0.17 0.18 0.19 0.20 0.17 0.16 0.20 0.24 0.26 0.32 0.42 0.52 0.65 0.72 0.65 0.60 0.50 0.39 0.31 0.23 0.18 0.14 0.11
0.04 0.04 0.04 0.04 0.04 0.06 0.07 0.07 0.07 0.07 0.08 0.07 0.05 0.05 0.06 0.05 0.05 0.04 0.06 0.11 0.13 0.16 0.17 0.18 0.18 0.18 0.21 0.25 0.28 0.33 0.40 0.46 0.54 0.60 0.59 0.52 0.46 0.38 0.30 0.15 0.09 0.04 0.01
0.11 0.08 0.06 0.08 0.07 0.07 0.06 0.06 0.06 0.07 0.07 0.06 0.08 0.08 0.07 0.06 0.08 0.11 0.14 0.16 0.16 0.17 0.18 0.20 0.20 0.20 0.22 0.26 0.31 0.38 0.40 0.37 0.34 0.32 0.35 0.29 0.21 0.15 0.10 0.05 0.03 0.01 0.00
0.16 0.13 0.09 0.08 0.09 0.07 0.05 0.07 0.07 0.06 0.06 0.04 0.08 0.15 0.17 0.17 0.16 0.13 0.11 0.12 0.15 0.19 0.21 0.23 0.26 0.32 0.38 0.36 0.32 0.30 0.30 0.32 0.35 0.35 0.24 0.18 0.10 0.04 0.03 0.01 0.01 0.01 0.01
0.11 0.11 0.08 0.08 0.08 0.09 0.08 0.05 0.08 0.08 0.08 0.12 0.11 0.11 0.14 0.18 0.33 0.26 0.17 0.15 0.17 0.21 0.26 0.33 0.41 0.49 0.44 0.40 0.31 0.25 0.20 0.27 0.27 0.24 0.18 0.06 0.01 0.01 0.01 0.02 0.06 0.06 0.06
0.15 0.17 0.17 0.13 0.20 0.20 0.15 0.13 0.11 0.15 0.24 0.23 0.22 0.26 0.25 0.23 0.32 0.27 0.33 0.36 0.42 0.47 0.48 0.44 0.36 0.33 0.31 0.26 0.22 0.22 0.24 0.17 0.12 0.07 0.02 0.00 0.01 0.03 0.10 0.10 0.08 0.11 0.06
0.22 0.33 0.57 0.48 0.52 0.60 0.75 0.63 0.64 0.52 0.46 0.54 0.56 0.58 0.64 0.76 0.78 0.67 0.53 0.44 0.45 0.47 0.44 0.39 0.32 0.26 0.18 0.13 0.16 0.19 0.08 0.02 0.00 0.00 0.00 0.01 0.04 0.04 0.07 0.17 0.10 0.07 0.02
0.63 0.81 0.80 0.70 0.74 0.84 1.06 1.14 0.80 0.97 0.78 0.78 0.68 0.55 0.59 0.70 0.65 0.49 0.44 0.39 0.29 0.19 0.14 0.07 0.03 0.03 0.03 0.06 0.08 0.04 0.00 0.00 0.00 0.01 0.02 0.02 0.01 0.01 0.00 0.06 0.07 0.07 0.05
0.79 0.81 0.88 0.75 0.73 0.89 0.99 0.98 0.72 0.61 0.65 0.58 0.63 0.60 0.50 0.43 0.31 0.19 0.10 0.08 0.05 0.02 0.00 0.00 0.00 0.01 0.04 0.08 0.03 0.00 0.00 0.00 0.05 0.02 0.00 0.00 0.00 0.00 0.00 0.01 0.07 0.25 0.14
0.86 0.88 0.70 0.73 0.45 0.61 0.69 0.62 0.47 0.37 0.42 0.43 0.39 0.32 0.22 0.13 0.06 0.02 0.01 0.01 0.00 0.00 0.00 0.00 0.00 0.02 0.04 0.03 0.02 0.00 0.01 0.02 0.02 0.00 0.00 0.00 0.00 0.00 0.00 0.00 0.02 0.21 0.40
0.44 0.46 0.31 0.26 0.23 0.18 0.19 0.27 0.24 0.14 0.10 0.04 0.01 0.00 0.00 0.00 0.00 0.00 0.00 0.00 0.01 0.01 0.01 0.00 0.01 0.03 0.02 0.00 0.00 0.01 0.02 0.01 0.00 0.00 0.00 0.00 0.00 0.00 0.00 0.00 0.00 0.02 0.10
0.02 0.01 0.01 0.01 0.01 0.00 0.00 0.00 0.00 0.00 0.00 0.00 0.00 0.00 0.00 0.00 0.00 0.00 0.00 0.00 0.01 0.02 0.01 0.01 0.01 0.00 0.00 0.00 0.00 0.00 0.00 0.00 0.00 0.01 0.01 0.00 0.00 0.00 0.00 0.00 0.00 0.00 0.01
0.00 0.00 0.00 0.00 0.00 0.00 0.00 0.00 0.00 0.00 0.00 0.00 0.00 0.00 0.00 0.00 0.00 0.00 0.00 0.00 0.01 0.01 0.00 0.00 0.00 0.00 0.00 0.00 0.00 0.00 0.00 0.00 0.01 0.03 0.01 0.00 0.00 0.00 0.00 0.00 0.03 0.01 0.06
0.00 0.00 0.00 0.00 0.00 0.00 0.00 0.00 0.00 0.00 0.00 0.00 0.00 0.00 0.00 0.00 0.00 0.00 0.01 0.02 0.01 0.01 0.01 0.00 0.00 0.00 0.00 0.00 0.00 0.00 0.00 0.00 0.01 0.01 0.02 0.02 0.01 0.00 0.00 0.00 0.04 0.09 0.11
0.00 0.00 0.00 0.00 0.00 0.00 0.00 0.00 0.00 0.00 0.00 0.00 0.00 0.00 0.00 0.00 0.00 0.00 0.01 0.01 0.01 0.01 0.00 0.00 0.00 0.00 0.00 0.00 0.00 0.00 0.00 0.00 0.01 0.02 0.03 0.04 0.07 0.04 0.05 0.02 0.03 0.09 0.11
0.00 0.00 0.00 0.00 0.00 0.00 0.00 0.00 0.00 0.00 0.00 0.00 0.00 0.00 0.00 0.00 0.00 0.01 0.01 0.00 0.00 0.00 0.00 0.00 0.00 0.00 0.00 0.00 0.01 0.02 0.01 0.00 0.02 0.04 0.05 0.07 0.14 0.10 0.04 0.05 0.04 0.06 0.05
0.00 0.00 0.00 0.00 0.00 0.00 0.00 0.00 0.00 0.00 0.00 0.00 0.00 0.00 0.00 0.00 0.00 0.01 0.00 0.00 0.00 0.00 0.00 0.00 0.00 0.00 0.00 0.01 0.02 0.03 0.03 0.01 0.02 0.03 0.09 0.13 0.15 0.18 0.10 0.09 0.08 0.14 0.18
0.00 0.00 0.00 0.00 0.00 0.00 0.00 0.00 0.00 0.00 0.00 0.00 0.00 0.00 0.00 0.00 0.00 0.00 0.00 0.00 0.00 0.00 0.00 0.00 0.00 0.00 0.01 0.02 0.03 0.04 0.04 0.06 0.09 0.13 0.10 0.13 0.14 0.26 0.15 0.07 0.09 0.09 0.14
0.00 0.00 0.00 0.00 0.00 0.00 0.00 0.00 0.00 0.00 0.00 0.00 0.00 0.00 0.00 0.00 0.00 0.00 0.00 0.00 0.00 0.00 0.00 0.00 0.00 0.00 0.01 0.03 0.04 0.04 0.04 0.02 0.05 0.06 0.09 0.14 0.15 0.21 0.27 0.19 0.13 0.19 0.10
0.01 0.01 0.00 0.00 0.00 0.00 0.00 0.00 0.00 0.00 0.00 0.00 0.00 0.00 0.00 0.00 0.00 0.00 0.00 0.00 0.00 0.00 0.00 0.00 0.00 0.01 0.02 0.03 0.05 0.05 0.04 0.03 0.07 0.13 0.12 0.14 0.19 0.23 0.14 0.16 0.16 0.16 0.18
0.00 0.00 0.00 0.00 0.00 0.00 0.00 0.00 0.00 0.00 0.00 0.00 0.00 0.00 0.00 0.00 0.00 0.00 0.00 0.00 0.00 0.00 0.00 0.01 0.01 0.02 0.07 0.13 0.15 0.11 0.04 0.04 0.06 0.13 0.11 0.13 0.17 0.15 0.13 0.16 0.18 0.26 0.21
0.00 0.00 0.00 0.00 0.00 0.00 0.00 0.00 0.00 0.00 0.00 0.00 0.00 0.00 0.00 0.00 0.00 0.00 0.00 0.00 0.00 0.00 0.00 0.01 0.03 0.02 0.02 0.10 0.18 0.27 0.24 0.13 0.17 0.23 0.25 0.15 0.14 0.22 0.35 0.41 0.35 0.26 0.11
0.01 0.01 0.01 0.01 0.01 0.01 0.00 0.00 0.00 0.00 0.00 0.00 0.00 0.00 0.00 0.00 0.00 0.00 0.00 0.00 0.00 0.00 0.00 0.01 0.03 0.07 0.08 0.07 0.09 0.14 0.26 0.31 0.37 0.40 0.61 0.78 0.61 0.42 0.35 0.27 0.21 0.16 0.12
0.05 0.06 0.05 0.03 0.02 0.02 0.01 0.00 0.00 0.00 0.00 0.00 0.00 0.00 0.00 0.00 0.00 0.00 0.00 0.00 0.00 0.00 0.00 0.01 0.04 0.09 0.09 0.11 0.11 0.13 0.17 0.26 0.50 0.57 0.53 0.48 0.36 0.23 0.24 0.22 0.17 0.15 0.10
0.12 0.10 0.08 0.07 0.04 0.03 0.02 0.00 0.00 0.00 0.00 0.00 0.00 0.00 0.00 0.00 0.00 0.00 0.00 0.00 0.00 0.00 0.01 0.01 0.04 0.08 0.11 0.08 0.06 0.10 0.18 0.21 0.27 0.24 0.31 0.38 0.30 0.23 0.19 0.24 0.17 0.18 0.17

GFSGL_prec_precacc_051.txt.gz
Total_Precipitation_Accumulation
0.05 0.01 0.02 0.05 0.05 0.06 0.05 0.05 0.04 0.04 0.04 0.05 0.08 0.09 0.08 0.08 0.10 0.16 0.19 0.19 0.24 0.24 0.23 0.28 0.31 0.35 0.43 0.53 0.59 0.67 0.78 0.89 0.95 0.82 0.63 0.54 0.48 0.44 0.47 0.42 0.38 0.33 0.27
0.03 0.01 0.02 0.05 0.05 0.05 0.05 0.05 0.05 0.04 0.05 0.06 0.07 0.06 0.05 0.04 0.04 0.06 0.10 0.14 0.17 0.18 0.19 0.20 0.17 0.16 0.20 0.24 0.26 0.32 0.43 0.53 0.65 0.73 0.67 0.63 0.58 0.52 0.46 0.39 0.29 0.24 0.22
0.04 0.04 0.04 0.04 0.04 0.06 0.07 0.07 0.07 0.07 0.08 0.07 0.05 0.05 0.06 0.05 0.05 0.04 0.06 0.11 0.13 0.16 0.17 0.18 0.18 0.18 0.21 0.25 0.28 0.33 0.40 0.47 0.54 0.61 0.61 0.55 0.49 0.44 0.37 0.26 0.22 0.18 0.13
0.11 0.08 0.06 0.08 0.07 0.07 0.06 0.06 0.06 0.07 0.07 0.06 0.08 0.08 0.07 0.06 0.08 0.11 0.14 0.16 0.16 0.17 0.18 0.20 0.20 0.20 0.22 0.26 0.31 0.38 0.40 0.37 0.34 0.32 0.36 0.31 0.25 0.20 0.16 0.12 0.09 0.05 0.03
0.16 0.13 0.09 0.08 0.09 0.07 0.05 0.07 0.07 0.06 0.06 0.04 0.08 0.15 0.17 0.17 0.16 0.13 0.11 0.12 0.15 0.19 0.21 0.23 0.26 0.32 0.38 0.36 0.32 0.30 0.30 0.32 0.36 0.37 0.26 0.21 0.12 0.05 0.04 0.03 0.03 0.03 0.01
0.11 0.11 0.08 0.08 0.08 0.09 0.08 0.05 0.08 0.08 0.08 0.12 0.11 0.11 0.14 0.18 0.34 0.26 0.17 0.15 0.17 0.21 0.26 0.33 0.41 0.49 0.45 0.41 0.32 0.25 0.20 0.27 0.27 0.24 0.19 0.07 0.02 0.01 0.01 0.03 0.06 0.06 0.06
0.15 0.17 0.17 0.13 0.20 0.20 0.15 0.13 0.11 0.15 0.24 0.23 0.22 0.26 0.25 0.23 0.32 0.27 0.33 0.36 0.42 0.47 0.48 0.44 0.36 0.33 0.31 0.26 0.22 0.22 0.24 0.17 0.12 0.07 0.02 0.00 0.01 0.03 0.10 0.10 0.08 0.11 0.06
0.22 0.33 0.57 0.48 0.52 0.60 0.75 0.63 0.64 0.52 0.46 0.54 0.56 0.58 0.64 0.76 0.78 0.67 0.53 0.44 0.45 0.47 0.44 0.39 0.32 0.26 0.18 0.13 0.16 0.19 0.08 0.02 0.00 0.00 0.00 0.01 0.04 0.04 0.07 0.17 0.10 0.07 0.02
0.63 0.81 0.80 0.70 0.74 0.84 1.06 1.14 0.80 0.97 0.78 0.78 0.68 0.55 0.59 0.70 0.65 0.49 0.44 0.39 0.29 0.19 0.14 0.07 0.03 0.03 0.03 0.06 0.08 0.04 0.00 0.00 0.00 0.01 0.02 0.02 0.01 0.01 0.00 0.06 0.07 0.07 0.05
0.79 0.81 0.88 0.75 0.73 0.89 0.99 0.98 0.72 0.61 0.65 0.58 0.63 0.60 0.50 0.43 0.31 0.19 0.10 0.08 0.05 0.02 0.00 0.00 0.00 0.01 0.04 0.08 0.03 0.00 0.00 0.00 0.05 0.02 0.00 0.00 0.00 0.00 0.00 0.01 0.07 0.25 0.14
0.86 0.88 0.70 0.73 0.45 0.61 0.69 0.62 0.47 0.37 0.42 0.43 0.39 0.32 0.22 0.13 0.06 0.02 0.01 0.01 0.00 0.00 0.00 0.00 0.00 0.02 0.04 0.03 0.02 0.00 0.01 0.02 0.02 0.00 0.00 0.00 0.00 0.00 0.00 0.00 0.02 0.21 0.40
0.44 0.46 0.31 0.26 0.23 0.18 0.19 0.27 0.24 0.14 0.10 0.04 0.01 0.00 0.00 0.00 0.00 0.00 0.00 0.00 0.01 0.01 0.01 0.00 0.01 0.03 0.02 0.00 0.00 0.01 0.02 0.01 0.00 0.00 0.00 0.00 0.00 0.00 0.00 0.00 0.00 0.02 0.10
0.02 0.01 0.01 0.01 0.01 0.00 0.00 0.00 0.00 0.00 0.00 0.00 0.00 0.00 0.00 0.00 0.00 0.00 0.00 0.00 0.01 0.02 0.01 0.01 0.01 0.00 0.00 0.00 0.00 0.00 0.00 0.00 0.00 0.01 0.01 0.00 0.00 0.00 0.00 0.00 0.00 0.00 0.01
0.00 0.00 0.00 0.00 0.00 0.00 0.00 0.00 0.00 0.00 0.00 0.00 0.00 0.00 0.00 0.00 0.00 0.00 0.00 0.00 0.01 0.01 0.00 0.00 0.00 0.00 0.00 0.00 0.00 0.00 0.00 0.00 0.01 0.03 0.01 0.00 0.00 0.00 0.00 0.00 0.03 0.01 0.06
0.00 0.00 0.00 0.00 0.00 0.00 0.00 0.00 0.00 0.00 0.00 0.00 0.00 0.00 0.00 0.00 0.00 0.00 0.01 0.02 0.01 0.01 0.01 0.00 0.00 0.00 0.00 0.00 0.00 0.00 0.00 0.00 0.01 0.01 0.02 0.02 0.01 0.00 0.00 0.00 0.04 0.09 0.12
0.00 0.00 0.00 0.00 0.00 0.00 0.00 0.00 0.00 0.00 0.00 0.00 0.00 0.00 0.00 0.00 0.00 0.00 0.01 0.01 0.01 0.01 0.00 0.00 0.00 0.00 0.00 0.00 0.00 0.00 0.00 0.00 0.01 0.02 0.03 0.04 0.07 0.05 0.05 0.02 0.03 0.09 0.11
0.00 0.00 0.00 0.00 0.00 0.00 0.00 0.00 0.00 0.00 0.00 0.00 0.00 0.00 0.00 0.00 0.00 0.01 0.01 0.00 0.00 0.00 0.00 0.00 0.00 0.00 0.00 0.00 0.01 0.02 0.01 0.00 0.02 0.04 0.05 0.07 0.14 0.10 0.05 0.05 0.04 0.06 0.05
0.00 0.00 0.00 0.00 0.00 0.00 0.00 0.00 0.00 0.00 0.00 0.00 0.00 0.00 0.00 0.00 0.00 0.01 0.00 0.00 0.00 0.00 0.00 0.00 0.00 0.00 0.00 0.01 0.02 0.03 0.03 0.01 0.02 0.03 0.09 0.13 0.15 0.18 0.10 0.09 0.08 0.14 0.18
0.00 0.00 0.00 0.00 0.00 0.00 0.00 0.00 0.00 0.00 0.00 0.00 0.00 0.00 0.00 0.00 0.00 0.00 0.00 0.00 0.00 0.00 0.00 0.00 0.00 0.00 0.01 0.02 0.03 0.04 0.04 0.06 0.09 0.13 0.10 0.13 0.14 0.26 0.15 0.07 0.09 0.09 0.14
0.00 0.00 0.00 0.00 0.00 0.00 0.00 0.00 0.00 0.00 0.00 0.00 0.00 0.00 0.00 0.00 0.00 0.00 0.00 0.00 0.00 0.00 0.00 0.00 0.00 0.00 0.01 0.03 0.04 0.04 0.04 0.02 0.05 0.06 0.09 0.14 0.15 0.21 0.27 0.19 0.13 0.19 0.10
0.04 0.05 0.04 0.01 0.00 0.00 0.00 0.00 0.00 0.00 0.00 0.00 0.00 0.00 0.00 0.00 0.00 0.00 0.00 0.00 0.00 0.00 0.00 0.00 0.00 0.01 0.02 0.03 0.05 0.05 0.04 0.03 0.07 0.13 0.12 0.14 0.19 0.23 0.14 0.16 0.17 0.16 0.18
0.02 0.04 0.04 0.02 0.02 0.01 0.00 0.00 0.00 0.00 0.00 0.00 0.00 0.00 0.00 0.00 0.00 0.00 0.00 0.00 0.00 0.00 0.00 0.01 0.01 0.02 0.07 0.13 0.15 0.11 0.04 0.04 0.06 0.13 0.11 0.13 0.17 0.15 0.13 0.16 0.19 0.27 0.22
0.01 0.01 0.02 0.01 0.01 0.01 0.01 0.00 0.00 0.00 0.00 0.00 0.00 0.00 0.00 0.00 0.00 0.00 0.00 0.00 0.00 0.00 0.00 0.01 0.03 0.02 0.02 0.10 0.18 0.27 0.24 0.13 0.17 0.23 0.25 0.16 0.14 0.22 0.36 0.42 0.36 0.26 0.12
0.01 0.03 0.04 0.03 0.03 0.03 0.02 0.00 0.00 0.00 0.00 0.00 0.00 0.00 0.00 0.00 0.00 0.00 0.00 0.00 0.00 0.00 0.00 0.01 0.03 0.07 0.08 0.07 0.09 0.14 0.26 0.31 0.37 0.40 0.62 0.80 0.62 0.42 0.35 0.28 0.22 0.16 0.12
0.06 0.09 0.10 0.08 0.07 0.06 0.03 0.01 0.00 0.00 0.00 0.00 0.00 0.00 0.00 0.00 0.00 0.00 0.00 0.00 0.00 0.00 0.00 0.01 0.04 0.09 0.09 0.11 0.11 0.13 0.17 0.26 0.51 0.58 0.55 0.49 0.37 0.24 0.24 0.23 0.17 0.15 0.10
0.15 0.16 0.15 0.12 0.09 0.06 0.05 0.03 0.01 0.01 0.00 0.00 0.00 0.00 0.00 0.00 0.00 0.00 0.00 0.00 0.00 0.00 0.01 0.01 0.04 0.08 0.11 0.08 0.06 0.10 0.18 0.21 0.27 0.25 0.33 0.42 0.33 0.24 0.21 0.26 0.19 0.20 0.19

GFSGL_prec_precacc_054.txt.gz
Total_Precipitation_Accumulation
0.05 0.01 0.02 0.05 0.05 0.06 0.05 0.05 0.04 0.04 0.04 0.05 0.08 0.09 0.08 0.08 0.10 0.16 0.19 0.19 0.24 0.24 0.23 0.28 0.31 0.35 0.44 0.53 0.59 0.68 0.79 0.90 0.95 0.82 0.63 0.54 0.48 0.44 0.47 0.42 0.39 0.37 0.37
0.03 0.01 0.02 0.05 0.05 0.05 0.05 0.05 0.05 0.04 0.05 0.06 0.07 0.06 0.05 0.04 0.04 0.06 0.10 0.14 0.17 0.18 0.19 0.20 0.17 0.16 0.20 0.24 0.26 0.32 0.43 0.53 0.65 0.73 0.67 0.63 0.58 0.52 0.47 0.39 0.33 0.30 0.29
0.04 0.04 0.04 0.04 0.04 0.06 0.07 0.07 0.07 0.07 0.08 0.07 0.05 0.05 0.06 0.05 0.05 0.04 0.06 0.11 0.13 0.16 0.17 0.18 0.18 0.18 0.21 0.25 0.28 0.33 0.40 0.47 0.54 0.61 0.61 0.55 0.49 0.44 0.37 0.26 0.24 0.21 0.18
0.11 0.08 0.06 0.08 0.07 0.07 0.06 0.06 0.06 0.07 0.07 0.06 0.08 0.08 0.07 0.06 0.08 0.11 0.14 0.16 0.16 0.17 0.18 0.20 0.20 0.20 0.22 0.26 0.31 0.38 0.40 0.37 0.34 0.32 0.36 0.31 0.25 0.20 0.16 0.12 0.09 0.06 0.03
0.16 0.13 0.09 0.08 0.09 0.07 0.05 0.07 0.07 0.06 0.06 0.04 0.08 0.15 0.17 0.17 0.16 0.13 0.11 0.12 0.15 0.19 0.21 0.23 0.26 0.32 0.39 0.37 0.32 0.30 0.30 0.32 0.36 0.37 0.26 0.21 0.12 0.05 0.04 0.03 0.03 0.03 0.01
0.11 0.11 0.08 0.08 0.08 0.09 0.08 0.05 0.08 0.08 0.08 0.12 0.11 0.11 0.14 0.18 0.35 0.27 0.18 0.15 0.17 0.21 0.26 0.33 0.41 0.49 0.45 0.41 0.33 0.26 0.21 0.27 0.27 0.24 0.19 0.07 0.02 0.01 0.01 0.03 0.06 0.06 0.06
0.15 0.17 0.17 0.13 0.20 0.20 0.15 0.13 0.11 0.15 0.24 0.23 0.22 0.26 0.25 0.23 0.32 0.27 0.33 0.36 0.42 0.47 0.48 0.44 0.36 0.33 0.31 0.26 0.22 0.22 0.24 0.18 0.12 0.07 0.02 0.00 0.01 0.03 0.10 0.10 0.08 0.11 0.06
0.22 0.33 0.57 0.48 0.52 0.60 0.75 0.63 0.64 0.52 0.46 0.54 0.56 0.58 0.64 0.76 0.78 0.67 0.53 0.44 0.45 0.47 0.44 0.39 0.32 0.26 0.18 0.13 0.16 0.19 0.08 0.02 0.00 0.00 0.00 0.01 0.04 0.04 0.07 0.17 0.10 0.07 0.02
0.63 0.81 0.80 0.70 0.74 0.84 1.06 1.14 0.80 0.97 0.78 0.78 0.68 0.55 0.59 0.70 0.65 0.49 0.44 0.39 0.29 0.19 0.14 0.07 0.03 0.03 0.03 0.06 0.08 0.04 0.00 0.00 0.00 0.01 0.02 0.02 0.01 0.01 0.00 0.06 0.07 0.07 0.05
0.79 0.81 0.88 0.75 0.73 0.89 0.99 0.98 0.72 0.61 0.65 0.58 0.63 0.60 0.50 0.43 0.31 0.19 0.10 0.08 0.05 0.02 0.00 0.00 0.00 0.01 0.04 0.08 0.03 0.00 0.00 0.00 0.05 0.02 0.00 0.00 0.00 0.00 0.00 0.01 0.07 0.25 0.14
0.86 0.88 0.70 0.73 0.45 0.61 0.69 0.62 0.47 0.37 0.42 0.43 0.39 0.32 0.22 0.13 0.06 0.02 0.01 0.01 0.00 0.00 0.00 0.00 0.00 0.02 0.04 0.03 0.02 0.00 0.01 0.02 0.02 0.00 0.00 0.00 0.00 0.00 0.00 0.00 0.02 0.21 0.40
0.44 0.46 0.31 0.26 0.23 0.18 0.19 0.27 0.24 0.14 0.10 0.04 0.01 0.00 0.00 0.00 0.00 0.00 0.00 0.00 0.01 0.01 0.01 0.00 0.01 0.03 0.02 0.00 0.00 0.01 0.02 0.01 0.00 0.00 0.00 0.00 0.00 0.00 0.00 0.00 0.00 0.02 0.10
0.02 0.01 0.01 0.01 0.01 0.00 0.00 0.00 0.00 0.00 0.00 0.00 0.00 0.00 0.00 0.00 0.00 0.00 0.00 0.00 0.01 0.02 0.01 0.01 0.01 0.00 0.00 0.00 0.00 0.00 0.00 0.00 0.00 0.01 0.01 0.00 0.00 0.00 0.00 0.00 0.00 0.00 0.01
0.00 0.00 0.00 0.00 0.00 0.00 0.00 0.00 0.00 0.00 0.00 0.00 0.00 0.00 0.00 0.00 0.00 0.00 0.00 0.00 0.01 0.01 0.00 0.00 0.00 0.00 0.00 0.00 0.00 0.00 0.00 0.00 0.01 0.03 0.01 0.00 0.00 0.00 0.00 0.00 0.03 0.01 0.06
0.00 0.00 0.00 0.00 0.00 0.00 0.00 0.00 0.00 0.00 0.00 0.00 0.00 0.00 0.00 0.00 0.00 0.00 0.01 0.02 0.01 0.01 0.01 0.00 0.00 0.00 0.00 0.00 0.00 0.00 0.00 0.00 0.01 0.01 0.02 0.02 0.01 0.00 0.00 0.00 0.04 0.09 0.12
0.00 0.00 0.00 0.00 0.00 0.00 0.00 0.00 0.00 0.00 0.00 0.00 0.00 0.00 0.00 0.00 0.00 0.00 0.01 0.01 0.01 0.01 0.00 0.00 0.00 0.00 0.00 0.00 0.00 0.00 0.00 0.00 0.01 0.02 0.03 0.04 0.07 0.05 0.06 0.03 0.03 0.09 0.12
0.00 0.00 0.00 0.00 0.00 0.00 0.00 0.00 0.00 0.00 0.00 0.00 0.00 0.00 0.00 0.00 0.00 0.01 0.01 0.00 0.00 0.00 0.00 0.00 0.00 0.00 0.00 0.00 0.01 0.02 0.01 0.00 0.02 0.04 0.05 0.07 0.14 0.10 0.05 0.05 0.04 0.06 0.05
0.00 0.00 0.00 0.00 0.00 0.00 0.00 0.00 0.00 0.00 0.00 0.00 0.00 0.00 0.00 0.00 0.00 0.01 0.00 0.00 0.00 0.00 0.00 0.00 0.00 0.00 0.00 0.01 0.02 0.03 0.03 0.01 0.02 0.03 0.09 0.13 0.15 0.18 0.10 0.09 0.08 0.15 0.18
0.01 0.00 0.00 0.00 0.00 0.00 0.00 0.00 0.00 0.00 0.00 0.00 0.00 0.00 0.00 0.00 0.00 0.00 0.00 0.00 0.00 0.00 0.00 0.00 0.00 0.00 0.01 0.02 0.03 0.04 0.04 0.06 0.09 0.13 0.10 0.13 0.14 0.26 0.15 0.07 0.09 0.09 0.14
0.00 0.02 0.01 0.00 0.00 0.00 0.00 0.00 0.00 0.00 0.00 0.00 0.00 0.00 0.00 0.00 0.00 0.00 0.00 0.00 0.00 0.00 0.00 0.00 0.00 0.00 0.01 0.03 0.04 0.04 0.04 0.02 0.05 0.06 0.09 0.14 0.15 0.21 0.27 0.19 0.13 0.19 0.11
0.04 0.07 0.10 0.04 0.01 0.00 0.00 0.00 0.00 0.00 0.00 0.00 0.00 0.00 0.00 0.00 0.00 0.00 0.00 0.00 0.00 0.00 0.00 0.00 0.00 0.01 0.02 0.03 0.05 0.05 0.04 0.03 0.07 0.13 0.12 0.14 0.19 0.24 0.14 0.17 0.17 0.17 0.19
0.02 0.04 0.05 0.03 0.04 0.04 0.03 0.03 0.02 0.01 0.00 0.00 0.00 0.00 0.00 0.00 0.00 0.00 0.00 0.00 0.00 0.00 0.00 0.01 0.01 0.02 0.07 0.13 0.15 0.11 0.04 0.04 0.06 0.13 0.11 0.13 0.17 0.15 0.14 0.17 0.20 0.27 0.22
0.01 0.01 0.02 0.02 0.03 0.06 0.09 0.05 0.03 0.02 0.00 0.00 0.00 0.00 0.00 0.00 0.00 0.00 0.00 0.00 0.00 0.00 0.00 0.01 0.03 0.02 0.02 0.10 0.18 0.27 0.24 0.13 0.17 0.24 0.26 0.16 0.15 0.23 0.36 0.42 0.36 0.26 0.12
0.01 0.03 0.04 0.05 0.05 0.07 0.07 0.07 0.06 0.03 0.01 0.00 0.00 0.00 0.00 0.00 0.00 0.00 0.00 0.00 0.00 0.00 0.00 0.01 0.03 0.07 0.08 0.07 0.09 0.14 0.26 0.31 0.38 0.41 0.63 0.81 0.62 0.42 0.36 0.29 0.22 0.16 0.12
0.06 0.09 0.11 0.11 0.11 0.11 0.07 0.06 0.03 0.02 0.01 0.01 0.01 0.00 0.00 0.00 0.00 0.00 0.00 0.00 0.00 0.00 0.00 0.01 0.04 0.09 0.09 0.11 0.11 0.13 0.17 0.26 0.51 0.59 0.56 0.50 0.37 0.24 0.25 0.23 0.18 0.15 0.10
0.15 0.16 0.17 0.16 0.12 0.10 0.07 0.06 0.05 0.06 0.05 0.03 0.01 0.00 0.00 0.00 0.00 0.00 0.00 0.00 0.00 0.00 0.01 0.01 0.04 0.08 0.11 0.08 0.06 0.10 0.18 0.21 0.27 0.25 0.34 0.45 0.36 0.26 0.22 0.28 0.20 0.21 0.21

GFSGL_prec_precacc_057.txt.gz
Total_Precipitation_Accumulation
0.05 0.01 0.02 0.05 0.05 0.06 0.05 0.05 0.04 0.04 0.04 0.05 0.08 0.09 0.08 0.08 0.10 0.16 0.19 0.19 0.24 0.24 0.23 0.28 0.31 0.35 0.44 0.53 0.59 0.68 0.79 0.90 0.95 0.82 0.63 0.54 0.48 0.44 0.47 0.42 0.39 0.37 0.37
0.03 0.01 0.02 0.05 0.05 0.05 0.05 0.05 0.05 0.04 0.05 0.06 0.07 0.06 0.05 0.04 0.04 0.06 0.10 0.14 0.17 0.18 0.19 0.20 0.17 0.16 0.20 0.24 0.26 0.32 0.43 0.53 0.65 0.73 0.67 0.63 0.58 0.52 0.47 0.39 0.33 0.30 0.29
0.04 0.04 0.04 0.04 0.04 0.06 0.07 0.07 0.07 0.07 0.08 0.07 0.05 0.05 0.06 0.05 0.05 0.04 0.06 0.11 0.13 0.16 0.17 0.18 0.18 0.18 0.21 0.25 0.28 0.33 0.40 0.47 0.54 0.61 0.61 0.55 0.49 0.44 0.37 0.26 0.24 0.21 0.18
0.11 0.08 0.06 0.08 0.07 0.07 0.06 0.06 0.06 0.07 0.07 0.06 0.08 0.08 0.07 0.06 0.08 0.11 0.14 0.16 0.16 0.17 0.18 0.20 0.20 0.20 0.22 0.26 0.31 0.38 0.40 0.37 0.34 0.32 0.36 0.31 0.25 0.20 0.16 0.12 0.09 0.06 0.03
0.16 0.13 0.09 0.08 0.09 0.07 0.05 0.07 0.07 0.06 0.06 0.04 0.08 0.15 0.17 0.17 0.16 0.13 0.11 0.12 0.15 0.19 0.21 0.23 0.26 0.33 0.39 0.37 0.32 0.30 0.30 0.32 0.36 0.37 0.26 0.21 0.12 0.05 0.04 0.03 0.03 0.03 0.01
0.11 0.11 0.08 0.08 0.08 0.09 0.08 0.05 0.08 0.08 0.08 0.12 0.11 0.11 0.14 0.18 0.35 0.28 0.18 0.15 0.17 0.21 0.26 0.33 0.41 0.49 0.45 0.41 0.33 0.26 0.21 0.27 0.27 0.24 0.19 0.07 0.02 0.01 0.01 0.03 0.06 0.06 0.06
0.15 0.17 0.17 0.13 0.20 0.20 0.15 0.13 0.11 0.15 0.24 0.23 0.22 0.26 0.25 0.23 0.33 0.28 0.33 0.36 0.42 0.47 0.48 0.44 0.36 0.33 0.31 0.26 0.22 0.22 0.24 0.18 0.12 0.07 0.02 0.00 0.01 0.03 0.10 0.10 0.08 0.11 0.06
0.22 0.33 0.57 0.48 0.52 0.60 0.75 0.63 0.64 0.52 0.46 0.54 0.56 0.58 0.64 0.76 0.78 0.67 0.53 0.44 0.45 0.47 0.44 0.39 0.32 0.26 0.18 0.13 0.16 0.19 0.08 0.02 0.00 0.00 0.00 0.01 0.04 0.04 0.07 0.17 0.10 0.07 0.02
0.63 0.81 0.80 0.70 0.74 0.84 1.06 1.14 0.80 0.97 0.78 0.78 0.68 0.55 0.59 0.70 0.65 0.49 0.44 0.39 0.29 0.19 0.14 0.07 0.03 0.03 0.03 0.06 0.08 0.04 0.00 0.00 0.00 0.01 0.02 0.02 0.01 0.01 0.00 0.06 0.07 0.07 0.05
0.79 0.81 0.88 0.75 0.73 0.89 0.99 0.98 0.72 0.61 0.65 0.58 0.63 0.60 0.50 0.43 0.31 0.19 0.10 0.08 0.05 0.02 0.00 0.00 0.00 0.01 0.04 0.08 0.03 0.00 0.00 0.00 0.05 0.02 0.00 0.00 0.00 0.00 0.00 0.01 0.07 0.25 0.14
0.86 0.88 0.70 0.73 0.45 0.61 0.69 0.62 0.47 0.37 0.42 0.43 0.39 0.32 0.22 0.13 0.06 0.02 0.01 0.01 0.00 0.00 0.00 0.00 0.00 0.02 0.04 0.03 0.02 0.00 0.01 0.02 0.02 0.00 0.00 0.00 0.00 0.00 0.00 0.00 0.02 0.21 0.40
0.44 0.46 0.31 0.26 0.23 0.18 0.19 0.27 0.24 0.14 0.10 0.04 0.01 0.00 0.00 0.00 0.00 0.00 0.00 0.00 0.01 0.01 0.01 0.00 0.01 0.03 0.02 0.00 0.00 0.01 0.02 0.01 0.00 0.00 0.00 0.00 0.00 0.00 0.00 0.00 0.00 0.02 0.10
0.02 0.01 0.01 0.01 0.01 0.00 0.00 0.00 0.00 0.00 0.00 0.00 0.00 0.00 0.00 0.00 0.00 0.00 0.00 0.00 0.01 0.02 0.01 0.01 0.01 0.00 0.00 0.00 0.00 0.00 0.00 0.00 0.00 0.01 0.01 0.00 0.00 0.00 0.00 0.00 0.00 0.00 0.01
0.00 0.00 0.00 0.00 0.00 0.00 0.00 0.00 0.00 0.00 0.00 0.00 0.00 0.00 0.00 0.00 0.00 0.00 0.00 0.00 0.01 0.01 0.00 0.00 0.00 0.00 0.00 0.00 0.00 0.00 0.00 0.00 0.01 0.03 0.01 0.00 0.00 0.00 0.00 0.00 0.03 0.01 0.06
0.00 0.00 0.00 0.00 0.00 0.00 0.00 0.00 0.00 0.00 0.00 0.00 0.00 0.00 0.00 0.00 0.00 0.00 0.01 0.02 0.01 0.01 0.01 0.00 0.00 0.00 0.00 0.00 0.00 0.00 0.00 0.00 0.01 0.01 0.02 0.02 0.01 0.00 0.00 0.00 0.04 0.09 0.12
0.00 0.00 0.00 0.00 0.00 0.00 0.00 0.00 0.00 0.00 0.00 0.00 0.00 0.00 0.00 0.00 0.00 0.00 0.01 0.01 0.01 0.01 0.00 0.00 0.00 0.00 0.00 0.00 0.00 0.00 0.00 0.00 0.01 0.02 0.03 0.04 0.07 0.05 0.06 0.03 0.03 0.09 0.12
0.00 0.00 0.00 0.00 0.00 0.00 0.00 0.00 0.00 0.00 0.00 0.00 0.00 0.00 0.00 0.00 0.00 0.01 0.01 0.00 0.00 0.00 0.00 0.00 0.00 0.00 0.00 0.00 0.01 0.02 0.01 0.00 0.02 0.04 0.05 0.07 0.14 0.10 0.05 0.05 0.04 0.06 0.05
0.03 0.00 0.00 0.00 0.00 0.00 0.00 0.00 0.00 0.00 0.00 0.00 0.00 0.00 0.00 0.00 0.00 0.01 0.00 0.00 0.00 0.00 0.00 0.00 0.00 0.00 0.00 0.01 0.02 0.03 0.03 0.01 0.02 0.03 0.09 0.13 0.15 0.18 0.10 0.09 0.08 0.15 0.18
0.01 0.00 0.00 0.00 0.00 0.00 0.00 0.00 0.00 0.00 0.00 0.00 0.00 0.00 0.00 0.00 0.00 0.00 0.00 0.00 0.00 0.00 0.00 0.00 0.00 0.00 0.01 0.02 0.03 0.04 0.04 0.06 0.09 0.13 0.10 0.13 0.14 0.26 0.15 0.07 0.09 0.09 0.14
0.00 0.02 0.02 0.00 0.00 0.00 0.00 0.00 0.00 0.00 0.00 0.00 0.00 0.00 0.00 0.00 0.00 0.00 0.00 0.00 0.00 0.00 0.00 0.00 0.00 0.00 0.01 0.03 0.04 0.04 0.04 0.02 0.05 0.06 0.09 0.14 0.15 0.21 0.27 0.19 0.13 0.20 0.11
0.04 0.07 0.10 0.04 0.02 0.01 0.01 0.01 0.01 0.01 0.01 0.00 0.00 0.00 0.00 0.00 0.00 0.00 0.00 0.00 0.00 0.00 0.00 0.00 0.00 0.01 0.02 0.03 0.05 0.05 0.04 0.03 0.07 0.13 0.12 0.14 0.19 0.24 0.15 0.17 0.18 0.17 0.19
0.02 0.04 0.05 0.03 0.04 0.05 0.04 0.04 0.04 0.03 0.02 0.01 0.01 0.01 0.00 0.00 0.00 0.00 0.00 0.00 0.00 0.00 0.00 0.01 0.01 0.02 0.07 0.13 0.15 0.11 0.04 0.04 0.06 0.13 0.11 0.13 0.18 0.16 0.14 0.18 0.20 0.28 0.23
0.01 0.01 0.02 0.02 0.03 0.07 0.11 0.06 0.05 0.04 0.04 0.03 0.02 0.01 0.00 0.00 0.00 0.00 0.00 0.00 0.00 0.00 0.00 0.01 0.03 0.02 0.02 0.10 0.18 0.27 0.24 0.13 0.17 0.24 0.26 0.16 0.15 0.23 0.37 0.43 0.36 0.27 0.12
0.01 0.03 0.04 0.05 0.05 0.09 0.10 0.10 0.09 0.09 0.08 0.05 0.03 0.01 0.00 0.00 0.00 0.00 0.00 0.00 0.00 0.00 0.00 0.01 0.03 0.07 0.08 0.07 0.09 0.14 0.26 0.31 0.38 0.41 0.63 0.82 0.62 0.42 0.36 0.29 0.22 0.16 0.12
0.06 0.09 0.11 0.11 0.13 0.14 0.11 0.10 0.08 0.08 0.07 0.05 0.04 0.03 0.02 0.01 0.01 0.00 0.00 0.00 0.00 0.00 0.00 0.01 0.04 0.09 0.09 0.11 0.11 0.13 0.17 0.26 0.51 0.60 0.57 0.51 0.38 0.24 0.25 0.24 0.18 0.16 0.11
0.15 0.16 0.17 0.17 0.14 0.12 0.10 0.10 0.10 0.12 0.11 0.09 0.07 0.05 0.03 0.01 0.00 0.00 0.00 0.00 0.00 0.00 0.01 0.01 0.04 0.08 0.11 0.08 0.06 0.10 0.18 0.21 0.28 0.26 0.36 0.47 0.38 0.28 0.23 0.29 0.22 0.23 0.22

GFSGL_prec_precacc_060.txt.gz
Total_Precipitation_Accumulation
0.05 0.01 0.02 0.05 0.05 0.06 0.05 0.05 0.04 0.04 0.04 0.05 0.08 0.09 0.08 0.08 0.10 0.16 0.19 0.19 0.24 0.24 0.23 0.28 0.31 0.35 0.44 0.53 0.59 0.68 0.79 0.90 0.95 0.82 0.63 0.54 0.48 0.44 0.47 0.42 0.39 0.37 0.38
0.03 0.01 0.02 0.05 0.05 0.05 0.05 0.05 0.05 0.04 0.05 0.06 0.07 0.06 0.05 0.04 0.04 0.06 0.10 0.14 0.17 0.18 0.19 0.20 0.17 0.16 0.20 0.24 0.26 0.32 0.43 0.53 0.65 0.73 0.67 0.63 0.58 0.52 0.47 0.39 0.33 0.30 0.29
0.04 0.04 0.04 0.04 0.04 0.06 0.07 0.07 0.07 0.07 0.08 0.07 0.05 0.05 0.06 0.05 0.05 0.04 0.06 0.11 0.13 0.16 0.17 0.18 0.18 0.18 0.21 0.25 0.28 0.33 0.40 0.47 0.54 0.61 0.61 0.55 0.49 0.44 0.37 0.26 0.24 0.21 0.18
0.11 0.08 0.06 0.08 0.07 0.07 0.06 0.06 0.06 0.07 0.07 0.06 0.08 0.08 0.07 0.06 0.08 0.11 0.14 0.16 0.16 0.17 0.18 0.20 0.20 0.20 0.22 0.26 0.31 0.38 0.40 0.37 0.34 0.32 0.36 0.31 0.25 0.20 0.16 0.12 0.09 0.06 0.03
0.16 0.13 0.09 0.08 0.09 0.07 0.05 0.07 0.07 0.06 0.06 0.04 0.08 0.15 0.17 0.17 0.16 0.13 0.11 0.12 0.15 0.19 0.21 0.23 0.26 0.33 0.39 0.37 0.32 0.30 0.30 0.32 0.36 0.37 0.26 0.21 0.12 0.05 0.04 0.03 0.03 0.03 0.01
0.11 0.11 0.08 0.08 0.08 0.09 0.08 0.05 0.08 0.08 0.08 0.12 0.11 0.11 0.14 0.18 0.35 0.28 0.18 0.15 0.17 0.21 0.26 0.33 0.41 0.49 0.45 0.41 0.33 0.26 0.21 0.27 0.27 0.24 0.19 0.07 0.02 0.01 0.01 0.03 0.06 0.06 0.06
0.15 0.17 0.17 0.13 0.20 0.20 0.15 0.13 0.11 0.15 0.24 0.23 0.22 0.26 0.25 0.24 0.33 0.28 0.33 0.36 0.42 0.47 0.48 0.44 0.36 0.33 0.31 0.26 0.22 0.22 0.24 0.18 0.12 0.07 0.02 0.00 0.01 0.03 0.10 0.10 0.08 0.11 0.06
0.22 0.33 0.57 0.48 0.52 0.60 0.75 0.63 0.64 0.52 0.46 0.54 0.56 0.58 0.64 0.76 0.78 0.67 0.53 0.44 0.45 0.47 0.44 0.39 0.32 0.26 0.18 0.13 0.16 0.19 0.08 0.02 0.00 0.00 0.00 0.01 0.04 0.04 0.07 0.17 0.10 0.07 0.02
0.63 0.81 0.80 0.70 0.74 0.84 1.06 1.14 0.80 0.97 0.78 0.78 0.68 0.55 0.59 0.70 0.65 0.49 0.44 0.39 0.29 0.19 0.14 0.07 0.03 0.03 0.03 0.06 0.08 0.04 0.00 0.00 0.00 0.01 0.02 0.02 0.01 0.01 0.00 0.06 0.07 0.07 0.05
0.79 0.81 0.88 0.75 0.73 0.89 0.99 0.98 0.72 0.61 0.65 0.58 0.63 0.60 0.50 0.43 0.31 0.19 0.10 0.08 0.05 0.02 0.00 0.00 0.00 0.01 0.04 0.08 0.03 0.00 0.00 0.00 0.05 0.02 0.00 0.00 0.00 0.00 0.00 0.01 0.07 0.25 0.14
0.86 0.88 0.70 0.73 0.45 0.61 0.69 0.62 0.47 0.37 0.42 0.43 0.39 0.32 0.22 0.13 0.06 0.02 0.01 0.01 0.00 0.00 0.00 0.00 0.00 0.02 0.04 0.03 0.02 0.00 0.01 0.02 0.02 0.00 0.00 0.00 0.00 0.00 0.00 0.00 0.02 0.21 0.40
0.44 0.46 0.31 0.26 0.23 0.18 0.19 0.27 0.24 0.14 0.10 0.04 0.01 0.00 0.00 0.00 0.00 0.00 0.00 0.00 0.01 0.01 0.01 0.00 0.01 0.03 0.02 0.00 0.00 0.01 0.02 0.01 0.00 0.00 0.00 0.00 0.00 0.00 0.00 0.00 0.00 0.02 0.10
0.02 0.01 0.01 0.01 0.01 0.00 0.00 0.00 0.00 0.00 0.00 0.00 0.00 0.00 0.00 0.00 0.00 0.00 0.00 0.00 0.01 0.02 0.01 0.01 0.01 0.00 0.00 0.00 0.00 0.00 0.00 0.00 0.00 0.01 0.01 0.00 0.00 0.00 0.00 0.00 0.00 0.00 0.01
0.01 0.00 0.00 0.00 0.00 0.00 0.00 0.00 0.00 0.00 0.00 0.00 0.00 0.00 0.00 0.00 0.00 0.00 0.00 0.00 0.01 0.01 0.00 0.00 0.00 0.00 0.00 0.00 0.00 0.00 0.00 0.00 0.01 0.03 0.01 0.00 0.00 0.00 0.00 0.00 0.03 0.01 0.06
0.00 0.00 0.00 0.00 0.00 0.00 0.00 0.00 0.00 0.00 0.00 0.00 0.00 0.00 0.00 0.00 0.00 0.00 0.01 0.02 0.01 0.01 0.01 0.00 0.00 0.00 0.00 0.00 0.00 0.00 0.00 0.00 0.01 0.01 0.02 0.02 0.01 0.00 0.00 0.00 0.04 0.09 0.12
0.02 0.00 0.00 0.00 0.00 0.00 0.00 0.00 0.00 0.00 0.00 0.00 0.00 0.00 0.00 0.00 0.00 0.00 0.01 0.01 0.01 0.01 0.00 0.00 0.00 0.00 0.00 0.00 0.00 0.00 0.00 0.00 0.01 0.02 0.03 0.04 0.07 0.05 0.06 0.03 0.03 0.09 0.12
0.07 0.04 0.01 0.00 0.00 0.00 0.00 0.00 0.00 0.00 0.00 0.00 0.00 0.00 0.00 0.00 0.00 0.01 0.01 0.00 0.00 0.00 0.00 0.00 0.00 0.00 0.00 0.00 0.01 0.02 0.01 0.00 0.02 0.04 0.05 0.07 0.14 0.10 0.05 0.05 0.04 0.06 0.05
0.11 0.10 0.07 0.03 0.00 0.00 0.00 0.00 0.00 0.00 0.00 0.00 0.00 0.00 0.00 0.00 0.00 0.01 0.00 0.00 0.00 0.00 0.00 0.00 0.00 0.00 0.00 0.01 0.02 0.03 0.03 0.01 0.02 0.03 0.09 0.13 0.15 0.18 0.10 0.09 0.08 0.15 0.18
0.03 0.06 0.07 0.04 0.00 0.00 0.00 0.00 0.00 0.00 0.00 0.00 0.00 0.00 0.00 0.00 0.00 0.00 0.00 0.00 0.00 0.00 0.00 0.00 0.00 0.00 0.01 0.02 0.03 0.04 0.04 0.06 0.09 0.13 0.10 0.13 0.14 0.26 0.15 0.07 0.09 0.09 0.14
0.00 0.02 0.03 0.01 0.01 0.01 0.01 0.00 0.00 0.00 0.00 0.00 0.00 0.00 0.01 0.00 0.00 0.00 0.00 0.00 0.00 0.00 0.00 0.00 0.00 0.00 0.01 0.03 0.04 0.04 0.04 0.02 0.05 0.06 0.09 0.14 0.15 0.21 0.27 0.19 0.13 0.20 0.11
0.04 0.07 0.10 0.04 0.02 0.01 0.01 0.01 0.01 0.02 0.02 0.01 0.01 0.01 0.01 0.00 0.00 0.00 0.00 0.00 0.00 0.00 0.00 0.00 0.00 0.01 0.02 0.03 0.05 0.05 0.04 0.03 0.07 0.13 0.12 0.14 0.19 0.24 0.15 0.17 0.18 0.17 0.19
0.02 0.04 0.05 0.03 0.04 0.05 0.04 0.04 0.04 0.03 0.02 0.02 0.01 0.02 0.01 0.00 0.00 0.00 0.00 0.00 0.00 0.00 0.00 0.01 0.01 0.02 0.07 0.13 0.15 0.11 0.04 0.04 0.06 0.13 0.11 0.13 0.18 0.16 0.15 0.18 0.20 0.28 0.23
0.01 0.01 0.02 0.02 0.03 0.07 0.12 0.07 0.05 0.05 0.04 0.04 0.03 0.03 0.03 0.01 0.00 0.00 0.00 0.00 0.00 0.00 0.00 0.01 0.03 0.02 0.02 0.10 0.18 0.27 0.24 0.13 0.17 0.24 0.26 0.16 0.15 0.23 0.37 0.43 0.37 0.27 0.12
0.01 0.03 0.04 0.05 0.05 0.09 0.11 0.12 0.11 0.11 0.10 0.08 0.06 0.05 0.03 0.01 0.00 0.00 0.01 0.01 0.00 0.00 0.00 0.01 0.03 0.07 0.08 0.07 0.09 0.14 0.26 0.31 0.38 0.41 0.63 0.82 0.63 0.43 0.37 0.30 0.23 0.17 0.13
0.06 0.09 0.11 0.11 0.13 0.15 0.11 0.11 0.09 0.09 0.10 0.07 0.06 0.06 0.04 0.03 0.02 0.01 0.01 0.00 0.00 0.00 0.00 0.01 0.04 0.09 0.09 0.11 0.11 0.13 0.17 0.26 0.51 0.60 0.58 0.52 0.38 0.25 0.25 0.24 0.19 0.16 0.11
0.15 0.16 0.17 0.17 0.14 0.12 0.10 0.10 0.10 0.12 0.13 0.11 0.09 0.07 0.06 0.04 0.03 0.03 0.02 0.01 0.00 0.00 0.01 0.01 0.04 0.08 0.11 0.08 0.06 0.10 0.18 0.21 0.28 0.27 0.37 0.50 0.40 0.29 0.24 0.31 0.23 0.24 0.23

GFSGL_prec_precacc_063.txt.gz
Total_Precipitation_Accumulation
0.05 0.01 0.02 0.05 0.05 0.06 0.05 0.05 0.04 0.04 0.04 0.05 0.08 0.09 0.08 0.08 0.10 0.16 0.19 0.19 0.24 0.24 0.23 0.28 0.31 0.35 0.44 0.53 0.59 0.68 0.79 0.90 0.95 0.82 0.63 0.54 0.48 0.44 0.47 0.42 0.39 0.37 0.38
0.03 0.01 0.02 0.05 0.05 0.05 0.05 0.05 0.05 0.04 0.05 0.06 0.07 0.06 0.05 0.04 0.04 0.06 0.10 0.14 0.17 0.18 0.19 0.20 0.17 0.16 0.20 0.24 0.26 0.32 0.43 0.53 0.65 0.73 0.67 0.63 0.58 0.52 0.47 0.39 0.33 0.30 0.29
0.04 0.04 0.04 0.04 0.04 0.06 0.07 0.07 0.07 0.07 0.08 0.07 0.05 0.05 0.06 0.05 0.05 0.04 0.06 0.11 0.13 0.16 0.17 0.18 0.18 0.18 0.21 0.25 0.28 0.33 0.40 0.47 0.54 0.61 0.61 0.55 0.49 0.44 0.37 0.26 0.24 0.21 0.18
0.11 0.08 0.06 0.08 0.07 0.07 0.06 0.06 0.06 0.07 0.07 0.06 0.08 0.08 0.07 0.06 0.08 0.11 0.14 0.16 0.16 0.17 0.18 0.20 0.20 0.20 0.22 0.26 0.31 0.38 0.40 0.37 0.34 0.32 0.36 0.31 0.25 0.20 0.16 0.12 0.09 0.06 0.03
0.16 0.13 0.09 0.08 0.09 0.07 0.05 0.07 0.07 0.06 0.06 0.04 0.08 0.15 0.17 0.17 0.16 0.13 0.11 0.12 0.15 0.19 0.21 0.23 0.26 0.33 0.39 0.37 0.32 0.30 0.30 0.32 0.36 0.37 0.26 0.21 0.12 0.05 0.04 0.03 0.03 0.03 0.01
0.11 0.11 0.08 0.08 0.08 0.09 0.08 0.05 0.08 0.08 0.08 0.12 0.11 0.11 0.14 0.18 0.36 0.28 0.18 0.15 0.17 0.21 0.26 0.33 0.41 0.49 0.45 0.41 0.33 0.26 0.21 0.27 0.27 0.24 0.19 0.07 0.02 0.01 0.01 0.03 0.06 0.06 0.06
0.15 0.17 0.17 0.13 0.20 0.20 0.15 0.13 0.11 0.15 0.24 0.23 0.22 0.26 0.25 0.24 0.34 0.28 0.33 0.36 0.42 0.47 0.48 0.44 0.36 0.33 0.31 0.26 0.22 0.22 0.24 0.18 0.12 0.07 0.02 0.00 0.01 0.03 0.10 0.10 0.08 0.11 0.06
0.22 0.33 0.57 0.48 0.52 0.60 0.75 0.63 0.64 0.52 0.46 0.54 0.56 0.58 0.64 0.76 0.78 0.67 0.53 0.44 0.45 0.47 0.44 0.39 0.32 0.26 0.18 0.13 0.16 0.19 0.08 0.02 0.00 0.00 0.00 0.01 0.04 0.04 0.07 0.17 0.10 0.07 0.02
0.63 0.81 0.80 0.70 0.74 0.84 1.06 1.14 0.80 0.97 0.78 0.78 0.68 0.55 0.59 0.70 0.65 0.49 0.44 0.39 0.29 0.19 0.14 0.07 0.03 0.03 0.03 0.06 0.08 0.04 0.00 0.00 0.00 0.01 0.02 0.02 0.01 0.01 0.00 0.06 0.07 0.07 0.05
0.79 0.81 0.88 0.75 0.73 0.89 0.99 0.98 0.72 0.61 0.65 0.58 0.63 0.60 0.50 0.43 0.31 0.19 0.10 0.08 0.05 0.02 0.00 0.00 0.00 0.01 0.04 0.08 0.03 0.00 0.00 0.00 0.05 0.02 0.00 0.00 0.00 0.00 0.00 0.01 0.07 0.25 0.14
0.86 0.88 0.70 0.73 0.45 0.61 0.69 0.62 0.47 0.37 0.42 0.43 0.39 0.32 0.22 0.13 0.06 0.02 0.01 0.01 0.00 0.00 0.00 0.00 0.00 0.02 0.04 0.03 0.02 0.00 0.01 0.02 0.02 0.00 0.00 0.00 0.00 0.00 0.00 0.00 0.02 0.21 0.40
0.44 0.46 0.31 0.26 0.23 0.18 0.19 0.27 0.24 0.14 0.10 0.04 0.01 0.00 0.00 0.00 0.00 0.00 0.00 0.00 0.01 0.01 0.01 0.00 0.01 0.03 0.02 0.00 0.00 0.01 0.02 0.01 0.00 0.00 0.00 0.00 0.00 0.00 0.00 0.00 0.00 0.02 0.10
0.02 0.01 0.02 0.02 0.02 0.01 0.00 0.00 0.00 0.00 0.00 0.00 0.00 0.00 0.00 0.00 0.00 0.00 0.00 0.00 0.01 0.02 0.01 0.01 0.01 0.00 0.00 0.00 0.00 0.00 0.00 0.00 0.00 0.01 0.01 0.00 0.00 0.00 0.00 0.00 0.00 0.00 0.01
0.01 0.00 0.00 0.01 0.01 0.00 0.00 0.00 0.00 0.00 0.00 0.00 0.00 0.00 0.00 0.00 0.00 0.00 0.00 0.00 0.01 0.01 0.00 0.00 0.00 0.00 0.00 0.00 0.00 0.00 0.00 0.00 0.01 0.03 0.01 0.00 0.00 0.00 0.00 0.00 0.03 0.01 0.06
0.01 0.01 0.00 0.00 0.00 0.00 0.00 0.00 0.00 0.00 0.00 0.00 0.00 0.00 0.00 0.00 0.00 0.00 0.01 0.02 0.01 0.01 0.01 0.00 0.00 0.00 0.00 0.00 0.00 0.00 0.00 0.00 0.01 0.01 0.02 0.02 0.01 0.00 0.00 0.00 0.04 0.09 0.12
0.05 0.02 0.01 0.01 0.01 0.00 0.00 0.00 0.00 0.00 0.00 0.00 0.00 0.00 0.00 0.00 0.00 0.00 0.01 0.01 0.01 0.01 0.00 0.00 0.00 0.00 0.00 0.00 0.00 0.00 0.00 0.00 0.01 0.02 0.03 0.04 0.07 0.05 0.06 0.03 0.03 0.09 0.12
0.10 0.07 0.05 0.04 0.02 0.01 0.00 0.00 0.00 0.00 0.00 0.00 0.00 0.00 0.00 0.00 0.00 0.01 0.01 0.00 0.00 0.00 0.00 0.00 0.00 0.00 0.00 0.00 0.01 0.02 0.01 0.00 0.02 0.04 0.05 0.07 0.14 0.10 0.05 0.05 0.04 0.06 0.05
0.11 0.14 0.09 0.08 0.05 0.04 0.01 0.00 0.00 0.00 0.00 0.00 0.00 0.00 0.00 0.00 0.00 0.01 0.00 0.00 0.00 0.00 0.00 0.00 0.00 0.00 0.00 0.01 0.02 0.03 0.03 0.01 0.02 0.03 0.09 0.13 0.15 0.18 0.10 0.09 0.08 0.15 0.18
0.04 0.07 0.10 0.12 0.08 0.06 0.03 0.01 0.00 0.00 0.01 0.02 0.01 0.00 0.00 0.00 0.00 0.00 0.00 0.00 0.00 0.00 0.00 0.00 0.00 0.00 0.01 0.02 0.03 0.04 0.04 0.06 0.09 0.13 0.10 0.13 0.14 0.26 0.15 0.07 0.09 0.09 0.14
0.00 0.03 0.04 0.03 0.05 0.05 0.03 0.01 0.00 0.00 0.00 0.00 0.00 0.01 0.02 0.00 0.00 0.00 0.00 0.00 0.00 0.00 0.00 0.00 0.00 0.00 0.01 0.03 0.04 0.04 0.04 0.02 0.05 0.06 0.09 0.14 0.15 0.21 0.27 0.19 0.13 0.20 0.11
0.04 0.07 0.10 0.04 0.02 0.02 0.01 0.01 0.01 0.02 0.02 0.02 0.01 0.01 0.01 0.01 0.00 0.00 0.00 0.00 0.00 0.00 0.00 0.00 0.00 0.01 0.02 0.03 0.05 0.05 0.04 0.03 0.07 0.13 0.12 0.14 0.19 0.24 0.15 0.18 0.18 0.18 0.19
0.02 0.04 0.05 0.03 0.04 0.05 0.04 0.04 0.04 0.03 0.02 0.02 0.02 0.02 0.03 0.01 0.00 0.00 0.00 0.00 0.00 0.00 0.00 0.01 0.01 0.02 0.07 0.13 0.15 0.11 0.04 0.04 0.06 0.13 0.11 0.13 0.18 0.16 0.15 0.18 0.21 0.28 0.23
0.01 0.01 0.02 0.02 0.03 0.08 0.13 0.07 0.05 0.05 0.04 0.04 0.04 0.04 0.04 0.03 0.01 0.00 0.00 0.00 0.00 0.00 0.00 0.01 0.03 0.02 0.02 0.10 0.18 0.27 0.24 0.13 0.17 0.24 0.26 0.16 0.16 0.24 0.37 0.44 0.37 0.27 0.13
0.01 0.03 0.04 0.05 0.06 0.10 0.12 0.13 0.12 0.12 0.11 0.10 0.08 0.06 0.05 0.03 0.03 0.02 0.01 0.01 0.01 0.00 0.00 0.01 0.03 0.07 0.08 0.07 0.09 0.14 0.26 0.31 0.38 0.41 0.63 0.82 0.63 0.43 0.38 0.31 0.23 0.17 0.13
0.06 0.09 0.11 0.11 0.13 0.15 0.12 0.12 0.10 0.09 0.10 0.08 0.07 0.07 0.05 0.05 0.04 0.03 0.02 0.01 0.02 0.01 0.00 0.01 0.04 0.09 0.09 0.11 0.11 0.13 0.17 0.26 0.51 0.60 0.58 0.52 0.39 0.25 0.26 0.25 0.19 0.16 0.11
0.15 0.16 0.17 0.17 0.14 0.12 0.10 0.10 0.10 0.12 0.13 0.11 0.09 0.08 0.07 0.06 0.05 0.07 0.06 0.05 0.03 0.02 0.01 0.01 0.04 0.08 0.11 0.08 0.06 0.10 0.18 0.21 0.28 0.27 0.37 0.51 0.41 0.30 0.25 0.31 0.23 0.24 0.23

GFSGL_prec_precacc_066.txt.gz
Total_Precipitation_Accumulation
0.05 0.01 0.02 0.05 0.05 0.06 0.05 0.05 0.04 0.04 0.04 0.05 0.08 0.09 0.08 0.08 0.10 0.16 0.19 0.19 0.24 0.24 0.23 0.28 0.31 0.35 0.44 0.53 0.59 0.68 0.79 0.90 0.95 0.82 0.63 0.54 0.48 0.44 0.47 0.42 0.39 0.37 0.38
0.03 0.01 0.02 0.05 0.05 0.05 0.05 0.05 0.05 0.04 0.05 0.06 0.07 0.06 0.05 0.04 0.04 0.06 0.10 0.14 0.17 0.18 0.19 0.20 0.17 0.16 0.20 0.24 0.26 0.32 0.43 0.53 0.65 0.73 0.67 0.63 0.58 0.52 0.47 0.39 0.33 0.30 0.29
0.04 0.04 0.04 0.04 0.04 0.06 0.07 0.07 0.07 0.07 0.08 0.07 0.05 0.05 0.06 0.05 0.05 0.04 0.06 0.11 0.13 0.16 0.17 0.18 0.18 0.18 0.21 0.25 0.28 0.33 0.40 0.47 0.54 0.61 0.61 0.55 0.49 0.44 0.37 0.26 0.24 0.21 0.18
0.11 0.08 0.06 0.08 0.07 0.07 0.06 0.06 0.06 0.07 0.07 0.06 0.08 0.08 0.07 0.06 0.08 0.11 0.14 0.16 0.16 0.17 0.18 0.20 0.20 0.20 0.22 0.26 0.31 0.38 0.40 0.37 0.34 0.32 0.36 0.31 0.25 0.20 0.16 0.12 0.09 0.06 0.03
0.16 0.13 0.09 0.08 0.09 0.07 0.05 0.07 0.07 0.06 0.06 0.04 0.08 0.15 0.17 0.17 0.16 0.13 0.11 0.12 0.15 0.19 0.21 0.23 0.26 0.33 0.39 0.37 0.32 0.30 0.30 0.32 0.36 0.37 0.26 0.21 0.12 0.05 0.04 0.03 0.03 0.03 0.01
0.11 0.11 0.08 0.08 0.08 0.09 0.08 0.05 0.08 0.08 0.08 0.12 0.11 0.11 0.14 0.18 0.36 0.28 0.18 0.15 0.17 0.21 0.26 0.33 0.41 0.49 0.45 0.41 0.33 0.26 0.21 0.27 0.27 0.24 0.19 0.07 0.02 0.01 0.01 0.03 0.06 0.06 0.06
0.15 0.17 0.17 0.13 0.20 0.20 0.15 0.13 0.11 0.15 0.24 0.23 0.22 0.26 0.25 0.24 0.34 0.28 0.33 0.36 0.42 0.47 0.48 0.44 0.36 0.33 0.31 0.26 0.22 0.22 0.24 0.18 0.12 0.07 0.02 0.00 0.01 0.03 0.10 0.10 0.08 0.11 0.06
0.22 0.33 0.57 0.48 0.52 0.60 0.75 0.63 0.64 0.52 0.46 0.54 0.56 0.58 0.64 0.76 0.79 0.67 0.53 0.44 0.45 0.47 0.44 0.39 0.32 0.26 0.18 0.13 0.16 0.19 0.08 0.02 0.00 0.00 0.00 0.01 0.04 0.04 0.07 0.17 0.10 0.07 0.02
0.63 0.81 0.80 0.70 0.74 0.84 1.06 1.14 0.80 0.97 0.78 0.78 0.68 0.55 0.59 0.70 0.65 0.49 0.44 0.39 0.29 0.19 0.14 0.07 0.03 0.03 0.03 0.06 0.08 0.04 0.00 0.00 0.00 0.01 0.02 0.02 0.01 0.01 0.00 0.06 0.07 0.07 0.05
0.79 0.81 0.88 0.75 0.73 0.89 0.99 0.98 0.72 0.61 0.65 0.58 0.63 0.60 0.50 0.43 0.31 0.19 0.10 0.08 0.05 0.02 0.00 0.00 0.00 0.01 0.04 0.08 0.03 0.00 0.00 0.00 0.05 0.02 0.00 0.00 0.00 0.00 0.00 0.01 0.07 0.25 0.14
0.86 0.88 0.70 0.73 0.45 0.61 0.69 0.62 0.47 0.37 0.42 0.43 0.39 0.32 0.22 0.13 0.06 0.02 0.01 0.01 0.00 0.00 0.00 0.00 0.00 0.02 0.04 0.03 0.02 0.00 0.01 0.02 0.02 0.00 0.00 0.00 0.00 0.00 0.00 0.00 0.02 0.21 0.40
0.44 0.46 0.31 0.26 0.23 0.18 0.19 0.27 0.24 0.14 0.10 0.04 0.01 0.00 0.00 0.00 0.00 0.00 0.00 0.00 0.01 0.01 0.01 0.00 0.01 0.03 0.02 0.00 0.00 0.01 0.02 0.01 0.00 0.00 0.00 0.00 0.00 0.00 0.00 0.00 0.00 0.02 0.10
0.02 0.01 0.02 0.02 0.02 0.01 0.00 0.00 0.00 0.00 0.00 0.00 0.00 0.00 0.00 0.00 0.00 0.00 0.00 0.00 0.01 0.02 0.01 0.01 0.01 0.00 0.00 0.00 0.00 0.00 0.00 0.00 0.00 0.01 0.01 0.00 0.00 0.00 0.00 0.00 0.00 0.00 0.01
0.01 0.00 0.00 0.01 0.01 0.01 0.00 0.00 0.00 0.00 0.00 0.00 0.00 0.00 0.00 0.00 0.00 0.00 0.00 0.00 0.01 0.01 0.00 0.00 0.00 0.00 0.00 0.00 0.00 0.00 0.00 0.00 0.01 0.03 0.01 0.00 0.00 0.00 0.00 0.00 0.03 0.01 0.06
0.01 0.01 0.00 0.00 0.00 0.00 0.00 0.00 0.00 0.00 0.00 0.00 0.00 0.00 0.00 0.00 0.00 0.00 0.01 0.02 0.01 0.01 0.01 0.00 0.00 0.00 0.00 0.00 0.00 0.00 0.00 0.00 0.01 0.01 0.02 0.02 0.01 0.00 0.00 0.00 0.04 0.09 0.12
0.05 0.03 0.02 0.02 0.02 0.01 0.01 0.00 0.00 0.00 0.00 0.00 0.00 0.00 0.00 0.00 0.00 0.00 0.01 0.01 0.01 0.01 0.00 0.00 0.00 0.00 0.00 0.00 0.00 0.00 0.00 0.00 0.01 0.02 0.03 0.04 0.07 0.05 0.06 0.03 0.03 0.09 0.12
0.10 0.08 0.06 0.05 0.03 0.02 0.01 0.01 0.00 0.00 0.00 0.00 0.00 0.00 0.00 0.00 0.00 0.01 0.01 0.00 0.00 0.00 0.00 0.00 0.00 0.00 0.00 0.00 0.01 0.02 0.01 0.00 0.02 0.04 0.05 0.07 0.14 0.10 0.05 0.05 0.04 0.06 0.05
0.11 0.14 0.10 0.09 0.07 0.05 0.04 0.03 0.01 0.00 0.00 0.00 0.00 0.00 0.00 0.00 0.00 0.01 0.00 0.00 0.00 0.00 0.00 0.00 0.00 0.00 0.00 0.01 0.02 0.03 0.03 0.01 0.02 0.03 0.09 0.13 0.15 0.18 0.10 0.09 0.08 0.15 0.18
0.04 0.07 0.10 0.12 0.10 0.09 0.05 0.03 0.02 0.02 0.02 0.02 0.01 0.00 0.00 0.00 0.00 0.00 0.00 0.00 0.00 0.00 0.00 0.00 0.00 0.00 0.01 0.02 0.03 0.04 0.04 0.06 0.09 0.13 0.10 0.13 0.14 0.26 0.15 0.07 0.09 0.09 0.14
0.00 0.03 0.05 0.03 0.06 0.07 0.05 0.05 0.03 0.02 0.01 0.00 0.01 0.01 0.02 0.00 0.00 0.00 0.00 0.00 0.00 0.00 0.00 0.00 0.00 0.00 0.01 0.03 0.04 0.04 0.04 0.02 0.05 0.06 0.09 0.14 0.15 0.21 0.27 0.19 0.13 0.20 0.11
0.04 0.07 0.10 0.04 0.02 0.02 0.02 0.02 0.02 0.03 0.02 0.02 0.01 0.01 0.02 0.01 0.00 0.00 0.00 0.00 0.00 0.00 0.00 0.00 0.00 0.01 0.02 0.03 0.05 0.05 0.04 0.04 0.07 0.13 0.12 0.14 0.19 0.24 0.15 0.18 0.18 0.18 0.20
0.02 0.04 0.05 0.03 0.04 0.05 0.05 0.05 0.04 0.04 0.03 0.03 0.02 0.03 0.06 0.02 0.00 0.00 0.00 0.00 0.00 0.00 0.00 0.01 0.01 0.02 0.07 0.13 0.15 0.11 0.05 0.04 0.06 0.13 0.11 0.13 0.18 0.16 0.15 0.18 0.21 0.29 0.24
0.01 0.01 0.02 0.02 0.03 0.09 0.15 0.08 0.05 0.05 0.04 0.04 0.04 0.05 0.06 0.06 0.02 0.01 0.00 0.00 0.00 0.00 0.00 0.01 0.03 0.02 0.02 0.10 0.18 0.27 0.24 0.14 0.18 0.24 0.26 0.16 0.16 0.24 0.38 0.44 0.37 0.28 0.13
0.01 0.03 0.04 0.05 0.07 0.11 0.13 0.14 0.13 0.14 0.13 0.11 0.09 0.08 0.06 0.04 0.05 0.04 0.03 0.01 0.01 0.00 0.01 0.01 0.03 0.07 0.08 0.07 0.09 0.14 0.26 0.31 0.38 0.41 0.63 0.82 0.63 0.43 0.38 0.31 0.24 0.18 0.14
0.06 0.09 0.11 0.12 0.14 0.16 0.13 0.13 0.11 0.11 0.11 0.08 0.07 0.07 0.06 0.05 0.05 0.04 0.04 0.03 0.03 0.03 0.02 0.03 0.06 0.10 0.10 0.11 0.11 0.13 0.17 0.26 0.51 0.60 0.58 0.52 0.39 0.25 0.26 0.26 0.20 0.17 0.12
0.15 0.16 0.17 0.17 0.14 0.12 0.11 0.11 0.10 0.13 0.13 0.11 0.09 0.08 0.07 0.06 0.06 0.07 0.07 0.07 0.05 0.04 0.04 0.04 0.06 0.10 0.12 0.09 0.07 0.11 0.19 0.21 0.28 0.27 0.37 0.52 0.42 0.30 0.25 0.32 0.24 0.25 0.23

GFSGL_prec_precacc_069.txt.gz
Total_Precipitation_Accumulation
0.05 0.01 0.02 0.05 0.05 0.06 0.05 0.05 0.04 0.04 0.04 0.05 0.08 0.09 0.08 0.08 0.10 0.16 0.19 0.19 0.24 0.24 0.23 0.28 0.31 0.35 0.44 0.54 0.59 0.68 0.79 0.90 0.96 0.83 0.63 0.54 0.48 0.44 0.47 0.42 0.39 0.37 0.38
0.03 0.01 0.02 0.05 0.05 0.05 0.05 0.05 0.05 0.04 0.05 0.06 0.07 0.06 0.05 0.04 0.04 0.06 0.10 0.14 0.17 0.18 0.19 0.20 0.17 0.16 0.20 0.24 0.26 0.32 0.43 0.53 0.65 0.73 0.67 0.63 0.58 0.52 0.47 0.39 0.33 0.30 0.29
0.04 0.04 0.04 0.04 0.04 0.06 0.07 0.07 0.07 0.07 0.08 0.07 0.05 0.05 0.06 0.05 0.05 0.04 0.06 0.11 0.13 0.16 0.17 0.18 0.18 0.18 0.21 0.25 0.28 0.33 0.40 0.47 0.54 0.61 0.61 0.55 0.49 0.44 0.37 0.26 0.24 0.21 0.18
0.11 0.08 0.06 0.08 0.07 0.07 0.06 0.06 0.06 0.07 0.07 0.06 0.08 0.08 0.07 0.06 0.08 0.11 0.14 0.16 0.16 0.17 0.18 0.20 0.20 0.20 0.22 0.26 0.31 0.38 0.40 0.37 0.34 0.32 0.36 0.31 0.25 0.20 0.16 0.12 0.09 0.06 0.03
0.16 0.13 0.09 0.08 0.09 0.07 0.05 0.07 0.07 0.06 0.06 0.04 0.08 0.15 0.17 0.17 0.16 0.13 0.11 0.12 0.15 0.19 0.21 0.23 0.26 0.33 0.39 0.37 0.32 0.30 0.30 0.32 0.36 0.37 0.26 0.21 0.12 0.05 0.04 0.03 0.03 0.03 0.01
0.11 0.11 0.08 0.08 0.08 0.09 0.08 0.05 0.08 0.08 0.08 0.12 0.11 0.11 0.14 0.18 0.36 0.28 0.18 0.15 0.17 0.21 0.26 0.33 0.41 0.49 0.45 0.41 0.33 0.26 0.21 0.27 0.27 0.24 0.19 0.07 0.02 0.01 0.01 0.03 0.06 0.06 0.06
0.15 0.17 0.17 0.13 0.20 0.20 0.15 0.13 0.11 0.15 0.24 0.23 0.22 0.26 0.25 0.24 0.35 0.29 0.33 0.36 0.42 0.47 0.48 0.44 0.36 0.33 0.31 0.26 0.22 0.22 0.24 0.18 0.12 0.07 0.02 0.00 0.01 0.03 0.10 0.10 0.08 0.11 0.06
0.22 0.33 0.57 0.48 0.52 0.60 0.75 0.63 0.64 0.52 0.46 0.54 0.56 0.58 0.64 0.76 0.79 0.67 0.54 0.44 0.45 0.47 0.44 0.39 0.32 0.26 0.18 0.13 0.16 0.19 0.08 0.02 0.00 0.00 0.00 0.01 0.04 0.04 0.07 0.17 0.10 0.07 0.02
0.63 0.81 0.80 0.70 0.74 0.84 1.06 1.14 0.80 0.97 0.78 0.78 0.68 0.55 0.59 0.71 0.65 0.49 0.44 0.39 0.29 0.19 0.14 0.07 0.03 0.03 0.03 0.06 0.08 0.04 0.00 0.00 0.00 0.01 0.02 0.02 0.01 0.01 0.00 0.06 0.07 0.07 0.05
0.79 0.81 0.88 0.75 0.73 0.89 0.99 0.98 0.72 0.61 0.65 0.58 0.63 0.60 0.51 0.43 0.31 0.19 0.10 0.08 0.05 0.02 0.00 0.00 0.00 0.01 0.04 0.08 0.03 0.00 0.00 0.00 0.05 0.02 0.00 0.00 0.00 0.00 0.00 0.01 0.07 0.25 0.14
0.86 0.88 0.70 0.73 0.45 0.61 0.69 0.62 0.47 0.37 0.42 0.43 0.39 0.32 0.22 0.13 0.06 0.02 0.01 0.01 0.00 0.00 0.00 0.00 0.00 0.02 0.04 0.03 0.02 0.00 0.01 0.02 0.02 0.00 0.00 0.00 0.00 0.00 0.00 0.00 0.02 0.21 0.40
0.44 0.46 0.31 0.26 0.23 0.18 0.19 0.27 0.24 0.14 0.10 0.04 0.01 0.00 0.00 0.00 0.00 0.00 0.00 0.00 0.01 0.01 0.01 0.00 0.01 0.03 0.02 0.00 0.00 0.01 0.02 0.01 0.00 0.00 0.00 0.00 0.00 0.00 0.00 0.00 0.00 0.02 0.10
0.02 0.01 0.02 0.02 0.02 0.01 0.00 0.00 0.00 0.00 0.00 0.00 0.00 0.00 0.00 0.00 0.00 0.00 0.00 0.00 0.01 0.02 0.01 0.01 0.01 0.00 0.00 0.00 0.00 0.00 0.00 0.00 0.00 0.01 0.01 0.00 0.00 0.00 0.00 0.00 0.00 0.00 0.01
0.01 0.00 0.00 0.01 0.01 0.01 0.00 0.00 0.00 0.00 0.00 0.00 0.00 0.00 0.00 0.00 0.00 0.00 0.00 0.00 0.01 0.01 0.00 0.00 0.00 0.00 0.00 0.00 0.00 0.00 0.00 0.00 0.01 0.03 0.01 0.00 0.00 0.00 0.00 0.00 0.03 0.01 0.06
0.01 0.01 0.00 0.00 0.00 0.00 0.00 0.00 0.00 0.00 0.00 0.00 0.00 0.00 0.00 0.00 0.00 0.00 0.01 0.02 0.01 0.01 0.01 0.00 0.00 0.00 0.00 0.00 0.00 0.00 0.00 0.00 0.01 0.01 0.02 0.02 0.01 0.00 0.00 0.00 0.04 0.09 0.12
0.05 0.04 0.03 0.03 0.02 0.02 0.01 0.01 0.01 0.00 0.00 0.00 0.00 0.00 0.00 0.00 0.00 0.00 0.01 0.01 0.01 0.01 0.00 0.00 0.00 0.00 0.00 0.00 0.00 0.00 0.00 0.00 0.01 0.02 0.03 0.04 0.07 0.05 0.06 0.03 0.03 0.09 0.12
0.10 0.08 0.06 0.05 0.03 0.02 0.02 0.02 0.01 0.00 0.00 0.00 0.00 0.00 0.00 0.00 0.00 0.01 0.01 0.00 0.00 0.00 0.00 0.00 0.00 0.00 0.00 0.00 0.01 0.02 0.01 0.00 0.02 0.04 0.05 0.07 0.14 0.10 0.05 0.05 0.04 0.06 0.05
0.12 0.14 0.10 0.09 0.07 0.05 0.04 0.03 0.02 0.02 0.00 0.00 0.00 0.00 0.00 0.00 0.00 0.01 0.00 0.00 0.00 0.00 0.00 0.00 0.00 0.00 0.00 0.01 0.02 0.03 0.03 0.01 0.02 0.03 0.09 0.13 0.15 0.18 0.10 0.09 0.08 0.15 0.18
0.04 0.07 0.10 0.12 0.10 0.09 0.05 0.03 0.02 0.03 0.03 0.02 0.01 0.00 0.00 0.00 0.00 0.00 0.00 0.00 0.00 0.00 0.00 0.00 0.00 0.00 0.01 0.02 0.03 0.04 0.04 0.06 0.09 0.13 0.10 0.13 0.14 0.26 0.15 0.07 0.09 0.09 0.14
0.01 0.04 0.06 0.03 0.06 0.08 0.05 0.05 0.04 0.03 0.02 0.01 0.01 0.01 0.02 0.00 0.00 0.00 0.00 0.00 0.00 0.00 0.00 0.00 0.00 0.00 0.01 0.03 0.04 0.04 0.04 0.02 0.05 0.06 0.09 0.14 0.15 0.21 0.27 0.19 0.13 0.20 0.11
0.04 0.07 0.12 0.05 0.02 0.02 0.02 0.02 0.02 0.04 0.04 0.02 0.02 0.02 0.02 0.01 0.00 0.00 0.00 0.00 0.00 0.00 0.00 0.00 0.00 0.01 0.02 0.03 0.05 0.05 0.04 0.04 0.07 0.13 0.12 0.14 0.19 0.25 0.15 0.18 0.18 0.18 0.20
0.03 0.05 0.06 0.03 0.04 0.05 0.05 0.05 0.04 0.04 0.03 0.03 0.02 0.05 0.10 0.02 0.00 0.00 0.00 0.00 0.00 0.00 0.00 0.01 0.01 0.02 0.07 0.13 0.15 0.11 0.05 0.04 0.06 0.13 0.11 0.13 0.18 0.17 0.16 0.19 0.21 0.29 0.24
0.03 0.03 0.03 0.03 0.03 0.10 0.16 0.08 0.05 0.05 0.04 0.04 0.05 0.05 0.07 0.07 0.02 0.01 0.00 0.00 0.00 0.00 0.00 0.01 0.03 0.03 0.02 0.10 0.18 0.27 0.24 0.14 0.18 0.24 0.27 0.16 0.16 0.25 0.38 0.44 0.38 0.28 0.13
0.05 0.06 0.06 0.06 0.08 0.13 0.13 0.14 0.13 0.16 0.15 0.12 0.10 0.09 0.07 0.06 0.06 0.04 0.03 0.02 0.01 0.00 0.01 0.02 0.05 0.08 0.08 0.07 0.09 0.14 0.26 0.32 0.38 0.41 0.64 0.83 0.64 0.44 0.39 0.32 0.24 0.18 0.14
0.11 0.13 0.15 0.14 0.16 0.19 0.15 0.16 0.14 0.14 0.15 0.12 0.10 0.09 0.07 0.06 0.05 0.04 0.04 0.04 0.03 0.03 0.02 0.04 0.07 0.11 0.11 0.12 0.12 0.13 0.18 0.27 0.52 0.60 0.58 0.53 0.39 0.25 0.26 0.26 0.20 0.17 0.12
0.16 0.19 0.22 0.21 0.18 0.16 0.14 0.14 0.14 0.16 0.16 0.13 0.11 0.09 0.07 0.06 0.06 0.07 0.07 0.07 0.05 0.04 0.05 0.05 0.07 0.11 0.14 0.11 0.08 0.13 0.20 0.23 0.29 0.27 0.38 0.52 0.42 0.30 0.26 0.32 0.24 0.25 0.24

GFSGL_prec_precacc_072.txt.gz
Total_Precipitation_Accumulation
0.05 0.01 0.02 0.05 0.05 0.06 0.05 0.05 0.04 0.04 0.04 0.05 0.08 0.09 0.08 0.08 0.10 0.16 0.19 0.19 0.24 0.24 0.23 0.28 0.31 0.35 0.44 0.54 0.59 0.68 0.80 0.90 0.97 0.85 0.65 0.56 0.49 0.44 0.47 0.42 0.39 0.37 0.38
0.03 0.01 0.02 0.05 0.05 0.05 0.05 0.05 0.05 0.04 0.05 0.06 0.07 0.06 0.05 0.04 0.04 0.06 0.10 0.14 0.17 0.18 0.19 0.20 0.17 0.16 0.20 0.24 0.26 0.32 0.43 0.53 0.66 0.73 0.67 0.63 0.58 0.52 0.47 0.39 0.33 0.30 0.29
0.04 0.04 0.04 0.04 0.04 0.06 0.07 0.07 0.07 0.07 0.08 0.07 0.05 0.05 0.06 0.05 0.05 0.04 0.06 0.11 0.13 0.16 0.17 0.18 0.18 0.18 0.21 0.25 0.28 0.33 0.40 0.47 0.54 0.61 0.61 0.55 0.49 0.44 0.37 0.26 0.24 0.21 0.18
0.11 0.08 0.06 0.08 0.07 0.07 0.06 0.06 0.06 0.07 0.07 0.06 0.08 0.08 0.07 0.06 0.08 0.11 0.14 0.16 0.16 0.17 0.18 0.20 0.20 0.20 0.22 0.26 0.31 0.38 0.40 0.37 0.34 0.32 0.36 0.31 0.25 0.20 0.16 0.12 0.09 0.06 0.03
0.16 0.13 0.09 0.08 0.09 0.07 0.05 0.07 0.07 0.06 0.06 0.04 0.08 0.15 0.17 0.17 0.16 0.13 0.11 0.12 0.15 0.19 0.21 0.23 0.26 0.33 0.39 0.37 0.32 0.30 0.30 0.32 0.36 0.37 0.26 0.21 0.12 0.05 0.04 0.03 0.03 0.03 0.01
0.11 0.11 0.08 0.08 0.08 0.09 0.08 0.05 0.08 0.08 0.08 0.12 0.11 0.11 0.14 0.18 0.36 0.28 0.18 0.15 0.17 0.21 0.26 0.33 0.41 0.49 0.45 0.41 0.33 0.26 0.21 0.27 0.27 0.24 0.19 0.07 0.02 0.01 0.01 0.03 0.06 0.06 0.06
0.15 0.17 0.17 0.13 0.20 0.20 0.15 0.13 0.11 0.15 0.24 0.23 0.22 0.26 0.25 0.24 0.35 0.29 0.34 0.36 0.42 0.47 0.48 0.44 0.36 0.33 0.31 0.26 0.22 0.22 0.24 0.18 0.12 0.07 0.02 0.00 0.01 0.03 0.10 0.10 0.08 0.11 0.06
0.22 0.33 0.57 0.48 0.52 0.60 0.75 0.63 0.64 0.52 0.46 0.54 0.56 0.58 0.64 0.76 0.80 0.68 0.54 0.44 0.46 0.47 0.44 0.39 0.32 0.26 0.18 0.13 0.16 0.19 0.08 0.02 0.00 0.00 0.00 0.01 0.04 0.04 0.07 0.17 0.10 0.07 0.02
0.63 0.81 0.80 0.70 0.74 0.84 1.06 1.14 0.80 0.97 0.78 0.78 0.68 0.55 0.59 0.71 0.66 0.49 0.44 0.39 0.29 0.19 0.14 0.07 0.03 0.03 0.03 0.06 0.08 0.04 0.00 0.00 0.00 0.01 0.02 0.02 0.01 0.01 0.00 0.06 0.07 0.07 0.05
0.79 0.81 0.88 0.75 0.73 0.89 0.99 0.98 0.72 0.61 0.65 0.58 0.63 0.60 0.51 0.43 0.31 0.19 0.10 0.08 0.05 0.02 0.00 0.00 0.00 0.01 0.04 0.08 0.03 0.00 0.00 0.00 0.05 0.02 0.00 0.00 0.00 0.00 0.00 0.01 0.07 0.25 0.14
0.86 0.88 0.70 0.73 0.45 0.61 0.69 0.62 0.47 0.37 0.42 0.43 0.39 0.32 0.22 0.13 0.06 0.02 0.01 0.01 0.00 0.00 0.00 0.00 0.00 0.02 0.04 0.03 0.02 0.00 0.01 0.02 0.02 0.00 0.00 0.00 0.00 0.00 0.00 0.00 0.02 0.21 0.40
0.44 0.46 0.31 0.26 0.23 0.18 0.19 0.27 0.24 0.14 0.10 0.04 0.01 0.00 0.00 0.00 0.00 0.00 0.00 0.00 0.01 0.01 0.01 0.01 0.01 0.03 0.02 0.00 0.00 0.01 0.02 0.01 0.00 0.00 0.00 0.00 0.00 0.00 0.00 0.00 0.00 0.02 0.10
0.02 0.01 0.02 0.02 0.02 0.01 0.00 0.00 0.00 0.00 0.00 0.00 0.00 0.00 0.00 0.00 0.00 0.00 0.00 0.00 0.01 0.02 0.01 0.01 0.01 0.00 0.00 0.00 0.00 0.00 0.00 0.00 0.00 0.01 0.01 0.00 0.00 0.00 0.00 0.00 0.00 0.00 0.01
0.01 0.00 0.00 0.01 0.01 0.01 0.00 0.00 0.00 0.00 0.00 0.00 0.00 0.00 0.00 0.00 0.00 0.00 0.00 0.00 0.01 0.01 0.00 0.00 0.00 0.00 0.00 0.00 0.00 0.00 0.00 0.00 0.01 0.03 0.01 0.00 0.00 0.00 0.00 0.00 0.03 0.01 0.06
0.01 0.01 0.00 0.00 0.00 0.00 0.00 0.00 0.00 0.00 0.00 0.00 0.00 0.00 0.00 0.00 0.00 0.00 0.01 0.02 0.01 0.01 0.01 0.00 0.00 0.00 0.00 0.00 0.00 0.00 0.00 0.00 0.01 0.01 0.02 0.02 0.01 0.00 0.00 0.00 0.04 0.09 0.12
0.06 0.04 0.04 0.04 0.04 0.04 0.03 0.02 0.03 0.02 0.02 0.01 0.01 0.00 0.00 0.00 0.00 0.00 0.01 0.01 0.01 0.01 0.00 0.00 0.00 0.00 0.00 0.00 0.00 0.00 0.00 0.00 0.01 0.02 0.03 0.04 0.07 0.05 0.06 0.03 0.03 0.09 0.12
0.14 0.10 0.08 0.06 0.03 0.02 0.02 0.02 0.03 0.05 0.04 0.02 0.01 0.00 0.00 0.00 0.00 0.01 0.01 0.00 0.00 0.00 0.00 0.00 0.00 0.00 0.00 0.00 0.01 0.02 0.02 0.00 0.02 0.04 0.05 0.07 0.14 0.10 0.05 0.05 0.04 0.06 0.05
0.13 0.17 0.12 0.10 0.08 0.05 0.04 0.03 0.03 0.04 0.04 0.05 0.05 0.03 0.01 0.00 0.00 0.01 0.00 0.00 0.00 0.00 0.00 0.00 0.00 0.00 0.00 0.01 0.02 0.03 0.03 0.01 0.02 0.03 0.09 0.13 0.15 0.18 0.10 0.09 0.08 0.15 0.18
0.05 0.08 0.11 0.12 0.10 0.10 0.05 0.03 0.02 0.03 0.04 0.06 0.06 0.04 0.02 0.00 0.00 0.00 0.00 0.00 0.00 0.00 0.00 0.00 0.00 0.00 0.01 0.02 0.03 0.04 0.04 0.06 0.09 0.13 0.10 0.13 0.14 0.26 0.15 0.07 0.09 0.09 0.14
0.02 0.08 0.08 0.04 0.07 0.08 0.05 0.05 0.04 0.03 0.04 0.04 0.03 0.02 0.04 0.01 0.00 0.00 0.00 0.00 0.00 0.00 0.00 0.00 0.00 0.00 0.01 0.03 0.04 0.04 0.04 0.02 0.05 0.06 0.09 0.14 0.15 0.21 0.27 0.19 0.13 0.21 0.11
0.04 0.08 0.15 0.06 0.03 0.02 0.02 0.02 0.02 0.04 0.04 0.05 0.05 0.07 0.04 0.01 0.01 0.01 0.01 0.00 0.00 0.00 0.00 0.00 0.00 0.01 0.02 0.03 0.05 0.05 0.04 0.04 0.07 0.13 0.12 0.14 0.19 0.25 0.16 0.20 0.20 0.19 0.21
0.04 0.06 0.06 0.04 0.05 0.05 0.06 0.05 0.05 0.04 0.03 0.03 0.03 0.10 0.19 0.04 0.01 0.01 0.01 0.00 0.00 0.00 0.00 0.01 0.01 0.02 0.07 0.13 0.16 0.12 0.05 0.04 0.06 0.13 0.11 0.13 0.18 0.17 0.18 0.21 0.23 0.31 0.25
0.03 0.03 0.04 0.04 0.05 0.12 0.18 0.08 0.05 0.05 0.04 0.04 0.05 0.06 0.11 0.09 0.03 0.02 0.01 0.00 0.00 0.00 0.00 0.01 0.03 0.03 0.03 0.11 0.18 0.28 0.25 0.14 0.18 0.24 0.27 0.16 0.16 0.26 0.42 0.47 0.40 0.30 0.15
0.06 0.07 0.07 0.07 0.10 0.15 0.14 0.15 0.14 0.17 0.16 0.12 0.11 0.10 0.09 0.07 0.07 0.05 0.05 0.03 0.02 0.01 0.01 0.03 0.06 0.09 0.09 0.08 0.10 0.15 0.27 0.32 0.38 0.41 0.64 0.83 0.65 0.46 0.42 0.34 0.26 0.20 0.15
0.13 0.16 0.18 0.17 0.20 0.22 0.17 0.18 0.15 0.15 0.16 0.13 0.12 0.12 0.11 0.10 0.08 0.06 0.05 0.04 0.03 0.03 0.03 0.04 0.08 0.12 0.12 0.12 0.12 0.14 0.18 0.27 0.52 0.60 0.58 0.53 0.40 0.27 0.28 0.27 0.20 0.18 0.13
0.18 0.22 0.26 0.26 0.22 0.21 0.20 0.19 0.18 0.20 0.20 0.17 0.14 0.11 0.09 0.07 0.06 0.08 0.07 0.07 0.05 0.04 0.05 0.06 0.07 0.11 0.14 0.11 0.08 0.13 0.21 0.23 0.29 0.27 0.38 0.52 0.42 0.31 0.26 0.32 0.24 0.26 0.25

GFSGL_prec_precacc_075.txt.gz
Total_Precipitation_Accumulation
0.05 0.01 0.02 0.05 0.05 0.06 0.05 0.05 0.04 0.04 0.04 0.05 0.08 0.09 0.08 0.08 0.10 0.16 0.19 0.19 0.24 0.24 0.23 0.28 0.31 0.35 0.44 0.54 0.59 0.68 0.80 0.91 0.98 0.85 0.66 0.57 0.50 0.46 0.49 0.42 0.39 0.37 0.38
0.03 0.01 0.02 0.05 0.05 0.05 0.05 0.05 0.05 0.04 0.05 0.06 0.07 0.06 0.05 0.04 0.04 0.06 0.10 0.14 0.17 0.18 0.19 0.20 0.17 0.16 0.20 0.24 0.26 0.32 0.43 0.53 0.67 0.75 0.68 0.64 0.59 0.52 0.47 0.39 0.33 0.30 0.29
0.04 0.04 0.04 0.04 0.04 0.06 0.07 0.07 0.07 0.07 0.08 0.07 0.05 0.05 0.06 0.05 0.05 0.04 0.06 0.11 0.13 0.16 0.17 0.18 0.18 0.18 0.21 0.25 0.28 0.33 0.40 0.47 0.54 0.61 0.61 0.55 0.49 0.44 0.37 0.26 0.24 0.21 0.18
0.11 0.08 0.06 0.08 0.07 0.07 0.06 0.06 0.06 0.07 0.07 0.06 0.08 0.08 0.07 0.06 0.08 0.11 0.14 0.16 0.16 0.17 0.18 0.20 0.20 0.20 0.22 0.26 0.31 0.38 0.40 0.37 0.34 0.33 0.36 0.31 0.25 0.20 0.16 0.12 0.09 0.06 0.03
0.16 0.13 0.09 0.08 0.09 0.07 0.05 0.07 0.07 0.06 0.06 0.04 0.08 0.15 0.17 0.17 0.16 0.13 0.11 0.12 0.15 0.19 0.21 0.23 0.26 0.33 0.39 0.37 0.32 0.30 0.30 0.32 0.36 0.37 0.26 0.21 0.12 0.05 0.04 0.03 0.03 0.03 0.01
0.11 0.11 0.08 0.08 0.08 0.09 0.08 0.05 0.08 0.08 0.08 0.12 0.11 0.11 0.14 0.18 0.36 0.28 0.18 0.15 0.17 0.21 0.26 0.33 0.41 0.50 0.46 0.42 0.33 0.26 0.21 0.27 0.27 0.24 0.19 0.07 0.02 0.01 0.01 0.03 0.06 0.06 0.06
0.15 0.17 0.17 0.13 0.20 0.20 0.15 0.13 0.11 0.15 0.24 0.23 0.22 0.26 0.25 0.24 0.35 0.29 0.34 0.36 0.42 0.47 0.48 0.44 0.36 0.33 0.31 0.26 0.22 0.22 0.24 0.18 0.12 0.07 0.02 0.00 0.01 0.03 0.10 0.10 0.08 0.11 0.06
0.22 0.33 0.57 0.48 0.52 0.60 0.75 0.63 0.64 0.52 0.46 0.54 0.56 0.58 0.64 0.76 0.80 0.68 0.55 0.44 0.46 0.47 0.44 0.40 0.32 0.26 0.18 0.13 0.16 0.19 0.08 0.02 0.00 0.00 0.00 0.01 0.04 0.04 0.07 0.17 0.10 0.07 0.02
0.63 0.81 0.80 0.70 0.74 0.84 1.06 1.14 0.80 0.97 0.78 0.78 0.68 0.55 0.59 0.71 0.66 0.49 0.44 0.39 0.29 0.19 0.14 0.07 0.03 0.03 0.03 0.06 0.08 0.04 0.00 0.00 0.00 0.01 0.03 0.02 0.01 0.01 0.00 0.06 0.07 0.07 0.05
0.79 0.81 0.88 0.75 0.73 0.89 0.99 0.98 0.72 0.61 0.65 0.58 0.63 0.60 0.51 0.43 0.31 0.19 0.10 0.08 0.05 0.02 0.00 0.00 0.00 0.01 0.04 0.08 0.03 0.00 0.00 0.00 0.05 0.02 0.00 0.00 0.00 0.00 0.00 0.01 0.07 0.25 0.14
0.86 0.88 0.70 0.73 0.45 0.61 0.69 0.62 0.47 0.37 0.42 0.43 0.39 0.32 0.22 0.13 0.06 0.02 0.01 0.01 0.00 0.00 0.00 0.00 0.00 0.02 0.04 0.03 0.02 0.00 0.01 0.02 0.02 0.00 0.00 0.00 0.00 0.00 0.00 0.00 0.02 0.21 0.40
0.44 0.46 0.31 0.26 0.23 0.18 0.19 0.27 0.24 0.14 0.10 0.04 0.01 0.00 0.00 0.00 0.00 0.00 0.00 0.00 0.01 0.01 0.01 0.01 0.01 0.03 0.02 0.00 0.00 0.01 0.02 0.01 0.00 0.00 0.00 0.00 0.00 0.00 0.00 0.00 0.00 0.02 0.10
0.02 0.01 0.02 0.02 0.02 0.01 0.00 0.00 0.00 0.00 0.00 0.00 0.00 0.00 0.00 0.00 0.00 0.00 0.00 0.00 0.01 0.02 0.01 0.01 0.01 0.00 0.00 0.00 0.00 0.00 0.00 0.00 0.00 0.01 0.01 0.00 0.00 0.00 0.00 0.00 0.00 0.00 0.01
0.01 0.00 0.00 0.01 0.01 0.01 0.00 0.00 0.00 0.00 0.00 0.00 0.00 0.00 0.00 0.00 0.00 0.00 0.00 0.00 0.01 0.01 0.00 0.00 0.00 0.00 0.00 0.00 0.00 0.00 0.00 0.00 0.01 0.03 0.01 0.00 0.00 0.00 0.00 0.00 0.03 0.01 0.06
0.01 0.01 0.00 0.00 0.00 0.00 0.00 0.00 0.00 0.00 0.00 0.00 0.00 0.00 0.00 0.00 0.00 0.00 0.01 0.02 0.01 0.01 0.01 0.00 0.00 0.00 0.00 0.00 0.00 0.00 0.00 0.00 0.01 0.01 0.02 0.02 0.01 0.00 0.00 0.00 0.04 0.09 0.12
0.06 0.04 0.04 0.04 0.04 0.04 0.03 0.02 0.04 0.02 0.02 0.01 0.01 0.01 0.00 0.01 0.00 0.01 0.01 0.01 0.01 0.01 0.00 0.00 0.00 0.00 0.00 0.00 0.00 0.00 0.00 0.00 0.01 0.02 0.03 0.04 0.07 0.05 0.06 0.03 0.03 0.09 0.12
0.15 0.13 0.12 0.12 0.05 0.03 0.02 0.02 0.03 0.05 0.05 0.03 0.02 0.02 0.01 0.00 0.00 0.01 0.01 0.00 0.00 0.00 0.00 0.00 0.00 0.00 0.00 0.00 0.01 0.02 0.02 0.00 0.02 0.04 0.05 0.07 0.14 0.10 0.05 0.05 0.04 0.06 0.05
0.13 0.21 0.15 0.14 0.13 0.10 0.06 0.04 0.03 0.04 0.04 0.06 0.08 0.07 0.04 0.02 0.01 0.01 0.01 0.00 0.00 0.00 0.00 0.00 0.00 0.00 0.00 0.01 0.02 0.03 0.03 0.01 0.02 0.03 0.09 0.13 0.15 0.18 0.10 0.09 0.08 0.15 0.18
0.06 0.09 0.12 0.14 0.14 0.14 0.07 0.04 0.03 0.03 0.04 0.06 0.07 0.07 0.05 0.06 0.05 0.02 0.01 0.00 0.00 0.00 0.00 0.00 0.00 0.00 0.01 0.02 0.03 0.04 0.04 0.06 0.09 0.13 0.10 0.13 0.14 0.26 0.15 0.07 0.09 0.09 0.14
0.02 0.11 0.13 0.07 0.09 0.11 0.06 0.05 0.04 0.03 0.04 0.04 0.03 0.02 0.05 0.04 0.02 0.01 0.00 0.00 0.00 0.00 0.00 0.00 0.00 0.00 0.01 0.03 0.04 0.04 0.04 0.02 0.05 0.06 0.09 0.14 0.15 0.21 0.27 0.19 0.13 0.21 0.12
0.04 0.09 0.17 0.08 0.04 0.04 0.04 0.04 0.03 0.05 0.05 0.05 0.06 0.10 0.08 0.02 0.01 0.01 0.01 0.00 0.00 0.00 0.00 0.00 0.00 0.01 0.02 0.03 0.05 0.05 0.04 0.04 0.07 0.13 0.12 0.14 0.19 0.25 0.16 0.20 0.20 0.20 0.22
0.04 0.06 0.07 0.05 0.06 0.06 0.08 0.07 0.07 0.06 0.04 0.04 0.03 0.13 0.26 0.06 0.01 0.01 0.02 0.01 0.01 0.00 0.00 0.01 0.01 0.02 0.07 0.13 0.16 0.12 0.05 0.04 0.06 0.13 0.11 0.13 0.18 0.17 0.18 0.21 0.23 0.31 0.28
0.04 0.04 0.05 0.05 0.06 0.15 0.21 0.10 0.07 0.06 0.05 0.05 0.05 0.07 0.14 0.12 0.04 0.03 0.02 0.01 0.01 0.01 0.01 0.02 0.04 0.03 0.03 0.11 0.19 0.29 0.26 0.15 0.19 0.26 0.28 0.17 0.16 0.26 0.42 0.48 0.41 0.32 0.17
0.06 0.08 0.08 0.08 0.12 0.16 0.15 0.15 0.14 0.19 0.16 0.13 0.12 0.11 0.10 0.09 0.09 0.06 0.06 0.04 0.03 0.02 0.03 0.04 0.07 0.10 0.10 0.08 0.10 0.16 0.28 0.33 0.40 0.43 0.65 0.83 0.65 0.47 0.43 0.36 0.28 0.22 0.16
0.13 0.17 0.20 0.19 0.21 0.23 0.18 0.19 0.16 0.16 0.18 0.15 0.13 0.13 0.12 0.11 0.10 0.07 0.07 0.07 0.05 0.04 0.04 0.05 0.09 0.13 0.13 0.13 0.13 0.14 0.19 0.28 0.53 0.61 0.59 0.53 0.40 0.28 0.29 0.28 0.21 0.18 0.13
0.18 0.23 0.27 0.28 0.24 0.23 0.22 0.22 0.21 0.23 0.23 0.20 0.17 0.14 0.11 0.10 0.08 0.10 0.09 0.09 0.07 0.05 0.05 0.06 0.07 0.11 0.14 0.11 0.09 0.13 0.21 0.24 0.30 0.28 0.38 0.53 0.43 0.31 0.27 0.33 0.24 0.26 0.25

GFSGL_prec_precacc_078.txt.gz
Total_Precipitation_Accumulation
0.05 0.01 0.02 0.05 0.05 0.06 0.05 0.05 0.05 0.04 0.04 0.05 0.08 0.09 0.08 0.08 0.10 0.16 0.19 0.19 0.24 0.24 0.23 0.28 0.31 0.35 0.44 0.54 0.59 0.68 0.80 0.91 0.99 0.86 0.66 0.57 0.50 0.46 0.49 0.43 0.40 0.37 0.38
0.03 0.01 0.02 0.05 0.05 0.05 0.05 0.05 0.05 0.04 0.05 0.06 0.07 0.06 0.05 0.04 0.04 0.06 0.10 0.14 0.17 0.18 0.19 0.20 0.17 0.16 0.20 0.24 0.26 0.32 0.43 0.53 0.67 0.76 0.70 0.66 0.60 0.53 0.47 0.40 0.34 0.30 0.29
0.04 0.04 0.04 0.04 0.04 0.06 0.07 0.07 0.07 0.07 0.08 0.07 0.05 0.05 0.06 0.05 0.05 0.04 0.06 0.11 0.13 0.16 0.17 0.18 0.18 0.18 0.21 0.25 0.28 0.33 0.40 0.47 0.54 0.61 0.61 0.55 0.50 0.45 0.37 0.27 0.24 0.21 0.18
0.11 0.08 0.06 0.08 0.07 0.07 0.06 0.06 0.06 0.07 0.07 0.06 0.08 0.08 0.07 0.06 0.08 0.11 0.14 0.16 0.16 0.17 0.18 0.20 0.20 0.20 0.22 0.26 0.31 0.38 0.40 0.37 0.34 0.33 0.37 0.32 0.25 0.21 0.16 0.12 0.09 0.06 0.03
0.16 0.13 0.09 0.08 0.09 0.07 0.05 0.07 0.07 0.06 0.06 0.04 0.08 0.15 0.17 0.17 0.16 0.13 0.11 0.12 0.15 0.19 0.21 0.23 0.26 0.33 0.39 0.37 0.32 0.30 0.30 0.32 0.36 0.37 0.26 0.21 0.12 0.05 0.04 0.03 0.03 0.03 0.01
0.11 0.11 0.08 0.08 0.08 0.09 0.08 0.05 0.08 0.08 0.08 0.12 0.11 0.11 0.14 0.18 0.36 0.28 0.18 0.15 0.17 0.21 0.26 0.33 0.41 0.50 0.46 0.42 0.34 0.26 0.21 0.27 0.27 0.24 0.19 0.07 0.02 0.02 0.01 0.03 0.06 0.06 0.06
0.15 0.17 0.17 0.13 0.20 0.20 0.15 0.13 0.11 0.15 0.24 0.23 0.22 0.26 0.25 0.24 0.35 0.29 0.34 0.36 0.42 0.47 0.48 0.44 0.37 0.34 0.31 0.26 0.23 0.22 0.24 0.18 0.12 0.07 0.02 0.00 0.01 0.03 0.10 0.10 0.08 0.11 0.06
0.22 0.33 0.57 0.48 0.52 0.60 0.75 0.63 0.64 0.52 0.46 0.54 0.56 0.58 0.64 0.76 0.80 0.68 0.55 0.44 0.46 0.48 0.45 0.40 0.33 0.26 0.19 0.13 0.16 0.19 0.08 0.02 0.00 0.00 0.00 0.01 0.04 0.04 0.07 0.17 0.10 0.07 0.02
0.63 0.81 0.80 0.70 0.74 0.84 1.06 1.14 0.80 0.97 0.78 0.78 0.68 0.55 0.59 0.71 0.66 0.49 0.45 0.39 0.29 0.19 0.14 0.07 0.03 0.03 0.03 0.06 0.08 0.04 0.00 0.00 0.00 0.01 0.03 0.02 0.01 0.01 0.00 0.06 0.07 0.07 0.05
0.79 0.81 0.88 0.75 0.73 0.89 0.99 0.98 0.72 0.61 0.65 0.58 0.63 0.60 0.51 0.43 0.31 0.19 0.10 0.08 0.05 0.02 0.00 0.00 0.01 0.01 0.04 0.08 0.03 0.00 0.00 0.00 0.05 0.02 0.01 0.00 0.00 0.00 0.00 0.01 0.07 0.25 0.14
0.86 0.88 0.70 0.73 0.45 0.61 0.69 0.62 0.47 0.37 0.42 0.43 0.39 0.32 0.22 0.13 0.06 0.02 0.01 0.01 0.00 0.00 0.00 0.00 0.00 0.02 0.04 0.03 0.02 0.00 0.01 0.02 0.02 0.00 0.00 0.00 0.00 0.00 0.00 0.00 0.02 0.21 0.40
0.44 0.46 0.31 0.26 0.23 0.18 0.19 0.27 0.24 0.14 0.10 0.04 0.01 0.00 0.00 0.00 0.00 0.00 0.00 0.00 0.01 0.01 0.01 0.01 0.01 0.03 0.02 0.00 0.00 0.01 0.02 0.01 0.00 0.00 0.00 0.00 0.00 0.00 0.00 0.00 0.00 0.02 0.10
0.02 0.01 0.02 0.02 0.02 0.01 0.00 0.00 0.00 0.00 0.00 0.00 0.00 0.00 0.00 0.00 0.00 0.00 0.00 0.00 0.01 0.02 0.01 0.01 0.01 0.00 0.00 0.00 0.00 0.00 0.00 0.00 0.00 0.01 0.01 0.00 0.00 0.00 0.00 0.00 0.00 0.00 0.01
0.01 0.00 0.00 0.01 0.01 0.01 0.00 0.00 0.00 0.00 0.00 0.00 0.00 0.00 0.00 0.00 0.00 0.00 0.00 0.00 0.01 0.01 0.00 0.00 0.00 0.00 0.00 0.00 0.00 0.00 0.00 0.00 0.01 0.03 0.01 0.00 0.00 0.00 0.00 0.00 0.03 0.01 0.06
0.01 0.01 0.00 0.00 0.00 0.00 0.00 0.00 0.00 0.00 0.00 0.00 0.00 0.00 0.00 0.00 0.00 0.00 0.01 0.02 0.01 0.01 0.01 0.00 0.00 0.00 0.00 0.00 0.00 0.00 0.00 0.00 0.01 0.01 0.02 0.02 0.01 0.00 0.00 0.00 0.04 0.09 0.12
0.06 0.04 0.04 0.04 0.04 0.04 0.03 0.02 0.04 0.03 0.02 0.01 0.01 0.01 0.00 0.01 0.01 0.01 0.01 0.01 0.01 0.01 0.00 0.00 0.00 0.00 0.00 0.00 0.00 0.00 0.00 0.00 0.01 0.02 0.03 0.04 0.07 0.05 0.06 0.03 0.03 0.09 0.12
0.15 0.13 0.13 0.14 0.09 0.05 0.03 0.02 0.03 0.05 0.05 0.03 0.03 0.02 0.01 0.00 0.01 0.01 0.01 0.01 0.00 0.00 0.00 0.00 0.00 0.00 0.00 0.00 0.01 0.02 0.02 0.00 0.02 0.04 0.05 0.07 0.14 0.10 0.05 0.05 0.04 0.06 0.05
0.13 0.22 0.16 0.16 0.16 0.16 0.15 0.13 0.09 0.07 0.06 0.06 0.08 0.08 0.04 0.03 0.02 0.01 0.01 0.01 0.01 0.00 0.00 0.00 0.00 0.00 0.00 0.01 0.02 0.03 0.03 0.01 0.02 0.03 0.09 0.13 0.15 0.18 0.10 0.09 0.08 0.15 0.18
0.06 0.09 0.13 0.15 0.16 0.20 0.13 0.12 0.11 0.09 0.07 0.07 0.08 0.08 0.06 0.07 0.07 0.04 0.03 0.01 0.00 0.00 0.00 0.00 0.00 0.00 0.01 0.02 0.03 0.04 0.04 0.06 0.09 0.13 0.10 0.13 0.14 0.26 0.15 0.07 0.09 0.09 0.14
0.03 0.11 0.13 0.07 0.10 0.14 0.11 0.11 0.09 0.08 0.07 0.05 0.04 0.03 0.06 0.06 0.03 0.02 0.01 0.01 0.02 0.02 0.01 0.00 0.00 0.00 0.01 0.03 0.04 0.04 0.04 0.02 0.05 0.06 0.09 0.14 0.15 0.21 0.27 0.19 0.13 0.21 0.12
0.05 0.09 0.17 0.09 0.04 0.05 0.06 0.07 0.07 0.09 0.07 0.07 0.07 0.12 0.12 0.04 0.01 0.01 0.01 0.00 0.00 0.01 0.01 0.00 0.00 0.01 0.02 0.03 0.05 0.05 0.04 0.04 0.07 0.13 0.12 0.14 0.19 0.25 0.16 0.20 0.20 0.20 0.22
0.05 0.07 0.08 0.06 0.06 0.07 0.08 0.08 0.08 0.08 0.07 0.06 0.05 0.17 0.32 0.08 0.01 0.02 0.02 0.01 0.01 0.00 0.00 0.01 0.02 0.02 0.07 0.13 0.16 0.12 0.05 0.04 0.06 0.13 0.11 0.14 0.19 0.18 0.18 0.22 0.23 0.31 0.28
0.04 0.04 0.06 0.06 0.07 0.16 0.23 0.11 0.07 0.07 0.05 0.05 0.06 0.08 0.17 0.15 0.04 0.03 0.02 0.01 0.01 0.01 0.01 0.02 0.04 0.03 0.03 0.11 0.20 0.29 0.26 0.15 0.19 0.26 0.28 0.17 0.17 0.26 0.42 0.48 0.42 0.32 0.17
0.07 0.09 0.10 0.10 0.14 0.18 0.16 0.16 0.15 0.21 0.18 0.13 0.12 0.12 0.11 0.11 0.11 0.07 0.06 0.05 0.04 0.02 0.03 0.05 0.07 0.10 0.10 0.09 0.12 0.17 0.29 0.34 0.41 0.44 0.67 0.85 0.66 0.48 0.44 0.36 0.28 0.22 0.17
0.14 0.18 0.22 0.20 0.23 0.25 0.20 0.20 0.18 0.18 0.20 0.17 0.15 0.15 0.14 0.14 0.14 0.09 0.08 0.08 0.07 0.06 0.05 0.06 0.10 0.14 0.15 0.15 0.14 0.15 0.20 0.30 0.54 0.62 0.61 0.55 0.42 0.29 0.30 0.28 0.21 0.19 0.14
0.22 0.26 0.28 0.28 0.25 0.24 0.24 0.23 0.22 0.24 0.25 0.22 0.20 0.17 0.15 0.13 0.12 0.13 0.12 0.11 0.08 0.08 0.08 0.09 0.10 0.13 0.15 0.12 0.09 0.14 0.22 0.25 0.31 0.29 0.40 0.54 0.44 0.32 0.27 0.33 0.25 0.27 0.25

GFSGL_prec_precacc_081.txt.gz
Total_Precipitation_Accumulation
0.05 0.01 0.02 0.05 0.05 0.06 0.05 0.05 0.05 0.05 0.05 0.06 0.09 0.09 0.08 0.08 0.10 0.16 0.19 0.19 0.24 0.24 0.23 0.28 0.31 0.35 0.44 0.54 0.59 0.68 0.80 0.91 0.99 0.86 0.66 0.57 0.50 0.46 0.49 0.44 0.41 0.38 0.40
0.03 0.01 0.02 0.05 0.05 0.05 0.05 0.05 0.05 0.04 0.05 0.06 0.07 0.06 0.05 0.04 0.04 0.06 0.10 0.14 0.17 0.18 0.19 0.20 0.17 0.16 0.20 0.24 0.26 0.32 0.43 0.53 0.67 0.76 0.70 0.66 0.60 0.54 0.48 0.41 0.34 0.31 0.29
0.04 0.04 0.04 0.04 0.04 0.06 0.07 0.07 0.07 0.07 0.08 0.07 0.05 0.05 0.06 0.05 0.05 0.04 0.06 0.11 0.13 0.16 0.17 0.18 0.18 0.18 0.21 0.25 0.28 0.33 0.40 0.47 0.54 0.61 0.61 0.55 0.50 0.45 0.38 0.27 0.24 0.21 0.18
0.11 0.08 0.06 0.08 0.07 0.07 0.06 0.06 0.06 0.07 0.07 0.06 0.08 0.08 0.07 0.06 0.08 0.11 0.14 0.16 0.16 0.17 0.18 0.20 0.20 0.20 0.22 0.26 0.31 0.38 0.40 0.37 0.34 0.33 0.37 0.32 0.25 0.21 0.17 0.12 0.09 0.06 0.03
0.16 0.13 0.09 0.08 0.09 0.07 0.05 0.07 0.07 0.06 0.06 0.04 0.08 0.15 0.17 0.17 0.16 0.13 0.11 0.12 0.15 0.19 0.21 0.23 0.26 0.33 0.40 0.38 0.32 0.30 0.30 0.32 0.37 0.38 0.27 0.21 0.12 0.05 0.04 0.03 0.04 0.03 0.01
0.11 0.11 0.08 0.08 0.08 0.09 0.08 0.05 0.08 0.08 0.08 0.12 0.11 0.11 0.14 0.18 0.36 0.28 0.18 0.15 0.17 0.21 0.26 0.33 0.41 0.51 0.46 0.42 0.34 0.27 0.21 0.27 0.28 0.25 0.20 0.07 0.02 0.02 0.01 0.03 0.06 0.06 0.06
0.15 0.17 0.17 0.13 0.20 0.20 0.15 0.13 0.11 0.15 0.24 0.23 0.22 0.26 0.25 0.24 0.35 0.29 0.34 0.36 0.42 0.47 0.48 0.44 0.37 0.34 0.31 0.26 0.23 0.23 0.24 0.18 0.12 0.07 0.02 0.00 0.01 0.03 0.10 0.10 0.08 0.11 0.06
0.22 0.33 0.57 0.48 0.52 0.60 0.75 0.63 0.64 0.52 0.46 0.54 0.56 0.58 0.64 0.76 0.80 0.68 0.55 0.44 0.46 0.48 0.45 0.40 0.33 0.26 0.19 0.13 0.16 0.19 0.08 0.02 0.00 0.00 0.00 0.01 0.04 0.04 0.07 0.17 0.10 0.07 0.02
0.63 0.81 0.80 0.70 0.74 0.84 1.06 1.14 0.80 0.97 0.78 0.78 0.68 0.55 0.59 0.71 0.66 0.49 0.45 0.39 0.29 0.19 0.14 0.07 0.03 0.03 0.03 0.06 0.08 0.04 0.00 0.00 0.00 0.01 0.03 0.02 0.01 0.01 0.00 0.06 0.07 0.08 0.05
0.79 0.81 0.88 0.75 0.73 0.89 0.99 0.98 0.72 0.61 0.65 0.58 0.63 0.60 0.51 0.43 0.31 0.19 0.11 0.08 0.05 0.02 0.00 0.00 0.01 0.01 0.04 0.08 0.03 0.00 0.00 0.00 0.05 0.02 0.01 0.00 0.00 0.00 0.00 0.01 0.07 0.25 0.14
0.86 0.88 0.70 0.73 0.45 0.61 0.69 0.62 0.47 0.37 0.42 0.43 0.39 0.32 0.22 0.13 0.06 0.02 0.02 0.01 0.00 0.00 0.00 0.00 0.00 0.03 0.04 0.03 0.02 0.00 0.01 0.02 0.02 0.00 0.00 0.00 0.00 0.00 0.00 0.00 0.02 0.22 0.41
0.44 0.46 0.31 0.26 0.23 0.18 0.19 0.27 0.24 0.14 0.10 0.04 0.01 0.00 0.00 0.00 0.00 0.00 0.00 0.01 0.01 0.01 0.01 0.01 0.01 0.03 0.02 0.00 0.00 0.01 0.02 0.01 0.00 0.00 0.00 0.00 0.00 0.00 0.00 0.00 0.00 0.02 0.10
0.02 0.01 0.02 0.02 0.02 0.01 0.00 0.00 0.00 0.00 0.00 0.00 0.00 0.00 0.00 0.00 0.00 0.01 0.00 0.01 0.01 0.02 0.01 0.01 0.01 0.00 0.00 0.00 0.00 0.00 0.00 0.00 0.00 0.01 0.01 0.00 0.00 0.00 0.00 0.00 0.00 0.00 0.01
0.01 0.00 0.00 0.01 0.01 0.01 0.00 0.00 0.00 0.00 0.00 0.00 0.00 0.00 0.00 0.00 0.00 0.00 0.00 0.00 0.01 0.01 0.00 0.00 0.00 0.00 0.00 0.00 0.00 0.00 0.00 0.00 0.01 0.03 0.01 0.00 0.00 0.00 0.00 0.00 0.03 0.01 0.06
0.01 0.01 0.00 0.00 0.00 0.00 0.00 0.00 0.00 0.00 0.01 0.00 0.00 0.00 0.00 0.00 0.00 0.00 0.01 0.02 0.01 0.01 0.01 0.00 0.00 0.00 0.00 0.00 0.00 0.00 0.00 0.00 0.01 0.01 0.02 0.02 0.01 0.00 0.00 0.00 0.04 0.09 0.12
0.06 0.04 0.04 0.04 0.04 0.05 0.04 0.04 0.06 0.04 0.03 0.02 0.01 0.01 0.00 0.01 0.01 0.01 0.01 0.01 0.01 0.01 0.00 0.00 0.00 0.00 0.00 0.00 0.00 0.00 0.00 0.00 0.01 0.02 0.03 0.04 0.07 0.05 0.06 0.03 0.03 0.09 0.12
0.15 0.13 0.13 0.14 0.09 0.06 0.06 0.07 0.09 0.10 0.08 0.05 0.04 0.03 0.01 0.01 0.01 0.01 0.01 0.01 0.01 0.02 0.00 0.00 0.00 0.00 0.00 0.00 0.01 0.02 0.02 0.00 0.02 0.04 0.05 0.07 0.14 0.10 0.05 0.05 0.04 0.06 0.05
0.13 0.22 0.16 0.16 0.17 0.17 0.17 0.17 0.15 0.12 0.10 0.08 0.11 0.11 0.05 0.03 0.02 0.01 0.01 0.02 0.02 0.02 0.00 0.01 0.01 0.00 0.00 0.01 0.02 0.03 0.03 0.01 0.02 0.03 0.09 0.13 0.15 0.18 0.10 0.09 0.08 0.15 0.18
0.06 0.09 0.13 0.15 0.16 0.20 0.14 0.13 0.15 0.17 0.17 0.15 0.14 0.16 0.08 0.10 0.09 0.05 0.04 0.01 0.00 0.00 0.00 0.01 0.02 0.01 0.01 0.02 0.03 0.04 0.04 0.06 0.09 0.13 0.10 0.13 0.14 0.26 0.15 0.07 0.09 0.09 0.14
0.03 0.12 0.13 0.07 0.11 0.14 0.11 0.11 0.10 0.11 0.13 0.14 0.13 0.11 0.12 0.11 0.05 0.02 0.02 0.01 0.02 0.02 0.03 0.03 0.03 0.01 0.01 0.03 0.04 0.04 0.04 0.02 0.05 0.06 0.09 0.14 0.15 0.21 0.27 0.19 0.13 0.21 0.12
0.05 0.09 0.17 0.09 0.05 0.05 0.06 0.07 0.08 0.11 0.11 0.11 0.13 0.21 0.24 0.09 0.02 0.01 0.01 0.00 0.00 0.01 0.03 0.04 0.04 0.03 0.02 0.03 0.05 0.05 0.04 0.04 0.07 0.13 0.12 0.14 0.19 0.25 0.16 0.20 0.20 0.20 0.22
0.05 0.07 0.08 0.06 0.06 0.07 0.09 0.09 0.09 0.09 0.08 0.08 0.07 0.24 0.42 0.11 0.01 0.02 0.02 0.01 0.01 0.00 0.01 0.02 0.03 0.03 0.07 0.14 0.16 0.12 0.05 0.04 0.06 0.13 0.11 0.14 0.19 0.18 0.18 0.22 0.23 0.31 0.28
0.06 0.05 0.06 0.06 0.07 0.17 0.24 0.12 0.09 0.08 0.06 0.06 0.07 0.09 0.20 0.17 0.05 0.03 0.02 0.01 0.01 0.01 0.01 0.02 0.04 0.03 0.03 0.11 0.20 0.29 0.26 0.15 0.19 0.26 0.28 0.17 0.17 0.26 0.43 0.49 0.42 0.33 0.17
0.07 0.09 0.10 0.10 0.15 0.20 0.18 0.17 0.16 0.23 0.19 0.15 0.13 0.12 0.11 0.12 0.12 0.07 0.06 0.05 0.05 0.03 0.03 0.05 0.07 0.10 0.11 0.10 0.13 0.18 0.30 0.35 0.42 0.46 0.69 0.86 0.66 0.49 0.45 0.37 0.29 0.22 0.17
0.15 0.19 0.23 0.22 0.25 0.26 0.20 0.20 0.18 0.18 0.21 0.18 0.16 0.15 0.14 0.15 0.15 0.10 0.08 0.09 0.08 0.08 0.06 0.07 0.10 0.15 0.16 0.16 0.16 0.18 0.22 0.32 0.55 0.63 0.63 0.56 0.43 0.31 0.31 0.29 0.22 0.20 0.14
0.25 0.28 0.30 0.29 0.25 0.25 0.24 0.24 0.23 0.25 0.26 0.23 0.21 0.18 0.16 0.14 0.12 0.14 0.13 0.12 0.10 0.10 0.10 0.10 0.11 0.15 0.18 0.15 0.11 0.16 0.23 0.26 0.32 0.30 0.41 0.55 0.45 0.33 0.28 0.34 0.26 0.27 0.25

GFSGL_prec_precacc_084.txt.gz
Total_Precipitation_Accumulation
0.05 0.01 0.02 0.05 0.05 0.06 0.05 0.05 0.05 0.05 0.05 0.06 0.09 0.09 0.08 0.08 0.10 0.16 0.19 0.19 0.24 0.24 0.23 0.28 0.31 0.35 0.44 0.54 0.59 0.68 0.80 0.92 0.99 0.86 0.66 0.57 0.50 0.46 0.49 0.44 0.41 0.38 0.40
0.03 0.01 0.02 0.05 0.05 0.05 0.05 0.05 0.05 0.04 0.05 0.06 0.07 0.06 0.05 0.04 0.04 0.06 0.10 0.14 0.17 0.18 0.19 0.20 0.17 0.16 0.20 0.24 0.26 0.32 0.43 0.54 0.67 0.76 0.70 0.66 0.60 0.54 0.48 0.41 0.34 0.31 0.30
0.04 0.04 0.04 0.04 0.04 0.06 0.07 0.07 0.07 0.07 0.08 0.07 0.05 0.05 0.06 0.05 0.05 0.04 0.06 0.11 0.13 0.16 0.17 0.18 0.18 0.18 0.21 0.25 0.28 0.33 0.40 0.47 0.54 0.61 0.61 0.55 0.50 0.45 0.38 0.27 0.24 0.21 0.18
0.11 0.08 0.06 0.08 0.07 0.07 0.06 0.06 0.06 0.07 0.07 0.06 0.08 0.08 0.07 0.06 0.08 0.11 0.14 0.16 0.16 0.17 0.18 0.20 0.20 0.20 0.22 0.26 0.31 0.38 0.40 0.37 0.34 0.33 0.37 0.32 0.25 0.21 0.17 0.12 0.09 0.06 0.04
0.16 0.13 0.09 0.08 0.09 0.07 0.05 0.07 0.07 0.06 0.06 0.04 0.08 0.15 0.17 0.17 0.16 0.13 0.11 0.12 0.15 0.19 0.21 0.23 0.26 0.33 0.40 0.38 0.32 0.30 0.30 0.32 0.37 0.38 0.27 0.21 0.12 0.05 0.04 0.03 0.04 0.03 0.01
0.11 0.11 0.08 0.08 0.08 0.09 0.08 0.05 0.08 0.08 0.08 0.12 0.11 0.11 0.14 0.18 0.36 0.28 0.18 0.15 0.17 0.21 0.26 0.33 0.41 0.51 0.46 0.42 0.34 0.27 0.21 0.27 0.28 0.25 0.20 0.07 0.02 0.02 0.01 0.03 0.06 0.06 0.06
0.15 0.17 0.17 0.13 0.20 0.20 0.15 0.13 0.11 0.15 0.24 0.23 0.22 0.26 0.25 0.24 0.35 0.29 0.34 0.36 0.42 0.47 0.48 0.44 0.37 0.34 0.31 0.26 0.23 0.23 0.24 0.18 0.12 0.07 0.02 0.00 0.01 0.03 0.10 0.10 0.08 0.11 0.06
0.22 0.33 0.57 0.48 0.52 0.60 0.75 0.63 0.64 0.52 0.46 0.54 0.56 0.58 0.64 0.76 0.80 0.68 0.55 0.44 0.46 0.48 0.45 0.40 0.33 0.26 0.19 0.13 0.16 0.19 0.08 0.02 0.00 0.00 0.00 0.01 0.04 0.04 0.07 0.17 0.10 0.07 0.02
0.63 0.81 0.80 0.70 0.74 0.84 1.06 1.14 0.80 0.97 0.78 0.78 0.68 0.55 0.59 0.71 0.66 0.49 0.45 0.39 0.29 0.19 0.14 0.07 0.03 0.03 0.03 0.06 0.08 0.04 0.00 0.00 0.00 0.01 0.03 0.02 0.01 0.01 0.00 0.06 0.07 0.08 0.06
0.79 0.81 0.88 0.75 0.73 0.89 0.99 0.98 0.72 0.61 0.65 0.58 0.63 0.60 0.51 0.43 0.31 0.19 0.11 0.08 0.05 0.02 0.00 0.00 0.01 0.01 0.04 0.08 0.03 0.00 0.00 0.00 0.05 0.02 0.01 0.00 0.00 0.00 0.00 0.01 0.07 0.25 0.14
0.86 0.88 0.70 0.73 0.45 0.61 0.69 0.62 0.47 0.37 0.42 0.43 0.39 0.32 0.22 0.13 0.06 0.03 0.02 0.01 0.00 0.00 0.00 0.00 0.00 0.03 0.04 0.03 0.02 0.00 0.01 0.02 0.02 0.00 0.00 0.00 0.00 0.00 0.00 0.00 0.02 0.22 0.41
0.44 0.46 0.31 0.26 0.23 0.18 0.19 0.27 0.24 0.14 0.10 0.04 0.01 0.00 0.00 0.00 0.00 0.00 0.01 0.01 0.01 0.01 0.01 0.01 0.01 0.03 0.02 0.00 0.00 0.01 0.02 0.01 0.00 0.00 0.00 0.00 0.00 0.00 0.00 0.00 0.00 0.02 0.10
0.02 0.01 0.02 0.02 0.02 0.01 0.00 0.00 0.00 0.00 0.00 0.00 0.00 0.00 0.00 0.00 0.00 0.01 0.01 0.02 0.01 0.02 0.01 0.01 0.01 0.00 0.00 0.00 0.00 0.00 0.00 0.00 0.00 0.01 0.01 0.00 0.00 0.00 0.00 0.00 0.00 0.00 0.01
0.01 0.00 0.00 0.01 0.01 0.01 0.00 0.00 0.00 0.00 0.00 0.00 0.00 0.00 0.00 0.00 0.00 0.00 0.00 0.01 0.02 0.01 0.00 0.00 0.00 0.00 0.00 0.00 0.00 0.00 0.00 0.00 0.01 0.03 0.01 0.00 0.00 0.00 0.00 0.00 0.03 0.01 0.06
0.01 0.01 0.00 0.00 0.00 0.00 0.00 0.00 0.00 0.00 0.01 0.01 0.01 0.01 0.01 0.01 0.00 0.01 0.01 0.02 0.01 0.01 0.01 0.00 0.00 0.00 0.00 0.00 0.00 0.00 0.00 0.00 0.01 0.01 0.02 0.02 0.01 0.00 0.00 0.00 0.04 0.09 0.12
0.06 0.04 0.04 0.04 0.04 0.05 0.04 0.04 0.08 0.07 0.07 0.05 0.03 0.02 0.01 0.02 0.01 0.01 0.01 0.01 0.01 0.02 0.00 0.00 0.00 0.00 0.00 0.00 0.00 0.00 0.00 0.00 0.01 0.02 0.03 0.04 0.07 0.05 0.06 0.03 0.03 0.09 0.12
0.15 0.13 0.13 0.14 0.09 0.07 0.06 0.07 0.09 0.14 0.15 0.10 0.07 0.05 0.03 0.01 0.02 0.02 0.01 0.02 0.02 0.05 0.01 0.00 0.00 0.00 0.00 0.00 0.01 0.02 0.02 0.00 0.02 0.04 0.05 0.07 0.14 0.10 0.05 0.05 0.04 0.06 0.05
0.13 0.22 0.16 0.16 0.17 0.17 0.17 0.17 0.15 0.13 0.13 0.15 0.20 0.19 0.10 0.07 0.05 0.03 0.02 0.03 0.03 0.03 0.01 0.01 0.01 0.00 0.00 0.01 0.02 0.03 0.03 0.01 0.02 0.03 0.09 0.13 0.15 0.18 0.10 0.09 0.08 0.15 0.18
0.06 0.09 0.13 0.15 0.16 0.21 0.14 0.13 0.15 0.18 0.18 0.17 0.19 0.30 0.18 0.17 0.17 0.11 0.07 0.02 0.00 0.00 0.00 0.02 0.03 0.03 0.02 0.02 0.03 0.04 0.04 0.06 0.09 0.13 0.10 0.13 0.14 0.26 0.15 0.07 0.09 0.09 0.14
0.03 0.12 0.13 0.07 0.11 0.14 0.11 0.12 0.11 0.11 0.14 0.15 0.16 0.17 0.24 0.30 0.17 0.07 0.03 0.02 0.02 0.02 0.03 0.03 0.04 0.03 0.02 0.03 0.04 0.04 0.04 0.02 0.05 0.06 0.09 0.14 0.15 0.21 0.27 0.19 0.13 0.21 0.12
0.05 0.09 0.18 0.09 0.05 0.05 0.06 0.08 0.09 0.13 0.13 0.13 0.15 0.28 0.43 0.30 0.12 0.07 0.04 0.02 0.02 0.02 0.03 0.04 0.04 0.04 0.03 0.03 0.05 0.05 0.04 0.04 0.07 0.13 0.12 0.14 0.19 0.25 0.16 0.20 0.20 0.20 0.22
0.05 0.07 0.09 0.07 0.07 0.08 0.10 0.09 0.10 0.11 0.10 0.10 0.09 0.31 0.62 0.29 0.11 0.10 0.07 0.04 0.04 0.02 0.01 0.02 0.03 0.03 0.08 0.14 0.16 0.12 0.05 0.04 0.06 0.13 0.11 0.14 0.19 0.18 0.18 0.22 0.23 0.31 0.28
0.06 0.06 0.07 0.07 0.08 0.17 0.25 0.13 0.10 0.09 0.08 0.08 0.09 0.15 0.33 0.30 0.14 0.09 0.06 0.05 0.04 0.02 0.01 0.02 0.04 0.04 0.03 0.11 0.20 0.30 0.26 0.15 0.19 0.27 0.29 0.17 0.17 0.26 0.43 0.49 0.42 0.33 0.18
0.08 0.10 0.11 0.11 0.15 0.21 0.19 0.18 0.17 0.24 0.20 0.16 0.15 0.16 0.16 0.18 0.18 0.11 0.09 0.07 0.06 0.03 0.03 0.05 0.07 0.10 0.11 0.10 0.13 0.18 0.30 0.35 0.43 0.46 0.70 0.87 0.67 0.49 0.46 0.38 0.30 0.23 0.18
0.16 0.20 0.24 0.24 0.26 0.27 0.21 0.21 0.18 0.19 0.21 0.18 0.16 0.18 0.18 0.19 0.18 0.12 0.10 0.10 0.09 0.08 0.06 0.07 0.10 0.15 0.16 0.17 0.17 0.18 0.22 0.32 0.56 0.64 0.64 0.58 0.44 0.32 0.32 0.30 0.23 0.21 0.15
0.26 0.30 0.31 0.30 0.26 0.25 0.25 0.24 0.23 0.26 0.27 0.23 0.22 0.20 0.18 0.17 0.15 0.15 0.13 0.12 0.11 0.10 0.11 0.12 0.13 0.16 0.20 0.16 0.13 0.17 0.25 0.27 0.33 0.31 0.43 0.57 0.46 0.34 0.29 0.35 0.27 0.28 0.26

GFSGL_prec_precacc_087.txt.gz
Total_Precipitation_Accumulation
0.05 0.01 0.02 0.05 0.05 0.06 0.05 0.05 0.05 0.05 0.06 0.07 0.10 0.11 0.10 0.11 0.14 0.19 0.21 0.20 0.24 0.24 0.23 0.28 0.31 0.35 0.44 0.54 0.59 0.68 0.80 0.92 0.99 0.86 0.66 0.57 0.50 0.46 0.49 0.44 0.41 0.38 0.41
0.03 0.01 0.02 0.05 0.05 0.05 0.05 0.05 0.05 0.04 0.05 0.06 0.07 0.06 0.05 0.05 0.05 0.07 0.11 0.14 0.17 0.18 0.19 0.20 0.17 0.16 0.20 0.24 0.26 0.32 0.43 0.54 0.68 0.76 0.70 0.66 0.60 0.54 0.48 0.41 0.34 0.31 0.30
0.04 0.04 0.04 0.04 0.04 0.06 0.07 0.07 0.07 0.07 0.08 0.07 0.05 0.05 0.06 0.06 0.05 0.04 0.06 0.11 0.13 0.16 0.17 0.18 0.18 0.18 0.21 0.25 0.28 0.33 0.40 0.47 0.54 0.61 0.61 0.55 0.50 0.45 0.38 0.27 0.24 0.21 0.18
0.11 0.08 0.06 0.08 0.07 0.07 0.06 0.06 0.06 0.07 0.07 0.06 0.08 0.08 0.07 0.06 0.08 0.11 0.15 0.16 0.17 0.17 0.18 0.20 0.20 0.20 0.22 0.26 0.31 0.38 0.40 0.37 0.35 0.33 0.37 0.32 0.25 0.21 0.17 0.12 0.09 0.06 0.04
0.16 0.13 0.09 0.08 0.09 0.07 0.05 0.07 0.07 0.06 0.06 0.04 0.08 0.15 0.17 0.17 0.16 0.13 0.11 0.12 0.15 0.19 0.21 0.23 0.26 0.33 0.40 0.38 0.32 0.30 0.30 0.32 0.37 0.38 0.27 0.21 0.12 0.05 0.04 0.03 0.04 0.03 0.01
0.11 0.11 0.08 0.08 0.08 0.09 0.08 0.05 0.08 0.08 0.08 0.12 0.11 0.11 0.14 0.18 0.36 0.28 0.18 0.15 0.17 0.21 0.26 0.33 0.41 0.51 0.46 0.42 0.34 0.27 0.21 0.27 0.28 0.25 0.20 0.07 0.02 0.02 0.01 0.03 0.06 0.06 0.06
0.15 0.17 0.17 0.13 0.20 0.20 0.15 0.13 0.11 0.15 0.24 0.23 0.22 0.26 0.25 0.24 0.35 0.29 0.34 0.36 0.42 0.47 0.48 0.44 0.37 0.34 0.31 0.26 0.23 0.23 0.24 0.18 0.12 0.07 0.02 0.00 0.01 0.03 0.10 0.10 0.08 0.11 0.06
0.22 0.33 0.57 0.48 0.52 0.60 0.75 0.63 0.64 0.52 0.46 0.54 0.56 0.58 0.64 0.76 0.80 0.68 0.55 0.44 0.46 0.48 0.45 0.40 0.33 0.26 0.19 0.13 0.16 0.19 0.08 0.02 0.00 0.00 0.00 0.01 0.04 0.04 0.07 0.17 0.10 0.07 0.02
0.63 0.81 0.80 0.70 0.74 0.84 1.06 1.14 0.80 0.97 0.78 0.78 0.68 0.55 0.59 0.71 0.66 0.49 0.45 0.39 0.29 0.19 0.14 0.07 0.03 0.03 0.03 0.06 0.08 0.04 0.00 0.00 0.00 0.01 0.03 0.02 0.01 0.01 0.00 0.06 0.07 0.08 0.06
0.79 0.81 0.88 0.75 0.73 0.89 0.99 0.98 0.72 0.61 0.65 0.58 0.63 0.60 0.51 0.43 0.31 0.19 0.11 0.08 0.05 0.02 0.00 0.00 0.01 0.01 0.04 0.08 0.03 0.00 0.00 0.00 0.05 0.02 0.01 0.00 0.00 0.00 0.00 0.01 0.07 0.25 0.14
0.86 0.88 0.70 0.73 0.45 0.61 0.69 0.62 0.47 0.37 0.42 0.43 0.39 0.32 0.22 0.13 0.06 0.03 0.02 0.01 0.00 0.00 0.00 0.00 0.00 0.03 0.04 0.03 0.02 0.00 0.01 0.02 0.02 0.00 0.00 0.00 0.00 0.00 0.00 0.00 0.02 0.22 0.41
0.44 0.46 0.31 0.26 0.23 0.18 0.19 0.27 0.24 0.14 0.10 0.04 0.01 0.00 0.00 0.00 0.00 0.00 0.01 0.01 0.01 0.01 0.01 0.01 0.01 0.03 0.02 0.00 0.00 0.01 0.02 0.01 0.00 0.00 0.00 0.00 0.00 0.00 0.00 0.00 0.00 0.02 0.10
0.02 0.01 0.02 0.02 0.02 0.01 0.00 0.00 0.00 0.00 0.00 0.00 0.00 0.00 0.00 0.00 0.00 0.01 0.01 0.02 0.01 0.02 0.01 0.01 0.01 0.00 0.00 0.00 0.00 0.00 0.00 0.00 0.00 0.01 0.01 0.00 0.00 0.00 0.00 0.00 0.00 0.00 0.01
0.01 0.00 0.00 0.01 0.01 0.01 0.00 0.00 0.00 0.00 0.00 0.00 0.00 0.00 0.00 0.00 0.00 0.01 0.01 0.01 0.02 0.01 0.00 0.00 0.00 0.00 0.00 0.00 0.00 0.00 0.00 0.00 0.01 0.03 0.01 0.00 0.00 0.00 0.00 0.00 0.03 0.01 0.06
0.01 0.01 0.00 0.00 0.00 0.00 0.00 0.00 0.00 0.00 0.02 0.01 0.01 0.01 0.03 0.03 0.02 0.07 0.06 0.04 0.02 0.02 0.01 0.00 0.00 0.00 0.00 0.00 0.00 0.00 0.00 0.00 0.01 0.01 0.02 0.02 0.01 0.00 0.00 0.00 0.04 0.09 0.12
0.06 0.04 0.04 0.04 0.04 0.05 0.04 0.04 0.08 0.08 0.08 0.06 0.05 0.03 0.03 0.05 0.09 0.13 0.08 0.05 0.03 0.03 0.01 0.00 0.00 0.00 0.00 0.00 0.00 0.00 0.00 0.00 0.01 0.02 0.03 0.04 0.07 0.05 0.06 0.03 0.03 0.09 0.12
0.15 0.13 0.13 0.14 0.09 0.07 0.06 0.07 0.09 0.14 0.15 0.10 0.09 0.08 0.06 0.04 0.06 0.06 0.06 0.05 0.05 0.10 0.03 0.00 0.00 0.00 0.00 0.00 0.01 0.02 0.02 0.00 0.02 0.04 0.05 0.07 0.14 0.10 0.05 0.05 0.04 0.06 0.05
0.13 0.22 0.16 0.16 0.17 0.17 0.17 0.17 0.15 0.13 0.13 0.15 0.21 0.23 0.15 0.13 0.13 0.11 0.08 0.09 0.08 0.10 0.02 0.01 0.01 0.00 0.00 0.01 0.02 0.03 0.03 0.01 0.02 0.03 0.09 0.13 0.15 0.18 0.10 0.09 0.08 0.15 0.18
0.06 0.09 0.13 0.15 0.16 0.21 0.14 0.14 0.15 0.18 0.18 0.17 0.19 0.32 0.25 0.29 0.31 0.25 0.18 0.09 0.01 0.01 0.00 0.02 0.03 0.03 0.02 0.02 0.03 0.04 0.04 0.06 0.09 0.13 0.10 0.13 0.14 0.26 0.15 0.07 0.09 0.09 0.14
0.03 0.12 0.13 0.07 0.11 0.15 0.11 0.12 0.11 0.11 0.14 0.16 0.16 0.17 0.29 0.45 0.35 0.23 0.14 0.06 0.03 0.02 0.03 0.03 0.04 0.03 0.02 0.04 0.04 0.04 0.04 0.02 0.05 0.06 0.09 0.14 0.15 0.21 0.27 0.19 0.13 0.21 0.12
0.05 0.09 0.18 0.10 0.05 0.06 0.07 0.08 0.09 0.13 0.14 0.13 0.15 0.29 0.49 0.41 0.21 0.17 0.14 0.09 0.04 0.04 0.07 0.07 0.05 0.05 0.03 0.04 0.06 0.05 0.04 0.04 0.07 0.13 0.12 0.14 0.19 0.25 0.16 0.20 0.20 0.20 0.22
0.05 0.07 0.09 0.08 0.08 0.08 0.10 0.10 0.10 0.11 0.10 0.11 0.09 0.33 0.66 0.37 0.18 0.17 0.16 0.12 0.12 0.14 0.14 0.12 0.09 0.06 0.09 0.14 0.16 0.12 0.05 0.04 0.06 0.13 0.11 0.14 0.19 0.18 0.18 0.22 0.23 0.31 0.28
0.07 0.06 0.07 0.08 0.09 0.18 0.25 0.13 0.10 0.09 0.08 0.08 0.09 0.15 0.34 0.33 0.18 0.16 0.15 0.15 0.17 0.19 0.16 0.12 0.10 0.07 0.05 0.12 0.20 0.30 0.26 0.15 0.19 0.27 0.29 0.17 0.17 0.26 0.43 0.49 0.42 0.33 0.18
0.10 0.11 0.12 0.11 0.16 0.21 0.20 0.18 0.17 0.25 0.21 0.16 0.15 0.16 0.17 0.20 0.22 0.20 0.21 0.22 0.22 0.19 0.17 0.14 0.12 0.12 0.11 0.10 0.13 0.18 0.30 0.35 0.43 0.46 0.70 0.87 0.67 0.50 0.47 0.39 0.30 0.23 0.18
0.16 0.21 0.26 0.25 0.28 0.29 0.22 0.22 0.19 0.19 0.22 0.18 0.16 0.18 0.18 0.21 0.21 0.18 0.22 0.25 0.24 0.20 0.15 0.14 0.15 0.16 0.17 0.17 0.17 0.18 0.22 0.32 0.56 0.64 0.65 0.58 0.45 0.34 0.35 0.32 0.25 0.22 0.17
0.28 0.32 0.33 0.31 0.27 0.26 0.26 0.25 0.23 0.26 0.27 0.24 0.22 0.20 0.19 0.19 0.17 0.18 0.20 0.22 0.21 0.19 0.17 0.16 0.16 0.19 0.21 0.17 0.13 0.17 0.25 0.27 0.33 0.31 0.44 0.58 0.49 0.37 0.31 0.37 0.29 0.31 0.27

GFSGL_prec_precacc_090.txt.gz
Total_Precipitation_Accumulation
0.05 0.01 0.02 0.05 0.05 0.06 0.06 0.11 0.10 0.10 0.10 0.16 0.20 0.21 0.13 0.12 0.16 0.23 0.26 0.27 0.28 0.26 0.24 0.28 0.31 0.35 0.44 0.54 0.59 0.68 0.80 0.92 0.99 0.86 0.66 0.57 0.50 0.46 0.49 0.44 0.41 0.38 0.41
0.03 0.01 0.02 0.05 0.05 0.05 0.05 0.05 0.05 0.04 0.05 0.06 0.08 0.07 0.07 0.07 0.06 0.07 0.12 0.16 0.19 0.20 0.20 0.20 0.17 0.16 0.20 0.24 0.26 0.32 0.43 0.54 0.68 0.76 0.70 0.66 0.60 0.54 0.48 0.41 0.34 0.31 0.30
0.04 0.04 0.04 0.04 0.04 0.06 0.07 0.07 0.07 0.07 0.08 0.07 0.05 0.05 0.06 0.06 0.06 0.06 0.08 0.12 0.14 0.16 0.17 0.18 0.18 0.18 0.21 0.25 0.28 0.33 0.40 0.47 0.54 0.61 0.61 0.55 0.50 0.45 0.38 0.27 0.24 0.21 0.18
0.11 0.08 0.06 0.08 0.07 0.07 0.06 0.06 0.06 0.07 0.07 0.06 0.08 0.08 0.07 0.06 0.08 0.12 0.16 0.17 0.17 0.18 0.19 0.20 0.20 0.20 0.22 0.26 0.31 0.38 0.40 0.37 0.35 0.33 0.37 0.32 0.25 0.21 0.17 0.12 0.09 0.06 0.04
0.16 0.13 0.09 0.08 0.09 0.07 0.05 0.07 0.07 0.06 0.06 0.04 0.08 0.15 0.17 0.17 0.16 0.13 0.12 0.13 0.16 0.21 0.23 0.25 0.26 0.34 0.40 0.38 0.32 0.30 0.30 0.32 0.37 0.38 0.27 0.21 0.12 0.05 0.04 0.03 0.04 0.03 0.01
0.11 0.11 0.08 0.08 0.08 0.09 0.08 0.05 0.08 0.08 0.08 0.12 0.11 0.11 0.14 0.18 0.36 0.28 0.18 0.16 0.17 0.22 0.26 0.33 0.41 0.51 0.46 0.42 0.34 0.27 0.21 0.27 0.28 0.25 0.20 0.07 0.02 0.02 0.01 0.03 0.06 0.06 0.06
0.15 0.17 0.17 0.13 0.20 0.20 0.15 0.13 0.11 0.15 0.24 0.23 0.22 0.26 0.25 0.24 0.35 0.29 0.34 0.36 0.42 0.47 0.48 0.44 0.37 0.34 0.31 0.26 0.23 0.23 0.24 0.18 0.12 0.07 0.02 0.00 0.01 0.03 0.10 0.10 0.08 0.11 0.06
0.22 0.33 0.57 0.48 0.52 0.60 0.75 0.63 0.64 0.52 0.46 0.54 0.56 0.58 0.64 0.76 0.80 0.68 0.55 0.44 0.46 0.48 0.45 0.40 0.33 0.26 0.19 0.13 0.16 0.19 0.08 0.02 0.00 0.00 0.00 0.01 0.04 0.04 0.07 0.17 0.10 0.07 0.02
0.63 0.81 0.80 0.70 0.74 0.84 1.06 1.14 0.80 0.97 0.78 0.78 0.68 0.55 0.59 0.71 0.66 0.49 0.45 0.39 0.29 0.19 0.14 0.07 0.03 0.03 0.03 0.06 0.08 0.04 0.00 0.00 0.00 0.01 0.03 0.02 0.01 0.01 0.00 0.06 0.07 0.08 0.06
0.79 0.81 0.88 0.75 0.73 0.89 0.99 0.98 0.72 0.61 0.66 0.58 0.63 0.60 0.51 0.43 0.31 0.19 0.11 0.08 0.05 0.02 0.00 0.00 0.01 0.01 0.04 0.08 0.03 0.00 0.00 0.00 0.05 0.02 0.01 0.00 0.00 0.00 0.00 0.01 0.07 0.25 0.14
0.86 0.88 0.70 0.73 0.45 0.61 0.69 0.62 0.47 0.37 0.42 0.43 0.39 0.32 0.22 0.13 0.06 0.03 0.02 0.01 0.00 0.00 0.00 0.00 0.00 0.03 0.04 0.03 0.02 0.00 0.01 0.02 0.02 0.00 0.00 0.00 0.00 0.00 0.00 0.00 0.02 0.22 0.41
0.44 0.46 0.31 0.26 0.23 0.18 0.19 0.27 0.24 0.14 0.10 0.04 0.01 0.00 0.00 0.00 0.00 0.00 0.01 0.01 0.01 0.01 0.01 0.01 0.01 0.03 0.02 0.00 0.00 0.01 0.02 0.01 0.00 0.00 0.00 0.00 0.00 0.00 0.00 0.00 0.00 0.02 0.10
0.02 0.01 0.02 0.02 0.02 0.01 0.00 0.00 0.00 0.00 0.00 0.00 0.00 0.00 0.00 0.00 0.00 0.02 0.02 0.03 0.02 0.02 0.01 0.01 0.01 0.00 0.00 0.00 0.00 0.00 0.00 0.00 0.00 0.01 0.01 0.00 0.00 0.00 0.00 0.00 0.00 0.00 0.01
0.01 0.00 0.00 0.01 0.01 0.01 0.00 0.00 0.00 0.00 0.00 0.00 0.01 0.00 0.00 0.00 0.00 0.01 0.04 0.07 0.06 0.02 0.01 0.01 0.00 0.00 0.00 0.00 0.00 0.00 0.00 0.00 0.01 0.03 0.01 0.00 0.00 0.00 0.00 0.00 0.03 0.01 0.06
0.01 0.01 0.00 0.00 0.00 0.00 0.00 0.00 0.00 0.00 0.02 0.02 0.01 0.01 0.03 0.03 0.03 0.13 0.15 0.13 0.12 0.11 0.08 0.03 0.01 0.00 0.00 0.00 0.00 0.00 0.00 0.00 0.01 0.01 0.02 0.02 0.01 0.00 0.00 0.00 0.04 0.09 0.12
0.06 0.04 0.04 0.04 0.04 0.05 0.04 0.04 0.08 0.08 0.08 0.07 0.05 0.04 0.04 0.06 0.11 0.18 0.17 0.16 0.15 0.18 0.11 0.04 0.01 0.00 0.00 0.00 0.00 0.00 0.00 0.00 0.01 0.02 0.03 0.04 0.07 0.05 0.06 0.03 0.03 0.09 0.12
0.15 0.13 0.13 0.14 0.09 0.07 0.06 0.07 0.09 0.14 0.15 0.10 0.09 0.08 0.07 0.06 0.08 0.10 0.14 0.18 0.23 0.32 0.14 0.01 0.00 0.00 0.00 0.00 0.01 0.02 0.02 0.00 0.02 0.04 0.05 0.07 0.14 0.10 0.05 0.05 0.04 0.06 0.05
0.13 0.22 0.16 0.16 0.17 0.17 0.17 0.17 0.15 0.13 0.13 0.15 0.21 0.23 0.15 0.14 0.15 0.14 0.16 0.22 0.22 0.26 0.14 0.03 0.02 0.01 0.00 0.01 0.02 0.03 0.03 0.01 0.02 0.03 0.09 0.13 0.15 0.18 0.10 0.09 0.08 0.15 0.18
0.06 0.09 0.13 0.15 0.16 0.21 0.14 0.14 0.16 0.18 0.18 0.17 0.19 0.33 0.26 0.31 0.34 0.30 0.29 0.25 0.11 0.05 0.05 0.03 0.03 0.04 0.02 0.03 0.03 0.04 0.05 0.06 0.09 0.13 0.10 0.13 0.14 0.26 0.15 0.07 0.09 0.09 0.14
0.03 0.12 0.13 0.07 0.11 0.15 0.11 0.12 0.11 0.11 0.14 0.16 0.17 0.17 0.29 0.46 0.36 0.25 0.19 0.15 0.12 0.09 0.07 0.06 0.05 0.04 0.04 0.05 0.07 0.06 0.05 0.02 0.05 0.06 0.09 0.14 0.15 0.21 0.27 0.19 0.13 0.21 0.12
0.05 0.09 0.18 0.10 0.05 0.06 0.07 0.08 0.09 0.13 0.14 0.13 0.15 0.29 0.49 0.42 0.22 0.18 0.16 0.15 0.11 0.10 0.13 0.15 0.11 0.10 0.10 0.08 0.09 0.07 0.05 0.04 0.07 0.13 0.12 0.14 0.19 0.25 0.16 0.20 0.20 0.20 0.22
0.06 0.08 0.09 0.08 0.08 0.09 0.10 0.10 0.11 0.11 0.10 0.11 0.09 0.33 0.66 0.37 0.18 0.17 0.18 0.16 0.18 0.20 0.23 0.25 0.24 0.19 0.23 0.24 0.20 0.14 0.07 0.05 0.07 0.14 0.11 0.14 0.19 0.18 0.18 0.22 0.23 0.31 0.28
0.10 0.10 0.10 0.10 0.10 0.18 0.25 0.13 0.10 0.09 0.08 0.08 0.10 0.15 0.34 0.33 0.18 0.17 0.16 0.18 0.22 0.25 0.24 0.24 0.24 0.20 0.17 0.22 0.27 0.34 0.30 0.17 0.21 0.27 0.29 0.17 0.17 0.26 0.43 0.49 0.42 0.33 0.18
0.16 0.15 0.13 0.12 0.16 0.21 0.20 0.19 0.18 0.25 0.22 0.17 0.16 0.16 0.17 0.20 0.22 0.20 0.22 0.24 0.26 0.24 0.25 0.25 0.24 0.24 0.22 0.21 0.22 0.24 0.33 0.37 0.44 0.46 0.70 0.87 0.67 0.50 0.47 0.39 0.31 0.24 0.19
0.18 0.22 0.27 0.27 0.31 0.31 0.23 0.22 0.19 0.19 0.22 0.19 0.17 0.18 0.18 0.21 0.22 0.19 0.23 0.29 0.30 0.27 0.24 0.26 0.27 0.28 0.27 0.26 0.24 0.23 0.26 0.34 0.57 0.64 0.65 0.58 0.45 0.35 0.36 0.34 0.28 0.26 0.20
0.29 0.33 0.36 0.34 0.28 0.26 0.26 0.25 0.23 0.26 0.27 0.24 0.22 0.20 0.19 0.19 0.17 0.19 0.21 0.27 0.30 0.31 0.30 0.30 0.30 0.32 0.32 0.25 0.19 0.24 0.28 0.28 0.33 0.31 0.44 0.59 0.49 0.38 0.33 0.40 0.33 0.34 0.30

GFSGL_prec_precacc_093.txt.gz
Total_Precipitation_Accumulation
0.05 0.01 0.02 0.05 0.05 0.07 0.08 0.17 0.20 0.22 0.23 0.33 0.46 0.49 0.34 0.23 0.26 0.32 0.33 0.33 0.36 0.34 0.32 0.35 0.37 0.38 0.44 0.54 0.61 0.69 0.80 0.92 0.99 0.86 0.66 0.57 0.50 0.46 0.49 0.44 0.41 0.38 0.41
0.03 0.01 0.02 0.05 0.05 0.05 0.05 0.05 0.05 0.04 0.05 0.07 0.09 0.09 0.08 0.09 0.10 0.10 0.14 0.19 0.23 0.26 0.26 0.25 0.22 0.19 0.21 0.25 0.27 0.32 0.43 0.54 0.68 0.76 0.70 0.66 0.60 0.54 0.48 0.41 0.34 0.31 0.30
0.04 0.04 0.04 0.04 0.04 0.06 0.07 0.07 0.07 0.07 0.08 0.07 0.05 0.05 0.06 0.06 0.07 0.08 0.10 0.14 0.17 0.18 0.20 0.21 0.21 0.20 0.23 0.25 0.28 0.33 0.40 0.47 0.54 0.61 0.61 0.55 0.50 0.45 0.38 0.27 0.24 0.21 0.18
0.11 0.08 0.06 0.08 0.07 0.07 0.06 0.06 0.06 0.07 0.07 0.06 0.08 0.08 0.07 0.06 0.08 0.13 0.17 0.19 0.21 0.22 0.24 0.26 0.24 0.22 0.23 0.26 0.31 0.38 0.40 0.37 0.35 0.33 0.37 0.32 0.25 0.21 0.17 0.12 0.09 0.06 0.04
0.16 0.13 0.09 0.08 0.09 0.07 0.05 0.07 0.07 0.06 0.06 0.04 0.08 0.15 0.17 0.17 0.16 0.13 0.13 0.14 0.18 0.22 0.26 0.28 0.28 0.35 0.41 0.38 0.32 0.31 0.30 0.32 0.37 0.38 0.27 0.21 0.12 0.05 0.04 0.03 0.04 0.03 0.01
0.11 0.11 0.08 0.08 0.08 0.09 0.08 0.05 0.08 0.08 0.08 0.12 0.11 0.11 0.14 0.18 0.36 0.28 0.18 0.16 0.18 0.23 0.28 0.35 0.43 0.53 0.48 0.44 0.35 0.28 0.22 0.27 0.28 0.25 0.20 0.07 0.02 0.02 0.01 0.03 0.06 0.06 0.06
0.15 0.17 0.17 0.13 0.20 0.20 0.15 0.13 0.11 0.15 0.24 0.23 0.22 0.26 0.25 0.24 0.35 0.29 0.34 0.36 0.42 0.47 0.48 0.45 0.37 0.35 0.32 0.26 0.24 0.23 0.24 0.18 0.12 0.07 0.02 0.00 0.01 0.03 0.10 0.10 0.08 0.11 0.06
0.22 0.33 0.57 0.48 0.52 0.60 0.75 0.63 0.64 0.52 0.46 0.54 0.56 0.58 0.64 0.76 0.80 0.68 0.55 0.44 0.46 0.48 0.45 0.40 0.33 0.26 0.19 0.13 0.16 0.19 0.08 0.02 0.00 0.00 0.00 0.01 0.04 0.04 0.07 0.17 0.10 0.07 0.02
0.63 0.81 0.80 0.70 0.74 0.84 1.06 1.14 0.80 0.97 0.78 0.78 0.68 0.55 0.59 0.71 0.66 0.49 0.45 0.39 0.29 0.19 0.14 0.07 0.03 0.03 0.03 0.06 0.08 0.04 0.00 0.00 0.00 0.01 0.03 0.02 0.01 0.01 0.00 0.06 0.07 0.08 0.06
0.79 0.81 0.88 0.75 0.73 0.89 0.99 0.98 0.72 0.61 0.66 0.58 0.63 0.60 0.51 0.43 0.31 0.19 0.11 0.08 0.05 0.02 0.00 0.00 0.01 0.01 0.04 0.08 0.03 0.00 0.00 0.00 0.05 0.02 0.01 0.00 0.00 0.00 0.00 0.01 0.07 0.25 0.14
0.86 0.88 0.70 0.73 0.45 0.61 0.69 0.62 0.47 0.37 0.42 0.43 0.39 0.32 0.22 0.13 0.07 0.03 0.02 0.01 0.00 0.00 0.00 0.00 0.00 0.03 0.04 0.03 0.02 0.00 0.01 0.02 0.02 0.00 0.00 0.00 0.00 0.00 0.00 0.00 0.02 0.22 0.41
0.44 0.46 0.31 0.26 0.23 0.18 0.19 0.27 0.24 0.14 0.10 0.04 0.01 0.00 0.00 0.00 0.01 0.01 0.02 0.02 0.01 0.01 0.01 0.01 0.01 0.03 0.02 0.00 0.00 0.01 0.02 0.01 0.00 0.00 0.00 0.00 0.00 0.00 0.00 0.00 0.00 0.02 0.10
0.02 0.01 0.02 0.02 0.02 0.01 0.00 0.00 0.00 0.00 0.00 0.00 0.00 0.00 0.00 0.00 0.00 0.04 0.05 0.07 0.06 0.04 0.02 0.03 0.02 0.01 0.00 0.00 0.01 0.00 0.00 0.00 0.00 0.01 0.01 0.00 0.00 0.00 0.00 0.00 0.00 0.00 0.01
0.01 0.00 0.00 0.01 0.01 0.01 0.00 0.00 0.00 0.00 0.00 0.00 0.01 0.01 0.00 0.00 0.00 0.02 0.06 0.10 0.11 0.06 0.04 0.08 0.10 0.06 0.03 0.01 0.00 0.00 0.00 0.00 0.01 0.03 0.01 0.00 0.00 0.00 0.00 0.00 0.03 0.01 0.06
0.01 0.01 0.00 0.00 0.00 0.00 0.00 0.00 0.00 0.00 0.02 0.02 0.01 0.01 0.03 0.04 0.04 0.15 0.17 0.16 0.18 0.19 0.17 0.11 0.11 0.09 0.06 0.03 0.01 0.00 0.00 0.00 0.01 0.01 0.02 0.02 0.01 0.00 0.00 0.00 0.04 0.09 0.12
0.06 0.04 0.04 0.04 0.04 0.05 0.04 0.04 0.08 0.08 0.08 0.07 0.05 0.04 0.04 0.07 0.12 0.19 0.20 0.22 0.25 0.32 0.24 0.15 0.18 0.09 0.04 0.03 0.03 0.02 0.01 0.01 0.01 0.02 0.03 0.04 0.07 0.05 0.06 0.03 0.03 0.09 0.12
0.15 0.13 0.13 0.14 0.09 0.07 0.06 0.07 0.09 0.14 0.15 0.10 0.09 0.08 0.08 0.06 0.08 0.11 0.15 0.21 0.31 0.48 0.32 0.06 0.05 0.08 0.10 0.08 0.04 0.04 0.03 0.01 0.03 0.05 0.05 0.07 0.14 0.10 0.05 0.05 0.04 0.06 0.05
0.13 0.22 0.16 0.16 0.17 0.17 0.17 0.17 0.15 0.13 0.13 0.15 0.21 0.23 0.15 0.14 0.15 0.15 0.17 0.25 0.26 0.33 0.24 0.09 0.06 0.05 0.05 0.11 0.12 0.09 0.05 0.05 0.07 0.06 0.10 0.13 0.15 0.18 0.10 0.09 0.08 0.15 0.18
0.06 0.09 0.13 0.15 0.16 0.21 0.14 0.14 0.16 0.18 0.18 0.17 0.19 0.33 0.26 0.31 0.34 0.30 0.29 0.25 0.12 0.08 0.09 0.08 0.06 0.10 0.14 0.14 0.14 0.14 0.12 0.09 0.11 0.15 0.10 0.13 0.14 0.26 0.15 0.07 0.09 0.09 0.14
0.03 0.12 0.14 0.08 0.11 0.15 0.11 0.12 0.11 0.11 0.14 0.16 0.17 0.17 0.29 0.46 0.36 0.25 0.19 0.16 0.13 0.10 0.10 0.11 0.07 0.06 0.11 0.18 0.21 0.20 0.15 0.09 0.09 0.08 0.10 0.14 0.15 0.21 0.27 0.19 0.13 0.21 0.12
0.05 0.09 0.18 0.11 0.08 0.08 0.08 0.09 0.09 0.14 0.14 0.13 0.15 0.29 0.49 0.42 0.22 0.18 0.17 0.15 0.12 0.11 0.15 0.21 0.17 0.14 0.14 0.17 0.21 0.18 0.13 0.09 0.10 0.15 0.14 0.15 0.19 0.25 0.16 0.20 0.20 0.20 0.22
0.07 0.09 0.11 0.10 0.11 0.12 0.12 0.11 0.12 0.12 0.10 0.11 0.09 0.33 0.66 0.37 0.18 0.18 0.18 0.16 0.18 0.21 0.25 0.30 0.30 0.23 0.27 0.32 0.29 0.21 0.11 0.09 0.10 0.17 0.15 0.15 0.19 0.18 0.18 0.22 0.23 0.31 0.28
0.13 0.13 0.14 0.14 0.12 0.20 0.26 0.14 0.10 0.09 0.08 0.08 0.10 0.15 0.35 0.34 0.19 0.17 0.16 0.18 0.22 0.26 0.25 0.27 0.27 0.24 0.21 0.30 0.34 0.38 0.32 0.19 0.23 0.31 0.34 0.20 0.17 0.26 0.43 0.49 0.42 0.33 0.18
0.17 0.16 0.15 0.12 0.16 0.22 0.21 0.20 0.19 0.26 0.22 0.17 0.16 0.16 0.17 0.20 0.22 0.20 0.22 0.24 0.27 0.25 0.27 0.26 0.27 0.28 0.27 0.28 0.29 0.29 0.37 0.43 0.52 0.54 0.75 0.91 0.69 0.50 0.47 0.39 0.31 0.24 0.19
0.18 0.23 0.28 0.28 0.32 0.34 0.28 0.25 0.20 0.19 0.22 0.19 0.17 0.18 0.18 0.21 0.22 0.19 0.23 0.30 0.30 0.28 0.25 0.28 0.30 0.32 0.31 0.32 0.31 0.30 0.35 0.44 0.65 0.71 0.70 0.62 0.47 0.35 0.36 0.34 0.28 0.27 0.21
0.30 0.34 0.38 0.38 0.32 0.28 0.26 0.26 0.23 0.26 0.28 0.24 0.22 0.20 0.19 0.19 0.18 0.19 0.21 0.27 0.30 0.32 0.32 0.32 0.33 0.37 0.38 0.33 0.29 0.36 0.40 0.38 0.42 0.39 0.49 0.61 0.50 0.38 0.33 0.40 0.33 0.36 0.32

GFSGL_prec_precacc_096.txt.gz
Total_Precipitation_Accumulation
0.06 0.03 0.05 0.12 0.15 0.12 0.10 0.20 0.23 0.25 0.31 0.48 0.65 0.80 0.66 0.44 0.38 0.42 0.44 0.45 0.46 0.44 0.40 0.38 0.43 0.55 0.67 0.64 0.64 0.70 0.81 0.92 0.99 0.86 0.66 0.57 0.50 0.46 0.49 0.44 0.41 0.38 0.41
0.03 0.01 0.02 0.05 0.05 0.06 0.05 0.05 0.05 0.04 0.05 0.08 0.11 0.13 0.15 0.29 0.33 0.28 0.28 0.27 0.30 0.34 0.36 0.34 0.26 0.23 0.25 0.29 0.31 0.39 0.47 0.56 0.69 0.77 0.70 0.66 0.60 0.54 0.48 0.41 0.34 0.31 0.30
0.04 0.04 0.04 0.04 0.04 0.06 0.07 0.07 0.07 0.07 0.08 0.07 0.05 0.05 0.06 0.06 0.07 0.08 0.11 0.15 0.18 0.20 0.22 0.24 0.25 0.25 0.25 0.28 0.31 0.39 0.47 0.48 0.54 0.61 0.61 0.55 0.50 0.45 0.38 0.27 0.24 0.21 0.18
0.11 0.08 0.06 0.08 0.07 0.07 0.06 0.06 0.06 0.07 0.07 0.06 0.08 0.08 0.07 0.06 0.08 0.13 0.17 0.20 0.22 0.24 0.26 0.28 0.27 0.29 0.36 0.44 0.43 0.41 0.44 0.38 0.35 0.33 0.37 0.32 0.25 0.21 0.17 0.12 0.09 0.06 0.04
0.16 0.13 0.09 0.08 0.09 0.07 0.05 0.07 0.07 0.06 0.06 0.04 0.08 0.15 0.17 0.17 0.16 0.13 0.13 0.14 0.18 0.23 0.27 0.29 0.31 0.39 0.47 0.48 0.49 0.36 0.31 0.33 0.37 0.38 0.27 0.21 0.12 0.05 0.04 0.03 0.04 0.03 0.01
0.11 0.11 0.08 0.08 0.08 0.09 0.08 0.05 0.08 0.08 0.08 0.12 0.11 0.11 0.14 0.18 0.36 0.28 0.18 0.16 0.18 0.23 0.28 0.36 0.44 0.55 0.49 0.45 0.38 0.29 0.23 0.28 0.28 0.25 0.20 0.07 0.02 0.02 0.01 0.03 0.06 0.06 0.06
0.15 0.17 0.17 0.13 0.20 0.20 0.15 0.13 0.11 0.15 0.24 0.23 0.22 0.26 0.25 0.24 0.35 0.29 0.34 0.36 0.42 0.47 0.48 0.45 0.37 0.35 0.34 0.28 0.26 0.26 0.27 0.22 0.17 0.09 0.05 0.03 0.01 0.03 0.10 0.10 0.08 0.11 0.06
0.22 0.33 0.57 0.48 0.52 0.60 0.75 0.63 0.64 0.52 0.46 0.54 0.56 0.58 0.64 0.76 0.80 0.68 0.55 0.44 0.46 0.48 0.45 0.40 0.33 0.26 0.19 0.14 0.16 0.20 0.08 0.03 0.01 0.00 0.00 0.01 0.04 0.04 0.07 0.17 0.10 0.07 0.02
0.63 0.81 0.80 0.70 0.74 0.84 1.06 1.14 0.80 0.97 0.78 0.78 0.68 0.55 0.59 0.71 0.67 0.50 0.45 0.39 0.29 0.19 0.14 0.07 0.03 0.03 0.04 0.08 0.08 0.04 0.00 0.00 0.00 0.01 0.03 0.02 0.01 0.01 0.00 0.06 0.07 0.08 0.06
0.79 0.81 0.88 0.75 0.73 0.89 0.99 0.98 0.72 0.61 0.66 0.58 0.63 0.60 0.51 0.43 0.31 0.20 0.11 0.08 0.05 0.02 0.00 0.00 0.01 0.01 0.05 0.08 0.03 0.00 0.00 0.00 0.05 0.02 0.01 0.00 0.00 0.00 0.00 0.01 0.07 0.25 0.14
0.86 0.88 0.70 0.73 0.45 0.61 0.69 0.62 0.47 0.37 0.42 0.43 0.39 0.32 0.22 0.14 0.07 0.03 0.03 0.01 0.00 0.01 0.01 0.00 0.00 0.03 0.05 0.03 0.02 0.00 0.01 0.02 0.02 0.00 0.00 0.00 0.00 0.00 0.00 0.00 0.02 0.22 0.41
0.44 0.46 0.31 0.26 0.23 0.18 0.19 0.27 0.24 0.14 0.10 0.04 0.01 0.00 0.00 0.00 0.01 0.02 0.03 0.04 0.04 0.02 0.02 0.01 0.02 0.06 0.04 0.01 0.01 0.01 0.02 0.01 0.00 0.00 0.00 0.00 0.00 0.00 0.00 0.00 0.00 0.02 0.10
0.02 0.01 0.02 0.02 0.02 0.01 0.00 0.00 0.00 0.00 0.00 0.00 0.00 0.00 0.00 0.00 0.00 0.04 0.05 0.08 0.09 0.07 0.03 0.04 0.06 0.08 0.05 0.02 0.01 0.00 0.00 0.00 0.00 0.01 0.01 0.00 0.00 0.00 0.00 0.00 0.00 0.00 0.01
0.01 0.00 0.00 0.01 0.01 0.01 0.00 0.00 0.00 0.00 0.00 0.00 0.01 0.01 0.00 0.00 0.00 0.02 0.06 0.10 0.12 0.09 0.06 0.11 0.17 0.15 0.11 0.07 0.03 0.01 0.00 0.00 0.01 0.03 0.01 0.00 0.00 0.00 0.00 0.00 0.03 0.01 0.06
0.01 0.01 0.00 0.00 0.00 0.00 0.00 0.00 0.00 0.00 0.02 0.02 0.01 0.01 0.03 0.04 0.04 0.15 0.17 0.17 0.19 0.23 0.23 0.14 0.19 0.22 0.18 0.10 0.04 0.02 0.00 0.00 0.01 0.01 0.02 0.02 0.01 0.00 0.00 0.00 0.04 0.09 0.12
0.06 0.04 0.04 0.04 0.04 0.05 0.04 0.04 0.08 0.08 0.08 0.07 0.06 0.04 0.04 0.07 0.12 0.20 0.20 0.23 0.26 0.35 0.32 0.19 0.21 0.14 0.10 0.14 0.12 0.12 0.07 0.04 0.02 0.03 0.04 0.05 0.07 0.05 0.06 0.03 0.03 0.09 0.12
0.15 0.13 0.13 0.14 0.09 0.07 0.06 0.07 0.09 0.14 0.15 0.10 0.09 0.09 0.08 0.06 0.08 0.11 0.16 0.22 0.32 0.50 0.36 0.09 0.06 0.11 0.17 0.15 0.12 0.16 0.16 0.11 0.13 0.14 0.15 0.14 0.16 0.10 0.05 0.05 0.04 0.06 0.05
0.13 0.22 0.16 0.16 0.17 0.17 0.17 0.17 0.15 0.13 0.13 0.15 0.21 0.23 0.16 0.15 0.16 0.15 0.17 0.26 0.26 0.34 0.24 0.11 0.08 0.07 0.08 0.21 0.29 0.23 0.18 0.20 0.23 0.24 0.26 0.22 0.19 0.19 0.10 0.09 0.08 0.15 0.18
0.06 0.09 0.13 0.15 0.16 0.21 0.15 0.14 0.16 0.18 0.18 0.17 0.19 0.33 0.26 0.31 0.34 0.31 0.29 0.25 0.13 0.08 0.10 0.10 0.09 0.13 0.16 0.19 0.26 0.35 0.36 0.31 0.28 0.31 0.22 0.20 0.18 0.28 0.16 0.07 0.09 0.09 0.14
0.03 0.12 0.14 0.08 0.12 0.15 0.12 0.14 0.14 0.13 0.14 0.16 0.17 0.17 0.29 0.46 0.36 0.25 0.19 0.16 0.13 0.11 0.11 0.12 0.08 0.08 0.13 0.23 0.31 0.35 0.35 0.31 0.32 0.25 0.19 0.18 0.17 0.22 0.28 0.20 0.14 0.21 0.12
0.05 0.09 0.19 0.11 0.08 0.10 0.12 0.13 0.12 0.15 0.14 0.14 0.15 0.29 0.49 0.43 0.22 0.18 0.17 0.15 0.12 0.11 0.16 0.22 0.18 0.15 0.15 0.20 0.28 0.29 0.25 0.21 0.19 0.23 0.21 0.18 0.20 0.25 0.16 0.20 0.20 0.20 0.22
0.07 0.10 0.12 0.11 0.11 0.13 0.13 0.12 0.12 0.13 0.11 0.12 0.09 0.33 0.66 0.37 0.18 0.18 0.19 0.17 0.18 0.21 0.25 0.31 0.31 0.24 0.29 0.34 0.33 0.28 0.17 0.13 0.14 0.22 0.19 0.20 0.22 0.18 0.18 0.22 0.23 0.31 0.28
0.13 0.13 0.14 0.14 0.13 0.20 0.27 0.14 0.11 0.10 0.09 0.09 0.10 0.15 0.35 0.34 0.19 0.17 0.17 0.18 0.22 0.26 0.25 0.27 0.28 0.25 0.22 0.32 0.39 0.43 0.36 0.21 0.23 0.31 0.37 0.24 0.22 0.29 0.43 0.49 0.42 0.33 0.18
0.18 0.16 0.15 0.13 0.17 0.23 0.23 0.22 0.20 0.27 0.24 0.18 0.16 0.17 0.17 0.21 0.22 0.20 0.22 0.24 0.27 0.25 0.27 0.27 0.27 0.29 0.28 0.30 0.33 0.34 0.40 0.44 0.53 0.55 0.78 0.94 0.73 0.54 0.49 0.40 0.31 0.25 0.20
0.18 0.23 0.29 0.28 0.33 0.36 0.30 0.26 0.20 0.20 0.22 0.19 0.17 0.18 0.19 0.21 0.22 0.19 0.23 0.30 0.30 0.28 0.25 0.28 0.30 0.32 0.32 0.34 0.33 0.32 0.40 0.47 0.67 0.74 0.74 0.66 0.52 0.40 0.38 0.35 0.29 0.27 0.22
0.30 0.35 0.39 0.38 0.33 0.29 0.27 0.26 0.24 0.27 0.28 0.24 0.23 0.20 0.19 0.19 0.18 0.19 0.22 0.28 0.30 0.32 0.32 0.32 0.34 0.38 0.40 0.36 0.32 0.42 0.47 0.43 0.48 0.45 0.54 0.67 0.56 0.44 0.37 0.42 0.34 0.36 0.33

GFSGL_prec_precacc_099.txt.gz
Total_Precipitation_Accumulation
0.08 0.04 0.06 0.17 0.24 0.20 0.17 0.28 0.31 0.31 0.39 0.65 0.91 1.03 0.87 0.68 0.60 0.62 0.64 0.66 0.66 0.60 0.54 0.46 0.46 0.60 0.84 0.90 0.86 0.86 0.96 1.08 1.14 0.98 0.75 0.63 0.53 0.47 0.49 0.44 0.41 0.38 0.41
0.03 0.01 0.02 0.05 0.06 0.07 0.06 0.06 0.05 0.05 0.06 0.09 0.14 0.19 0.25 0.40 0.50 0.46 0.42 0.40 0.43 0.45 0.47 0.50 0.40 0.31 0.29 0.34 0.37 0.44 0.49 0.58 0.73 0.79 0.74 0.71 0.63 0.55 0.48 0.41 0.34 0.31 0.30
0.04 0.04 0.04 0.04 0.04 0.06 0.07 0.07 0.07 0.07 0.08 0.07 0.05 0.05 0.06 0.06 0.07 0.10 0.16 0.22 0.24 0.25 0.26 0.28 0.30 0.33 0.32 0.32 0.34 0.41 0.48 0.55 0.62 0.64 0.62 0.55 0.50 0.45 0.38 0.27 0.24 0.21 0.18
0.11 0.08 0.06 0.08 0.07 0.07 0.06 0.06 0.06 0.07 0.07 0.06 0.08 0.08 0.07 0.06 0.08 0.13 0.17 0.20 0.23 0.26 0.30 0.31 0.31 0.33 0.41 0.49 0.50 0.51 0.52 0.55 0.55 0.51 0.45 0.34 0.25 0.21 0.17 0.12 0.09 0.06 0.04
0.16 0.13 0.09 0.08 0.09 0.07 0.05 0.07 0.07 0.06 0.06 0.04 0.08 0.15 0.17 0.17 0.16 0.13 0.13 0.14 0.18 0.23 0.27 0.31 0.33 0.43 0.51 0.52 0.60 0.64 0.61 0.62 0.64 0.61 0.36 0.25 0.13 0.05 0.04 0.03 0.04 0.03 0.01
0.11 0.11 0.08 0.08 0.08 0.09 0.08 0.05 0.08 0.08 0.08 0.12 0.11 0.11 0.14 0.18 0.36 0.28 0.18 0.16 0.18 0.23 0.28 0.36 0.45 0.59 0.52 0.49 0.40 0.35 0.35 0.46 0.46 0.38 0.28 0.08 0.02 0.02 0.01 0.03 0.06 0.06 0.06
0.15 0.17 0.17 0.13 0.20 0.20 0.15 0.13 0.11 0.15 0.24 0.23 0.22 0.26 0.25 0.24 0.35 0.29 0.34 0.36 0.42 0.47 0.48 0.45 0.37 0.35 0.35 0.29 0.28 0.29 0.30 0.26 0.25 0.22 0.15 0.05 0.05 0.05 0.10 0.10 0.08 0.11 0.06
0.22 0.33 0.57 0.48 0.52 0.60 0.75 0.63 0.64 0.52 0.46 0.54 0.56 0.58 0.64 0.76 0.80 0.68 0.55 0.44 0.46 0.48 0.45 0.40 0.33 0.26 0.19 0.14 0.16 0.21 0.11 0.07 0.09 0.13 0.14 0.14 0.18 0.17 0.16 0.21 0.11 0.07 0.02
0.63 0.81 0.80 0.70 0.74 0.84 1.06 1.14 0.80 0.97 0.78 0.78 0.68 0.55 0.59 0.71 0.67 0.50 0.45 0.39 0.29 0.19 0.14 0.07 0.03 0.03 0.05 0.08 0.09 0.04 0.01 0.02 0.06 0.09 0.15 0.10 0.06 0.04 0.03 0.06 0.07 0.08 0.06
0.79 0.81 0.88 0.75 0.73 0.89 0.99 0.98 0.72 0.61 0.66 0.58 0.63 0.60 0.51 0.43 0.31 0.20 0.11 0.08 0.05 0.02 0.00 0.00 0.01 0.02 0.05 0.09 0.04 0.00 0.00 0.00 0.06 0.03 0.01 0.01 0.01 0.00 0.00 0.01 0.07 0.25 0.14
0.86 0.88 0.70 0.73 0.45 0.61 0.69 0.62 0.47 0.37 0.42 0.43 0.39 0.32 0.22 0.14 0.07 0.03 0.03 0.02 0.01 0.01 0.01 0.00 0.00 0.04 0.06 0.05 0.03 0.00 0.02 0.04 0.03 0.01 0.00 0.00 0.00 0.00 0.00 0.00 0.02 0.22 0.41
0.44 0.46 0.31 0.26 0.23 0.18 0.19 0.27 0.24 0.14 0.10 0.04 0.01 0.00 0.00 0.00 0.01 0.02 0.03 0.05 0.05 0.03 0.02 0.02 0.02 0.08 0.06 0.04 0.04 0.02 0.04 0.02 0.01 0.00 0.00 0.00 0.00 0.00 0.00 0.00 0.00 0.02 0.10
0.02 0.01 0.02 0.02 0.02 0.01 0.00 0.00 0.00 0.00 0.00 0.00 0.00 0.00 0.00 0.00 0.00 0.04 0.05 0.08 0.09 0.08 0.03 0.06 0.07 0.10 0.09 0.06 0.05 0.03 0.04 0.01 0.00 0.01 0.01 0.00 0.00 0.00 0.00 0.00 0.00 0.00 0.01
0.01 0.00 0.00 0.01 0.01 0.01 0.00 0.00 0.00 0.00 0.00 0.00 0.01 0.01 0.00 0.00 0.00 0.02 0.06 0.10 0.12 0.09 0.07 0.13 0.19 0.16 0.15 0.14 0.12 0.08 0.04 0.02 0.02 0.03 0.01 0.00 0.00 0.00 0.00 0.00 0.03 0.01 0.06
0.01 0.01 0.00 0.00 0.00 0.00 0.00 0.00 0.00 0.00 0.02 0.02 0.01 0.01 0.03 0.04 0.04 0.15 0.18 0.17 0.19 0.23 0.24 0.14 0.19 0.23 0.19 0.14 0.10 0.12 0.13 0.07 0.03 0.01 0.02 0.02 0.01 0.00 0.00 0.00 0.04 0.09 0.12
0.06 0.04 0.04 0.04 0.04 0.05 0.04 0.04 0.08 0.08 0.08 0.07 0.06 0.04 0.04 0.07 0.13 0.20 0.21 0.23 0.27 0.36 0.32 0.19 0.21 0.15 0.12 0.17 0.20 0.20 0.15 0.15 0.14 0.08 0.07 0.06 0.07 0.05 0.06 0.03 0.03 0.09 0.12
0.15 0.13 0.13 0.14 0.09 0.07 0.06 0.07 0.09 0.14 0.15 0.10 0.09 0.09 0.08 0.06 0.09 0.11 0.16 0.23 0.32 0.51 0.37 0.10 0.07 0.13 0.20 0.19 0.16 0.27 0.28 0.19 0.26 0.31 0.31 0.29 0.25 0.14 0.06 0.05 0.04 0.06 0.05
0.13 0.22 0.16 0.16 0.17 0.17 0.17 0.17 0.15 0.13 0.13 0.15 0.21 0.23 0.16 0.15 0.16 0.15 0.18 0.26 0.27 0.34 0.25 0.12 0.09 0.08 0.11 0.28 0.39 0.32 0.30 0.39 0.44 0.45 0.51 0.50 0.42 0.40 0.25 0.15 0.08 0.15 0.18
0.06 0.09 0.13 0.16 0.16 0.21 0.15 0.14 0.16 0.18 0.18 0.18 0.19 0.33 0.26 0.31 0.34 0.31 0.30 0.25 0.13 0.08 0.10 0.10 0.09 0.14 0.17 0.22 0.32 0.46 0.46 0.39 0.40 0.48 0.45 0.43 0.39 0.45 0.30 0.19 0.15 0.10 0.14
0.03 0.12 0.14 0.08 0.12 0.15 0.12 0.14 0.14 0.16 0.19 0.18 0.17 0.17 0.29 0.46 0.36 0.25 0.19 0.16 0.14 0.11 0.11 0.12 0.08 0.09 0.15 0.25 0.33 0.40 0.45 0.39 0.38 0.34 0.31 0.34 0.33 0.35 0.35 0.26 0.20 0.25 0.13
0.05 0.09 0.19 0.11 0.08 0.10 0.12 0.13 0.12 0.16 0.15 0.14 0.15 0.29 0.49 0.44 0.23 0.18 0.17 0.15 0.12 0.12 0.16 0.22 0.19 0.16 0.16 0.22 0.31 0.33 0.31 0.28 0.27 0.29 0.29 0.27 0.31 0.35 0.22 0.23 0.23 0.21 0.23
0.07 0.10 0.12 0.11 0.11 0.13 0.14 0.12 0.13 0.13 0.12 0.12 0.09 0.33 0.66 0.38 0.18 0.18 0.19 0.17 0.18 0.21 0.25 0.31 0.31 0.25 0.30 0.36 0.36 0.32 0.22 0.19 0.21 0.30 0.28 0.28 0.30 0.26 0.23 0.25 0.25 0.32 0.28
0.14 0.14 0.14 0.14 0.13 0.20 0.27 0.14 0.11 0.11 0.10 0.10 0.10 0.16 0.35 0.34 0.19 0.17 0.17 0.18 0.22 0.26 0.25 0.27 0.28 0.25 0.23 0.33 0.42 0.47 0.40 0.25 0.28 0.38 0.47 0.33 0.30 0.37 0.48 0.52 0.43 0.33 0.18
0.19 0.16 0.16 0.13 0.17 0.24 0.24 0.23 0.21 0.28 0.25 0.19 0.16 0.17 0.17 0.21 0.22 0.20 0.22 0.24 0.27 0.25 0.27 0.27 0.27 0.29 0.28 0.30 0.35 0.39 0.43 0.47 0.59 0.61 0.83 1.01 0.80 0.61 0.54 0.43 0.32 0.25 0.20
0.18 0.23 0.29 0.29 0.33 0.36 0.31 0.26 0.21 0.20 0.23 0.19 0.17 0.18 0.19 0.21 0.22 0.19 0.23 0.30 0.31 0.29 0.25 0.28 0.30 0.32 0.33 0.34 0.34 0.35 0.47 0.54 0.71 0.80 0.80 0.70 0.55 0.42 0.40 0.36 0.30 0.28 0.22
0.30 0.35 0.39 0.39 0.33 0.29 0.28 0.27 0.25 0.27 0.29 0.25 0.23 0.20 0.19 0.19 0.18 0.20 0.22 0.28 0.31 0.32 0.32 0.33 0.34 0.38 0.40 0.36 0.33 0.46 0.54 0.48 0.54 0.51 0.60 0.71 0.60 0.46 0.39 0.44 0.35 0.37 0.33

GFSGL_prec_precacc_102.txt.gz
Total_Precipitation_Accumulation
0.12 0.05 0.07 0.18 0.27 0.22 0.18 0.30 0.33 0.35 0.45 0.71 1.00 1.14 1.00 0.84 0.80 0.83 0.81 0.93 1.06 0.92 0.76 0.68 0.64 0.73 0.99 1.02 0.94 0.94 1.09 1.27 1.37 1.17 0.85 0.74 0.66 0.61 0.62 0.51 0.44 0.39 0.41
0.04 0.02 0.02 0.05 0.06 0.08 0.07 0.06 0.05 0.05 0.06 0.09 0.14 0.22 0.30 0.46 0.58 0.60 0.61 0.62 0.63 0.63 0.65 0.68 0.60 0.53 0.52 0.49 0.47 0.51 0.58 0.71 0.91 0.95 0.88 0.85 0.79 0.73 0.67 0.53 0.42 0.34 0.30
0.05 0.04 0.04 0.04 0.04 0.06 0.07 0.07 0.07 0.07 0.08 0.07 0.05 0.05 0.06 0.06 0.07 0.11 0.20 0.33 0.43 0.52 0.54 0.48 0.41 0.46 0.48 0.53 0.51 0.53 0.55 0.61 0.68 0.70 0.69 0.61 0.55 0.53 0.47 0.34 0.29 0.24 0.20
0.11 0.08 0.06 0.08 0.07 0.07 0.06 0.06 0.06 0.07 0.07 0.06 0.08 0.08 0.07 0.06 0.08 0.13 0.17 0.20 0.23 0.28 0.36 0.47 0.52 0.58 0.58 0.60 0.62 0.63 0.64 0.67 0.62 0.56 0.50 0.40 0.29 0.23 0.19 0.15 0.11 0.06 0.04
0.16 0.13 0.09 0.08 0.09 0.07 0.05 0.07 0.07 0.06 0.06 0.04 0.08 0.15 0.17 0.17 0.16 0.13 0.13 0.14 0.18 0.23 0.27 0.31 0.33 0.46 0.57 0.59 0.66 0.68 0.74 0.84 0.86 0.81 0.64 0.52 0.35 0.20 0.13 0.06 0.07 0.05 0.02
0.11 0.11 0.08 0.08 0.08 0.09 0.08 0.05 0.08 0.08 0.08 0.12 0.11 0.11 0.14 0.18 0.36 0.28 0.18 0.16 0.18 0.23 0.28 0.36 0.45 0.59 0.53 0.51 0.46 0.41 0.40 0.54 0.67 0.68 0.61 0.43 0.31 0.26 0.22 0.17 0.15 0.11 0.06
0.15 0.17 0.17 0.13 0.20 0.20 0.15 0.13 0.11 0.15 0.24 0.23 0.22 0.26 0.25 0.24 0.35 0.29 0.34 0.36 0.42 0.47 0.48 0.45 0.37 0.35 0.35 0.29 0.29 0.31 0.34 0.31 0.31 0.26 0.20 0.14 0.13 0.15 0.22 0.22 0.14 0.12 0.06
0.22 0.33 0.57 0.48 0.52 0.60 0.75 0.63 0.64 0.52 0.46 0.54 0.56 0.58 0.64 0.76 0.80 0.68 0.55 0.44 0.46 0.48 0.45 0.40 0.33 0.26 0.19 0.14 0.16 0.21 0.11 0.08 0.12 0.16 0.17 0.23 0.32 0.35 0.37 0.42 0.28 0.16 0.04
0.63 0.81 0.80 0.70 0.74 0.84 1.06 1.14 0.80 0.97 0.78 0.78 0.68 0.55 0.59 0.71 0.67 0.50 0.45 0.39 0.29 0.19 0.14 0.07 0.03 0.03 0.05 0.09 0.09 0.04 0.02 0.02 0.09 0.15 0.21 0.22 0.22 0.24 0.22 0.24 0.25 0.20 0.15
0.79 0.81 0.88 0.75 0.73 0.89 0.99 0.98 0.72 0.61 0.66 0.58 0.63 0.60 0.51 0.43 0.31 0.20 0.11 0.08 0.05 0.02 0.00 0.00 0.02 0.02 0.05 0.09 0.04 0.00 0.01 0.01 0.06 0.04 0.03 0.05 0.08 0.11 0.15 0.14 0.18 0.36 0.19
0.86 0.88 0.70 0.73 0.45 0.61 0.69 0.62 0.47 0.37 0.42 0.43 0.39 0.32 0.22 0.14 0.07 0.03 0.03 0.02 0.01 0.02 0.01 0.01 0.00 0.05 0.07 0.05 0.04 0.01 0.02 0.05 0.05 0.03 0.03 0.03 0.02 0.02 0.05 0.03 0.06 0.25 0.42
0.44 0.46 0.31 0.26 0.23 0.18 0.19 0.27 0.24 0.14 0.10 0.04 0.01 0.00 0.00 0.00 0.01 0.02 0.03 0.05 0.05 0.03 0.03 0.02 0.03 0.09 0.07 0.05 0.05 0.03 0.06 0.05 0.03 0.03 0.03 0.03 0.02 0.01 0.01 0.00 0.01 0.03 0.10
0.02 0.01 0.02 0.02 0.02 0.01 0.00 0.00 0.00 0.00 0.00 0.00 0.00 0.00 0.00 0.00 0.00 0.04 0.05 0.08 0.09 0.08 0.04 0.07 0.08 0.11 0.09 0.06 0.06 0.06 0.08 0.04 0.03 0.05 0.05 0.05 0.02 0.01 0.01 0.00 0.00 0.00 0.01
0.01 0.00 0.00 0.01 0.01 0.01 0.00 0.00 0.00 0.00 0.00 0.00 0.01 0.01 0.00 0.00 0.00 0.02 0.06 0.10 0.13 0.09 0.07 0.13 0.19 0.16 0.15 0.15 0.14 0.11 0.08 0.05 0.07 0.09 0.07 0.03 0.07 0.12 0.07 0.01 0.03 0.01 0.06
0.01 0.01 0.00 0.00 0.00 0.00 0.00 0.00 0.00 0.00 0.02 0.02 0.01 0.02 0.04 0.04 0.04 0.15 0.18 0.17 0.19 0.24 0.24 0.15 0.19 0.23 0.19 0.14 0.12 0.16 0.17 0.12 0.08 0.09 0.11 0.09 0.04 0.03 0.04 0.04 0.07 0.10 0.12
0.06 0.04 0.04 0.04 0.04 0.05 0.04 0.04 0.08 0.08 0.08 0.07 0.06 0.05 0.04 0.07 0.13 0.20 0.21 0.24 0.27 0.37 0.33 0.20 0.22 0.15 0.13 0.18 0.23 0.25 0.21 0.21 0.20 0.16 0.13 0.15 0.17 0.09 0.07 0.03 0.04 0.09 0.12
0.15 0.13 0.13 0.14 0.09 0.07 0.06 0.07 0.09 0.14 0.15 0.10 0.09 0.09 0.08 0.07 0.09 0.11 0.16 0.23 0.33 0.51 0.37 0.10 0.08 0.13 0.20 0.20 0.20 0.33 0.36 0.25 0.32 0.40 0.47 0.45 0.39 0.29 0.14 0.09 0.07 0.08 0.06
0.13 0.22 0.16 0.16 0.17 0.17 0.17 0.17 0.15 0.13 0.13 0.15 0.21 0.23 0.16 0.15 0.16 0.15 0.18 0.26 0.27 0.34 0.25 0.12 0.09 0.09 0.11 0.29 0.41 0.38 0.41 0.51 0.55 0.55 0.64 0.66 0.65 0.61 0.42 0.29 0.16 0.18 0.19
0.06 0.09 0.13 0.16 0.16 0.22 0.15 0.14 0.16 0.18 0.19 0.18 0.20 0.33 0.26 0.31 0.34 0.31 0.30 0.26 0.13 0.08 0.10 0.11 0.10 0.14 0.18 0.23 0.34 0.50 0.57 0.53 0.51 0.57 0.55 0.55 0.53 0.62 0.44 0.32 0.28 0.21 0.20
0.03 0.12 0.14 0.09 0.13 0.15 0.12 0.14 0.15 0.16 0.19 0.19 0.17 0.17 0.29 0.46 0.37 0.25 0.19 0.16 0.14 0.11 0.11 0.13 0.09 0.09 0.15 0.26 0.35 0.43 0.50 0.52 0.52 0.44 0.39 0.43 0.43 0.47 0.46 0.35 0.31 0.36 0.22
0.05 0.09 0.19 0.12 0.09 0.10 0.13 0.14 0.13 0.16 0.16 0.15 0.16 0.29 0.50 0.46 0.26 0.20 0.17 0.15 0.12 0.12 0.16 0.22 0.19 0.16 0.17 0.23 0.32 0.35 0.35 0.33 0.36 0.40 0.39 0.36 0.39 0.47 0.32 0.33 0.34 0.31 0.32
0.07 0.10 0.12 0.12 0.12 0.13 0.14 0.13 0.14 0.14 0.12 0.13 0.10 0.33 0.67 0.39 0.19 0.18 0.19 0.17 0.18 0.21 0.26 0.31 0.31 0.25 0.30 0.37 0.37 0.33 0.26 0.25 0.30 0.43 0.39 0.36 0.38 0.36 0.34 0.37 0.37 0.40 0.35
0.14 0.15 0.15 0.14 0.13 0.21 0.27 0.15 0.11 0.12 0.12 0.11 0.12 0.16 0.35 0.34 0.19 0.17 0.17 0.18 0.22 0.26 0.25 0.27 0.28 0.25 0.23 0.34 0.42 0.49 0.43 0.28 0.34 0.49 0.60 0.44 0.38 0.43 0.55 0.60 0.53 0.43 0.25
0.20 0.17 0.16 0.13 0.17 0.24 0.24 0.23 0.22 0.28 0.26 0.20 0.17 0.17 0.18 0.21 0.23 0.20 0.22 0.24 0.27 0.25 0.27 0.27 0.27 0.29 0.28 0.30 0.35 0.39 0.45 0.50 0.66 0.72 0.94 1.10 0.89 0.67 0.61 0.52 0.42 0.32 0.27
0.18 0.23 0.29 0.29 0.34 0.37 0.31 0.27 0.21 0.20 0.23 0.20 0.18 0.19 0.19 0.21 0.22 0.19 0.23 0.30 0.31 0.29 0.26 0.28 0.31 0.33 0.33 0.34 0.34 0.36 0.50 0.58 0.78 0.91 0.92 0.80 0.66 0.51 0.47 0.43 0.36 0.33 0.26
0.30 0.36 0.39 0.39 0.34 0.30 0.29 0.28 0.25 0.28 0.29 0.25 0.23 0.21 0.19 0.20 0.18 0.20 0.22 0.28 0.31 0.32 0.33 0.33 0.35 0.38 0.40 0.37 0.34 0.47 0.56 0.51 0.59 0.57 0.68 0.80 0.70 0.55 0.45 0.49 0.40 0.41 0.35

GFSGL_prec_precacc_105.txt.gz
Total_Precipitation_Accumulation
0.13 0.07 0.07 0.18 0.27 0.25 0.24 0.32 0.34 0.36 0.45 0.72 1.00 1.16 1.04 0.89 0.87 0.91 0.92 1.02 1.21 1.22 1.22 1.09 0.85 0.81 1.03 1.08 1.01 1.03 1.18 1.37 1.49 1.22 0.86 0.75 0.68 0.63 0.67 0.61 0.54 0.47 0.47
0.07 0.03 0.03 0.05 0.06 0.08 0.07 0.07 0.06 0.05 0.06 0.09 0.14 0.22 0.30 0.47 0.60 0.62 0.64 0.67 0.73 0.81 0.86 0.94 0.86 0.76 0.71 0.64 0.62 0.66 0.73 0.84 1.05 1.07 0.92 0.88 0.83 0.78 0.75 0.67 0.58 0.47 0.38
0.06 0.05 0.05 0.04 0.04 0.06 0.07 0.07 0.07 0.07 0.08 0.07 0.05 0.05 0.06 0.06 0.07 0.11 0.20 0.33 0.47 0.60 0.68 0.68 0.62 0.69 0.68 0.70 0.75 0.80 0.81 0.89 0.99 0.97 0.81 0.66 0.60 0.60 0.57 0.48 0.45 0.39 0.29
0.11 0.08 0.06 0.08 0.07 0.07 0.06 0.06 0.06 0.07 0.07 0.06 0.08 0.08 0.07 0.06 0.08 0.13 0.17 0.20 0.23 0.28 0.36 0.48 0.58 0.72 0.81 0.92 0.96 0.91 0.92 0.95 0.88 0.79 0.64 0.47 0.35 0.30 0.26 0.21 0.18 0.12 0.09
0.16 0.13 0.09 0.08 0.09 0.07 0.05 0.07 0.07 0.06 0.06 0.04 0.08 0.15 0.17 0.17 0.16 0.13 0.13 0.14 0.18 0.23 0.27 0.31 0.33 0.46 0.57 0.62 0.77 0.85 0.96 1.07 1.16 1.12 0.87 0.67 0.43 0.26 0.18 0.11 0.12 0.11 0.10
0.11 0.11 0.08 0.08 0.08 0.09 0.08 0.05 0.08 0.08 0.08 0.12 0.11 0.11 0.14 0.18 0.36 0.28 0.18 0.16 0.18 0.23 0.28 0.36 0.45 0.59 0.53 0.51 0.46 0.42 0.42 0.58 0.73 0.78 0.79 0.66 0.52 0.45 0.47 0.46 0.46 0.42 0.30
0.15 0.17 0.17 0.13 0.20 0.20 0.15 0.13 0.11 0.15 0.24 0.23 0.22 0.26 0.25 0.24 0.35 0.29 0.34 0.36 0.42 0.47 0.48 0.45 0.37 0.35 0.35 0.29 0.29 0.31 0.34 0.34 0.35 0.30 0.23 0.16 0.18 0.22 0.33 0.38 0.35 0.34 0.25
0.22 0.33 0.57 0.48 0.52 0.60 0.75 0.63 0.64 0.52 0.46 0.54 0.56 0.58 0.64 0.76 0.80 0.68 0.55 0.44 0.46 0.48 0.45 0.40 0.33 0.26 0.19 0.14 0.16 0.21 0.11 0.08 0.13 0.19 0.19 0.24 0.34 0.39 0.47 0.57 0.44 0.31 0.18
0.63 0.81 0.80 0.70 0.74 0.84 1.06 1.14 0.80 0.97 0.78 0.78 0.68 0.55 0.59 0.71 0.67 0.50 0.45 0.39 0.29 0.19 0.14 0.07 0.03 0.03 0.05 0.09 0.09 0.04 0.02 0.02 0.09 0.16 0.24 0.29 0.29 0.28 0.27 0.33 0.41 0.41 0.38
0.79 0.81 0.88 0.75 0.73 0.89 0.99 0.98 0.72 0.61 0.66 0.58 0.63 0.60 0.51 0.43 0.31 0.20 0.11 0.08 0.05 0.02 0.00 0.00 0.02 0.02 0.06 0.10 0.05 0.01 0.01 0.01 0.06 0.05 0.05 0.07 0.11 0.14 0.18 0.18 0.24 0.47 0.34
0.86 0.88 0.70 0.73 0.45 0.61 0.69 0.62 0.47 0.37 0.42 0.43 0.39 0.32 0.22 0.14 0.07 0.03 0.03 0.02 0.01 0.02 0.01 0.01 0.00 0.05 0.08 0.06 0.05 0.01 0.03 0.06 0.05 0.04 0.05 0.07 0.07 0.08 0.09 0.08 0.09 0.30 0.49
0.44 0.46 0.31 0.26 0.23 0.18 0.19 0.27 0.24 0.14 0.10 0.04 0.01 0.00 0.00 0.00 0.01 0.02 0.03 0.05 0.05 0.03 0.03 0.02 0.03 0.10 0.08 0.05 0.05 0.03 0.08 0.08 0.04 0.03 0.04 0.06 0.09 0.08 0.09 0.07 0.06 0.08 0.15
0.02 0.01 0.02 0.02 0.02 0.01 0.00 0.00 0.00 0.00 0.00 0.00 0.00 0.00 0.00 0.00 0.00 0.04 0.05 0.08 0.09 0.08 0.04 0.07 0.08 0.11 0.09 0.06 0.06 0.06 0.09 0.06 0.04 0.07 0.08 0.08 0.07 0.07 0.08 0.11 0.12 0.06 0.03
0.01 0.00 0.00 0.01 0.01 0.01 0.00 0.00 0.00 0.00 0.00 0.00 0.01 0.01 0.01 0.00 0.00 0.02 0.06 0.10 0.13 0.10 0.07 0.13 0.19 0.16 0.15 0.15 0.15 0.11 0.09 0.08 0.11 0.13 0.13 0.13 0.18 0.27 0.27 0.20 0.14 0.12 0.15
0.01 0.01 0.00 0.00 0.00 0.00 0.00 0.00 0.00 0.00 0.02 0.02 0.02 0.03 0.05 0.05 0.04 0.15 0.19 0.18 0.20 0.25 0.25 0.15 0.20 0.23 0.19 0.15 0.12 0.16 0.19 0.16 0.14 0.13 0.16 0.17 0.17 0.20 0.27 0.30 0.29 0.20 0.19
0.06 0.04 0.04 0.04 0.04 0.05 0.04 0.04 0.08 0.08 0.08 0.07 0.06 0.05 0.05 0.08 0.14 0.22 0.22 0.24 0.28 0.38 0.34 0.20 0.22 0.15 0.13 0.19 0.23 0.25 0.22 0.25 0.24 0.21 0.18 0.22 0.28 0.23 0.22 0.21 0.22 0.31 0.28
0.15 0.13 0.13 0.14 0.09 0.07 0.06 0.07 0.09 0.14 0.15 0.10 0.09 0.09 0.09 0.07 0.11 0.13 0.17 0.23 0.34 0.53 0.38 0.10 0.08 0.13 0.21 0.21 0.21 0.33 0.37 0.27 0.37 0.46 0.56 0.54 0.51 0.46 0.35 0.27 0.22 0.24 0.21
0.13 0.22 0.16 0.16 0.17 0.17 0.18 0.18 0.16 0.14 0.14 0.15 0.21 0.23 0.16 0.16 0.17 0.16 0.18 0.27 0.27 0.35 0.25 0.12 0.09 0.09 0.12 0.30 0.41 0.38 0.42 0.54 0.60 0.62 0.75 0.78 0.77 0.74 0.54 0.41 0.31 0.31 0.31
0.06 0.09 0.13 0.16 0.16 0.22 0.16 0.15 0.16 0.18 0.19 0.18 0.20 0.33 0.26 0.31 0.34 0.31 0.30 0.26 0.14 0.09 0.10 0.11 0.10 0.15 0.18 0.23 0.34 0.52 0.60 0.56 0.57 0.63 0.62 0.64 0.62 0.73 0.54 0.41 0.38 0.31 0.28
0.03 0.12 0.14 0.09 0.13 0.15 0.12 0.14 0.15 0.16 0.19 0.19 0.18 0.17 0.29 0.47 0.38 0.26 0.20 0.16 0.14 0.11 0.11 0.13 0.09 0.09 0.16 0.27 0.35 0.44 0.52 0.53 0.56 0.49 0.45 0.49 0.52 0.56 0.54 0.45 0.42 0.48 0.31
0.05 0.09 0.19 0.12 0.09 0.10 0.13 0.14 0.13 0.17 0.16 0.15 0.16 0.30 0.51 0.48 0.31 0.21 0.18 0.15 0.12 0.12 0.16 0.22 0.19 0.16 0.17 0.23 0.32 0.35 0.37 0.34 0.38 0.44 0.47 0.46 0.50 0.57 0.40 0.41 0.44 0.45 0.44
0.07 0.10 0.13 0.12 0.12 0.14 0.14 0.13 0.14 0.14 0.13 0.14 0.11 0.34 0.67 0.39 0.19 0.18 0.19 0.17 0.18 0.21 0.26 0.31 0.31 0.25 0.30 0.37 0.37 0.33 0.27 0.26 0.31 0.47 0.44 0.42 0.49 0.47 0.43 0.46 0.46 0.49 0.45
0.14 0.15 0.15 0.15 0.13 0.21 0.28 0.15 0.11 0.12 0.13 0.12 0.12 0.17 0.35 0.34 0.20 0.18 0.17 0.18 0.23 0.26 0.25 0.27 0.29 0.26 0.23 0.34 0.42 0.49 0.44 0.29 0.35 0.55 0.69 0.52 0.47 0.51 0.62 0.67 0.59 0.48 0.31
0.22 0.18 0.16 0.13 0.17 0.25 0.24 0.23 0.22 0.28 0.26 0.20 0.17 0.17 0.18 0.22 0.23 0.21 0.23 0.25 0.27 0.26 0.27 0.27 0.28 0.30 0.29 0.31 0.36 0.40 0.46 0.50 0.67 0.76 1.03 1.22 0.99 0.74 0.67 0.59 0.49 0.38 0.33
0.19 0.23 0.29 0.29 0.34 0.37 0.31 0.27 0.22 0.21 0.23 0.20 0.18 0.19 0.19 0.22 0.22 0.19 0.23 0.30 0.31 0.29 0.26 0.28 0.31 0.33 0.33 0.35 0.35 0.36 0.51 0.60 0.79 0.94 0.99 0.92 0.78 0.59 0.52 0.48 0.44 0.43 0.34
0.30 0.36 0.39 0.39 0.34 0.30 0.29 0.29 0.26 0.28 0.30 0.25 0.23 0.21 0.20 0.20 0.19 0.20 0.22 0.28 0.31 0.33 0.33 0.33 0.35 0.38 0.40 0.37 0.34 0.47 0.56 0.52 0.61 0.61 0.75 0.90 0.81 0.65 0.52 0.55 0.47 0.48 0.44

GFSGL_prec_precacc_108.txt.gz
Total_Precipitation_Accumulation
0.13 0.07 0.07 0.18 0.27 0.25 0.24 0.32 0.34 0.36 0.46 0.72 1.00 1.16 1.04 0.89 0.87 0.93 0.94 1.03 1.22 1.24 1.26 1.24 1.12 1.16 1.41 1.34 1.20 1.20 1.35 1.50 1.59 1.25 0.87 0.75 0.69 0.64 0.69 0.65 0.61 0.52 0.51
0.08 0.04 0.04 0.06 0.06 0.08 0.07 0.07 0.06 0.05 0.06 0.09 0.14 0.22 0.30 0.47 0.60 0.62 0.64 0.67 0.74 0.82 0.89 1.01 0.96 0.94 0.95 0.90 0.86 0.87 0.88 0.96 1.17 1.15 0.94 0.89 0.83 0.78 0.75 0.69 0.63 0.55 0.47
0.06 0.06 0.05 0.04 0.04 0.06 0.07 0.07 0.07 0.07 0.08 0.07 0.05 0.05 0.06 0.06 0.07 0.11 0.20 0.33 0.47 0.60 0.68 0.70 0.65 0.76 0.80 0.88 0.98 1.07 1.06 1.08 1.17 1.16 0.94 0.74 0.64 0.62 0.60 0.54 0.53 0.51 0.44
0.11 0.08 0.06 0.08 0.07 0.07 0.06 0.06 0.06 0.07 0.07 0.06 0.08 0.08 0.07 0.06 0.08 0.13 0.17 0.20 0.23 0.28 0.36 0.48 0.58 0.72 0.84 0.96 1.04 1.01 1.05 1.13 1.08 1.01 0.82 0.60 0.43 0.37 0.33 0.27 0.26 0.23 0.22
0.16 0.13 0.10 0.08 0.09 0.07 0.05 0.07 0.07 0.06 0.06 0.04 0.08 0.15 0.17 0.17 0.16 0.13 0.13 0.14 0.18 0.23 0.27 0.31 0.33 0.46 0.57 0.62 0.77 0.86 0.99 1.17 1.29 1.28 1.01 0.77 0.50 0.31 0.21 0.14 0.16 0.18 0.22
0.11 0.11 0.08 0.08 0.08 0.09 0.08 0.05 0.08 0.08 0.08 0.12 0.11 0.11 0.14 0.18 0.36 0.28 0.18 0.16 0.18 0.23 0.28 0.36 0.45 0.59 0.53 0.51 0.46 0.42 0.42 0.58 0.76 0.83 0.83 0.69 0.55 0.50 0.55 0.58 0.57 0.53 0.43
0.15 0.17 0.17 0.13 0.20 0.20 0.15 0.13 0.11 0.15 0.24 0.23 0.22 0.26 0.25 0.24 0.35 0.29 0.34 0.36 0.42 0.47 0.48 0.45 0.37 0.35 0.35 0.29 0.29 0.31 0.34 0.34 0.36 0.32 0.27 0.19 0.20 0.25 0.40 0.50 0.51 0.47 0.38
0.22 0.33 0.57 0.48 0.52 0.60 0.75 0.63 0.64 0.52 0.46 0.54 0.56 0.58 0.64 0.76 0.80 0.68 0.55 0.44 0.46 0.48 0.45 0.40 0.33 0.26 0.19 0.14 0.16 0.21 0.11 0.08 0.13 0.19 0.20 0.27 0.37 0.41 0.52 0.65 0.55 0.46 0.36
0.63 0.81 0.80 0.70 0.74 0.84 1.06 1.14 0.80 0.97 0.78 0.78 0.68 0.55 0.59 0.71 0.67 0.50 0.45 0.39 0.29 0.19 0.14 0.07 0.03 0.03 0.05 0.09 0.09 0.05 0.02 0.02 0.09 0.16 0.24 0.29 0.32 0.33 0.31 0.38 0.56 0.63 0.57
0.79 0.81 0.88 0.75 0.73 0.89 0.99 0.98 0.72 0.61 0.66 0.58 0.63 0.60 0.51 0.43 0.31 0.20 0.11 0.08 0.05 0.02 0.00 0.00 0.02 0.02 0.06 0.10 0.05 0.01 0.02 0.01 0.06 0.05 0.05 0.08 0.11 0.16 0.22 0.22 0.28 0.51 0.39
0.86 0.88 0.70 0.73 0.45 0.61 0.69 0.62 0.47 0.37 0.42 0.43 0.39 0.32 0.22 0.14 0.07 0.03 0.03 0.02 0.01 0.02 0.01 0.01 0.00 0.05 0.08 0.06 0.05 0.01 0.03 0.06 0.06 0.04 0.05 0.07 0.07 0.09 0.11 0.11 0.12 0.34 0.57
0.44 0.46 0.31 0.26 0.23 0.18 0.19 0.27 0.24 0.14 0.10 0.04 0.01 0.00 0.00 0.00 0.01 0.02 0.03 0.05 0.05 0.03 0.03 0.02 0.03 0.10 0.08 0.05 0.05 0.04 0.08 0.08 0.04 0.04 0.04 0.07 0.10 0.10 0.10 0.10 0.12 0.13 0.17
0.02 0.01 0.02 0.02 0.02 0.01 0.00 0.00 0.00 0.00 0.00 0.00 0.00 0.00 0.00 0.00 0.00 0.04 0.05 0.08 0.09 0.08 0.04 0.07 0.08 0.11 0.09 0.06 0.07 0.06 0.10 0.07 0.05 0.08 0.09 0.08 0.07 0.08 0.14 0.21 0.23 0.19 0.19
0.01 0.00 0.00 0.01 0.01 0.01 0.00 0.00 0.00 0.00 0.00 0.00 0.01 0.01 0.01 0.00 0.00 0.02 0.06 0.10 0.13 0.10 0.08 0.13 0.20 0.16 0.16 0.15 0.15 0.11 0.10 0.09 0.13 0.15 0.15 0.14 0.20 0.30 0.32 0.28 0.32 0.31 0.35
0.01 0.01 0.00 0.00 0.00 0.00 0.00 0.00 0.00 0.00 0.02 0.02 0.02 0.03 0.06 0.06 0.04 0.16 0.20 0.20 0.22 0.26 0.27 0.16 0.21 0.24 0.20 0.15 0.12 0.17 0.19 0.17 0.15 0.15 0.18 0.19 0.21 0.28 0.33 0.39 0.42 0.44 0.44
0.06 0.04 0.04 0.04 0.04 0.05 0.04 0.04 0.08 0.08 0.08 0.07 0.07 0.06 0.05 0.09 0.16 0.23 0.24 0.26 0.30 0.40 0.36 0.23 0.23 0.16 0.13 0.19 0.24 0.26 0.23 0.26 0.25 0.24 0.21 0.25 0.32 0.31 0.34 0.32 0.35 0.46 0.53
0.15 0.13 0.13 0.14 0.09 0.07 0.06 0.07 0.10 0.14 0.15 0.10 0.09 0.09 0.09 0.08 0.12 0.14 0.17 0.24 0.34 0.55 0.40 0.11 0.08 0.13 0.21 0.22 0.22 0.34 0.38 0.27 0.38 0.49 0.60 0.58 0.57 0.55 0.49 0.43 0.39 0.43 0.39
0.13 0.22 0.16 0.16 0.17 0.17 0.18 0.18 0.16 0.14 0.14 0.15 0.21 0.23 0.16 0.16 0.17 0.16 0.19 0.27 0.28 0.36 0.26 0.13 0.10 0.09 0.12 0.30 0.42 0.39 0.43 0.55 0.61 0.65 0.78 0.82 0.82 0.80 0.64 0.52 0.43 0.45 0.47
0.06 0.09 0.13 0.16 0.16 0.22 0.16 0.15 0.17 0.19 0.19 0.18 0.20 0.33 0.26 0.31 0.34 0.31 0.31 0.28 0.15 0.10 0.11 0.11 0.10 0.15 0.19 0.24 0.35 0.53 0.60 0.57 0.58 0.66 0.65 0.69 0.69 0.81 0.61 0.48 0.47 0.42 0.37
0.03 0.12 0.14 0.09 0.13 0.15 0.12 0.15 0.15 0.16 0.20 0.19 0.18 0.18 0.29 0.47 0.39 0.28 0.21 0.17 0.15 0.12 0.12 0.13 0.09 0.10 0.16 0.28 0.36 0.45 0.53 0.54 0.56 0.51 0.48 0.54 0.58 0.64 0.62 0.51 0.49 0.56 0.38
0.05 0.09 0.19 0.12 0.09 0.11 0.13 0.14 0.14 0.17 0.17 0.15 0.16 0.30 0.51 0.49 0.32 0.22 0.18 0.16 0.13 0.12 0.16 0.23 0.20 0.17 0.17 0.23 0.33 0.36 0.37 0.35 0.39 0.46 0.49 0.49 0.54 0.61 0.44 0.49 0.54 0.54 0.50
0.07 0.10 0.13 0.12 0.12 0.14 0.14 0.13 0.14 0.14 0.13 0.14 0.11 0.34 0.68 0.39 0.20 0.19 0.19 0.17 0.18 0.22 0.26 0.32 0.32 0.26 0.31 0.38 0.38 0.35 0.28 0.27 0.32 0.48 0.46 0.45 0.54 0.54 0.48 0.52 0.57 0.59 0.50
0.14 0.16 0.15 0.15 0.13 0.21 0.28 0.15 0.11 0.12 0.13 0.12 0.12 0.17 0.35 0.35 0.20 0.18 0.17 0.18 0.23 0.26 0.26 0.28 0.30 0.26 0.23 0.35 0.44 0.50 0.46 0.30 0.36 0.56 0.70 0.55 0.50 0.56 0.66 0.74 0.67 0.56 0.38
0.22 0.18 0.16 0.13 0.18 0.25 0.24 0.23 0.22 0.29 0.26 0.20 0.17 0.17 0.19 0.22 0.23 0.21 0.23 0.25 0.28 0.26 0.28 0.28 0.28 0.30 0.29 0.31 0.36 0.41 0.47 0.52 0.68 0.77 1.06 1.27 1.06 0.81 0.72 0.66 0.58 0.47 0.40
0.19 0.23 0.29 0.29 0.34 0.37 0.31 0.27 0.22 0.21 0.23 0.20 0.18 0.19 0.19 0.22 0.22 0.19 0.23 0.30 0.31 0.29 0.26 0.28 0.31 0.33 0.33 0.35 0.35 0.37 0.51 0.60 0.81 0.96 1.02 0.98 0.86 0.66 0.57 0.56 0.54 0.51 0.42
0.30 0.36 0.40 0.39 0.34 0.30 0.29 0.29 0.26 0.28 0.30 0.26 0.24 0.21 0.20 0.20 0.19 0.20 0.22 0.28 0.31 0.33 0.33 0.33 0.35 0.39 0.41 0.37 0.34 0.47 0.56 0.53 0.61 0.62 0.79 0.97 0.91 0.73 0.59 0.63 0.55 0.54 0.49

GFSGL_prec_precacc_111.txt.gz
Total_Precipitation_Accumulation
0.13 0.07 0.07 0.18 0.27 0.25 0.24 0.32 0.34 0.36 0.46 0.72 1.00 1.16 1.04 0.89 0.87 0.93 0.94 1.03 1.22 1.24 1.26 1.25 1.13 1.18 1.47 1.53 1.48 1.50 1.62 1.72 1.82 1.31 0.88 0.78 0.72 0.67 0.71 0.66 0.62 0.53 0.51
0.08 0.04 0.04 0.06 0.06 0.08 0.07 0.07 0.06 0.05 0.06 0.09 0.14 0.22 0.30 0.47 0.60 0.62 0.64 0.68 0.74 0.82 0.89 1.02 0.97 0.96 0.99 0.96 1.02 1.11 1.19 1.26 1.45 1.33 1.02 0.96 0.90 0.82 0.79 0.74 0.66 0.56 0.47
0.06 0.06 0.05 0.04 0.04 0.06 0.07 0.07 0.07 0.07 0.08 0.07 0.05 0.05 0.06 0.06 0.07 0.11 0.20 0.33 0.47 0.60 0.68 0.70 0.65 0.76 0.81 0.91 1.05 1.18 1.23 1.34 1.48 1.43 1.11 0.88 0.72 0.65 0.65 0.60 0.56 0.53 0.45
0.11 0.08 0.06 0.08 0.07 0.07 0.06 0.06 0.06 0.07 0.07 0.06 0.08 0.08 0.07 0.06 0.08 0.13 0.17 0.20 0.23 0.28 0.36 0.48 0.58 0.72 0.84 0.97 1.04 1.03 1.09 1.19 1.17 1.16 0.96 0.69 0.48 0.39 0.39 0.32 0.29 0.24 0.25
0.16 0.13 0.10 0.08 0.09 0.07 0.05 0.07 0.07 0.06 0.06 0.04 0.08 0.15 0.17 0.17 0.16 0.13 0.13 0.14 0.18 0.23 0.27 0.31 0.33 0.46 0.57 0.62 0.77 0.86 0.99 1.17 1.30 1.29 1.02 0.78 0.52 0.33 0.24 0.17 0.21 0.21 0.24
0.11 0.11 0.08 0.08 0.08 0.09 0.08 0.05 0.08 0.08 0.08 0.12 0.11 0.11 0.14 0.18 0.36 0.28 0.18 0.16 0.18 0.23 0.28 0.36 0.45 0.59 0.53 0.51 0.46 0.42 0.42 0.59 0.76 0.83 0.84 0.70 0.56 0.51 0.56 0.60 0.60 0.56 0.45
0.15 0.17 0.17 0.13 0.20 0.20 0.15 0.13 0.11 0.15 0.24 0.23 0.22 0.26 0.25 0.24 0.35 0.29 0.34 0.36 0.42 0.47 0.48 0.45 0.37 0.35 0.35 0.29 0.29 0.31 0.34 0.34 0.36 0.32 0.28 0.20 0.21 0.26 0.41 0.53 0.54 0.50 0.39
0.22 0.33 0.57 0.48 0.52 0.60 0.75 0.63 0.64 0.52 0.46 0.54 0.56 0.58 0.64 0.76 0.80 0.68 0.55 0.44 0.46 0.48 0.45 0.40 0.33 0.26 0.19 0.14 0.16 0.21 0.11 0.08 0.13 0.19 0.20 0.27 0.38 0.42 0.53 0.68 0.58 0.50 0.45
0.63 0.81 0.80 0.70 0.74 0.84 1.06 1.14 0.80 0.97 0.78 0.78 0.68 0.55 0.59 0.71 0.67 0.50 0.45 0.39 0.29 0.19 0.14 0.07 0.03 0.03 0.05 0.09 0.09 0.05 0.02 0.02 0.09 0.16 0.24 0.30 0.32 0.33 0.32 0.40 0.58 0.67 0.63
0.79 0.81 0.88 0.75 0.73 0.89 0.99 0.98 0.72 0.61 0.66 0.58 0.63 0.60 0.51 0.43 0.31 0.20 0.11 0.08 0.05 0.02 0.00 0.00 0.02 0.02 0.06 0.10 0.05 0.01 0.02 0.01 0.06 0.05 0.05 0.08 0.11 0.16 0.23 0.23 0.29 0.54 0.42
0.86 0.88 0.70 0.73 0.45 0.61 0.69 0.62 0.47 0.37 0.42 0.43 0.39 0.32 0.22 0.14 0.07 0.03 0.03 0.02 0.01 0.02 0.01 0.01 0.00 0.05 0.08 0.06 0.05 0.01 0.03 0.06 0.06 0.04 0.05 0.07 0.07 0.09 0.11 0.12 0.12 0.38 0.61
0.44 0.46 0.31 0.26 0.23 0.18 0.19 0.27 0.24 0.14 0.10 0.04 0.01 0.00 0.00 0.00 0.01 0.02 0.03 0.05 0.05 0.03 0.03 0.02 0.03 0.10 0.08 0.05 0.05 0.04 0.08 0.08 0.04 0.04 0.04 0.07 0.10 0.10 0.10 0.10 0.12 0.14 0.21
0.02 0.01 0.02 0.02 0.02 0.01 0.00 0.00 0.00 0.00 0.00 0.00 0.00 0.00 0.00 0.00 0.00 0.04 0.05 0.08 0.09 0.08 0.04 0.07 0.09 0.11 0.10 0.06 0.07 0.06 0.10 0.07 0.05 0.09 0.10 0.09 0.08 0.08 0.14 0.21 0.23 0.21 0.22
0.01 0.00 0.00 0.01 0.01 0.01 0.00 0.00 0.00 0.00 0.00 0.00 0.01 0.01 0.01 0.00 0.00 0.02 0.06 0.11 0.14 0.11 0.09 0.14 0.20 0.17 0.16 0.15 0.15 0.11 0.10 0.10 0.13 0.15 0.16 0.14 0.20 0.31 0.33 0.29 0.34 0.34 0.40
0.01 0.01 0.00 0.00 0.00 0.00 0.00 0.00 0.00 0.00 0.02 0.02 0.02 0.03 0.06 0.06 0.04 0.16 0.20 0.20 0.23 0.28 0.29 0.18 0.21 0.24 0.20 0.15 0.12 0.17 0.19 0.17 0.16 0.15 0.19 0.20 0.22 0.28 0.34 0.40 0.44 0.46 0.49
0.06 0.04 0.04 0.04 0.04 0.05 0.04 0.04 0.08 0.08 0.08 0.07 0.07 0.06 0.05 0.10 0.16 0.24 0.25 0.28 0.31 0.41 0.37 0.24 0.24 0.17 0.14 0.19 0.24 0.26 0.23 0.26 0.25 0.24 0.21 0.26 0.34 0.34 0.35 0.34 0.39 0.53 0.59
0.15 0.13 0.13 0.14 0.09 0.07 0.06 0.07 0.10 0.14 0.15 0.10 0.09 0.09 0.09 0.08 0.12 0.15 0.18 0.25 0.35 0.56 0.42 0.12 0.10 0.14 0.22 0.22 0.22 0.35 0.38 0.28 0.39 0.50 0.61 0.59 0.59 0.58 0.54 0.46 0.45 0.50 0.49
0.13 0.22 0.16 0.16 0.17 0.17 0.18 0.18 0.16 0.14 0.14 0.15 0.21 0.23 0.16 0.16 0.17 0.16 0.19 0.28 0.29 0.37 0.27 0.14 0.11 0.10 0.13 0.31 0.43 0.40 0.44 0.55 0.61 0.65 0.79 0.83 0.85 0.86 0.70 0.57 0.49 0.57 0.60
0.06 0.09 0.13 0.16 0.16 0.22 0.16 0.15 0.17 0.19 0.19 0.18 0.20 0.33 0.26 0.31 0.35 0.31 0.31 0.29 0.16 0.11 0.12 0.12 0.11 0.16 0.19 0.25 0.36 0.53 0.61 0.58 0.58 0.67 0.66 0.70 0.71 0.86 0.67 0.53 0.52 0.49 0.50
0.03 0.12 0.14 0.09 0.13 0.15 0.12 0.15 0.15 0.16 0.20 0.20 0.18 0.18 0.29 0.48 0.40 0.28 0.21 0.17 0.15 0.12 0.12 0.14 0.10 0.10 0.17 0.28 0.37 0.45 0.53 0.55 0.57 0.51 0.48 0.55 0.59 0.69 0.69 0.58 0.55 0.62 0.45
0.05 0.09 0.19 0.12 0.09 0.11 0.13 0.14 0.14 0.18 0.17 0.15 0.16 0.30 0.52 0.50 0.32 0.22 0.18 0.16 0.13 0.13 0.17 0.24 0.20 0.17 0.18 0.24 0.34 0.37 0.38 0.36 0.39 0.46 0.50 0.50 0.55 0.63 0.47 0.54 0.58 0.58 0.56
0.07 0.10 0.13 0.12 0.12 0.14 0.14 0.13 0.14 0.15 0.13 0.14 0.11 0.34 0.68 0.40 0.20 0.19 0.19 0.17 0.18 0.22 0.27 0.33 0.33 0.26 0.31 0.38 0.39 0.36 0.29 0.28 0.32 0.49 0.47 0.46 0.55 0.57 0.53 0.58 0.62 0.65 0.55
0.14 0.16 0.15 0.15 0.13 0.21 0.28 0.15 0.11 0.12 0.13 0.12 0.12 0.17 0.35 0.35 0.20 0.18 0.17 0.18 0.23 0.27 0.26 0.28 0.30 0.26 0.24 0.35 0.44 0.52 0.47 0.31 0.37 0.57 0.72 0.56 0.52 0.59 0.71 0.79 0.72 0.61 0.43
0.22 0.18 0.16 0.13 0.18 0.25 0.24 0.23 0.22 0.29 0.26 0.20 0.17 0.17 0.19 0.22 0.23 0.21 0.23 0.25 0.28 0.26 0.28 0.28 0.29 0.31 0.29 0.31 0.37 0.42 0.48 0.52 0.70 0.78 1.08 1.29 1.07 0.84 0.77 0.70 0.61 0.50 0.45
0.19 0.23 0.29 0.29 0.34 0.37 0.31 0.27 0.22 0.21 0.23 0.20 0.18 0.19 0.19 0.22 0.22 0.19 0.23 0.30 0.31 0.30 0.26 0.28 0.31 0.33 0.34 0.36 0.35 0.37 0.51 0.61 0.81 0.97 1.04 1.01 0.91 0.72 0.62 0.60 0.57 0.57 0.47
0.30 0.36 0.40 0.39 0.34 0.30 0.29 0.29 0.26 0.28 0.30 0.26 0.24 0.21 0.20 0.21 0.19 0.20 0.22 0.29 0.32 0.33 0.34 0.34 0.35 0.39 0.41 0.38 0.34 0.47 0.57 0.53 0.62 0.63 0.80 1.02 0.96 0.77 0.63 0.68 0.61 0.62 0.55

GFSGL_prec_precacc_114.txt.gz
Total_Precipitation_Accumulation
0.13 0.07 0.07 0.18 0.27 0.25 0.24 0.32 0.34 0.36 0.46 0.72 1.00 1.16 1.04 0.89 0.87 0.93 0.94 1.03 1.22 1.24 1.26 1.25 1.13 1.18 1.48 1.54 1.50 1.53 1.67 1.88 2.03 1.43 1.00 0.91 0.84 0.76 0.79 0.76 0.68 0.57 0.53
0.08 0.04 0.04 0.06 0.06 0.08 0.07 0.07 0.06 0.05 0.06 0.09 0.14 0.22 0.30 0.47 0.60 0.62 0.64 0.68 0.74 0.82 0.89 1.02 0.97 0.96 0.99 0.97 1.03 1.12 1.22 1.34 1.61 1.45 1.08 1.04 1.00 0.90 0.88 0.85 0.79 0.68 0.54
0.06 0.06 0.05 0.04 0.04 0.06 0.07 0.07 0.07 0.07 0.08 0.07 0.05 0.05 0.06 0.06 0.07 0.11 0.20 0.33 0.47 0.60 0.69 0.70 0.66 0.77 0.81 0.92 1.06 1.19 1.25 1.39 1.57 1.58 1.25 1.07 0.98 0.93 0.91 0.81 0.72 0.67 0.54
0.11 0.08 0.06 0.08 0.07 0.07 0.06 0.06 0.06 0.07 0.07 0.06 0.08 0.08 0.07 0.06 0.08 0.13 0.17 0.20 0.23 0.28 0.36 0.48 0.58 0.72 0.84 0.97 1.04 1.03 1.09 1.20 1.20 1.20 1.03 0.77 0.59 0.51 0.54 0.44 0.38 0.34 0.31
0.16 0.13 0.10 0.08 0.09 0.07 0.05 0.07 0.07 0.06 0.06 0.04 0.08 0.15 0.17 0.17 0.16 0.13 0.13 0.14 0.18 0.23 0.27 0.31 0.33 0.46 0.57 0.62 0.77 0.86 1.00 1.17 1.30 1.29 1.03 0.78 0.52 0.34 0.27 0.20 0.24 0.22 0.25
0.11 0.11 0.08 0.08 0.08 0.09 0.08 0.05 0.08 0.08 0.08 0.12 0.11 0.11 0.14 0.18 0.36 0.28 0.18 0.16 0.18 0.23 0.28 0.36 0.45 0.59 0.53 0.51 0.46 0.42 0.42 0.59 0.76 0.84 0.85 0.71 0.56 0.51 0.57 0.61 0.61 0.57 0.45
0.15 0.17 0.17 0.13 0.20 0.20 0.15 0.13 0.11 0.15 0.24 0.23 0.22 0.26 0.25 0.24 0.35 0.29 0.34 0.36 0.42 0.47 0.48 0.45 0.37 0.35 0.35 0.29 0.29 0.31 0.34 0.34 0.36 0.32 0.28 0.20 0.21 0.26 0.42 0.54 0.55 0.51 0.40
0.22 0.33 0.57 0.48 0.52 0.60 0.75 0.63 0.64 0.52 0.46 0.54 0.56 0.58 0.64 0.76 0.80 0.68 0.55 0.44 0.46 0.48 0.45 0.40 0.33 0.26 0.19 0.14 0.16 0.21 0.11 0.08 0.13 0.19 0.20 0.27 0.38 0.42 0.53 0.69 0.59 0.51 0.46
0.63 0.81 0.80 0.70 0.74 0.84 1.06 1.14 0.80 0.97 0.78 0.78 0.68 0.55 0.59 0.71 0.67 0.50 0.45 0.39 0.29 0.19 0.14 0.07 0.03 0.03 0.05 0.09 0.09 0.05 0.02 0.02 0.09 0.16 0.24 0.30 0.32 0.33 0.32 0.40 0.58 0.67 0.64
0.79 0.81 0.88 0.75 0.73 0.89 0.99 0.98 0.72 0.61 0.66 0.58 0.63 0.60 0.51 0.43 0.31 0.20 0.11 0.08 0.05 0.02 0.00 0.00 0.02 0.02 0.06 0.10 0.05 0.01 0.02 0.01 0.06 0.05 0.05 0.08 0.11 0.16 0.23 0.23 0.30 0.54 0.43
0.86 0.88 0.70 0.73 0.45 0.61 0.69 0.62 0.47 0.37 0.42 0.43 0.39 0.32 0.22 0.14 0.07 0.03 0.03 0.02 0.01 0.02 0.01 0.01 0.00 0.05 0.08 0.06 0.05 0.02 0.04 0.07 0.06 0.04 0.05 0.07 0.07 0.09 0.11 0.12 0.13 0.38 0.62
0.44 0.46 0.31 0.26 0.23 0.18 0.19 0.27 0.24 0.14 0.10 0.04 0.01 0.00 0.00 0.00 0.01 0.02 0.03 0.05 0.05 0.03 0.03 0.02 0.03 0.10 0.08 0.06 0.05 0.04 0.08 0.09 0.04 0.04 0.04 0.07 0.10 0.10 0.10 0.10 0.12 0.14 0.21
0.02 0.01 0.02 0.02 0.02 0.01 0.00 0.00 0.00 0.00 0.00 0.00 0.00 0.00 0.00 0.00 0.00 0.04 0.05 0.08 0.09 0.08 0.04 0.07 0.09 0.12 0.10 0.07 0.07 0.06 0.10 0.07 0.05 0.09 0.10 0.09 0.08 0.08 0.14 0.21 0.23 0.21 0.22
0.01 0.00 0.00 0.01 0.01 0.01 0.00 0.00 0.00 0.00 0.00 0.00 0.01 0.01 0.01 0.00 0.00 0.02 0.06 0.11 0.14 0.11 0.09 0.15 0.21 0.18 0.16 0.15 0.15 0.11 0.10 0.10 0.13 0.15 0.16 0.14 0.20 0.31 0.33 0.29 0.34 0.35 0.40
0.01 0.01 0.00 0.00 0.00 0.00 0.00 0.00 0.00 0.00 0.02 0.02 0.02 0.03 0.06 0.06 0.04 0.16 0.20 0.20 0.23 0.28 0.30 0.18 0.21 0.24 0.21 0.15 0.12 0.17 0.19 0.17 0.16 0.15 0.19 0.20 0.22 0.28 0.34 0.40 0.44 0.47 0.51
0.06 0.04 0.04 0.04 0.04 0.05 0.04 0.04 0.08 0.08 0.08 0.07 0.07 0.06 0.05 0.10 0.16 0.24 0.25 0.28 0.31 0.41 0.38 0.24 0.24 0.17 0.14 0.19 0.24 0.26 0.23 0.26 0.25 0.24 0.21 0.26 0.34 0.34 0.36 0.34 0.40 0.55 0.61
0.15 0.13 0.13 0.14 0.09 0.07 0.06 0.07 0.10 0.14 0.15 0.10 0.09 0.09 0.09 0.08 0.12 0.15 0.19 0.25 0.36 0.57 0.43 0.13 0.11 0.15 0.23 0.23 0.23 0.35 0.38 0.28 0.39 0.50 0.61 0.60 0.59 0.59 0.55 0.47 0.46 0.52 0.51
0.13 0.22 0.16 0.16 0.17 0.17 0.18 0.18 0.16 0.14 0.14 0.15 0.21 0.23 0.16 0.16 0.17 0.16 0.19 0.29 0.30 0.37 0.28 0.16 0.12 0.11 0.13 0.31 0.43 0.40 0.44 0.55 0.61 0.65 0.79 0.83 0.85 0.86 0.71 0.60 0.53 0.62 0.65
0.06 0.09 0.13 0.16 0.16 0.22 0.16 0.15 0.17 0.19 0.19 0.19 0.20 0.33 0.26 0.31 0.35 0.32 0.31 0.29 0.16 0.11 0.12 0.12 0.11 0.16 0.19 0.25 0.36 0.54 0.62 0.58 0.59 0.67 0.66 0.70 0.71 0.87 0.69 0.56 0.58 0.56 0.58
0.03 0.12 0.14 0.09 0.13 0.15 0.12 0.15 0.15 0.17 0.20 0.20 0.18 0.18 0.29 0.48 0.40 0.28 0.21 0.17 0.15 0.12 0.12 0.14 0.10 0.10 0.17 0.28 0.37 0.46 0.54 0.55 0.57 0.51 0.49 0.55 0.59 0.70 0.71 0.61 0.60 0.70 0.50
0.05 0.09 0.19 0.12 0.09 0.11 0.13 0.14 0.14 0.18 0.17 0.15 0.16 0.30 0.52 0.50 0.32 0.22 0.18 0.16 0.13 0.13 0.17 0.24 0.20 0.17 0.18 0.24 0.34 0.38 0.38 0.36 0.40 0.47 0.50 0.51 0.56 0.64 0.48 0.58 0.64 0.64 0.60
0.07 0.10 0.13 0.12 0.12 0.14 0.14 0.13 0.14 0.15 0.13 0.14 0.11 0.34 0.68 0.40 0.20 0.19 0.19 0.17 0.18 0.22 0.27 0.33 0.33 0.26 0.31 0.38 0.39 0.36 0.30 0.28 0.33 0.49 0.47 0.46 0.56 0.58 0.54 0.62 0.69 0.70 0.60
0.14 0.16 0.15 0.15 0.13 0.21 0.28 0.15 0.11 0.12 0.13 0.12 0.12 0.17 0.35 0.35 0.20 0.18 0.17 0.18 0.23 0.27 0.26 0.29 0.30 0.27 0.24 0.35 0.44 0.52 0.49 0.32 0.38 0.58 0.74 0.58 0.53 0.60 0.74 0.84 0.78 0.67 0.48
0.22 0.18 0.16 0.13 0.18 0.25 0.24 0.23 0.22 0.29 0.26 0.20 0.17 0.17 0.19 0.22 0.23 0.21 0.23 0.25 0.28 0.26 0.28 0.28 0.29 0.31 0.30 0.31 0.37 0.42 0.49 0.53 0.71 0.80 1.09 1.30 1.08 0.84 0.78 0.73 0.64 0.57 0.52
0.19 0.23 0.29 0.29 0.34 0.37 0.32 0.28 0.22 0.21 0.23 0.20 0.18 0.19 0.19 0.22 0.22 0.19 0.24 0.31 0.32 0.30 0.27 0.29 0.32 0.34 0.34 0.36 0.36 0.38 0.52 0.62 0.83 0.98 1.05 1.02 0.92 0.74 0.66 0.63 0.60 0.60 0.51
0.30 0.36 0.40 0.39 0.34 0.30 0.29 0.29 0.26 0.28 0.30 0.26 0.24 0.21 0.20 0.21 0.19 0.20 0.23 0.30 0.33 0.35 0.34 0.34 0.36 0.40 0.42 0.39 0.35 0.48 0.58 0.54 0.63 0.64 0.82 1.06 1.00 0.81 0.68 0.72 0.64 0.64 0.57

GFSGL_prec_precacc_117.txt.gz
Total_Precipitation_Accumulation
0.13 0.07 0.07 0.18 0.27 0.25 0.24 0.32 0.34 0.36 0.46 0.72 1.00 1.16 1.04 0.89 0.87 0.93 0.94 1.03 1.22 1.24 1.26 1.25 1.13 1.18 1.48 1.55 1.51 1.55 1.71 1.93 2.08 1.45 1.01 0.92 0.87 0.79 0.83 0.81 0.73 0.61 0.56
0.08 0.04 0.04 0.06 0.06 0.08 0.07 0.07 0.06 0.05 0.06 0.09 0.14 0.22 0.30 0.47 0.60 0.62 0.64 0.68 0.74 0.82 0.89 1.02 0.97 0.96 0.99 0.97 1.03 1.13 1.23 1.35 1.63 1.46 1.08 1.05 1.02 0.96 0.94 0.93 0.88 0.81 0.69
0.06 0.06 0.05 0.04 0.04 0.06 0.07 0.07 0.07 0.07 0.08 0.07 0.05 0.05 0.06 0.06 0.07 0.11 0.20 0.33 0.47 0.60 0.69 0.70 0.66 0.77 0.82 0.93 1.07 1.21 1.27 1.39 1.58 1.59 1.25 1.08 1.01 0.98 1.02 0.99 0.93 0.90 0.82
0.11 0.08 0.06 0.08 0.07 0.07 0.06 0.06 0.06 0.07 0.07 0.06 0.08 0.08 0.07 0.06 0.08 0.13 0.17 0.20 0.23 0.28 0.36 0.48 0.58 0.72 0.84 0.97 1.05 1.04 1.10 1.22 1.21 1.21 1.03 0.77 0.61 0.56 0.66 0.61 0.56 0.50 0.48
0.16 0.13 0.10 0.08 0.09 0.07 0.05 0.07 0.07 0.06 0.06 0.04 0.08 0.15 0.17 0.17 0.16 0.13 0.13 0.14 0.18 0.23 0.27 0.31 0.33 0.46 0.57 0.62 0.77 0.86 1.00 1.17 1.30 1.29 1.03 0.78 0.52 0.35 0.29 0.26 0.33 0.30 0.31
0.11 0.11 0.08 0.08 0.08 0.09 0.08 0.05 0.08 0.08 0.08 0.12 0.11 0.11 0.14 0.18 0.36 0.28 0.18 0.16 0.18 0.23 0.28 0.36 0.45 0.59 0.53 0.51 0.46 0.42 0.42 0.59 0.76 0.84 0.85 0.71 0.56 0.51 0.57 0.61 0.61 0.57 0.46
0.15 0.17 0.17 0.13 0.20 0.20 0.15 0.13 0.11 0.15 0.24 0.23 0.22 0.26 0.25 0.24 0.35 0.29 0.34 0.36 0.42 0.47 0.48 0.45 0.37 0.35 0.35 0.29 0.29 0.31 0.34 0.34 0.36 0.32 0.28 0.20 0.21 0.26 0.42 0.54 0.55 0.51 0.40
0.22 0.33 0.57 0.48 0.52 0.60 0.75 0.63 0.64 0.52 0.46 0.54 0.56 0.58 0.64 0.76 0.80 0.68 0.55 0.44 0.46 0.48 0.45 0.40 0.33 0.26 0.19 0.14 0.16 0.21 0.11 0.08 0.13 0.19 0.20 0.27 0.38 0.42 0.53 0.69 0.59 0.51 0.46
0.63 0.81 0.80 0.70 0.74 0.84 1.06 1.14 0.80 0.97 0.78 0.78 0.68 0.55 0.59 0.71 0.67 0.50 0.45 0.39 0.29 0.19 0.14 0.07 0.03 0.03 0.05 0.09 0.09 0.05 0.02 0.02 0.09 0.16 0.24 0.30 0.32 0.33 0.32 0.40 0.58 0.68 0.64
0.79 0.81 0.88 0.75 0.73 0.89 0.99 0.98 0.72 0.61 0.66 0.58 0.63 0.60 0.51 0.43 0.31 0.20 0.11 0.08 0.05 0.02 0.00 0.00 0.02 0.02 0.06 0.10 0.05 0.01 0.02 0.01 0.06 0.05 0.05 0.08 0.11 0.16 0.23 0.23 0.30 0.55 0.43
0.86 0.88 0.70 0.73 0.45 0.61 0.69 0.62 0.47 0.37 0.42 0.43 0.39 0.32 0.22 0.14 0.07 0.03 0.03 0.02 0.01 0.02 0.01 0.01 0.00 0.05 0.08 0.07 0.06 0.03 0.04 0.08 0.06 0.04 0.05 0.07 0.07 0.09 0.11 0.12 0.13 0.39 0.62
0.44 0.46 0.31 0.26 0.23 0.18 0.19 0.27 0.24 0.14 0.10 0.04 0.01 0.00 0.00 0.00 0.01 0.02 0.03 0.05 0.05 0.03 0.03 0.02 0.03 0.10 0.09 0.07 0.07 0.05 0.09 0.10 0.04 0.04 0.04 0.07 0.10 0.10 0.10 0.10 0.12 0.14 0.21
0.02 0.01 0.02 0.02 0.02 0.01 0.00 0.00 0.00 0.00 0.00 0.00 0.00 0.00 0.00 0.00 0.00 0.04 0.05 0.08 0.09 0.09 0.04 0.08 0.09 0.12 0.10 0.07 0.07 0.06 0.10 0.07 0.05 0.09 0.10 0.09 0.08 0.08 0.14 0.21 0.23 0.21 0.22
0.01 0.00 0.00 0.01 0.01 0.01 0.00 0.00 0.00 0.00 0.00 0.00 0.01 0.01 0.01 0.00 0.00 0.02 0.06 0.11 0.14 0.11 0.09 0.15 0.22 0.18 0.16 0.15 0.15 0.11 0.10 0.10 0.13 0.15 0.16 0.14 0.20 0.31 0.33 0.29 0.34 0.35 0.40
0.01 0.01 0.00 0.00 0.00 0.00 0.00 0.00 0.00 0.00 0.02 0.02 0.02 0.03 0.06 0.06 0.04 0.16 0.21 0.21 0.23 0.28 0.30 0.18 0.21 0.24 0.21 0.15 0.12 0.17 0.19 0.17 0.16 0.15 0.19 0.20 0.22 0.28 0.34 0.40 0.44 0.47 0.52
0.06 0.04 0.04 0.04 0.04 0.05 0.04 0.04 0.08 0.08 0.08 0.07 0.07 0.06 0.05 0.10 0.16 0.25 0.26 0.29 0.32 0.42 0.38 0.25 0.24 0.17 0.14 0.20 0.25 0.26 0.23 0.26 0.25 0.24 0.21 0.26 0.34 0.34 0.36 0.34 0.40 0.56 0.62
0.15 0.13 0.13 0.14 0.09 0.07 0.06 0.07 0.10 0.14 0.15 0.10 0.09 0.09 0.09 0.08 0.12 0.16 0.19 0.26 0.37 0.57 0.43 0.13 0.11 0.16 0.23 0.23 0.23 0.35 0.38 0.28 0.39 0.50 0.61 0.60 0.59 0.59 0.55 0.47 0.46 0.53 0.51
0.13 0.22 0.16 0.16 0.17 0.17 0.18 0.18 0.16 0.14 0.14 0.15 0.21 0.23 0.16 0.16 0.17 0.17 0.20 0.29 0.30 0.37 0.28 0.16 0.12 0.11 0.13 0.31 0.43 0.40 0.44 0.55 0.61 0.65 0.79 0.84 0.85 0.87 0.71 0.60 0.53 0.62 0.66
0.06 0.09 0.13 0.16 0.16 0.22 0.16 0.15 0.17 0.19 0.19 0.19 0.20 0.33 0.26 0.31 0.35 0.32 0.31 0.29 0.16 0.11 0.12 0.12 0.11 0.16 0.19 0.25 0.36 0.54 0.62 0.58 0.59 0.67 0.66 0.70 0.71 0.87 0.69 0.56 0.58 0.57 0.59
0.03 0.12 0.14 0.09 0.13 0.15 0.12 0.15 0.15 0.17 0.20 0.20 0.18 0.18 0.29 0.48 0.40 0.28 0.21 0.17 0.15 0.12 0.12 0.14 0.10 0.10 0.17 0.28 0.37 0.46 0.54 0.55 0.57 0.51 0.49 0.55 0.60 0.71 0.72 0.62 0.60 0.71 0.51
0.05 0.09 0.19 0.12 0.09 0.11 0.13 0.14 0.14 0.18 0.17 0.15 0.16 0.30 0.52 0.50 0.32 0.22 0.18 0.16 0.13 0.13 0.17 0.24 0.20 0.17 0.18 0.24 0.34 0.38 0.38 0.36 0.40 0.47 0.51 0.51 0.57 0.65 0.49 0.59 0.65 0.66 0.63
0.07 0.10 0.13 0.12 0.12 0.14 0.14 0.13 0.14 0.15 0.13 0.14 0.11 0.34 0.68 0.40 0.20 0.19 0.19 0.17 0.18 0.22 0.27 0.33 0.33 0.26 0.31 0.39 0.40 0.37 0.30 0.29 0.33 0.50 0.48 0.47 0.56 0.58 0.55 0.63 0.70 0.73 0.63
0.14 0.16 0.15 0.15 0.13 0.21 0.28 0.15 0.11 0.12 0.13 0.12 0.12 0.17 0.35 0.35 0.20 0.18 0.17 0.18 0.23 0.27 0.26 0.30 0.31 0.27 0.24 0.36 0.46 0.54 0.50 0.32 0.38 0.59 0.76 0.59 0.54 0.61 0.74 0.84 0.79 0.69 0.51
0.22 0.18 0.16 0.13 0.18 0.25 0.24 0.23 0.22 0.29 0.26 0.20 0.17 0.17 0.19 0.22 0.23 0.21 0.23 0.25 0.28 0.26 0.28 0.30 0.31 0.32 0.31 0.32 0.39 0.43 0.49 0.54 0.72 0.81 1.10 1.32 1.09 0.85 0.79 0.74 0.66 0.59 0.56
0.19 0.23 0.29 0.29 0.34 0.37 0.32 0.28 0.22 0.21 0.23 0.20 0.18 0.19 0.19 0.22 0.22 0.19 0.24 0.31 0.32 0.31 0.27 0.30 0.34 0.36 0.36 0.38 0.37 0.38 0.53 0.62 0.85 1.00 1.07 1.03 0.93 0.74 0.67 0.64 0.61 0.63 0.55
0.30 0.36 0.40 0.39 0.34 0.30 0.29 0.29 0.26 0.28 0.30 0.26 0.24 0.21 0.20 0.21 0.19 0.20 0.23 0.30 0.34 0.36 0.35 0.35 0.38 0.42 0.45 0.41 0.36 0.49 0.58 0.55 0.64 0.65 0.85 1.10 1.04 0.84 0.70 0.74 0.65 0.67 0.60

GFSGL_prec_precacc_120.txt.gz
Total_Precipitation_Accumulation
0.13 0.07 0.07 0.18 0.27 0.25 0.24 0.32 0.34 0.36 0.46 0.72 1.00 1.16 1.04 0.89 0.87 0.93 0.94 1.03 1.22 1.24 1.26 1.25 1.13 1.18 1.48 1.55 1.51 1.55 1.71 1.93 2.08 1.45 1.01 0.92 0.87 0.79 0.83 0.81 0.73 0.61 0.57
0.08 0.04 0.04 0.06 0.06 0.08 0.07 0.07 0.06 0.05 0.06 0.09 0.14 0.22 0.30 0.47 0.60 0.62 0.64 0.68 0.74 0.82 0.89 1.02 0.97 0.96 0.99 0.97 1.03 1.13 1.24 1.36 1.63 1.46 1.08 1.05 1.02 0.96 0.94 0.94 0.89 0.83 0.76
0.06 0.06 0.05 0.04 0.04 0.06 0.07 0.07 0.07 0.07 0.08 0.07 0.05 0.05 0.06 0.06 0.07 0.11 0.20 0.33 0.47 0.60 0.69 0.70 0.66 0.77 0.82 0.93 1.07 1.21 1.27 1.40 1.58 1.59 1.25 1.08 1.01 0.98 1.02 0.99 0.94 0.90 0.84
0.11 0.08 0.06 0.08 0.07 0.07 0.06 0.06 0.06 0.07 0.07 0.06 0.08 0.08 0.07 0.06 0.08 0.13 0.17 0.20 0.23 0.28 0.36 0.48 0.58 0.72 0.84 0.97 1.05 1.04 1.10 1.22 1.23 1.23 1.04 0.78 0.61 0.57 0.67 0.62 0.56 0.51 0.49
0.16 0.13 0.10 0.08 0.09 0.07 0.05 0.07 0.07 0.06 0.06 0.04 0.08 0.15 0.17 0.17 0.16 0.13 0.13 0.14 0.18 0.23 0.27 0.31 0.33 0.46 0.57 0.62 0.77 0.86 1.00 1.17 1.30 1.29 1.03 0.78 0.53 0.35 0.29 0.26 0.33 0.31 0.34
0.11 0.11 0.08 0.08 0.08 0.09 0.08 0.05 0.08 0.08 0.08 0.12 0.11 0.11 0.14 0.18 0.36 0.28 0.18 0.16 0.18 0.23 0.28 0.36 0.45 0.59 0.53 0.51 0.46 0.42 0.42 0.59 0.76 0.84 0.85 0.71 0.56 0.51 0.57 0.61 0.61 0.57 0.46
0.15 0.17 0.17 0.13 0.20 0.20 0.15 0.13 0.11 0.15 0.24 0.23 0.22 0.26 0.25 0.24 0.35 0.29 0.34 0.36 0.42 0.47 0.48 0.45 0.37 0.35 0.35 0.29 0.29 0.31 0.34 0.34 0.36 0.32 0.28 0.20 0.21 0.26 0.42 0.54 0.55 0.51 0.40
0.22 0.33 0.57 0.48 0.52 0.60 0.75 0.63 0.64 0.52 0.46 0.54 0.56 0.58 0.64 0.76 0.80 0.68 0.55 0.44 0.46 0.48 0.45 0.40 0.33 0.26 0.19 0.14 0.16 0.21 0.11 0.08 0.13 0.19 0.20 0.27 0.38 0.42 0.53 0.69 0.59 0.51 0.46
0.63 0.81 0.80 0.70 0.74 0.84 1.06 1.14 0.80 0.97 0.78 0.78 0.68 0.55 0.59 0.71 0.67 0.50 0.45 0.39 0.29 0.19 0.14 0.07 0.03 0.03 0.05 0.09 0.09 0.05 0.02 0.02 0.09 0.16 0.24 0.30 0.32 0.33 0.32 0.40 0.58 0.68 0.65
0.79 0.81 0.88 0.75 0.73 0.89 0.99 0.98 0.72 0.61 0.66 0.58 0.63 0.60 0.51 0.43 0.31 0.20 0.11 0.08 0.05 0.02 0.00 0.00 0.02 0.02 0.06 0.10 0.06 0.01 0.02 0.01 0.06 0.05 0.05 0.08 0.11 0.16 0.23 0.23 0.30 0.55 0.44
0.86 0.88 0.70 0.73 0.45 0.61 0.69 0.62 0.47 0.37 0.42 0.43 0.39 0.32 0.22 0.14 0.07 0.03 0.03 0.02 0.01 0.02 0.01 0.01 0.00 0.05 0.08 0.07 0.07 0.04 0.06 0.09 0.07 0.05 0.05 0.07 0.07 0.09 0.11 0.12 0.13 0.39 0.62
0.44 0.46 0.31 0.26 0.23 0.18 0.19 0.27 0.24 0.14 0.10 0.04 0.01 0.00 0.00 0.00 0.01 0.02 0.03 0.05 0.06 0.03 0.03 0.02 0.03 0.10 0.09 0.08 0.08 0.05 0.10 0.10 0.05 0.04 0.04 0.07 0.10 0.10 0.10 0.10 0.12 0.14 0.21
0.02 0.01 0.02 0.02 0.02 0.01 0.00 0.00 0.00 0.00 0.00 0.00 0.00 0.00 0.00 0.00 0.00 0.04 0.05 0.08 0.10 0.09 0.04 0.08 0.10 0.12 0.11 0.08 0.07 0.07 0.11 0.07 0.05 0.09 0.10 0.09 0.08 0.08 0.14 0.21 0.23 0.21 0.22
0.01 0.00 0.00 0.01 0.01 0.01 0.00 0.00 0.00 0.00 0.00 0.00 0.01 0.01 0.01 0.00 0.00 0.02 0.06 0.11 0.14 0.11 0.09 0.15 0.22 0.19 0.17 0.15 0.15 0.11 0.10 0.10 0.14 0.16 0.16 0.15 0.20 0.31 0.33 0.29 0.34 0.35 0.40
0.01 0.01 0.00 0.00 0.00 0.00 0.00 0.00 0.00 0.00 0.02 0.02 0.02 0.03 0.06 0.06 0.04 0.16 0.21 0.21 0.24 0.28 0.31 0.19 0.22 0.24 0.21 0.15 0.12 0.17 0.19 0.17 0.16 0.15 0.19 0.20 0.22 0.28 0.34 0.40 0.44 0.47 0.53
0.06 0.04 0.04 0.04 0.04 0.05 0.04 0.04 0.08 0.08 0.08 0.07 0.07 0.06 0.05 0.10 0.16 0.25 0.26 0.29 0.32 0.42 0.38 0.25 0.24 0.17 0.15 0.20 0.25 0.27 0.23 0.26 0.25 0.24 0.21 0.26 0.34 0.34 0.36 0.34 0.40 0.56 0.62
0.15 0.13 0.13 0.14 0.09 0.07 0.06 0.07 0.10 0.14 0.15 0.10 0.09 0.09 0.09 0.08 0.12 0.16 0.20 0.26 0.37 0.58 0.43 0.13 0.11 0.16 0.24 0.24 0.23 0.35 0.38 0.28 0.39 0.50 0.61 0.60 0.59 0.59 0.55 0.48 0.46 0.53 0.52
0.13 0.22 0.16 0.16 0.17 0.17 0.18 0.18 0.16 0.14 0.14 0.15 0.21 0.23 0.16 0.16 0.17 0.17 0.20 0.29 0.30 0.37 0.28 0.16 0.12 0.11 0.13 0.31 0.43 0.40 0.44 0.55 0.61 0.65 0.79 0.84 0.86 0.87 0.72 0.60 0.53 0.63 0.66
0.06 0.09 0.13 0.16 0.16 0.22 0.16 0.15 0.17 0.19 0.19 0.19 0.20 0.33 0.26 0.31 0.35 0.32 0.31 0.29 0.16 0.11 0.12 0.12 0.11 0.16 0.19 0.25 0.36 0.54 0.62 0.58 0.59 0.68 0.67 0.71 0.71 0.87 0.69 0.56 0.59 0.57 0.60
0.03 0.12 0.14 0.09 0.13 0.15 0.12 0.15 0.15 0.17 0.20 0.20 0.18 0.18 0.29 0.48 0.40 0.28 0.21 0.17 0.15 0.12 0.12 0.14 0.10 0.10 0.17 0.28 0.37 0.47 0.55 0.55 0.57 0.51 0.49 0.55 0.60 0.71 0.72 0.62 0.61 0.71 0.52
0.05 0.09 0.19 0.12 0.09 0.11 0.13 0.14 0.14 0.18 0.17 0.15 0.16 0.30 0.52 0.50 0.32 0.22 0.18 0.16 0.13 0.13 0.17 0.24 0.20 0.17 0.18 0.25 0.35 0.38 0.39 0.36 0.40 0.47 0.51 0.51 0.57 0.66 0.49 0.59 0.65 0.66 0.64
0.07 0.10 0.13 0.12 0.12 0.14 0.14 0.13 0.14 0.15 0.13 0.14 0.11 0.34 0.68 0.40 0.20 0.19 0.19 0.17 0.18 0.22 0.27 0.34 0.34 0.27 0.32 0.40 0.41 0.39 0.31 0.29 0.33 0.50 0.48 0.47 0.56 0.59 0.56 0.63 0.71 0.73 0.64
0.14 0.16 0.15 0.15 0.13 0.21 0.28 0.15 0.11 0.12 0.13 0.12 0.12 0.17 0.35 0.35 0.20 0.18 0.17 0.18 0.23 0.27 0.27 0.31 0.33 0.28 0.24 0.37 0.47 0.56 0.52 0.33 0.38 0.60 0.77 0.60 0.55 0.62 0.75 0.85 0.79 0.69 0.52
0.22 0.18 0.16 0.13 0.18 0.25 0.24 0.23 0.22 0.29 0.26 0.20 0.17 0.17 0.19 0.22 0.23 0.21 0.23 0.25 0.28 0.27 0.29 0.31 0.32 0.33 0.31 0.33 0.41 0.45 0.51 0.55 0.73 0.83 1.12 1.34 1.09 0.85 0.79 0.75 0.66 0.60 0.59
0.19 0.23 0.29 0.29 0.34 0.37 0.32 0.28 0.22 0.21 0.23 0.20 0.18 0.19 0.19 0.22 0.22 0.19 0.24 0.31 0.32 0.31 0.28 0.30 0.35 0.38 0.38 0.40 0.39 0.41 0.55 0.64 0.88 1.02 1.09 1.05 0.94 0.75 0.68 0.66 0.62 0.64 0.57
0.30 0.36 0.40 0.39 0.34 0.30 0.29 0.29 0.26 0.28 0.30 0.26 0.24 0.21 0.21 0.21 0.19 0.21 0.23 0.31 0.35 0.37 0.35 0.36 0.38 0.43 0.47 0.44 0.39 0.51 0.61 0.57 0.67 0.68 0.89 1.14 1.07 0.86 0.71 0.75 0.66 0.69 0.62

GFSGL_prec_precacc_123.txt.gz
Total_Precipitation_Accumulation
0.13 0.07 0.07 0.18 0.27 0.25 0.24 0.32 0.34 0.36 0.46 0.72 1.00 1.16 1.04 0.89 0.87 0.93 0.94 1.03 1.22 1.24 1.26 1.25 1.13 1.18 1.48 1.55 1.51 1.55 1.71 1.93 2.08 1.45 1.01 0.92 0.87 0.79 0.83 0.81 0.73 0.61 0.57
0.08 0.04 0.04 0.06 0.06 0.08 0.07 0.07 0.06 0.05 0.06 0.09 0.14 0.22 0.30 0.47 0.60 0.62 0.64 0.68 0.74 0.82 0.89 1.02 0.97 0.96 0.99 0.97 1.03 1.13 1.24 1.36 1.63 1.46 1.08 1.05 1.02 0.96 0.94 0.94 0.89 0.83 0.76
0.06 0.06 0.05 0.04 0.04 0.06 0.07 0.07 0.07 0.07 0.08 0.07 0.05 0.05 0.06 0.06 0.07 0.11 0.20 0.33 0.47 0.60 0.69 0.70 0.66 0.77 0.82 0.93 1.07 1.21 1.27 1.40 1.58 1.59 1.25 1.08 1.01 0.98 1.02 0.99 0.94 0.90 0.84
0.11 0.08 0.06 0.08 0.07 0.07 0.06 0.06 0.06 0.07 0.07 0.06 0.08 0.08 0.07 0.06 0.08 0.13 0.17 0.20 0.23 0.28 0.36 0.48 0.58 0.72 0.84 0.97 1.05 1.04 1.10 1.22 1.23 1.23 1.04 0.78 0.61 0.57 0.67 0.62 0.56 0.51 0.49
0.16 0.13 0.10 0.08 0.09 0.07 0.05 0.07 0.07 0.06 0.06 0.04 0.08 0.15 0.17 0.17 0.16 0.13 0.13 0.14 0.18 0.23 0.27 0.31 0.33 0.46 0.57 0.62 0.77 0.86 1.00 1.17 1.30 1.29 1.03 0.78 0.53 0.35 0.29 0.26 0.33 0.31 0.34
0.11 0.11 0.08 0.08 0.08 0.09 0.08 0.05 0.08 0.08 0.08 0.12 0.11 0.11 0.14 0.18 0.36 0.28 0.18 0.16 0.18 0.23 0.28 0.36 0.45 0.59 0.53 0.51 0.46 0.42 0.42 0.59 0.76 0.84 0.85 0.71 0.56 0.51 0.57 0.61 0.61 0.57 0.47
0.15 0.17 0.17 0.13 0.20 0.20 0.15 0.13 0.11 0.15 0.24 0.23 0.22 0.26 0.25 0.24 0.35 0.29 0.34 0.36 0.42 0.47 0.48 0.45 0.37 0.35 0.35 0.29 0.29 0.31 0.34 0.34 0.36 0.32 0.28 0.20 0.21 0.26 0.42 0.54 0.55 0.51 0.40
0.22 0.33 0.57 0.48 0.52 0.60 0.75 0.63 0.64 0.52 0.46 0.54 0.56 0.58 0.64 0.76 0.80 0.68 0.55 0.44 0.46 0.48 0.45 0.40 0.33 0.26 0.19 0.14 0.16 0.21 0.11 0.08 0.13 0.19 0.20 0.27 0.38 0.42 0.53 0.69 0.59 0.51 0.46
0.63 0.81 0.80 0.70 0.74 0.84 1.06 1.14 0.80 0.97 0.78 0.78 0.68 0.55 0.59 0.71 0.67 0.50 0.45 0.39 0.29 0.19 0.14 0.07 0.03 0.03 0.05 0.09 0.09 0.05 0.02 0.02 0.09 0.16 0.24 0.30 0.32 0.33 0.32 0.40 0.58 0.68 0.65
0.79 0.81 0.88 0.75 0.73 0.89 0.99 0.98 0.72 0.61 0.66 0.58 0.63 0.60 0.51 0.43 0.31 0.20 0.11 0.08 0.05 0.02 0.00 0.00 0.02 0.02 0.06 0.10 0.06 0.02 0.03 0.01 0.06 0.05 0.05 0.08 0.11 0.16 0.23 0.23 0.30 0.55 0.44
0.86 0.88 0.70 0.73 0.45 0.61 0.69 0.62 0.47 0.37 0.42 0.43 0.39 0.32 0.22 0.14 0.07 0.03 0.03 0.02 0.01 0.02 0.01 0.01 0.00 0.05 0.08 0.08 0.08 0.04 0.07 0.09 0.08 0.06 0.06 0.07 0.07 0.09 0.11 0.12 0.13 0.39 0.62
0.44 0.46 0.31 0.26 0.23 0.18 0.19 0.27 0.24 0.14 0.10 0.04 0.01 0.00 0.00 0.00 0.01 0.02 0.03 0.05 0.06 0.03 0.03 0.02 0.03 0.10 0.10 0.08 0.08 0.06 0.11 0.11 0.05 0.04 0.04 0.07 0.10 0.10 0.10 0.10 0.12 0.14 0.21
0.02 0.01 0.02 0.02 0.02 0.01 0.00 0.00 0.00 0.00 0.00 0.00 0.00 0.00 0.00 0.00 0.00 0.04 0.05 0.08 0.10 0.09 0.04 0.08 0.10 0.13 0.11 0.08 0.07 0.07 0.11 0.07 0.05 0.09 0.10 0.09 0.08 0.08 0.14 0.21 0.23 0.21 0.22
0.01 0.00 0.00 0.01 0.01 0.01 0.00 0.00 0.00 0.00 0.00 0.00 0.01 0.01 0.01 0.00 0.00 0.02 0.06 0.11 0.14 0.12 0.09 0.15 0.23 0.19 0.17 0.15 0.15 0.11 0.10 0.10 0.14 0.17 0.17 0.16 0.21 0.31 0.33 0.29 0.34 0.35 0.40
0.01 0.01 0.00 0.00 0.00 0.00 0.00 0.00 0.00 0.00 0.02 0.02 0.02 0.03 0.06 0.06 0.04 0.16 0.21 0.21 0.24 0.29 0.31 0.19 0.22 0.24 0.21 0.15 0.12 0.17 0.19 0.17 0.16 0.15 0.20 0.20 0.22 0.28 0.34 0.40 0.44 0.47 0.53
0.06 0.04 0.04 0.04 0.04 0.05 0.04 0.04 0.08 0.08 0.08 0.07 0.07 0.06 0.05 0.10 0.16 0.25 0.26 0.29 0.32 0.42 0.39 0.25 0.24 0.17 0.15 0.20 0.25 0.27 0.23 0.26 0.25 0.24 0.21 0.26 0.34 0.34 0.36 0.34 0.41 0.56 0.62
0.15 0.13 0.13 0.14 0.09 0.07 0.06 0.07 0.10 0.14 0.15 0.10 0.09 0.09 0.09 0.08 0.12 0.16 0.20 0.26 0.37 0.58 0.43 0.13 0.11 0.16 0.24 0.24 0.23 0.35 0.38 0.28 0.39 0.50 0.61 0.60 0.59 0.59 0.56 0.48 0.46 0.53 0.52
0.13 0.22 0.16 0.16 0.17 0.17 0.18 0.18 0.16 0.14 0.14 0.15 0.21 0.23 0.16 0.16 0.17 0.17 0.20 0.29 0.30 0.37 0.28 0.16 0.12 0.11 0.13 0.31 0.43 0.40 0.44 0.55 0.61 0.65 0.79 0.84 0.86 0.88 0.72 0.60 0.53 0.63 0.67
0.06 0.09 0.13 0.16 0.16 0.22 0.16 0.15 0.17 0.19 0.19 0.19 0.20 0.33 0.26 0.31 0.35 0.32 0.31 0.29 0.16 0.11 0.12 0.12 0.11 0.16 0.19 0.25 0.36 0.54 0.62 0.58 0.60 0.69 0.68 0.71 0.71 0.88 0.70 0.57 0.59 0.58 0.61
0.03 0.12 0.14 0.09 0.13 0.15 0.12 0.15 0.15 0.17 0.20 0.20 0.18 0.18 0.29 0.48 0.40 0.28 0.21 0.17 0.15 0.12 0.12 0.14 0.10 0.10 0.17 0.29 0.38 0.47 0.55 0.56 0.57 0.52 0.49 0.56 0.60 0.71 0.73 0.63 0.61 0.72 0.52
0.05 0.09 0.19 0.12 0.09 0.11 0.13 0.14 0.14 0.18 0.17 0.15 0.16 0.30 0.52 0.50 0.32 0.22 0.18 0.16 0.13 0.13 0.17 0.24 0.20 0.18 0.19 0.25 0.36 0.39 0.40 0.37 0.40 0.48 0.51 0.52 0.57 0.66 0.50 0.60 0.66 0.67 0.64
0.07 0.10 0.13 0.12 0.12 0.14 0.14 0.13 0.14 0.15 0.13 0.14 0.11 0.34 0.68 0.40 0.20 0.19 0.19 0.17 0.18 0.22 0.27 0.34 0.35 0.27 0.32 0.42 0.43 0.41 0.33 0.30 0.34 0.51 0.50 0.47 0.57 0.60 0.56 0.64 0.71 0.74 0.64
0.14 0.16 0.15 0.15 0.13 0.21 0.28 0.15 0.11 0.12 0.13 0.12 0.12 0.17 0.35 0.35 0.20 0.18 0.17 0.18 0.23 0.27 0.27 0.31 0.33 0.29 0.25 0.38 0.49 0.58 0.55 0.34 0.39 0.62 0.79 0.62 0.56 0.62 0.76 0.86 0.80 0.70 0.52
0.22 0.18 0.16 0.13 0.18 0.25 0.24 0.23 0.22 0.29 0.26 0.20 0.17 0.17 0.19 0.22 0.23 0.21 0.23 0.25 0.28 0.27 0.29 0.31 0.32 0.34 0.33 0.35 0.42 0.48 0.54 0.57 0.75 0.86 1.16 1.37 1.10 0.85 0.80 0.76 0.67 0.61 0.60
0.19 0.23 0.29 0.29 0.34 0.37 0.32 0.28 0.22 0.21 0.23 0.20 0.18 0.19 0.19 0.22 0.22 0.19 0.24 0.31 0.32 0.31 0.28 0.30 0.35 0.38 0.39 0.42 0.41 0.43 0.59 0.70 0.95 1.08 1.13 1.08 0.95 0.76 0.69 0.67 0.63 0.66 0.58
0.30 0.36 0.40 0.39 0.34 0.30 0.29 0.29 0.26 0.28 0.30 0.26 0.24 0.21 0.21 0.21 0.19 0.21 0.23 0.31 0.35 0.37 0.35 0.36 0.38 0.44 0.48 0.45 0.41 0.54 0.65 0.62 0.73 0.74 0.97 1.20 1.09 0.87 0.72 0.76 0.67 0.70 0.64

GFSGL_prec_precacc_126.txt.gz
Total_Precipitation_Accumulation
0.13 0.07 0.07 0.18 0.27 0.25 0.24 0.32 0.34 0.36 0.46 0.72 1.00 1.16 1.04 0.89 0.87 0.93 0.94 1.03 1.22 1.24 1.26 1.25 1.13 1.19 1.48 1.55 1.51 1.55 1.71 1.93 2.08 1.45 1.01 0.92 0.87 0.79 0.83 0.81 0.73 0.61 0.57
0.08 0.04 0.04 0.06 0.06 0.08 0.07 0.07 0.06 0.05 0.06 0.09 0.14 0.22 0.30 0.47 0.60 0.62 0.64 0.68 0.74 0.82 0.89 1.02 0.97 0.96 0.99 0.97 1.03 1.13 1.24 1.36 1.63 1.46 1.08 1.05 1.02 0.96 0.94 0.94 0.89 0.83 0.76
0.06 0.06 0.05 0.04 0.04 0.06 0.07 0.07 0.07 0.07 0.08 0.07 0.05 0.05 0.06 0.06 0.07 0.11 0.20 0.33 0.47 0.60 0.69 0.70 0.66 0.77 0.82 0.93 1.07 1.21 1.27 1.40 1.58 1.59 1.25 1.08 1.01 0.98 1.02 0.99 0.94 0.90 0.84
0.11 0.08 0.06 0.08 0.07 0.07 0.06 0.06 0.06 0.07 0.07 0.06 0.08 0.08 0.07 0.06 0.08 0.13 0.17 0.20 0.23 0.28 0.36 0.48 0.58 0.72 0.84 0.97 1.05 1.04 1.10 1.22 1.23 1.23 1.04 0.78 0.61 0.57 0.67 0.62 0.56 0.51 0.49
0.16 0.13 0.10 0.08 0.09 0.07 0.05 0.07 0.07 0.06 0.06 0.04 0.08 0.15 0.17 0.17 0.16 0.13 0.13 0.14 0.18 0.23 0.27 0.31 0.33 0.46 0.57 0.62 0.77 0.86 1.00 1.17 1.30 1.29 1.03 0.78 0.53 0.35 0.29 0.26 0.33 0.31 0.34
0.11 0.11 0.08 0.08 0.08 0.09 0.08 0.05 0.08 0.08 0.08 0.12 0.11 0.11 0.14 0.18 0.36 0.28 0.18 0.16 0.18 0.23 0.28 0.36 0.45 0.59 0.53 0.51 0.46 0.42 0.42 0.59 0.76 0.84 0.85 0.71 0.56 0.51 0.57 0.61 0.61 0.57 0.47
0.15 0.17 0.17 0.13 0.20 0.20 0.15 0.13 0.11 0.15 0.24 0.23 0.22 0.26 0.25 0.24 0.35 0.29 0.34 0.36 0.42 0.47 0.48 0.45 0.37 0.35 0.35 0.29 0.29 0.31 0.34 0.34 0.36 0.32 0.28 0.20 0.21 0.26 0.42 0.54 0.55 0.51 0.40
0.22 0.33 0.57 0.48 0.52 0.60 0.75 0.63 0.64 0.52 0.46 0.54 0.56 0.58 0.64 0.76 0.80 0.68 0.55 0.44 0.46 0.48 0.45 0.40 0.33 0.26 0.19 0.14 0.16 0.21 0.11 0.08 0.13 0.19 0.20 0.27 0.38 0.42 0.53 0.69 0.59 0.51 0.46
0.63 0.81 0.80 0.70 0.74 0.84 1.06 1.14 0.80 0.97 0.78 0.78 0.68 0.55 0.59 0.71 0.67 0.50 0.45 0.39 0.29 0.19 0.14 0.07 0.03 0.03 0.05 0.09 0.09 0.05 0.02 0.02 0.09 0.16 0.24 0.30 0.33 0.34 0.32 0.40 0.58 0.68 0.65
0.79 0.81 0.88 0.75 0.73 0.89 0.99 0.98 0.72 0.61 0.66 0.58 0.63 0.60 0.51 0.43 0.31 0.20 0.11 0.08 0.05 0.02 0.00 0.00 0.02 0.02 0.06 0.10 0.06 0.02 0.03 0.01 0.06 0.05 0.05 0.08 0.11 0.16 0.23 0.23 0.30 0.55 0.44
0.86 0.88 0.70 0.73 0.45 0.61 0.69 0.62 0.47 0.37 0.42 0.43 0.39 0.32 0.22 0.14 0.07 0.03 0.03 0.02 0.01 0.02 0.01 0.01 0.00 0.05 0.08 0.08 0.08 0.05 0.07 0.10 0.08 0.06 0.06 0.07 0.07 0.09 0.11 0.12 0.13 0.39 0.62
0.44 0.46 0.31 0.26 0.23 0.18 0.19 0.27 0.24 0.14 0.10 0.04 0.01 0.00 0.00 0.00 0.01 0.02 0.03 0.05 0.06 0.03 0.03 0.02 0.03 0.10 0.10 0.09 0.08 0.06 0.11 0.11 0.05 0.04 0.04 0.07 0.10 0.10 0.10 0.10 0.12 0.14 0.21
0.02 0.01 0.02 0.02 0.02 0.01 0.00 0.00 0.00 0.00 0.00 0.00 0.00 0.00 0.00 0.00 0.00 0.04 0.05 0.08 0.10 0.09 0.05 0.08 0.10 0.13 0.12 0.08 0.07 0.07 0.11 0.07 0.05 0.09 0.10 0.09 0.08 0.08 0.14 0.21 0.23 0.21 0.22
0.01 0.00 0.00 0.01 0.01 0.01 0.00 0.00 0.00 0.00 0.00 0.00 0.01 0.01 0.01 0.00 0.00 0.02 0.06 0.11 0.14 0.12 0.09 0.15 0.23 0.19 0.17 0.15 0.15 0.11 0.10 0.10 0.14 0.17 0.18 0.16 0.21 0.31 0.33 0.29 0.34 0.35 0.40
0.01 0.01 0.00 0.00 0.00 0.00 0.00 0.00 0.00 0.00 0.02 0.02 0.02 0.03 0.06 0.06 0.04 0.16 0.21 0.21 0.24 0.29 0.31 0.19 0.22 0.24 0.21 0.15 0.12 0.17 0.19 0.17 0.16 0.15 0.20 0.20 0.22 0.28 0.34 0.40 0.44 0.47 0.53
0.06 0.04 0.04 0.04 0.04 0.05 0.04 0.04 0.08 0.08 0.08 0.07 0.07 0.06 0.05 0.10 0.16 0.25 0.26 0.29 0.32 0.43 0.39 0.25 0.24 0.17 0.15 0.20 0.25 0.27 0.23 0.26 0.25 0.24 0.21 0.26 0.34 0.34 0.36 0.34 0.41 0.56 0.63
0.15 0.13 0.13 0.14 0.09 0.07 0.06 0.07 0.10 0.14 0.15 0.10 0.09 0.09 0.09 0.08 0.12 0.16 0.20 0.26 0.38 0.58 0.43 0.13 0.11 0.16 0.24 0.24 0.23 0.35 0.38 0.28 0.39 0.50 0.61 0.60 0.59 0.59 0.56 0.48 0.47 0.53 0.53
0.13 0.22 0.16 0.16 0.17 0.17 0.18 0.18 0.16 0.14 0.14 0.15 0.21 0.23 0.16 0.16 0.17 0.17 0.20 0.29 0.30 0.37 0.28 0.16 0.12 0.11 0.13 0.31 0.43 0.40 0.44 0.55 0.62 0.65 0.80 0.84 0.86 0.88 0.73 0.60 0.53 0.64 0.67
0.06 0.09 0.13 0.16 0.16 0.22 0.16 0.15 0.17 0.19 0.19 0.19 0.20 0.33 0.26 0.31 0.35 0.32 0.31 0.29 0.16 0.11 0.12 0.12 0.11 0.16 0.19 0.25 0.36 0.54 0.62 0.59 0.60 0.70 0.68 0.71 0.72 0.88 0.71 0.57 0.59 0.58 0.62
0.03 0.12 0.15 0.09 0.13 0.15 0.12 0.15 0.15 0.17 0.20 0.20 0.18 0.18 0.29 0.48 0.40 0.28 0.21 0.17 0.15 0.12 0.12 0.14 0.10 0.10 0.17 0.29 0.38 0.47 0.56 0.56 0.58 0.52 0.49 0.56 0.60 0.72 0.74 0.63 0.62 0.72 0.52
0.06 0.10 0.19 0.12 0.09 0.11 0.13 0.14 0.14 0.18 0.17 0.15 0.16 0.30 0.52 0.50 0.32 0.22 0.18 0.16 0.13 0.13 0.17 0.24 0.21 0.18 0.19 0.26 0.36 0.40 0.41 0.37 0.41 0.48 0.52 0.52 0.58 0.67 0.50 0.60 0.66 0.67 0.65
0.07 0.10 0.13 0.12 0.12 0.14 0.14 0.13 0.14 0.15 0.13 0.14 0.11 0.34 0.68 0.40 0.20 0.19 0.19 0.17 0.18 0.22 0.27 0.35 0.35 0.28 0.33 0.43 0.44 0.43 0.34 0.31 0.35 0.53 0.51 0.48 0.58 0.61 0.57 0.65 0.72 0.74 0.65
0.14 0.16 0.15 0.15 0.13 0.21 0.28 0.15 0.11 0.12 0.13 0.12 0.12 0.17 0.35 0.35 0.20 0.18 0.17 0.18 0.23 0.27 0.27 0.31 0.34 0.29 0.25 0.38 0.50 0.61 0.59 0.36 0.42 0.67 0.85 0.64 0.58 0.63 0.77 0.87 0.80 0.71 0.53
0.22 0.18 0.16 0.13 0.18 0.25 0.24 0.23 0.22 0.29 0.26 0.20 0.17 0.17 0.19 0.22 0.23 0.21 0.23 0.25 0.28 0.27 0.29 0.31 0.32 0.35 0.33 0.36 0.44 0.50 0.58 0.61 0.81 0.93 1.22 1.43 1.14 0.87 0.83 0.78 0.68 0.62 0.61
0.19 0.24 0.29 0.29 0.34 0.37 0.32 0.28 0.22 0.21 0.23 0.20 0.18 0.19 0.19 0.22 0.22 0.19 0.24 0.31 0.32 0.31 0.28 0.30 0.35 0.39 0.40 0.43 0.43 0.45 0.62 0.75 1.02 1.17 1.22 1.13 1.00 0.80 0.72 0.69 0.64 0.68 0.59
0.30 0.36 0.40 0.39 0.34 0.30 0.29 0.29 0.26 0.28 0.30 0.26 0.24 0.21 0.21 0.21 0.19 0.21 0.23 0.31 0.35 0.37 0.35 0.36 0.39 0.44 0.49 0.46 0.42 0.56 0.67 0.64 0.77 0.79 1.04 1.24 1.11 0.89 0.75 0.78 0.68 0.73 0.65

GFSGL_prec_precacc_129.txt.gz
Total_Precipitation_Accumulation
0.13 0.07 0.07 0.18 0.27 0.25 0.24 0.32 0.34 0.36 0.46 0.72 1.00 1.16 1.04 0.89 0.87 0.93 0.94 1.03 1.22 1.24 1.26 1.25 1.13 1.19 1.48 1.55 1.51 1.56 1.72 1.94 2.10 1.47 1.05 0.96 0.91 0.83 0.85 0.81 0.73 0.61 0.57
0.08 0.04 0.04 0.06 0.06 0.08 0.07 0.07 0.06 0.05 0.06 0.09 0.14 0.22 0.30 0.47 0.60 0.62 0.64 0.68 0.74 0.82 0.89 1.02 0.97 0.96 0.99 0.97 1.03 1.13 1.24 1.36 1.63 1.46 1.08 1.05 1.02 0.96 0.94 0.94 0.89 0.83 0.76
0.06 0.06 0.05 0.04 0.04 0.06 0.07 0.07 0.07 0.07 0.08 0.07 0.05 0.05 0.06 0.06 0.07 0.11 0.20 0.33 0.47 0.60 0.69 0.70 0.66 0.77 0.82 0.93 1.07 1.21 1.27 1.40 1.58 1.59 1.25 1.08 1.01 0.98 1.02 0.99 0.94 0.90 0.84
0.11 0.08 0.06 0.08 0.07 0.07 0.06 0.06 0.06 0.07 0.07 0.06 0.08 0.08 0.07 0.06 0.08 0.13 0.17 0.20 0.23 0.28 0.36 0.48 0.58 0.72 0.84 0.97 1.05 1.04 1.10 1.22 1.23 1.23 1.04 0.78 0.61 0.57 0.67 0.62 0.56 0.51 0.49
0.16 0.13 0.10 0.08 0.09 0.07 0.05 0.07 0.07 0.06 0.06 0.04 0.08 0.15 0.17 0.17 0.16 0.13 0.13 0.14 0.18 0.23 0.27 0.31 0.33 0.46 0.57 0.62 0.77 0.86 1.00 1.17 1.30 1.29 1.03 0.78 0.53 0.35 0.29 0.26 0.33 0.31 0.34
0.11 0.11 0.08 0.08 0.08 0.09 0.08 0.05 0.08 0.08 0.08 0.12 0.11 0.11 0.14 0.18 0.36 0.28 0.18 0.16 0.18 0.23 0.28 0.36 0.45 0.59 0.53 0.51 0.46 0.42 0.42 0.59 0.76 0.84 0.85 0.71 0.56 0.51 0.57 0.61 0.61 0.57 0.47
0.15 0.17 0.17 0.13 0.20 0.20 0.15 0.13 0.11 0.15 0.24 0.23 0.22 0.26 0.25 0.24 0.35 0.29 0.34 0.36 0.42 0.47 0.48 0.45 0.37 0.35 0.35 0.29 0.29 0.31 0.34 0.34 0.36 0.32 0.28 0.20 0.21 0.26 0.42 0.54 0.55 0.51 0.40
0.22 0.33 0.57 0.48 0.52 0.60 0.75 0.63 0.64 0.52 0.46 0.54 0.56 0.58 0.64 0.76 0.80 0.68 0.55 0.44 0.46 0.48 0.45 0.40 0.33 0.26 0.19 0.14 0.16 0.21 0.11 0.08 0.13 0.19 0.20 0.27 0.38 0.42 0.54 0.69 0.59 0.51 0.46
0.63 0.81 0.80 0.70 0.74 0.84 1.06 1.14 0.80 0.97 0.78 0.78 0.68 0.55 0.59 0.71 0.67 0.50 0.45 0.39 0.29 0.19 0.14 0.07 0.03 0.03 0.05 0.09 0.09 0.05 0.02 0.02 0.09 0.16 0.24 0.30 0.33 0.34 0.33 0.41 0.59 0.68 0.65
0.79 0.81 0.88 0.75 0.73 0.89 0.99 0.98 0.72 0.61 0.66 0.58 0.63 0.60 0.51 0.43 0.31 0.20 0.11 0.08 0.05 0.02 0.00 0.00 0.02 0.02 0.06 0.10 0.06 0.02 0.03 0.01 0.06 0.05 0.05 0.08 0.11 0.16 0.23 0.23 0.30 0.55 0.44
0.86 0.88 0.70 0.73 0.45 0.61 0.69 0.62 0.47 0.37 0.42 0.43 0.39 0.32 0.22 0.14 0.07 0.03 0.03 0.02 0.01 0.02 0.01 0.01 0.00 0.05 0.09 0.08 0.09 0.05 0.07 0.10 0.08 0.06 0.06 0.07 0.07 0.09 0.11 0.12 0.13 0.39 0.62
0.44 0.46 0.31 0.26 0.23 0.18 0.19 0.27 0.24 0.14 0.10 0.04 0.01 0.00 0.00 0.00 0.01 0.02 0.03 0.05 0.06 0.03 0.03 0.02 0.03 0.10 0.10 0.09 0.09 0.06 0.11 0.11 0.05 0.04 0.04 0.07 0.10 0.10 0.10 0.10 0.12 0.14 0.21
0.02 0.01 0.02 0.02 0.02 0.01 0.00 0.00 0.00 0.00 0.00 0.00 0.00 0.00 0.00 0.00 0.00 0.04 0.05 0.08 0.10 0.09 0.05 0.08 0.10 0.13 0.12 0.08 0.07 0.07 0.11 0.07 0.05 0.09 0.10 0.09 0.08 0.08 0.14 0.21 0.23 0.21 0.22
0.01 0.00 0.00 0.01 0.01 0.01 0.00 0.00 0.00 0.00 0.00 0.00 0.01 0.01 0.01 0.00 0.00 0.02 0.06 0.11 0.14 0.12 0.09 0.15 0.23 0.19 0.17 0.15 0.15 0.11 0.10 0.10 0.14 0.17 0.18 0.16 0.21 0.31 0.33 0.29 0.34 0.35 0.40
0.01 0.01 0.00 0.00 0.00 0.00 0.00 0.00 0.00 0.00 0.02 0.02 0.02 0.03 0.06 0.06 0.04 0.16 0.21 0.21 0.24 0.29 0.32 0.19 0.22 0.24 0.21 0.15 0.12 0.17 0.19 0.17 0.16 0.15 0.20 0.20 0.22 0.28 0.34 0.40 0.44 0.47 0.53
0.06 0.04 0.04 0.04 0.04 0.05 0.04 0.04 0.08 0.08 0.08 0.07 0.07 0.06 0.05 0.10 0.16 0.25 0.26 0.29 0.33 0.43 0.40 0.25 0.24 0.17 0.15 0.20 0.25 0.27 0.23 0.26 0.25 0.24 0.21 0.26 0.34 0.34 0.36 0.34 0.41 0.57 0.63
0.15 0.13 0.13 0.14 0.09 0.07 0.06 0.07 0.10 0.14 0.15 0.10 0.09 0.09 0.09 0.08 0.12 0.16 0.20 0.26 0.38 0.58 0.43 0.13 0.11 0.16 0.24 0.24 0.23 0.35 0.38 0.28 0.39 0.50 0.61 0.60 0.60 0.59 0.56 0.48 0.47 0.54 0.53
0.13 0.22 0.16 0.16 0.17 0.17 0.18 0.18 0.16 0.14 0.14 0.15 0.21 0.23 0.16 0.16 0.17 0.17 0.20 0.29 0.30 0.37 0.28 0.16 0.12 0.11 0.13 0.31 0.43 0.40 0.44 0.55 0.62 0.66 0.80 0.84 0.86 0.88 0.73 0.61 0.54 0.64 0.67
0.06 0.09 0.13 0.16 0.16 0.22 0.16 0.15 0.17 0.19 0.19 0.19 0.20 0.33 0.26 0.31 0.35 0.32 0.31 0.29 0.16 0.11 0.12 0.12 0.11 0.16 0.19 0.25 0.36 0.54 0.62 0.59 0.60 0.70 0.68 0.72 0.72 0.90 0.71 0.57 0.60 0.58 0.62
0.03 0.12 0.15 0.09 0.13 0.16 0.13 0.15 0.15 0.17 0.20 0.20 0.18 0.18 0.29 0.48 0.40 0.28 0.21 0.17 0.15 0.12 0.12 0.14 0.10 0.10 0.17 0.29 0.38 0.47 0.56 0.56 0.58 0.52 0.49 0.56 0.61 0.73 0.75 0.64 0.62 0.73 0.53
0.06 0.10 0.20 0.12 0.10 0.11 0.13 0.14 0.14 0.18 0.17 0.15 0.16 0.30 0.52 0.50 0.32 0.22 0.18 0.16 0.13 0.13 0.17 0.24 0.21 0.18 0.19 0.26 0.37 0.41 0.41 0.38 0.41 0.49 0.53 0.53 0.60 0.69 0.51 0.61 0.67 0.68 0.65
0.07 0.10 0.13 0.12 0.12 0.14 0.14 0.13 0.14 0.15 0.13 0.14 0.11 0.34 0.68 0.40 0.20 0.19 0.19 0.17 0.18 0.22 0.27 0.35 0.35 0.28 0.33 0.43 0.45 0.44 0.35 0.31 0.35 0.54 0.53 0.50 0.60 0.63 0.59 0.67 0.73 0.75 0.65
0.14 0.16 0.15 0.15 0.13 0.21 0.28 0.15 0.11 0.12 0.13 0.12 0.12 0.17 0.35 0.35 0.20 0.18 0.17 0.18 0.23 0.27 0.27 0.31 0.34 0.29 0.25 0.39 0.51 0.64 0.62 0.37 0.42 0.69 0.89 0.68 0.61 0.65 0.79 0.89 0.81 0.72 0.53
0.22 0.18 0.16 0.13 0.18 0.25 0.24 0.23 0.22 0.29 0.26 0.20 0.17 0.17 0.19 0.22 0.23 0.21 0.23 0.25 0.28 0.27 0.29 0.31 0.32 0.35 0.33 0.36 0.44 0.51 0.61 0.64 0.85 0.98 1.29 1.50 1.20 0.90 0.86 0.80 0.69 0.63 0.62
0.19 0.24 0.29 0.29 0.34 0.37 0.32 0.28 0.22 0.21 0.23 0.20 0.18 0.19 0.19 0.22 0.22 0.19 0.24 0.31 0.32 0.31 0.28 0.30 0.35 0.39 0.40 0.44 0.44 0.46 0.64 0.77 1.06 1.24 1.29 1.18 1.05 0.85 0.76 0.72 0.65 0.69 0.61
0.30 0.36 0.40 0.39 0.34 0.30 0.29 0.29 0.26 0.28 0.30 0.26 0.24 0.21 0.21 0.21 0.19 0.21 0.23 0.31 0.35 0.37 0.35 0.36 0.39 0.44 0.49 0.46 0.42 0.57 0.69 0.66 0.80 0.83 1.07 1.26 1.13 0.92 0.78 0.80 0.70 0.76 0.67

GFSGL_prec_precacc_132.txt.gz
Total_Precipitation_Accumulation
0.13 0.07 0.07 0.18 0.27 0.25 0.24 0.32 0.34 0.36 0.46 0.72 1.00 1.16 1.04 0.89 0.87 0.93 0.94 1.03 1.22 1.24 1.26 1.25 1.13 1.19 1.48 1.55 1.51 1.56 1.72 1.94 2.10 1.47 1.05 0.96 0.91 0.84 0.86 0.83 0.75 0.63 0.59
0.08 0.04 0.04 0.06 0.06 0.08 0.07 0.07 0.06 0.05 0.06 0.09 0.14 0.22 0.30 0.47 0.60 0.62 0.64 0.68 0.74 0.82 0.89 1.02 0.97 0.96 0.99 0.97 1.03 1.13 1.24 1.36 1.63 1.46 1.08 1.05 1.02 0.96 0.95 0.94 0.89 0.83 0.76
0.06 0.06 0.05 0.04 0.04 0.06 0.07 0.07 0.07 0.07 0.08 0.07 0.05 0.05 0.06 0.06 0.07 0.11 0.20 0.33 0.47 0.60 0.69 0.70 0.66 0.77 0.82 0.93 1.07 1.21 1.27 1.40 1.58 1.59 1.25 1.08 1.01 0.98 1.02 0.99 0.94 0.90 0.84
0.11 0.08 0.06 0.08 0.07 0.07 0.06 0.06 0.06 0.07 0.07 0.06 0.08 0.08 0.07 0.06 0.08 0.13 0.17 0.20 0.23 0.28 0.36 0.48 0.58 0.72 0.84 0.97 1.05 1.04 1.10 1.22 1.23 1.23 1.04 0.78 0.61 0.57 0.67 0.62 0.56 0.51 0.49
0.16 0.13 0.10 0.08 0.09 0.07 0.05 0.07 0.07 0.06 0.06 0.04 0.08 0.15 0.17 0.17 0.16 0.13 0.13 0.14 0.18 0.23 0.27 0.31 0.33 0.46 0.57 0.62 0.77 0.86 1.00 1.17 1.30 1.29 1.03 0.78 0.53 0.35 0.29 0.26 0.33 0.31 0.34
0.11 0.11 0.08 0.08 0.08 0.09 0.08 0.05 0.08 0.08 0.08 0.12 0.11 0.11 0.14 0.18 0.36 0.28 0.18 0.16 0.18 0.23 0.28 0.36 0.45 0.59 0.53 0.51 0.46 0.42 0.42 0.59 0.76 0.84 0.85 0.71 0.56 0.51 0.57 0.61 0.61 0.57 0.47
0.15 0.17 0.17 0.13 0.20 0.20 0.15 0.13 0.11 0.15 0.24 0.23 0.22 0.26 0.25 0.24 0.35 0.29 0.34 0.36 0.42 0.47 0.48 0.45 0.37 0.35 0.35 0.29 0.29 0.31 0.34 0.34 0.36 0.32 0.28 0.20 0.21 0.26 0.42 0.54 0.55 0.51 0.40
0.22 0.33 0.57 0.48 0.52 0.60 0.75 0.63 0.64 0.52 0.46 0.54 0.56 0.58 0.64 0.76 0.80 0.68 0.55 0.44 0.46 0.48 0.45 0.40 0.33 0.26 0.19 0.14 0.16 0.21 0.11 0.08 0.13 0.19 0.20 0.27 0.38 0.42 0.54 0.70 0.60 0.52 0.46
0.63 0.81 0.80 0.70 0.74 0.84 1.06 1.14 0.80 0.97 0.78 0.78 0.68 0.55 0.60 0.71 0.67 0.50 0.45 0.39 0.29 0.19 0.14 0.07 0.03 0.03 0.05 0.09 0.09 0.05 0.02 0.02 0.09 0.16 0.24 0.30 0.34 0.35 0.33 0.42 0.60 0.69 0.65
0.79 0.81 0.88 0.75 0.73 0.89 0.99 0.98 0.72 0.61 0.66 0.58 0.63 0.60 0.51 0.43 0.31 0.20 0.11 0.08 0.05 0.02 0.00 0.00 0.02 0.02 0.06 0.10 0.06 0.02 0.03 0.01 0.06 0.06 0.06 0.08 0.11 0.16 0.23 0.23 0.30 0.55 0.44
0.86 0.88 0.70 0.73 0.45 0.61 0.69 0.62 0.47 0.37 0.42 0.43 0.39 0.32 0.22 0.14 0.07 0.03 0.03 0.02 0.01 0.02 0.01 0.01 0.00 0.05 0.09 0.09 0.09 0.05 0.07 0.10 0.08 0.06 0.06 0.07 0.07 0.09 0.11 0.12 0.13 0.39 0.62
0.44 0.46 0.31 0.26 0.23 0.18 0.19 0.27 0.24 0.14 0.10 0.04 0.01 0.00 0.00 0.00 0.01 0.02 0.03 0.05 0.06 0.03 0.03 0.02 0.03 0.10 0.11 0.10 0.09 0.06 0.11 0.11 0.05 0.04 0.04 0.07 0.10 0.10 0.10 0.10 0.12 0.14 0.21
0.02 0.01 0.02 0.02 0.02 0.01 0.00 0.00 0.00 0.00 0.00 0.00 0.00 0.00 0.00 0.00 0.00 0.04 0.05 0.08 0.10 0.09 0.05 0.08 0.10 0.14 0.12 0.09 0.07 0.07 0.11 0.07 0.05 0.09 0.10 0.09 0.08 0.08 0.14 0.21 0.23 0.21 0.22
0.01 0.00 0.00 0.01 0.01 0.01 0.00 0.00 0.00 0.00 0.00 0.00 0.01 0.01 0.01 0.00 0.00 0.02 0.06 0.11 0.14 0.12 0.09 0.15 0.23 0.20 0.17 0.15 0.15 0.11 0.10 0.10 0.14 0.17 0.18 0.16 0.21 0.31 0.33 0.29 0.34 0.35 0.40
0.01 0.01 0.00 0.00 0.00 0.00 0.00 0.00 0.00 0.00 0.02 0.03 0.02 0.04 0.06 0.06 0.04 0.16 0.21 0.21 0.24 0.29 0.32 0.20 0.22 0.24 0.21 0.15 0.12 0.17 0.19 0.17 0.16 0.15 0.20 0.20 0.22 0.28 0.34 0.40 0.44 0.47 0.53
0.06 0.04 0.04 0.04 0.04 0.05 0.04 0.04 0.08 0.08 0.08 0.08 0.07 0.06 0.06 0.10 0.16 0.25 0.26 0.29 0.33 0.43 0.40 0.25 0.25 0.17 0.15 0.20 0.25 0.27 0.23 0.26 0.25 0.24 0.21 0.26 0.34 0.34 0.37 0.35 0.41 0.57 0.64
0.15 0.13 0.13 0.14 0.09 0.07 0.06 0.07 0.10 0.15 0.16 0.11 0.09 0.09 0.09 0.08 0.12 0.16 0.20 0.26 0.38 0.58 0.43 0.13 0.11 0.16 0.24 0.24 0.23 0.35 0.38 0.28 0.39 0.50 0.61 0.60 0.60 0.60 0.56 0.49 0.47 0.54 0.53
0.13 0.22 0.16 0.16 0.17 0.17 0.18 0.19 0.18 0.17 0.15 0.15 0.21 0.23 0.16 0.16 0.17 0.17 0.20 0.29 0.30 0.37 0.28 0.16 0.12 0.11 0.13 0.31 0.43 0.40 0.44 0.55 0.62 0.66 0.80 0.85 0.87 0.89 0.74 0.61 0.54 0.65 0.68
0.06 0.09 0.13 0.16 0.16 0.22 0.17 0.18 0.21 0.21 0.19 0.19 0.20 0.33 0.26 0.31 0.35 0.32 0.31 0.29 0.16 0.11 0.12 0.12 0.11 0.16 0.19 0.25 0.36 0.54 0.62 0.59 0.61 0.70 0.69 0.73 0.73 0.91 0.72 0.57 0.60 0.58 0.63
0.03 0.12 0.15 0.09 0.13 0.16 0.16 0.20 0.18 0.17 0.20 0.20 0.18 0.18 0.29 0.48 0.40 0.28 0.21 0.17 0.15 0.12 0.12 0.14 0.10 0.10 0.17 0.29 0.38 0.48 0.56 0.56 0.58 0.53 0.50 0.57 0.61 0.75 0.76 0.65 0.63 0.73 0.53
0.06 0.10 0.20 0.12 0.10 0.12 0.15 0.16 0.14 0.18 0.17 0.15 0.16 0.30 0.52 0.50 0.32 0.22 0.18 0.16 0.13 0.13 0.17 0.24 0.21 0.18 0.19 0.26 0.37 0.42 0.42 0.38 0.41 0.49 0.53 0.54 0.61 0.71 0.51 0.62 0.68 0.68 0.66
0.07 0.10 0.13 0.12 0.12 0.14 0.14 0.13 0.14 0.15 0.13 0.14 0.11 0.34 0.68 0.40 0.20 0.19 0.19 0.17 0.18 0.22 0.27 0.35 0.35 0.28 0.33 0.44 0.45 0.45 0.35 0.31 0.35 0.55 0.54 0.50 0.61 0.64 0.60 0.69 0.74 0.76 0.67
0.14 0.16 0.15 0.15 0.13 0.21 0.28 0.15 0.11 0.12 0.13 0.12 0.12 0.17 0.35 0.35 0.20 0.18 0.17 0.18 0.23 0.27 0.27 0.31 0.34 0.29 0.25 0.39 0.52 0.65 0.63 0.38 0.43 0.70 0.91 0.69 0.62 0.67 0.81 0.91 0.82 0.74 0.55
0.22 0.18 0.16 0.13 0.18 0.25 0.24 0.23 0.22 0.29 0.26 0.20 0.17 0.17 0.19 0.22 0.23 0.21 0.23 0.25 0.28 0.27 0.29 0.31 0.32 0.35 0.33 0.36 0.44 0.51 0.62 0.65 0.88 1.01 1.32 1.55 1.24 0.94 0.91 0.84 0.72 0.65 0.64
0.19 0.24 0.29 0.29 0.34 0.37 0.32 0.28 0.22 0.21 0.23 0.20 0.18 0.19 0.19 0.22 0.22 0.19 0.24 0.31 0.32 0.31 0.28 0.30 0.35 0.39 0.40 0.44 0.44 0.46 0.64 0.78 1.09 1.28 1.35 1.24 1.09 0.89 0.81 0.77 0.69 0.73 0.63
0.30 0.36 0.40 0.39 0.34 0.30 0.30 0.30 0.27 0.28 0.30 0.26 0.24 0.21 0.21 0.21 0.19 0.21 0.23 0.31 0.35 0.37 0.35 0.36 0.39 0.44 0.49 0.46 0.42 0.57 0.69 0.67 0.81 0.85 1.10 1.30 1.16 0.94 0.81 0.83 0.73 0.80 0.70

GFSGL_prec_precacc_135.txt.gz
Total_Precipitation_Accumulation
0.13 0.07 0.07 0.18 0.27 0.25 0.24 0.32 0.34 0.36 0.46 0.72 1.00 1.16 1.04 0.89 0.87 0.93 0.94 1.03 1.22 1.24 1.26 1.25 1.13 1.19 1.48 1.55 1.51 1.56 1.72 1.94 2.10 1.47 1.05 0.96 0.91 0.84 0.86 0.83 0.75 0.63 0.59
0.08 0.04 0.04 0.06 0.06 0.08 0.07 0.07 0.06 0.05 0.06 0.09 0.14 0.22 0.30 0.47 0.60 0.62 0.64 0.68 0.74 0.82 0.89 1.02 0.97 0.96 0.99 0.97 1.03 1.13 1.24 1.36 1.63 1.46 1.08 1.05 1.02 0.96 0.95 0.94 0.89 0.83 0.76
0.06 0.06 0.05 0.04 0.04 0.06 0.07 0.07 0.07 0.07 0.08 0.07 0.05 0.05 0.06 0.06 0.07 0.11 0.20 0.33 0.47 0.60 0.69 0.70 0.66 0.77 0.82 0.93 1.07 1.21 1.27 1.40 1.58 1.59 1.25 1.08 1.01 0.98 1.02 0.99 0.94 0.90 0.84
0.11 0.08 0.06 0.08 0.07 0.07 0.06 0.06 0.06 0.07 0.07 0.06 0.08 0.08 0.07 0.06 0.08 0.13 0.17 0.20 0.23 0.28 0.36 0.48 0.58 0.72 0.84 0.97 1.05 1.04 1.10 1.22 1.23 1.23 1.04 0.78 0.61 0.57 0.67 0.62 0.56 0.51 0.49
0.16 0.13 0.10 0.08 0.09 0.07 0.05 0.07 0.07 0.06 0.06 0.04 0.08 0.15 0.17 0.17 0.16 0.13 0.13 0.14 0.18 0.23 0.27 0.31 0.33 0.46 0.57 0.62 0.77 0.86 1.00 1.17 1.30 1.29 1.03 0.78 0.53 0.35 0.29 0.26 0.33 0.31 0.34
0.11 0.11 0.08 0.08 0.08 0.09 0.08 0.05 0.08 0.08 0.08 0.12 0.11 0.11 0.14 0.18 0.36 0.28 0.18 0.16 0.18 0.23 0.28 0.36 0.45 0.59 0.53 0.51 0.46 0.42 0.42 0.59 0.76 0.84 0.85 0.71 0.56 0.51 0.57 0.61 0.61 0.57 0.47
0.15 0.17 0.17 0.13 0.20 0.20 0.15 0.13 0.11 0.15 0.24 0.23 0.22 0.26 0.25 0.24 0.35 0.29 0.34 0.36 0.42 0.47 0.48 0.45 0.37 0.35 0.35 0.29 0.29 0.31 0.34 0.34 0.36 0.32 0.28 0.20 0.21 0.26 0.42 0.54 0.55 0.52 0.41
0.22 0.33 0.57 0.48 0.52 0.60 0.75 0.63 0.64 0.52 0.46 0.54 0.56 0.58 0.64 0.76 0.80 0.68 0.55 0.44 0.46 0.48 0.45 0.40 0.33 0.26 0.19 0.14 0.16 0.21 0.11 0.08 0.13 0.19 0.20 0.27 0.38 0.42 0.55 0.71 0.61 0.53 0.46
0.63 0.81 0.80 0.70 0.74 0.84 1.06 1.14 0.80 0.97 0.78 0.78 0.68 0.55 0.60 0.71 0.67 0.50 0.45 0.39 0.29 0.19 0.14 0.07 0.03 0.03 0.05 0.09 0.09 0.05 0.02 0.02 0.09 0.16 0.24 0.30 0.34 0.36 0.34 0.43 0.60 0.69 0.66
0.79 0.81 0.88 0.75 0.73 0.89 0.99 0.98 0.72 0.61 0.66 0.58 0.63 0.60 0.51 0.43 0.31 0.20 0.11 0.08 0.05 0.02 0.00 0.00 0.02 0.02 0.06 0.10 0.06 0.02 0.03 0.01 0.06 0.06 0.06 0.08 0.11 0.16 0.23 0.23 0.30 0.56 0.44
0.86 0.88 0.70 0.73 0.45 0.61 0.69 0.62 0.47 0.37 0.42 0.43 0.40 0.33 0.22 0.14 0.07 0.03 0.03 0.02 0.01 0.02 0.01 0.01 0.00 0.05 0.09 0.09 0.09 0.05 0.08 0.10 0.08 0.06 0.06 0.07 0.07 0.09 0.11 0.12 0.13 0.39 0.62
0.44 0.46 0.31 0.26 0.23 0.18 0.19 0.27 0.24 0.14 0.10 0.05 0.02 0.00 0.00 0.00 0.01 0.02 0.03 0.05 0.06 0.03 0.03 0.02 0.03 0.10 0.11 0.10 0.09 0.07 0.11 0.11 0.05 0.04 0.04 0.07 0.10 0.10 0.10 0.10 0.12 0.14 0.21
0.02 0.01 0.02 0.02 0.02 0.01 0.00 0.00 0.00 0.00 0.00 0.01 0.01 0.00 0.00 0.00 0.00 0.04 0.05 0.08 0.10 0.09 0.05 0.08 0.10 0.14 0.13 0.09 0.08 0.07 0.11 0.07 0.05 0.09 0.10 0.09 0.08 0.08 0.14 0.21 0.23 0.22 0.22
0.01 0.00 0.00 0.01 0.01 0.01 0.00 0.00 0.00 0.00 0.00 0.00 0.01 0.01 0.01 0.00 0.00 0.02 0.06 0.11 0.14 0.12 0.09 0.15 0.23 0.20 0.17 0.15 0.15 0.11 0.10 0.10 0.14 0.17 0.18 0.16 0.21 0.31 0.33 0.29 0.35 0.35 0.41
0.01 0.01 0.00 0.00 0.00 0.00 0.00 0.00 0.00 0.00 0.02 0.03 0.02 0.04 0.06 0.06 0.04 0.16 0.21 0.21 0.24 0.29 0.32 0.20 0.22 0.24 0.21 0.15 0.12 0.17 0.19 0.17 0.16 0.15 0.20 0.20 0.22 0.28 0.34 0.40 0.45 0.47 0.54
0.06 0.04 0.04 0.04 0.04 0.05 0.04 0.04 0.08 0.08 0.08 0.08 0.08 0.07 0.06 0.10 0.16 0.25 0.26 0.29 0.33 0.43 0.40 0.25 0.25 0.17 0.15 0.20 0.25 0.27 0.23 0.26 0.25 0.24 0.21 0.26 0.35 0.35 0.37 0.35 0.41 0.57 0.64
0.15 0.13 0.13 0.14 0.09 0.07 0.06 0.07 0.10 0.15 0.17 0.13 0.11 0.10 0.09 0.08 0.12 0.16 0.20 0.26 0.38 0.58 0.43 0.13 0.11 0.16 0.24 0.24 0.23 0.35 0.38 0.28 0.39 0.50 0.62 0.60 0.60 0.60 0.57 0.49 0.47 0.55 0.54
0.13 0.22 0.16 0.16 0.17 0.17 0.18 0.19 0.18 0.18 0.18 0.17 0.22 0.23 0.16 0.16 0.17 0.17 0.20 0.29 0.30 0.37 0.28 0.16 0.12 0.11 0.13 0.31 0.43 0.40 0.44 0.55 0.62 0.66 0.81 0.85 0.87 0.89 0.74 0.62 0.55 0.65 0.69
0.06 0.09 0.13 0.16 0.16 0.22 0.17 0.18 0.22 0.23 0.21 0.19 0.20 0.33 0.26 0.31 0.35 0.32 0.31 0.29 0.16 0.11 0.12 0.12 0.11 0.16 0.19 0.25 0.36 0.54 0.62 0.59 0.61 0.71 0.69 0.73 0.74 0.93 0.73 0.58 0.61 0.59 0.64
0.03 0.12 0.15 0.09 0.13 0.16 0.16 0.20 0.20 0.19 0.20 0.20 0.18 0.18 0.29 0.48 0.40 0.28 0.21 0.17 0.15 0.12 0.12 0.14 0.10 0.10 0.17 0.29 0.38 0.48 0.57 0.57 0.58 0.53 0.50 0.57 0.62 0.76 0.78 0.66 0.63 0.74 0.54
0.06 0.10 0.20 0.12 0.10 0.12 0.15 0.16 0.15 0.18 0.17 0.15 0.16 0.30 0.52 0.50 0.32 0.22 0.18 0.16 0.13 0.13 0.17 0.24 0.21 0.18 0.19 0.26 0.37 0.42 0.42 0.38 0.41 0.50 0.54 0.54 0.61 0.72 0.53 0.64 0.69 0.70 0.67
0.07 0.10 0.13 0.12 0.12 0.14 0.14 0.13 0.14 0.15 0.13 0.14 0.11 0.34 0.68 0.40 0.20 0.19 0.19 0.17 0.18 0.22 0.27 0.35 0.35 0.28 0.33 0.44 0.46 0.45 0.36 0.32 0.36 0.55 0.54 0.51 0.62 0.65 0.62 0.71 0.75 0.78 0.69
0.14 0.16 0.15 0.15 0.13 0.21 0.28 0.15 0.11 0.12 0.13 0.12 0.12 0.17 0.35 0.35 0.20 0.18 0.17 0.18 0.23 0.27 0.27 0.31 0.34 0.29 0.25 0.39 0.52 0.65 0.64 0.38 0.43 0.71 0.92 0.70 0.62 0.67 0.82 0.94 0.85 0.77 0.58
0.23 0.18 0.16 0.13 0.18 0.25 0.24 0.23 0.22 0.29 0.26 0.20 0.17 0.17 0.19 0.22 0.23 0.21 0.23 0.25 0.28 0.27 0.29 0.31 0.32 0.35 0.33 0.36 0.44 0.51 0.62 0.66 0.89 1.02 1.34 1.57 1.26 0.96 0.95 0.90 0.76 0.68 0.67
0.21 0.26 0.30 0.29 0.34 0.37 0.32 0.28 0.22 0.22 0.25 0.21 0.18 0.19 0.19 0.22 0.22 0.19 0.24 0.31 0.32 0.31 0.28 0.30 0.35 0.39 0.40 0.44 0.44 0.46 0.64 0.78 1.11 1.31 1.40 1.29 1.15 0.93 0.85 0.79 0.71 0.76 0.65
0.32 0.38 0.41 0.40 0.34 0.30 0.30 0.30 0.29 0.32 0.34 0.29 0.25 0.21 0.21 0.21 0.19 0.21 0.23 0.31 0.35 0.37 0.35 0.36 0.39 0.44 0.49 0.46 0.42 0.57 0.69 0.67 0.82 0.87 1.14 1.34 1.20 0.97 0.83 0.85 0.74 0.82 0.72

GFSGL_prec_precacc_138.txt.gz
Total_Precipitation_Accumulation
0.13 0.07 0.07 0.18 0.27 0.25 0.24 0.32 0.34 0.36 0.46 0.72 1.00 1.16 1.04 0.89 0.87 0.93 0.94 1.03 1.22 1.24 1.26 1.25 1.13 1.19 1.48 1.55 1.51 1.56 1.72 1.94 2.10 1.47 1.05 0.96 0.91 0.84 0.86 0.83 0.75 0.63 0.59
0.08 0.04 0.04 0.06 0.06 0.08 0.07 0.07 0.06 0.05 0.06 0.09 0.14 0.22 0.30 0.47 0.60 0.62 0.64 0.68 0.74 0.82 0.89 1.02 0.97 0.96 0.99 0.97 1.03 1.13 1.24 1.36 1.63 1.46 1.08 1.05 1.02 0.96 0.95 0.94 0.89 0.83 0.76
0.06 0.06 0.05 0.04 0.04 0.06 0.07 0.07 0.07 0.07 0.08 0.07 0.05 0.05 0.06 0.06 0.07 0.11 0.20 0.33 0.47 0.60 0.69 0.70 0.66 0.77 0.82 0.93 1.07 1.21 1.27 1.40 1.58 1.59 1.25 1.08 1.01 0.98 1.02 0.99 0.94 0.90 0.84
0.11 0.08 0.06 0.08 0.07 0.07 0.06 0.06 0.06 0.07 0.07 0.06 0.08 0.08 0.07 0.06 0.08 0.13 0.17 0.20 0.23 0.28 0.36 0.48 0.58 0.72 0.84 0.97 1.05 1.04 1.10 1.22 1.23 1.23 1.04 0.78 0.61 0.57 0.67 0.62 0.56 0.51 0.49
0.16 0.13 0.10 0.08 0.09 0.07 0.05 0.07 0.07 0.06 0.06 0.04 0.08 0.15 0.17 0.17 0.16 0.13 0.13 0.14 0.18 0.23 0.27 0.31 0.33 0.46 0.57 0.62 0.77 0.86 1.00 1.17 1.30 1.29 1.03 0.78 0.53 0.35 0.29 0.26 0.33 0.31 0.34
0.11 0.11 0.08 0.08 0.08 0.09 0.08 0.05 0.08 0.08 0.08 0.12 0.11 0.11 0.14 0.18 0.36 0.28 0.18 0.16 0.18 0.23 0.28 0.36 0.45 0.59 0.53 0.51 0.46 0.42 0.42 0.59 0.76 0.84 0.85 0.71 0.56 0.51 0.57 0.61 0.61 0.57 0.47
0.15 0.17 0.17 0.13 0.20 0.20 0.15 0.13 0.11 0.15 0.24 0.23 0.22 0.26 0.25 0.24 0.35 0.29 0.34 0.36 0.42 0.47 0.48 0.45 0.37 0.35 0.35 0.29 0.29 0.31 0.34 0.34 0.36 0.32 0.28 0.20 0.21 0.26 0.42 0.54 0.55 0.52 0.41
0.22 0.33 0.57 0.48 0.52 0.60 0.75 0.63 0.64 0.52 0.46 0.54 0.56 0.58 0.64 0.76 0.80 0.68 0.55 0.44 0.46 0.48 0.45 0.40 0.33 0.26 0.19 0.14 0.16 0.21 0.11 0.08 0.13 0.19 0.20 0.27 0.38 0.42 0.55 0.71 0.61 0.53 0.46
0.63 0.81 0.80 0.70 0.74 0.84 1.06 1.14 0.80 0.97 0.78 0.78 0.68 0.55 0.60 0.71 0.67 0.50 0.45 0.39 0.29 0.19 0.14 0.07 0.03 0.03 0.05 0.09 0.09 0.05 0.02 0.02 0.09 0.16 0.24 0.30 0.34 0.36 0.34 0.43 0.60 0.69 0.66
0.79 0.81 0.88 0.75 0.73 0.89 0.99 0.98 0.72 0.61 0.66 0.58 0.63 0.60 0.51 0.43 0.32 0.20 0.11 0.08 0.05 0.02 0.00 0.00 0.02 0.02 0.06 0.10 0.06 0.02 0.03 0.01 0.06 0.06 0.06 0.08 0.11 0.16 0.23 0.23 0.30 0.56 0.44
0.86 0.88 0.70 0.73 0.45 0.61 0.69 0.62 0.47 0.37 0.42 0.43 0.40 0.33 0.23 0.15 0.08 0.04 0.03 0.02 0.01 0.02 0.01 0.01 0.00 0.05 0.09 0.09 0.09 0.06 0.08 0.10 0.08 0.06 0.06 0.07 0.07 0.09 0.11 0.12 0.13 0.39 0.62
0.44 0.46 0.31 0.26 0.23 0.18 0.19 0.27 0.24 0.14 0.10 0.05 0.02 0.01 0.01 0.02 0.03 0.02 0.03 0.05 0.06 0.03 0.03 0.02 0.03 0.10 0.11 0.10 0.10 0.07 0.12 0.11 0.05 0.04 0.04 0.07 0.10 0.10 0.10 0.10 0.12 0.14 0.21
0.02 0.01 0.02 0.02 0.02 0.01 0.00 0.00 0.00 0.00 0.00 0.01 0.01 0.01 0.02 0.02 0.02 0.04 0.05 0.08 0.10 0.09 0.05 0.08 0.10 0.14 0.13 0.09 0.08 0.07 0.11 0.07 0.05 0.09 0.10 0.09 0.08 0.08 0.14 0.21 0.23 0.22 0.22
0.01 0.00 0.00 0.01 0.01 0.01 0.00 0.00 0.00 0.00 0.00 0.01 0.01 0.02 0.02 0.01 0.00 0.02 0.06 0.11 0.14 0.12 0.09 0.15 0.23 0.20 0.17 0.15 0.15 0.12 0.10 0.10 0.14 0.17 0.18 0.16 0.21 0.31 0.33 0.29 0.35 0.35 0.41
0.01 0.01 0.00 0.00 0.00 0.00 0.00 0.00 0.00 0.00 0.02 0.03 0.02 0.04 0.06 0.06 0.04 0.17 0.21 0.21 0.24 0.29 0.32 0.20 0.22 0.24 0.21 0.15 0.12 0.17 0.19 0.17 0.16 0.15 0.20 0.20 0.22 0.28 0.34 0.40 0.45 0.48 0.54
0.06 0.04 0.04 0.04 0.04 0.05 0.04 0.04 0.08 0.08 0.08 0.08 0.08 0.07 0.06 0.10 0.16 0.25 0.26 0.29 0.33 0.43 0.40 0.25 0.25 0.17 0.15 0.20 0.25 0.27 0.23 0.26 0.25 0.24 0.21 0.26 0.35 0.35 0.37 0.35 0.41 0.58 0.65
0.15 0.13 0.13 0.14 0.09 0.07 0.06 0.07 0.10 0.15 0.17 0.13 0.11 0.10 0.09 0.08 0.12 0.16 0.20 0.26 0.38 0.58 0.43 0.13 0.11 0.16 0.24 0.24 0.23 0.35 0.38 0.28 0.39 0.50 0.62 0.60 0.61 0.60 0.57 0.50 0.48 0.55 0.54
0.13 0.22 0.16 0.16 0.17 0.17 0.18 0.19 0.18 0.18 0.18 0.17 0.22 0.23 0.17 0.17 0.17 0.17 0.20 0.29 0.30 0.37 0.28 0.16 0.12 0.11 0.13 0.31 0.43 0.40 0.44 0.55 0.62 0.66 0.81 0.85 0.87 0.90 0.75 0.62 0.55 0.66 0.69
0.06 0.09 0.13 0.16 0.16 0.22 0.17 0.18 0.22 0.23 0.21 0.19 0.20 0.34 0.27 0.33 0.35 0.32 0.31 0.29 0.16 0.11 0.12 0.12 0.11 0.16 0.19 0.25 0.36 0.54 0.62 0.59 0.61 0.71 0.69 0.73 0.74 0.94 0.74 0.58 0.61 0.59 0.65
0.03 0.12 0.15 0.09 0.13 0.16 0.16 0.20 0.20 0.19 0.20 0.20 0.19 0.18 0.31 0.50 0.41 0.28 0.21 0.17 0.15 0.12 0.12 0.14 0.10 0.10 0.17 0.29 0.38 0.48 0.57 0.57 0.59 0.53 0.50 0.58 0.62 0.77 0.79 0.67 0.64 0.75 0.54
0.06 0.10 0.20 0.12 0.10 0.12 0.15 0.16 0.15 0.18 0.18 0.16 0.17 0.31 0.53 0.51 0.32 0.22 0.18 0.16 0.13 0.13 0.17 0.24 0.21 0.18 0.19 0.26 0.37 0.42 0.42 0.38 0.42 0.50 0.54 0.55 0.62 0.73 0.53 0.65 0.70 0.71 0.68
0.08 0.11 0.13 0.12 0.12 0.14 0.14 0.13 0.14 0.15 0.14 0.16 0.12 0.35 0.69 0.40 0.20 0.19 0.19 0.17 0.18 0.22 0.27 0.35 0.35 0.28 0.33 0.44 0.46 0.45 0.36 0.32 0.36 0.56 0.55 0.51 0.62 0.66 0.62 0.72 0.76 0.79 0.70
0.18 0.17 0.17 0.16 0.15 0.23 0.28 0.15 0.11 0.12 0.14 0.14 0.14 0.19 0.38 0.36 0.20 0.18 0.17 0.18 0.23 0.27 0.27 0.31 0.34 0.29 0.25 0.39 0.52 0.65 0.64 0.38 0.43 0.72 0.94 0.70 0.63 0.68 0.83 0.95 0.85 0.79 0.61
0.27 0.23 0.22 0.17 0.21 0.28 0.26 0.24 0.23 0.29 0.26 0.21 0.20 0.21 0.22 0.23 0.24 0.21 0.23 0.25 0.28 0.27 0.29 0.31 0.32 0.35 0.33 0.36 0.44 0.51 0.62 0.66 0.90 1.04 1.35 1.59 1.27 0.96 0.96 0.92 0.80 0.73 0.70
0.24 0.29 0.33 0.32 0.37 0.40 0.34 0.29 0.23 0.22 0.25 0.23 0.22 0.24 0.23 0.24 0.23 0.19 0.24 0.31 0.32 0.31 0.28 0.30 0.35 0.39 0.40 0.44 0.44 0.46 0.64 0.78 1.11 1.32 1.42 1.32 1.17 0.96 0.89 0.83 0.73 0.78 0.67
0.32 0.39 0.42 0.42 0.37 0.33 0.33 0.32 0.29 0.32 0.34 0.30 0.28 0.26 0.24 0.23 0.20 0.21 0.23 0.31 0.35 0.37 0.35 0.36 0.39 0.44 0.49 0.46 0.42 0.57 0.69 0.67 0.82 0.88 1.17 1.38 1.24 1.00 0.85 0.87 0.75 0.84 0.74

GFSGL_prec_precacc_141.txt.gz
Total_Precipitation_Accumulation
0.13 0.07 0.07 0.18 0.27 0.25 0.24 0.32 0.34 0.36 0.46 0.72 1.00 1.16 1.04 0.89 0.87 0.93 0.94 1.03 1.22 1.24 1.26 1.25 1.13 1.19 1.48 1.55 1.51 1.56 1.72 1.94 2.10 1.47 1.05 0.96 0.91 0.84 0.86 0.83 0.75 0.63 0.59
0.08 0.04 0.04 0.06 0.06 0.08 0.07 0.07 0.06 0.05 0.06 0.09 0.14 0.22 0.30 0.47 0.60 0.62 0.64 0.68 0.74 0.82 0.89 1.02 0.97 0.96 0.99 0.97 1.03 1.13 1.24 1.36 1.63 1.46 1.08 1.05 1.02 0.96 0.95 0.94 0.89 0.83 0.76
0.06 0.06 0.05 0.04 0.04 0.06 0.07 0.07 0.07 0.07 0.08 0.07 0.05 0.05 0.06 0.06 0.07 0.11 0.20 0.33 0.47 0.60 0.69 0.70 0.66 0.77 0.82 0.93 1.07 1.21 1.27 1.40 1.58 1.59 1.25 1.08 1.01 0.98 1.02 0.99 0.94 0.90 0.84
0.11 0.08 0.06 0.08 0.07 0.07 0.06 0.06 0.06 0.07 0.07 0.06 0.08 0.08 0.07 0.06 0.08 0.13 0.17 0.20 0.23 0.28 0.36 0.48 0.58 0.72 0.84 0.97 1.05 1.04 1.10 1.22 1.23 1.23 1.04 0.78 0.61 0.57 0.67 0.62 0.56 0.51 0.49
0.16 0.13 0.10 0.08 0.09 0.07 0.05 0.07 0.07 0.06 0.06 0.04 0.08 0.15 0.17 0.17 0.16 0.13 0.13 0.14 0.18 0.23 0.27 0.31 0.33 0.46 0.57 0.62 0.77 0.86 1.00 1.17 1.30 1.29 1.03 0.78 0.53 0.35 0.29 0.26 0.33 0.31 0.34
0.11 0.11 0.08 0.08 0.08 0.09 0.08 0.05 0.08 0.08 0.08 0.12 0.11 0.11 0.14 0.18 0.36 0.28 0.18 0.16 0.18 0.23 0.28 0.36 0.45 0.59 0.53 0.51 0.46 0.42 0.42 0.59 0.76 0.84 0.85 0.71 0.56 0.51 0.57 0.61 0.61 0.57 0.47
0.15 0.17 0.17 0.13 0.20 0.20 0.15 0.13 0.11 0.15 0.24 0.23 0.22 0.26 0.25 0.24 0.35 0.29 0.34 0.36 0.42 0.47 0.48 0.45 0.37 0.35 0.35 0.29 0.29 0.31 0.34 0.34 0.36 0.32 0.28 0.20 0.21 0.26 0.42 0.54 0.55 0.52 0.41
0.22 0.33 0.57 0.48 0.52 0.60 0.75 0.63 0.64 0.52 0.46 0.54 0.56 0.58 0.64 0.76 0.80 0.68 0.55 0.44 0.46 0.48 0.45 0.40 0.33 0.26 0.19 0.14 0.16 0.21 0.11 0.08 0.13 0.19 0.20 0.27 0.38 0.42 0.55 0.71 0.61 0.53 0.46
0.63 0.81 0.80 0.70 0.74 0.84 1.06 1.14 0.80 0.97 0.78 0.78 0.68 0.55 0.60 0.71 0.67 0.50 0.45 0.39 0.29 0.19 0.14 0.07 0.03 0.03 0.05 0.09 0.09 0.05 0.02 0.02 0.09 0.16 0.24 0.30 0.34 0.36 0.34 0.43 0.60 0.69 0.66
0.79 0.81 0.88 0.75 0.73 0.89 0.99 0.98 0.72 0.61 0.66 0.58 0.63 0.60 0.51 0.43 0.32 0.20 0.12 0.08 0.06 0.02 0.00 0.00 0.02 0.02 0.06 0.10 0.06 0.02 0.03 0.01 0.06 0.06 0.06 0.08 0.11 0.16 0.23 0.23 0.30 0.56 0.44
0.86 0.88 0.70 0.73 0.45 0.61 0.69 0.62 0.47 0.37 0.42 0.43 0.40 0.33 0.23 0.15 0.08 0.05 0.04 0.04 0.02 0.02 0.01 0.01 0.00 0.05 0.09 0.09 0.09 0.06 0.08 0.10 0.08 0.06 0.06 0.07 0.07 0.09 0.11 0.12 0.13 0.39 0.62
0.44 0.46 0.31 0.26 0.23 0.18 0.19 0.27 0.24 0.14 0.10 0.05 0.02 0.01 0.01 0.02 0.04 0.05 0.07 0.08 0.08 0.04 0.03 0.02 0.03 0.10 0.11 0.10 0.10 0.07 0.12 0.12 0.05 0.04 0.04 0.07 0.10 0.10 0.10 0.10 0.12 0.14 0.21
0.02 0.01 0.02 0.02 0.02 0.01 0.00 0.00 0.00 0.00 0.00 0.01 0.01 0.01 0.02 0.02 0.03 0.07 0.08 0.09 0.10 0.09 0.05 0.08 0.10 0.14 0.13 0.09 0.08 0.07 0.11 0.07 0.05 0.09 0.10 0.09 0.08 0.08 0.14 0.21 0.23 0.22 0.22
0.01 0.00 0.00 0.01 0.01 0.01 0.00 0.00 0.00 0.00 0.00 0.01 0.01 0.02 0.02 0.02 0.02 0.03 0.07 0.11 0.14 0.12 0.09 0.15 0.23 0.20 0.17 0.15 0.15 0.12 0.10 0.10 0.14 0.17 0.18 0.16 0.21 0.31 0.33 0.29 0.35 0.35 0.41
0.01 0.01 0.00 0.00 0.00 0.00 0.00 0.00 0.00 0.00 0.02 0.03 0.02 0.04 0.06 0.07 0.04 0.17 0.22 0.21 0.24 0.29 0.32 0.20 0.22 0.24 0.21 0.15 0.12 0.17 0.19 0.17 0.16 0.15 0.20 0.20 0.22 0.28 0.34 0.40 0.45 0.48 0.55
0.06 0.04 0.04 0.04 0.04 0.05 0.04 0.04 0.08 0.08 0.08 0.08 0.08 0.07 0.06 0.10 0.16 0.25 0.26 0.29 0.33 0.43 0.40 0.25 0.25 0.17 0.15 0.20 0.25 0.27 0.23 0.26 0.25 0.24 0.21 0.26 0.35 0.35 0.37 0.35 0.42 0.58 0.65
0.15 0.13 0.13 0.14 0.09 0.07 0.06 0.07 0.10 0.15 0.17 0.13 0.11 0.10 0.09 0.08 0.13 0.16 0.20 0.27 0.38 0.58 0.43 0.13 0.11 0.16 0.24 0.24 0.23 0.35 0.38 0.28 0.39 0.50 0.62 0.60 0.61 0.61 0.58 0.50 0.48 0.55 0.55
0.13 0.22 0.16 0.16 0.17 0.17 0.18 0.19 0.18 0.18 0.18 0.17 0.22 0.23 0.17 0.17 0.20 0.20 0.23 0.31 0.30 0.37 0.28 0.16 0.12 0.11 0.13 0.31 0.43 0.40 0.44 0.55 0.62 0.66 0.81 0.85 0.88 0.90 0.75 0.62 0.55 0.66 0.69
0.06 0.09 0.13 0.16 0.16 0.22 0.17 0.18 0.22 0.23 0.21 0.19 0.20 0.34 0.28 0.37 0.44 0.39 0.35 0.31 0.17 0.11 0.12 0.12 0.11 0.16 0.19 0.25 0.36 0.54 0.62 0.59 0.61 0.71 0.70 0.74 0.74 0.95 0.75 0.58 0.61 0.60 0.66
0.03 0.12 0.15 0.09 0.13 0.16 0.16 0.20 0.20 0.19 0.20 0.20 0.19 0.19 0.34 0.60 0.48 0.31 0.25 0.19 0.16 0.12 0.12 0.14 0.10 0.10 0.17 0.29 0.38 0.48 0.57 0.57 0.59 0.53 0.50 0.58 0.62 0.78 0.80 0.67 0.64 0.76 0.55
0.06 0.10 0.21 0.13 0.10 0.13 0.16 0.17 0.15 0.18 0.18 0.16 0.17 0.31 0.56 0.59 0.36 0.24 0.20 0.17 0.13 0.13 0.17 0.24 0.21 0.18 0.19 0.26 0.37 0.42 0.42 0.38 0.42 0.50 0.54 0.55 0.62 0.74 0.54 0.65 0.70 0.71 0.69
0.09 0.11 0.14 0.13 0.13 0.16 0.16 0.15 0.16 0.16 0.14 0.16 0.13 0.36 0.74 0.48 0.23 0.22 0.21 0.18 0.18 0.22 0.27 0.35 0.35 0.28 0.33 0.44 0.46 0.45 0.36 0.32 0.36 0.56 0.55 0.51 0.62 0.66 0.63 0.72 0.76 0.79 0.70
0.18 0.18 0.17 0.17 0.17 0.27 0.31 0.17 0.14 0.14 0.15 0.14 0.15 0.21 0.43 0.43 0.23 0.20 0.20 0.19 0.23 0.27 0.27 0.31 0.34 0.29 0.25 0.39 0.52 0.65 0.64 0.38 0.43 0.72 0.94 0.71 0.63 0.68 0.84 0.96 0.86 0.79 0.62
0.27 0.23 0.22 0.18 0.22 0.30 0.28 0.26 0.25 0.31 0.28 0.22 0.20 0.22 0.23 0.28 0.30 0.24 0.26 0.27 0.28 0.27 0.29 0.31 0.32 0.35 0.33 0.36 0.44 0.51 0.62 0.66 0.90 1.04 1.36 1.60 1.27 0.96 0.97 0.93 0.81 0.75 0.74
0.24 0.30 0.34 0.33 0.39 0.41 0.37 0.31 0.25 0.24 0.27 0.24 0.23 0.24 0.24 0.27 0.28 0.24 0.27 0.32 0.33 0.31 0.28 0.30 0.35 0.39 0.40 0.44 0.44 0.46 0.64 0.78 1.11 1.33 1.43 1.33 1.18 0.96 0.91 0.86 0.75 0.80 0.68
0.33 0.40 0.43 0.44 0.39 0.35 0.35 0.35 0.31 0.33 0.35 0.31 0.30 0.26 0.24 0.24 0.22 0.23 0.25 0.31 0.35 0.37 0.35 0.36 0.39 0.44 0.49 0.46 0.42 0.57 0.69 0.67 0.82 0.88 1.19 1.41 1.26 1.02 0.88 0.89 0.77 0.85 0.75

GFSGL_prec_precacc_144.txt.gz
Total_Precipitation_Accumulation
0.13 0.07 0.07 0.18 0.27 0.25 0.24 0.32 0.34 0.36 0.46 0.72 1.00 1.16 1.04 0.89 0.87 0.93 0.94 1.03 1.22 1.24 1.26 1.25 1.13 1.19 1.48 1.55 1.51 1.56 1.72 1.94 2.10 1.47 1.05 0.96 0.91 0.84 0.86 0.83 0.75 0.63 0.59
0.08 0.04 0.04 0.06 0.06 0.08 0.07 0.07 0.06 0.05 0.06 0.09 0.14 0.22 0.30 0.47 0.60 0.62 0.64 0.68 0.74 0.82 0.89 1.02 0.97 0.96 0.99 0.97 1.03 1.13 1.24 1.36 1.63 1.46 1.08 1.05 1.02 0.96 0.95 0.94 0.89 0.83 0.76
0.06 0.06 0.05 0.04 0.04 0.06 0.07 0.07 0.07 0.07 0.08 0.07 0.05 0.05 0.06 0.06 0.07 0.11 0.20 0.33 0.47 0.60 0.69 0.70 0.66 0.77 0.82 0.93 1.07 1.21 1.27 1.40 1.58 1.59 1.25 1.08 1.01 0.98 1.02 0.99 0.94 0.90 0.84
0.11 0.08 0.06 0.08 0.07 0.07 0.06 0.06 0.06 0.07 0.07 0.06 0.08 0.08 0.07 0.06 0.08 0.13 0.17 0.20 0.23 0.28 0.36 0.48 0.58 0.72 0.84 0.97 1.05 1.04 1.10 1.22 1.23 1.23 1.04 0.78 0.61 0.57 0.67 0.62 0.56 0.51 0.49
0.16 0.13 0.10 0.08 0.09 0.07 0.05 0.07 0.07 0.06 0.06 0.04 0.08 0.15 0.17 0.17 0.16 0.13 0.13 0.14 0.18 0.23 0.27 0.31 0.33 0.46 0.57 0.62 0.77 0.86 1.00 1.17 1.30 1.29 1.03 0.78 0.53 0.35 0.29 0.26 0.33 0.31 0.34
0.11 0.11 0.08 0.08 0.08 0.09 0.08 0.05 0.08 0.08 0.08 0.12 0.11 0.11 0.14 0.18 0.36 0.28 0.18 0.16 0.18 0.23 0.28 0.36 0.45 0.59 0.53 0.51 0.46 0.42 0.42 0.59 0.76 0.84 0.85 0.71 0.56 0.51 0.57 0.61 0.61 0.57 0.47
0.15 0.17 0.17 0.13 0.20 0.20 0.15 0.13 0.11 0.15 0.24 0.23 0.22 0.26 0.25 0.24 0.35 0.29 0.34 0.36 0.42 0.47 0.48 0.45 0.37 0.35 0.35 0.29 0.29 0.31 0.34 0.34 0.36 0.32 0.28 0.20 0.21 0.26 0.42 0.54 0.55 0.52 0.41
0.22 0.33 0.57 0.48 0.52 0.60 0.75 0.63 0.64 0.52 0.46 0.54 0.56 0.58 0.64 0.76 0.80 0.68 0.55 0.44 0.46 0.48 0.45 0.40 0.33 0.26 0.19 0.14 0.16 0.21 0.11 0.08 0.13 0.19 0.20 0.27 0.38 0.42 0.55 0.71 0.61 0.53 0.46
0.63 0.81 0.80 0.70 0.74 0.84 1.06 1.14 0.80 0.97 0.78 0.78 0.68 0.55 0.60 0.71 0.67 0.50 0.45 0.39 0.29 0.19 0.14 0.07 0.03 0.03 0.05 0.09 0.09 0.05 0.02 0.02 0.09 0.16 0.24 0.30 0.34 0.36 0.34 0.43 0.60 0.69 0.66
0.79 0.81 0.88 0.75 0.73 0.89 0.99 0.98 0.72 0.61 0.66 0.58 0.63 0.60 0.51 0.43 0.32 0.20 0.12 0.08 0.06 0.02 0.01 0.00 0.02 0.02 0.06 0.10 0.06 0.02 0.03 0.01 0.06 0.06 0.06 0.08 0.11 0.16 0.23 0.23 0.30 0.56 0.44
0.86 0.88 0.70 0.73 0.45 0.61 0.69 0.62 0.47 0.37 0.42 0.43 0.40 0.33 0.23 0.15 0.08 0.05 0.04 0.04 0.02 0.03 0.02 0.01 0.00 0.05 0.09 0.09 0.09 0.06 0.08 0.10 0.08 0.06 0.06 0.07 0.07 0.09 0.11 0.12 0.13 0.39 0.62
0.44 0.46 0.31 0.26 0.23 0.18 0.19 0.27 0.24 0.14 0.10 0.05 0.02 0.01 0.01 0.02 0.04 0.05 0.07 0.08 0.08 0.06 0.03 0.02 0.03 0.10 0.11 0.10 0.10 0.07 0.12 0.12 0.05 0.04 0.04 0.07 0.10 0.10 0.10 0.10 0.12 0.14 0.21
0.02 0.01 0.02 0.02 0.02 0.01 0.00 0.00 0.00 0.00 0.00 0.01 0.01 0.01 0.02 0.02 0.03 0.07 0.08 0.09 0.11 0.10 0.05 0.08 0.10 0.14 0.13 0.09 0.08 0.07 0.11 0.07 0.05 0.09 0.10 0.09 0.08 0.08 0.14 0.21 0.23 0.22 0.22
0.01 0.00 0.00 0.01 0.01 0.01 0.00 0.00 0.00 0.00 0.00 0.01 0.01 0.02 0.02 0.02 0.02 0.03 0.07 0.11 0.14 0.13 0.10 0.16 0.23 0.20 0.17 0.15 0.15 0.12 0.10 0.10 0.14 0.17 0.18 0.16 0.21 0.31 0.33 0.29 0.35 0.35 0.41
0.01 0.01 0.00 0.00 0.00 0.00 0.00 0.00 0.00 0.00 0.02 0.03 0.02 0.04 0.06 0.07 0.04 0.17 0.22 0.22 0.25 0.30 0.33 0.20 0.22 0.24 0.21 0.15 0.12 0.17 0.19 0.17 0.16 0.15 0.20 0.20 0.22 0.28 0.34 0.40 0.45 0.48 0.55
0.06 0.04 0.04 0.04 0.04 0.05 0.04 0.04 0.08 0.08 0.08 0.08 0.08 0.07 0.06 0.10 0.16 0.25 0.28 0.33 0.36 0.46 0.43 0.25 0.25 0.17 0.15 0.20 0.25 0.27 0.23 0.26 0.25 0.24 0.21 0.26 0.35 0.35 0.37 0.35 0.42 0.59 0.66
0.15 0.13 0.13 0.14 0.09 0.07 0.06 0.07 0.10 0.15 0.17 0.13 0.11 0.10 0.09 0.08 0.14 0.18 0.24 0.33 0.42 0.62 0.45 0.13 0.11 0.16 0.24 0.24 0.23 0.35 0.38 0.28 0.39 0.50 0.62 0.60 0.61 0.61 0.58 0.51 0.48 0.56 0.55
0.13 0.22 0.16 0.16 0.17 0.17 0.18 0.19 0.19 0.19 0.20 0.17 0.22 0.23 0.17 0.18 0.22 0.24 0.30 0.38 0.34 0.39 0.29 0.16 0.13 0.11 0.13 0.31 0.43 0.40 0.44 0.55 0.62 0.66 0.81 0.85 0.88 0.90 0.76 0.63 0.55 0.67 0.70
0.06 0.09 0.13 0.16 0.16 0.23 0.17 0.19 0.23 0.24 0.22 0.19 0.20 0.34 0.28 0.40 0.48 0.46 0.42 0.37 0.18 0.13 0.14 0.14 0.12 0.16 0.19 0.25 0.36 0.54 0.62 0.59 0.61 0.71 0.70 0.74 0.75 0.95 0.76 0.59 0.62 0.60 0.67
0.03 0.12 0.15 0.09 0.14 0.16 0.16 0.21 0.21 0.20 0.22 0.21 0.20 0.19 0.34 0.63 0.54 0.35 0.29 0.24 0.19 0.16 0.15 0.16 0.10 0.10 0.17 0.29 0.38 0.48 0.57 0.57 0.59 0.53 0.50 0.58 0.63 0.78 0.80 0.67 0.65 0.76 0.55
0.06 0.10 0.21 0.13 0.11 0.13 0.16 0.17 0.16 0.20 0.20 0.18 0.18 0.32 0.57 0.62 0.39 0.27 0.23 0.21 0.17 0.17 0.21 0.26 0.21 0.18 0.19 0.26 0.37 0.42 0.42 0.38 0.42 0.50 0.54 0.55 0.62 0.75 0.54 0.66 0.71 0.71 0.70
0.09 0.11 0.14 0.13 0.14 0.16 0.17 0.16 0.17 0.18 0.16 0.18 0.14 0.37 0.75 0.52 0.25 0.24 0.25 0.23 0.24 0.26 0.29 0.37 0.36 0.28 0.33 0.44 0.46 0.45 0.36 0.32 0.36 0.56 0.55 0.52 0.63 0.67 0.63 0.73 0.77 0.80 0.71
0.18 0.18 0.17 0.17 0.17 0.28 0.33 0.17 0.16 0.16 0.16 0.16 0.17 0.23 0.44 0.46 0.26 0.21 0.22 0.23 0.28 0.30 0.29 0.32 0.34 0.29 0.25 0.39 0.52 0.65 0.64 0.38 0.43 0.72 0.94 0.71 0.63 0.69 0.84 0.96 0.86 0.80 0.62
0.27 0.24 0.23 0.18 0.23 0.31 0.29 0.27 0.26 0.32 0.30 0.24 0.22 0.24 0.26 0.30 0.32 0.25 0.27 0.32 0.33 0.29 0.30 0.31 0.32 0.35 0.33 0.36 0.44 0.51 0.62 0.66 0.90 1.04 1.36 1.60 1.28 0.97 0.98 0.94 0.81 0.76 0.74
0.25 0.31 0.35 0.34 0.40 0.43 0.38 0.32 0.26 0.24 0.28 0.26 0.26 0.27 0.26 0.29 0.29 0.25 0.28 0.36 0.37 0.33 0.28 0.30 0.35 0.39 0.40 0.44 0.44 0.46 0.64 0.78 1.11 1.33 1.43 1.33 1.19 0.97 0.91 0.87 0.76 0.81 0.69
0.33 0.41 0.45 0.45 0.41 0.36 0.37 0.37 0.33 0.35 0.36 0.32 0.31 0.28 0.26 0.26 0.23 0.26 0.27 0.33 0.37 0.38 0.36 0.36 0.39 0.44 0.49 0.46 0.42 0.57 0.69 0.67 0.82 0.88 1.19 1.42 1.28 1.03 0.89 0.91 0.78 0.87 0.76